<?xml version="1.0" encoding="UTF-8"?>
<gpx creator="Garmin Connect" version="1.1"
  xsi:schemaLocation="http://www.topografix.com/GPX/1/1 http://www.topografix.com/GPX/11.xsd"
  xmlns:ns3="http://www.garmin.com/xmlschemas/TrackPointExtension/v1"
  xmlns="http://www.topografix.com/GPX/1/1"
  xmlns:xsi="http://www.w3.org/2001/XMLSchema-instance" xmlns:ns2="http://www.garmin.com/xmlschemas/GpxExtensions/v3">
  <metadata>
    <name>STUPAVA MARATÓN - MTB 78 km</name>
    <link href="connect.garmin.com">
      <text>Garmin Connect</text>
    </link>
    <time>2023-06-13T11:26:40.000Z</time>
  </metadata>
  <trk>
    <name>STUPAVA MARATÓN - MTB 78 km</name>
    <trkseg>
      <trkpt lat="48.27895760536194" lon="17.04875349998474">
        <ele>185.49</ele>
        <time>2023-06-13T11:26:40.000Z</time>
      </trkpt>
      <trkpt lat="48.27895768918097" lon="17.04875349998474">
        <ele>194.79</ele>
        <time>2023-06-13T11:26:40.000Z</time>
      </trkpt>
      <trkpt lat="48.279097164049745" lon="17.049890756607056">
        <ele>196.49</ele>
        <time>2023-06-13T11:26:40.015Z</time>
      </trkpt>
      <trkpt lat="48.27917226590216" lon="17.050459384918213">
        <ele>197.65</ele>
        <time>2023-06-13T11:26:40.038Z</time>
      </trkpt>
      <trkpt lat="48.27940821647644" lon="17.0522940158844">
        <ele>198.93</ele>
        <time>2023-06-13T11:26:40.086Z</time>
      </trkpt>
      <trkpt lat="48.27963109128177" lon="17.05407802015543">
        <ele>202.07</ele>
        <time>2023-06-13T11:26:40.158Z</time>
      </trkpt>
      <trkpt lat="48.27963100746274" lon="17.054077936336398">
        <ele>202.07</ele>
        <time>2023-06-13T11:26:40.230Z</time>
      </trkpt>
      <trkpt lat="48.27963058836758" lon="17.054073410108685">
        <ele>202.07</ele>
        <time>2023-06-13T11:26:40.302Z</time>
      </trkpt>
      <trkpt lat="48.27963008545339" lon="17.054068883880973">
        <ele>202.07</ele>
        <time>2023-06-13T11:26:40.375Z</time>
      </trkpt>
      <trkpt lat="48.27973008155823" lon="17.054868936538696">
        <ele>203.67</ele>
        <time>2023-06-13T11:26:40.458Z</time>
      </trkpt>
      <trkpt lat="48.27973016537726" lon="17.054868936538696">
        <ele>203.5</ele>
        <time>2023-06-13T11:26:40.541Z</time>
      </trkpt>
      <trkpt lat="48.27990182675421" lon="17.05626368522644">
        <ele>203.29</ele>
        <time>2023-06-13T11:26:40.643Z</time>
      </trkpt>
      <trkpt lat="48.27994465827942" lon="17.056671380996704">
        <ele>202.75</ele>
        <time>2023-06-13T11:26:40.751Z</time>
      </trkpt>
      <trkpt lat="48.27996611595154" lon="17.05673575401306">
        <ele>202.39</ele>
        <time>2023-06-13T11:26:40.860Z</time>
      </trkpt>
      <trkpt lat="48.27969789505005" lon="17.056875228881836">
        <ele>202.05</ele>
        <time>2023-06-13T11:26:40.975Z</time>
      </trkpt>
      <trkpt lat="48.2794189453125" lon="17.05698251724243">
        <ele>201.83</ele>
        <time>2023-06-13T11:26:41.095Z</time>
      </trkpt>
      <trkpt lat="48.27922582626343" lon="17.057089805603027">
        <ele>201.55</ele>
        <time>2023-06-13T11:26:41.219Z</time>
      </trkpt>
      <trkpt lat="48.279064893722534" lon="17.05724000930786">
        <ele>201.27</ele>
        <time>2023-06-13T11:26:41.347Z</time>
      </trkpt>
      <trkpt lat="48.27892541885376" lon="17.057411670684814">
        <ele>201.05</ele>
        <time>2023-06-13T11:26:41.479Z</time>
      </trkpt>
      <trkpt lat="48.278818214312196" lon="17.057572603225708">
        <ele>200.97</ele>
        <time>2023-06-13T11:26:41.614Z</time>
      </trkpt>
      <trkpt lat="48.278818130493164" lon="17.057572603225708">
        <ele>200.96</ele>
        <time>2023-06-13T11:26:41.749Z</time>
      </trkpt>
      <trkpt lat="48.27824958600104" lon="17.05851674079895">
        <ele>201.04</ele>
        <time>2023-06-13T11:26:41.901Z</time>
      </trkpt>
      <trkpt lat="48.27824950218201" lon="17.05851674079895">
        <ele>201.19</ele>
        <time>2023-06-13T11:26:42.053Z</time>
      </trkpt>
      <trkpt lat="48.27809929847717" lon="17.05877423286438">
        <ele>201.5</ele>
        <time>2023-06-13T11:26:42.209Z</time>
      </trkpt>
      <trkpt lat="48.27800282277167" lon="17.058967351913452">
        <ele>201.84</ele>
        <time>2023-06-13T11:26:42.369Z</time>
      </trkpt>
      <trkpt lat="48.27800273895264" lon="17.058967351913452">
        <ele>202.21</ele>
        <time>2023-06-13T11:26:42.529Z</time>
      </trkpt>
      <trkpt lat="48.27720880508423" lon="17.06080198287964">
        <ele>202.75</ele>
        <time>2023-06-13T11:26:42.718Z</time>
      </trkpt>
      <trkpt lat="48.276307582855225" lon="17.062679529190063">
        <ele>203.49</ele>
        <time>2023-06-13T11:26:42.938Z</time>
      </trkpt>
      <trkpt lat="48.27610373497009" lon="17.06302285194397">
        <ele>204.02</ele>
        <time>2023-06-13T11:26:43.164Z</time>
      </trkpt>
      <trkpt lat="48.27591061592102" lon="17.063312530517578">
        <ele>204.64</ele>
        <time>2023-06-13T11:26:43.395Z</time>
      </trkpt>
      <trkpt lat="48.27568623237312" lon="17.063587540760636">
        <ele>204.96</ele>
        <time>2023-06-13T11:26:43.632Z</time>
      </trkpt>
      <trkpt lat="48.27568640001118" lon="17.063587456941605">
        <ele>204.97</ele>
        <time>2023-06-13T11:26:43.869Z</time>
      </trkpt>
      <trkpt lat="48.275686567649245" lon="17.06358728930354">
        <ele>204.98</ele>
        <time>2023-06-13T11:26:44.106Z</time>
      </trkpt>
      <trkpt lat="48.27568681910634" lon="17.063587121665478">
        <ele>204.98</ele>
        <time>2023-06-13T11:26:44.343Z</time>
      </trkpt>
      <trkpt lat="48.275686986744404" lon="17.063587037846446">
        <ele>204.99</ele>
        <time>2023-06-13T11:26:44.580Z</time>
      </trkpt>
      <trkpt lat="48.27567458152771" lon="17.063602209091187">
        <ele>206.25</ele>
        <time>2023-06-13T11:26:44.817Z</time>
      </trkpt>
      <trkpt lat="48.27512741088867" lon="17.064170837402344">
        <ele>207.11</ele>
        <time>2023-06-13T11:26:45.068Z</time>
      </trkpt>
      <trkpt lat="48.27452667988837" lon="17.06477165222168">
        <ele>207.92</ele>
        <time>2023-06-13T11:26:45.333Z</time>
      </trkpt>
      <trkpt lat="48.274526596069336" lon="17.06477165222168">
        <ele>208.57</ele>
        <time>2023-06-13T11:26:45.598Z</time>
      </trkpt>
      <trkpt lat="48.27344298362732" lon="17.065908908843994">
        <ele>209.55</ele>
        <time>2023-06-13T11:26:45.890Z</time>
      </trkpt>
      <trkpt lat="48.272552490234375" lon="17.066681385040283">
        <ele>210.61</ele>
        <time>2023-06-13T11:26:46.202Z</time>
      </trkpt>
      <trkpt lat="48.2724130153656" lon="17.066831588745117">
        <ele>211.01</ele>
        <time>2023-06-13T11:26:46.518Z</time>
      </trkpt>
      <trkpt lat="48.27160835266113" lon="17.067872285842896">
        <ele>211.87</ele>
        <time>2023-06-13T11:26:46.855Z</time>
      </trkpt>
      <trkpt lat="48.271039724349976" lon="17.06847310066223">
        <ele>212.67</ele>
        <time>2023-06-13T11:26:47.206Z</time>
      </trkpt>
      <trkpt lat="48.27073931694031" lon="17.068816423416138">
        <ele>213.17</ele>
        <time>2023-06-13T11:26:47.565Z</time>
      </trkpt>
      <trkpt lat="48.27011704444885" lon="17.069642543792725">
        <ele>214.32</ele>
        <time>2023-06-13T11:26:47.940Z</time>
      </trkpt>
      <trkpt lat="48.26921582221985" lon="17.070897817611694">
        <ele>214.83</ele>
        <time>2023-06-13T11:26:48.340Z</time>
      </trkpt>
      <trkpt lat="48.26917299069464" lon="17.07096219062805">
        <ele>215.5</ele>
        <time>2023-06-13T11:26:48.741Z</time>
      </trkpt>
      <trkpt lat="48.26862573623657" lon="17.0717990398407">
        <ele>216.7</ele>
        <time>2023-06-13T11:26:49.158Z</time>
      </trkpt>
      <trkpt lat="48.268293142318726" lon="17.07229256629944">
        <ele>217.37</ele>
        <time>2023-06-13T11:26:49.584Z</time>
      </trkpt>
      <trkpt lat="48.268057107925415" lon="17.072603702545166">
        <ele>218.15</ele>
        <time>2023-06-13T11:26:50.016Z</time>
      </trkpt>
      <trkpt lat="48.26738119125366" lon="17.073429822921753">
        <ele>219.42</ele>
        <time>2023-06-13T11:26:50.466Z</time>
      </trkpt>
      <trkpt lat="48.267284631729126" lon="17.073580026626587">
        <ele>220.12</ele>
        <time>2023-06-13T11:26:50.919Z</time>
      </trkpt>
      <trkpt lat="48.26718807220459" lon="17.07377314567566">
        <ele>220.84</ele>
        <time>2023-06-13T11:26:51.375Z</time>
      </trkpt>
      <trkpt lat="48.267070138826966" lon="17.07404136657715">
        <ele>221.58</ele>
        <time>2023-06-13T11:26:51.835Z</time>
      </trkpt>
      <trkpt lat="48.266834020614624" lon="17.07472801208496">
        <ele>222.26</ele>
        <time>2023-06-13T11:26:52.305Z</time>
      </trkpt>
      <trkpt lat="48.26675891876221" lon="17.074931859970093">
        <ele>223.02</ele>
        <time>2023-06-13T11:26:52.779Z</time>
      </trkpt>
      <trkpt lat="48.266136730089784" lon="17.07625150680542">
        <ele>224.07</ele>
        <time>2023-06-13T11:26:53.274Z</time>
      </trkpt>
      <trkpt lat="48.26613664627075" lon="17.07625150680542">
        <ele>224.64</ele>
        <time>2023-06-13T11:26:53.769Z</time>
      </trkpt>
      <trkpt lat="48.26599717140198" lon="17.076573371887207">
        <ele>225.36</ele>
        <time>2023-06-13T11:26:54.269Z</time>
      </trkpt>
      <trkpt lat="48.26595149002969" lon="17.076694406569004">
        <ele>225.69</ele>
        <time>2023-06-13T11:26:54.771Z</time>
      </trkpt>
      <trkpt lat="48.265951573848724" lon="17.076694406569004">
        <ele>225.7</ele>
        <time>2023-06-13T11:26:55.273Z</time>
      </trkpt>
      <trkpt lat="48.265951657667756" lon="17.076694406569004">
        <ele>225.71</ele>
        <time>2023-06-13T11:26:55.775Z</time>
      </trkpt>
      <trkpt lat="48.26595174148679" lon="17.076694406569004">
        <ele>225.72</ele>
        <time>2023-06-13T11:26:56.277Z</time>
      </trkpt>
      <trkpt lat="48.26595174148679" lon="17.076694490388036">
        <ele>225.73</ele>
        <time>2023-06-13T11:26:56.779Z</time>
      </trkpt>
      <trkpt lat="48.26577186584473" lon="17.077174186706543">
        <ele>227.39</ele>
        <time>2023-06-13T11:26:57.288Z</time>
      </trkpt>
      <trkpt lat="48.265589559450746" lon="17.077796459197998">
        <ele>228.37</ele>
        <time>2023-06-13T11:26:57.807Z</time>
      </trkpt>
      <trkpt lat="48.265589475631714" lon="17.077796459197998">
        <ele>229.01</ele>
        <time>2023-06-13T11:26:58.326Z</time>
      </trkpt>
      <trkpt lat="48.265321254730225" lon="17.079083919525146">
        <ele>229.8</ele>
        <time>2023-06-13T11:26:58.863Z</time>
      </trkpt>
      <trkpt lat="48.265278339385986" lon="17.079319953918457">
        <ele>230.51</ele>
        <time>2023-06-13T11:26:59.403Z</time>
      </trkpt>
      <trkpt lat="48.26523542404175" lon="17.079427242279053">
        <ele>231.2</ele>
        <time>2023-06-13T11:26:59.945Z</time>
      </trkpt>
      <trkpt lat="48.265074575319886" lon="17.079695463180542">
        <ele>231.87</ele>
        <time>2023-06-13T11:27:00.491Z</time>
      </trkpt>
      <trkpt lat="48.26499938964844" lon="17.079942226409912">
        <ele>232.63</ele>
        <time>2023-06-13T11:27:01.041Z</time>
      </trkpt>
      <trkpt lat="48.26460242271423" lon="17.08151936531067">
        <ele>233.65</ele>
        <time>2023-06-13T11:27:01.614Z</time>
      </trkpt>
      <trkpt lat="48.26424837112427" lon="17.08274245262146">
        <ele>234.67</ele>
        <time>2023-06-13T11:27:02.204Z</time>
      </trkpt>
      <trkpt lat="48.26418399810791" lon="17.082828283309937">
        <ele>234.58</ele>
        <time>2023-06-13T11:27:02.796Z</time>
      </trkpt>
      <trkpt lat="48.26377403922379" lon="17.083191387355328">
        <ele>233.78</ele>
        <time>2023-06-13T11:27:03.398Z</time>
      </trkpt>
      <trkpt lat="48.26377403922379" lon="17.08319147117436">
        <ele>233.78</ele>
        <time>2023-06-13T11:27:04.000Z</time>
      </trkpt>
      <trkpt lat="48.26377412304282" lon="17.08319147117436">
        <ele>233.78</ele>
        <time>2023-06-13T11:27:04.602Z</time>
      </trkpt>
      <trkpt lat="48.26377412304282" lon="17.08319155499339">
        <ele>233.78</ele>
        <time>2023-06-13T11:27:05.204Z</time>
      </trkpt>
      <trkpt lat="48.26377412304282" lon="17.083191638812423">
        <ele>233.78</ele>
        <time>2023-06-13T11:27:05.806Z</time>
      </trkpt>
      <trkpt lat="48.26371192932129" lon="17.08324670791626">
        <ele>232.14</ele>
        <time>2023-06-13T11:27:06.409Z</time>
      </trkpt>
      <trkpt lat="48.26373338699341" lon="17.082914113998413">
        <ele>231.73</ele>
        <time>2023-06-13T11:27:07.016Z</time>
      </trkpt>
      <trkpt lat="48.263787031173706" lon="17.082345485687256">
        <ele>231.24</ele>
        <time>2023-06-13T11:27:07.631Z</time>
      </trkpt>
      <trkpt lat="48.26387286186218" lon="17.081819772720337">
        <ele>231.06</ele>
        <time>2023-06-13T11:27:08.253Z</time>
      </trkpt>
      <trkpt lat="48.26386213302612" lon="17.08145499229431">
        <ele>230.93</ele>
        <time>2023-06-13T11:27:08.880Z</time>
      </trkpt>
      <trkpt lat="48.263808488845825" lon="17.081304788589478">
        <ele>230.87</ele>
        <time>2023-06-13T11:27:09.510Z</time>
      </trkpt>
      <trkpt lat="48.26373338699341" lon="17.081197500228882">
        <ele>230.85</ele>
        <time>2023-06-13T11:27:10.142Z</time>
      </trkpt>
      <trkpt lat="48.2634437084198" lon="17.08050012588501">
        <ele>230.88</ele>
        <time>2023-06-13T11:27:10.785Z</time>
      </trkpt>
      <trkpt lat="48.26337933540344" lon="17.080371379852295">
        <ele>230.96</ele>
        <time>2023-06-13T11:27:11.430Z</time>
      </trkpt>
      <trkpt lat="48.263078927993774" lon="17.08002805709839">
        <ele>231.12</ele>
        <time>2023-06-13T11:27:12.082Z</time>
      </trkpt>
      <trkpt lat="48.26275035738945" lon="17.07959219813347">
        <ele>231.5</ele>
        <time>2023-06-13T11:27:12.743Z</time>
      </trkpt>
      <trkpt lat="48.26275044120848" lon="17.0795922819525">
        <ele>231.51</ele>
        <time>2023-06-13T11:27:13.404Z</time>
      </trkpt>
      <trkpt lat="48.26275052502751" lon="17.079592449590564">
        <ele>231.52</ele>
        <time>2023-06-13T11:27:14.065Z</time>
      </trkpt>
      <trkpt lat="48.26275069266558" lon="17.079592617228627">
        <ele>231.53</ele>
        <time>2023-06-13T11:27:14.726Z</time>
      </trkpt>
      <trkpt lat="48.26275077648461" lon="17.07959278486669">
        <ele>231.54</ele>
        <time>2023-06-13T11:27:15.387Z</time>
      </trkpt>
      <trkpt lat="48.262553215026855" lon="17.079330682754517">
        <ele>232.92</ele>
        <time>2023-06-13T11:27:16.053Z</time>
      </trkpt>
      <trkpt lat="48.262306451797485" lon="17.079319953918457">
        <ele>234.18</ele>
        <time>2023-06-13T11:27:16.724Z</time>
      </trkpt>
      <trkpt lat="48.26219916343689" lon="17.079373598098755">
        <ele>235.42</ele>
        <time>2023-06-13T11:27:17.398Z</time>
      </trkpt>
      <trkpt lat="48.2618772983551" lon="17.079674005508423">
        <ele>237.01</ele>
        <time>2023-06-13T11:27:18.079Z</time>
      </trkpt>
      <trkpt lat="48.26174855232239" lon="17.0797061920166">
        <ele>238.61</ele>
        <time>2023-06-13T11:27:18.763Z</time>
      </trkpt>
      <trkpt lat="48.26161980628967" lon="17.079663276672363">
        <ele>240.38</ele>
        <time>2023-06-13T11:27:19.449Z</time>
      </trkpt>
      <trkpt lat="48.261330127716064" lon="17.079663276672363">
        <ele>242.28</ele>
        <time>2023-06-13T11:27:20.141Z</time>
      </trkpt>
      <trkpt lat="48.26118000783026" lon="17.0797598361969">
        <ele>244.33</ele>
        <time>2023-06-13T11:27:20.837Z</time>
      </trkpt>
      <trkpt lat="48.2609760761261" lon="17.079942226409912">
        <ele>246.86</ele>
        <time>2023-06-13T11:27:21.537Z</time>
      </trkpt>
      <trkpt lat="48.260793685913086" lon="17.080049514770508">
        <ele>249.5</ele>
        <time>2023-06-13T11:27:22.241Z</time>
      </trkpt>
      <trkpt lat="48.2602144125849" lon="17.080382108688354">
        <ele>252.73</ele>
        <time>2023-06-13T11:27:22.958Z</time>
      </trkpt>
      <trkpt lat="48.26021432876587" lon="17.080382108688354">
        <ele>254.68</ele>
        <time>2023-06-13T11:27:23.675Z</time>
      </trkpt>
      <trkpt lat="48.25996764935553" lon="17.080661058425903">
        <ele>256.98</ele>
        <time>2023-06-13T11:27:24.398Z</time>
      </trkpt>
      <trkpt lat="48.259828174486756" lon="17.08082115277648">
        <ele>258.5</ele>
        <time>2023-06-13T11:27:25.124Z</time>
      </trkpt>
      <trkpt lat="48.25982792302966" lon="17.080821488052607">
        <ele>258.51</ele>
        <time>2023-06-13T11:27:25.850Z</time>
      </trkpt>
      <trkpt lat="48.259827671572566" lon="17.080821823328733">
        <ele>258.52</ele>
        <time>2023-06-13T11:27:26.576Z</time>
      </trkpt>
      <trkpt lat="48.2598275039345" lon="17.08082215860486">
        <ele>258.53</ele>
        <time>2023-06-13T11:27:27.302Z</time>
      </trkpt>
      <trkpt lat="48.25982733629644" lon="17.080822410061955">
        <ele>258.54</ele>
        <time>2023-06-13T11:27:28.028Z</time>
      </trkpt>
      <trkpt lat="48.25975298881531" lon="17.080907821655273">
        <ele>262.12</ele>
        <time>2023-06-13T11:27:28.756Z</time>
      </trkpt>
      <trkpt lat="48.259334564208984" lon="17.081304788589478">
        <ele>263.96</ele>
        <time>2023-06-13T11:27:29.494Z</time>
      </trkpt>
      <trkpt lat="48.25921654701233" lon="17.08149790763855">
        <ele>265.72</ele>
        <time>2023-06-13T11:27:30.236Z</time>
      </trkpt>
      <trkpt lat="48.25900197029114" lon="17.081894874572754">
        <ele>267.74</ele>
        <time>2023-06-13T11:27:30.984Z</time>
      </trkpt>
      <trkpt lat="48.258787393569946" lon="17.08202362060547">
        <ele>269.29</ele>
        <time>2023-06-13T11:27:31.737Z</time>
      </trkpt>
      <trkpt lat="48.258583545684814" lon="17.08227038383484">
        <ele>270.6</ele>
        <time>2023-06-13T11:27:32.495Z</time>
      </trkpt>
      <trkpt lat="48.258379781618714" lon="17.082324028015137">
        <ele>271.7</ele>
        <time>2023-06-13T11:27:33.257Z</time>
      </trkpt>
      <trkpt lat="48.258111560717225" lon="17.082570791244507">
        <ele>272.85</ele>
        <time>2023-06-13T11:27:34.026Z</time>
      </trkpt>
      <trkpt lat="48.25811147689819" lon="17.082570791244507">
        <ele>274.11</ele>
        <time>2023-06-13T11:27:34.795Z</time>
      </trkpt>
      <trkpt lat="48.25750001706183" lon="17.083171606063843">
        <ele>276.37</ele>
        <time>2023-06-13T11:27:35.578Z</time>
      </trkpt>
      <trkpt lat="48.25740337371826" lon="17.08326816558838">
        <ele>278.11</ele>
        <time>2023-06-13T11:27:36.364Z</time>
      </trkpt>
      <trkpt lat="48.25727462768555" lon="17.083300352096558">
        <ele>280.11</ele>
        <time>2023-06-13T11:27:37.152Z</time>
      </trkpt>
      <trkpt lat="48.25694211758673" lon="17.083311080932617">
        <ele>282.59</ele>
        <time>2023-06-13T11:27:37.947Z</time>
      </trkpt>
      <trkpt lat="48.25657733716071" lon="17.083375453948975">
        <ele>285.4</ele>
        <time>2023-06-13T11:27:38.749Z</time>
      </trkpt>
      <trkpt lat="48.25654515065253" lon="17.083386182785034">
        <ele>288.12</ele>
        <time>2023-06-13T11:27:39.552Z</time>
      </trkpt>
      <trkpt lat="48.25652369298041" lon="17.083396911621094">
        <ele>291.37</ele>
        <time>2023-06-13T11:27:40.355Z</time>
      </trkpt>
      <trkpt lat="48.25597643852234" lon="17.08369731903076">
        <ele>296.14</ele>
        <time>2023-06-13T11:27:41.170Z</time>
      </trkpt>
      <trkpt lat="48.25546145439148" lon="17.084083557128906">
        <ele>300.74</ele>
        <time>2023-06-13T11:27:41.997Z</time>
      </trkpt>
      <trkpt lat="48.25498494319618" lon="17.084541376680136">
        <ele>304.86</ele>
        <time>2023-06-13T11:27:42.835Z</time>
      </trkpt>
      <trkpt lat="48.25498469173908" lon="17.084541711956263">
        <ele>304.87</ele>
        <time>2023-06-13T11:27:43.673Z</time>
      </trkpt>
      <trkpt lat="48.25498460792005" lon="17.084541879594326">
        <ele>304.88</ele>
        <time>2023-06-13T11:27:44.511Z</time>
      </trkpt>
      <trkpt lat="48.25498452410102" lon="17.08454204723239">
        <ele>304.89</ele>
        <time>2023-06-13T11:27:45.349Z</time>
      </trkpt>
      <trkpt lat="48.25498452410102" lon="17.08454213105142">
        <ele>304.9</ele>
        <time>2023-06-13T11:27:46.187Z</time>
      </trkpt>
      <trkpt lat="48.25490355491638" lon="17.084619998931885">
        <ele>316.59</ele>
        <time>2023-06-13T11:27:47.027Z</time>
      </trkpt>
      <trkpt lat="48.25445294380188" lon="17.085156440734863">
        <ele>319.03</ele>
        <time>2023-06-13T11:27:47.878Z</time>
      </trkpt>
      <trkpt lat="48.253605365753174" lon="17.085821628570557">
        <ele>322.46</ele>
        <time>2023-06-13T11:27:48.749Z</time>
      </trkpt>
      <trkpt lat="48.252553939819336" lon="17.086411714553833">
        <ele>326.39</ele>
        <time>2023-06-13T11:27:49.642Z</time>
      </trkpt>
      <trkpt lat="48.25228571891785" lon="17.08650827407837">
        <ele>329.55</ele>
        <time>2023-06-13T11:27:50.541Z</time>
      </trkpt>
      <trkpt lat="48.25222142972052" lon="17.08650827407837">
        <ele>332.15</ele>
        <time>2023-06-13T11:27:51.441Z</time>
      </trkpt>
      <trkpt lat="48.252060413360596" lon="17.08648681640625">
        <ele>334.41</ele>
        <time>2023-06-13T11:27:52.344Z</time>
      </trkpt>
      <trkpt lat="48.251835107803345" lon="17.086336612701416">
        <ele>336.29</ele>
        <time>2023-06-13T11:27:53.252Z</time>
      </trkpt>
      <trkpt lat="48.2512451056391" lon="17.08572506904602">
        <ele>338.34</ele>
        <time>2023-06-13T11:27:54.174Z</time>
      </trkpt>
      <trkpt lat="48.25103052891791" lon="17.08551049232483">
        <ele>340.35</ele>
        <time>2023-06-13T11:27:55.102Z</time>
      </trkpt>
      <trkpt lat="48.250815868377686" lon="17.085285186767578">
        <ele>342.09</ele>
        <time>2023-06-13T11:27:56.035Z</time>
      </trkpt>
      <trkpt lat="48.25046190060675" lon="17.08497405052185">
        <ele>343.95</ele>
        <time>2023-06-13T11:27:56.976Z</time>
      </trkpt>
      <trkpt lat="48.24982889927924" lon="17.08446979522705">
        <ele>346.42</ele>
        <time>2023-06-13T11:27:57.931Z</time>
      </trkpt>
      <trkpt lat="48.24964642524719" lon="17.084330320358276">
        <ele>348.42</ele>
        <time>2023-06-13T11:27:58.891Z</time>
      </trkpt>
      <trkpt lat="48.2494854927063" lon="17.084126472473145">
        <ele>350.09</ele>
        <time>2023-06-13T11:27:59.855Z</time>
      </trkpt>
      <trkpt lat="48.24924945831299" lon="17.08376169204712">
        <ele>351.42</ele>
        <time>2023-06-13T11:28:00.826Z</time>
      </trkpt>
      <trkpt lat="48.24918508529663" lon="17.084115743637085">
        <ele>352.82</ele>
        <time>2023-06-13T11:28:01.801Z</time>
      </trkpt>
      <trkpt lat="48.249088609591126" lon="17.084351778030396">
        <ele>354.01</ele>
        <time>2023-06-13T11:28:02.780Z</time>
      </trkpt>
      <trkpt lat="48.24894905090332" lon="17.084577083587646">
        <ele>355.26</ele>
        <time>2023-06-13T11:28:03.763Z</time>
      </trkpt>
      <trkpt lat="48.24848771095276" lon="17.0857036113739">
        <ele>357.07</ele>
        <time>2023-06-13T11:28:04.764Z</time>
      </trkpt>
      <trkpt lat="48.2483696937561" lon="17.085832357406616">
        <ele>358.05</ele>
        <time>2023-06-13T11:28:05.768Z</time>
      </trkpt>
      <trkpt lat="48.248090744018555" lon="17.085918188095093">
        <ele>358.78</ele>
        <time>2023-06-13T11:28:06.778Z</time>
      </trkpt>
      <trkpt lat="48.24796199798584" lon="17.08599328994751">
        <ele>359.36</ele>
        <time>2023-06-13T11:28:07.790Z</time>
      </trkpt>
      <trkpt lat="48.247833251953125" lon="17.086143493652344">
        <ele>359.77</ele>
        <time>2023-06-13T11:28:08.806Z</time>
      </trkpt>
      <trkpt lat="48.247801065444946" lon="17.08627223968506">
        <ele>359.99</ele>
        <time>2023-06-13T11:28:09.823Z</time>
      </trkpt>
      <trkpt lat="48.24769377708435" lon="17.086637020111084">
        <ele>360.34</ele>
        <time>2023-06-13T11:28:10.846Z</time>
      </trkpt>
      <trkpt lat="48.24748992919922" lon="17.087044715881348">
        <ele>360.45</ele>
        <time>2023-06-13T11:28:11.876Z</time>
      </trkpt>
      <trkpt lat="48.24726462364197" lon="17.087345123291016">
        <ele>359.92</ele>
        <time>2023-06-13T11:28:12.912Z</time>
      </trkpt>
      <trkpt lat="48.24692130088806" lon="17.087613344192505">
        <ele>359.01</ele>
        <time>2023-06-13T11:28:13.955Z</time>
      </trkpt>
      <trkpt lat="48.24663162231445" lon="17.087903022766113">
        <ele>358.13</ele>
        <time>2023-06-13T11:28:15.005Z</time>
      </trkpt>
      <trkpt lat="48.24637413024902" lon="17.088310718536377">
        <ele>357.38</ele>
        <time>2023-06-13T11:28:16.063Z</time>
      </trkpt>
      <trkpt lat="48.246116638183594" lon="17.08845019340515">
        <ele>356.03</ele>
        <time>2023-06-13T11:28:17.126Z</time>
      </trkpt>
      <trkpt lat="48.24569821357727" lon="17.088632583618164">
        <ele>354.39</ele>
        <time>2023-06-13T11:28:18.198Z</time>
      </trkpt>
      <trkpt lat="48.245344161987305" lon="17.088868618011475">
        <ele>352.51</ele>
        <time>2023-06-13T11:28:19.278Z</time>
      </trkpt>
      <trkpt lat="48.24501156806946" lon="17.089051008224487">
        <ele>350.37</ele>
        <time>2023-06-13T11:28:20.365Z</time>
      </trkpt>
      <trkpt lat="48.2444429397583" lon="17.089544534683228">
        <ele>348.02</ele>
        <time>2023-06-13T11:28:21.465Z</time>
      </trkpt>
      <trkpt lat="48.243820667266846" lon="17.09001660346985">
        <ele>345.35</ele>
        <time>2023-06-13T11:28:22.579Z</time>
      </trkpt>
      <trkpt lat="48.24371337890625" lon="17.090134620666504">
        <ele>343.24</ele>
        <time>2023-06-13T11:28:23.696Z</time>
      </trkpt>
      <trkpt lat="48.24353098869324" lon="17.090435028076172">
        <ele>341.15</ele>
        <time>2023-06-13T11:28:24.818Z</time>
      </trkpt>
      <trkpt lat="48.24345588684082" lon="17.09051012992859">
        <ele>339.37</ele>
        <time>2023-06-13T11:28:25.942Z</time>
      </trkpt>
      <trkpt lat="48.243327140808105" lon="17.090542316436768">
        <ele>337.75</ele>
        <time>2023-06-13T11:28:27.068Z</time>
      </trkpt>
      <trkpt lat="48.242812156677246" lon="17.090574502944946">
        <ele>335.98</ele>
        <time>2023-06-13T11:28:28.205Z</time>
      </trkpt>
      <trkpt lat="48.24220061302185" lon="17.092527151107788">
        <ele>335.69</ele>
        <time>2023-06-13T11:28:29.371Z</time>
      </trkpt>
      <trkpt lat="48.24205040931702" lon="17.092849016189575">
        <ele>335.37</ele>
        <time>2023-06-13T11:28:30.542Z</time>
      </trkpt>
      <trkpt lat="48.24190020561218" lon="17.093149423599243">
        <ele>335.4</ele>
        <time>2023-06-13T11:28:31.718Z</time>
      </trkpt>
      <trkpt lat="48.24170708656311" lon="17.093385457992554">
        <ele>335.72</ele>
        <time>2023-06-13T11:28:32.899Z</time>
      </trkpt>
      <trkpt lat="48.24150323867798" lon="17.093578577041626">
        <ele>336.18</ele>
        <time>2023-06-13T11:28:34.085Z</time>
      </trkpt>
      <trkpt lat="48.24123501777649" lon="17.09369659423828">
        <ele>336.75</ele>
        <time>2023-06-13T11:28:35.276Z</time>
      </trkpt>
      <trkpt lat="48.240816593170166" lon="17.093857526779175">
        <ele>337.64</ele>
        <time>2023-06-13T11:28:36.476Z</time>
      </trkpt>
      <trkpt lat="48.24063420295715" lon="17.09397554397583">
        <ele>338.69</ele>
        <time>2023-06-13T11:28:37.680Z</time>
      </trkpt>
      <trkpt lat="48.240323066711426" lon="17.094329595565796">
        <ele>339.93</ele>
        <time>2023-06-13T11:28:38.892Z</time>
      </trkpt>
      <trkpt lat="48.24020504951477" lon="17.094554901123047">
        <ele>341.23</ele>
        <time>2023-06-13T11:28:40.108Z</time>
      </trkpt>
      <trkpt lat="48.2402051333338" lon="17.094554901123047">
        <ele>342.58</ele>
        <time>2023-06-13T11:28:41.324Z</time>
      </trkpt>
      <trkpt lat="48.24005484580994" lon="17.09501624107361">
        <ele>344.1</ele>
        <time>2023-06-13T11:28:42.546Z</time>
      </trkpt>
      <trkpt lat="48.23996909894049" lon="17.09524154663086">
        <ele>345.58</ele>
        <time>2023-06-13T11:28:43.772Z</time>
      </trkpt>
      <trkpt lat="48.23977589607239" lon="17.095810174942017">
        <ele>347.48</ele>
        <time>2023-06-13T11:28:45.006Z</time>
      </trkpt>
      <trkpt lat="48.23951840400696" lon="17.09625005722046">
        <ele>349.46</ele>
        <time>2023-06-13T11:28:46.248Z</time>
      </trkpt>
      <trkpt lat="48.23919653892517" lon="17.096636295318604">
        <ele>351.43</ele>
        <time>2023-06-13T11:28:47.499Z</time>
      </trkpt>
      <trkpt lat="48.23864936828613" lon="17.097086906433105">
        <ele>353.14</ele>
        <time>2023-06-13T11:28:48.762Z</time>
      </trkpt>
      <trkpt lat="48.238112926483154" lon="17.097558975219727">
        <ele>355.0</ele>
        <time>2023-06-13T11:28:50.037Z</time>
      </trkpt>
      <trkpt lat="48.238113010302186" lon="17.097558975219727">
        <ele>356.71</ele>
        <time>2023-06-13T11:28:51.312Z</time>
      </trkpt>
      <trkpt lat="48.23793053627014" lon="17.09770917892456">
        <ele>358.4</ele>
        <time>2023-06-13T11:28:52.592Z</time>
      </trkpt>
      <trkpt lat="48.23774814605713" lon="17.097827196121216">
        <ele>360.2</ele>
        <time>2023-06-13T11:28:53.876Z</time>
      </trkpt>
      <trkpt lat="48.237104415893555" lon="17.098052501678467">
        <ele>362.39</ele>
        <time>2023-06-13T11:28:55.173Z</time>
      </trkpt>
      <trkpt lat="48.23697566986084" lon="17.098095417022705">
        <ele>364.32</ele>
        <time>2023-06-13T11:28:56.472Z</time>
      </trkpt>
      <trkpt lat="48.236825466156006" lon="17.09819197654724">
        <ele>366.32</ele>
        <time>2023-06-13T11:28:57.775Z</time>
      </trkpt>
      <trkpt lat="48.23675036430359" lon="17.098309993743896">
        <ele>368.36</ele>
        <time>2023-06-13T11:28:59.080Z</time>
      </trkpt>
      <trkpt lat="48.23667526245117" lon="17.09844946861267">
        <ele>370.5</ele>
        <time>2023-06-13T11:29:00.387Z</time>
      </trkpt>
      <trkpt lat="48.23640704154968" lon="17.099071741104126">
        <ele>372.63</ele>
        <time>2023-06-13T11:29:01.704Z</time>
      </trkpt>
      <trkpt lat="48.23617100715637" lon="17.099425792694092">
        <ele>375.14</ele>
        <time>2023-06-13T11:29:03.028Z</time>
      </trkpt>
      <trkpt lat="48.23594578541815" lon="17.09970474243164">
        <ele>377.77</ele>
        <time>2023-06-13T11:29:04.358Z</time>
      </trkpt>
      <trkpt lat="48.23579558171332" lon="17.099887132644653">
        <ele>380.58</ele>
        <time>2023-06-13T11:29:05.692Z</time>
      </trkpt>
      <trkpt lat="48.23526978492737" lon="17.100573778152466">
        <ele>383.71</ele>
        <time>2023-06-13T11:29:07.040Z</time>
      </trkpt>
      <trkpt lat="48.23500156402588" lon="17.10100293159485">
        <ele>386.9</ele>
        <time>2023-06-13T11:29:08.395Z</time>
      </trkpt>
      <trkpt lat="48.23473334312439" lon="17.101367712020874">
        <ele>390.04</ele>
        <time>2023-06-13T11:29:09.758Z</time>
      </trkpt>
      <trkpt lat="48.23423981666565" lon="17.100348472595215">
        <ele>393.93</ele>
        <time>2023-06-13T11:29:11.138Z</time>
      </trkpt>
      <trkpt lat="48.23372483253479" lon="17.099415063858032">
        <ele>398.18</ele>
        <time>2023-06-13T11:29:12.534Z</time>
      </trkpt>
      <trkpt lat="48.23346734046936" lon="17.098835706710815">
        <ele>401.65</ele>
        <time>2023-06-13T11:29:13.939Z</time>
      </trkpt>
      <trkpt lat="48.23346734046936" lon="17.098642587661743">
        <ele>404.87</ele>
        <time>2023-06-13T11:29:15.347Z</time>
      </trkpt>
      <trkpt lat="48.23349952697754" lon="17.098417282104492">
        <ele>407.93</ele>
        <time>2023-06-13T11:29:16.758Z</time>
      </trkpt>
      <trkpt lat="48.23344588279724" lon="17.098020315170288">
        <ele>411.03</ele>
        <time>2023-06-13T11:29:18.174Z</time>
      </trkpt>
      <trkpt lat="48.23324203491211" lon="17.09750533103943">
        <ele>413.96</ele>
        <time>2023-06-13T11:29:19.598Z</time>
      </trkpt>
      <trkpt lat="48.23317766189575" lon="17.09723711013794">
        <ele>416.48</ele>
        <time>2023-06-13T11:29:21.026Z</time>
      </trkpt>
      <trkpt lat="48.233070373535156" lon="17.097033262252808">
        <ele>418.77</ele>
        <time>2023-06-13T11:29:22.457Z</time>
      </trkpt>
      <trkpt lat="48.232834339141846" lon="17.096153497695923">
        <ele>421.0</ele>
        <time>2023-06-13T11:29:23.901Z</time>
      </trkpt>
      <trkpt lat="48.23275923728943" lon="17.095928192138672">
        <ele>422.75</ele>
        <time>2023-06-13T11:29:25.348Z</time>
      </trkpt>
      <trkpt lat="48.23269486427307" lon="17.0952308177948">
        <ele>424.15</ele>
        <time>2023-06-13T11:29:26.805Z</time>
      </trkpt>
      <trkpt lat="48.23272705078125" lon="17.09474802017212">
        <ele>425.26</ele>
        <time>2023-06-13T11:29:28.268Z</time>
      </trkpt>
      <trkpt lat="48.232845067977905" lon="17.0942223072052">
        <ele>426.09</ele>
        <time>2023-06-13T11:29:29.739Z</time>
      </trkpt>
      <trkpt lat="48.233070373535156" lon="17.093095779418945">
        <ele>426.56</ele>
        <time>2023-06-13T11:29:31.225Z</time>
      </trkpt>
      <trkpt lat="48.233081102371216" lon="17.09275245666504">
        <ele>426.68</ele>
        <time>2023-06-13T11:29:32.716Z</time>
      </trkpt>
      <trkpt lat="48.2330596446991" lon="17.092398405075073">
        <ele>426.55</ele>
        <time>2023-06-13T11:29:34.212Z</time>
      </trkpt>
      <trkpt lat="48.23299535550177" lon="17.092065811157227">
        <ele>426.23</ele>
        <time>2023-06-13T11:29:35.712Z</time>
      </trkpt>
      <trkpt lat="48.23299527168274" lon="17.092065811157227">
        <ele>425.81</ele>
        <time>2023-06-13T11:29:37.212Z</time>
      </trkpt>
      <trkpt lat="48.23278069496155" lon="17.091304063796997">
        <ele>425.08</ele>
        <time>2023-06-13T11:29:38.724Z</time>
      </trkpt>
      <trkpt lat="48.232609033584595" lon="17.090531587600708">
        <ele>424.31</ele>
        <time>2023-06-13T11:29:40.246Z</time>
      </trkpt>
      <trkpt lat="48.23252320289612" lon="17.08999514579773">
        <ele>423.48</ele>
        <time>2023-06-13T11:29:41.776Z</time>
      </trkpt>
      <trkpt lat="48.23246955871582" lon="17.08945870399475">
        <ele>422.59</ele>
        <time>2023-06-13T11:29:43.313Z</time>
      </trkpt>
      <trkpt lat="48.23243737220764" lon="17.088782787322998">
        <ele>421.47</ele>
        <time>2023-06-13T11:29:44.859Z</time>
      </trkpt>
      <trkpt lat="48.23249101638794" lon="17.088536024093628">
        <ele>420.42</ele>
        <time>2023-06-13T11:29:46.409Z</time>
      </trkpt>
      <trkpt lat="48.232887983322144" lon="17.087388038635254">
        <ele>419.22</ele>
        <time>2023-06-13T11:29:47.976Z</time>
      </trkpt>
      <trkpt lat="48.23293089866638" lon="17.087130546569824">
        <ele>418.42</ele>
        <time>2023-06-13T11:29:49.546Z</time>
      </trkpt>
      <trkpt lat="48.23299527168274" lon="17.086325883865356">
        <ele>417.77</ele>
        <time>2023-06-13T11:29:51.127Z</time>
      </trkpt>
      <trkpt lat="48.23302745819092" lon="17.086068391799927">
        <ele>417.17</ele>
        <time>2023-06-13T11:29:52.712Z</time>
      </trkpt>
      <trkpt lat="48.233091831207275" lon="17.085832357406616">
        <ele>416.67</ele>
        <time>2023-06-13T11:29:54.300Z</time>
      </trkpt>
      <trkpt lat="48.23319911956787" lon="17.08552122116089">
        <ele>416.36</ele>
        <time>2023-06-13T11:29:55.893Z</time>
      </trkpt>
      <trkpt lat="48.233360052108765" lon="17.085134983062744">
        <ele>416.11</ele>
        <time>2023-06-13T11:29:57.492Z</time>
      </trkpt>
      <trkpt lat="48.2335102558136" lon="17.084566354751587">
        <ele>416.02</ele>
        <time>2023-06-13T11:29:59.099Z</time>
      </trkpt>
      <trkpt lat="48.2335638999939" lon="17.08423376083374">
        <ele>416.02</ele>
        <time>2023-06-13T11:30:00.711Z</time>
      </trkpt>
      <trkpt lat="48.233574628829956" lon="17.082602977752686">
        <ele>416.21</ele>
        <time>2023-06-13T11:30:02.344Z</time>
      </trkpt>
      <trkpt lat="48.23355317115784" lon="17.082324028015137">
        <ele>415.96</ele>
        <time>2023-06-13T11:30:03.981Z</time>
      </trkpt>
      <trkpt lat="48.23334940709174" lon="17.08120822906494">
        <ele>415.45</ele>
        <time>2023-06-13T11:30:05.634Z</time>
      </trkpt>
      <trkpt lat="48.233349323272705" lon="17.08120822906494">
        <ele>415.01</ele>
        <time>2023-06-13T11:30:07.287Z</time>
      </trkpt>
      <trkpt lat="48.233327865600586" lon="17.08096146583557">
        <ele>414.46</ele>
        <time>2023-06-13T11:30:08.943Z</time>
      </trkpt>
      <trkpt lat="48.233338594436646" lon="17.0807147026062">
        <ele>413.76</ele>
        <time>2023-06-13T11:30:10.602Z</time>
      </trkpt>
      <trkpt lat="48.23347806930542" lon="17.079437971115112">
        <ele>412.6</ele>
        <time>2023-06-13T11:30:12.279Z</time>
      </trkpt>
      <trkpt lat="48.2334566116333" lon="17.079319953918457">
        <ele>412.08</ele>
        <time>2023-06-13T11:30:13.957Z</time>
      </trkpt>
      <trkpt lat="48.23341369628906" lon="17.07922339439392">
        <ele>411.47</ele>
        <time>2023-06-13T11:30:15.637Z</time>
      </trkpt>
      <trkpt lat="48.23326357640326" lon="17.07900881767273">
        <ele>410.89</ele>
        <time>2023-06-13T11:30:17.321Z</time>
      </trkpt>
      <trkpt lat="48.23301672935486" lon="17.078579664230347">
        <ele>410.47</ele>
        <time>2023-06-13T11:30:19.013Z</time>
      </trkpt>
      <trkpt lat="48.232834339141846" lon="17.078408002853394">
        <ele>410.73</ele>
        <time>2023-06-13T11:30:20.709Z</time>
      </trkpt>
      <trkpt lat="48.23253778740764" lon="17.077963342890143">
        <ele>411.51</ele>
        <time>2023-06-13T11:30:22.413Z</time>
      </trkpt>
      <trkpt lat="48.232537703588605" lon="17.07796317525208">
        <ele>411.52</ele>
        <time>2023-06-13T11:30:24.117Z</time>
      </trkpt>
      <trkpt lat="48.23253761976957" lon="17.07796309143305">
        <ele>411.53</ele>
        <time>2023-06-13T11:30:25.821Z</time>
      </trkpt>
      <trkpt lat="48.23253761976957" lon="17.077963007614017">
        <ele>411.54</ele>
        <time>2023-06-13T11:30:27.525Z</time>
      </trkpt>
      <trkpt lat="48.232537703588605" lon="17.07796309143305">
        <ele>411.55</ele>
        <time>2023-06-13T11:30:29.229Z</time>
      </trkpt>
      <trkpt lat="48.23251247406006" lon="17.077925205230713">
        <ele>416.62</ele>
        <time>2023-06-13T11:30:30.934Z</time>
      </trkpt>
      <trkpt lat="48.23224425315857" lon="17.077431678771973">
        <ele>418.5</ele>
        <time>2023-06-13T11:30:32.647Z</time>
      </trkpt>
      <trkpt lat="48.232115507125854" lon="17.0772922039032">
        <ele>419.95</ele>
        <time>2023-06-13T11:30:34.364Z</time>
      </trkpt>
      <trkpt lat="48.23198676109314" lon="17.077184915542603">
        <ele>421.12</ele>
        <time>2023-06-13T11:30:36.084Z</time>
      </trkpt>
      <trkpt lat="48.23147177696228" lon="17.076948881149292">
        <ele>422.43</ele>
        <time>2023-06-13T11:30:37.814Z</time>
      </trkpt>
      <trkpt lat="48.23122501373291" lon="17.07672357559204">
        <ele>423.37</ele>
        <time>2023-06-13T11:30:39.550Z</time>
      </trkpt>
      <trkpt lat="48.2310426235199" lon="17.076433897018433">
        <ele>423.96</ele>
        <time>2023-06-13T11:30:41.292Z</time>
      </trkpt>
      <trkpt lat="48.23080667294562" lon="17.07601547241211">
        <ele>424.21</ele>
        <time>2023-06-13T11:30:43.041Z</time>
      </trkpt>
      <trkpt lat="48.23080658912659" lon="17.07601547241211">
        <ele>424.39</ele>
        <time>2023-06-13T11:30:44.790Z</time>
      </trkpt>
      <trkpt lat="48.230570554733276" lon="17.075650691986084">
        <ele>424.28</ele>
        <time>2023-06-13T11:30:46.546Z</time>
      </trkpt>
      <trkpt lat="48.23027014732361" lon="17.075350284576416">
        <ele>424.33</ele>
        <time>2023-06-13T11:30:48.309Z</time>
      </trkpt>
      <trkpt lat="48.23005557060242" lon="17.07500696182251">
        <ele>424.49</ele>
        <time>2023-06-13T11:30:50.078Z</time>
      </trkpt>
      <trkpt lat="48.229883993044496" lon="17.074642181396484">
        <ele>424.43</ele>
        <time>2023-06-13T11:30:51.853Z</time>
      </trkpt>
      <trkpt lat="48.229594230651855" lon="17.074148654937744">
        <ele>424.16</ele>
        <time>2023-06-13T11:30:53.637Z</time>
      </trkpt>
      <trkpt lat="48.22941184043884" lon="17.073805332183838">
        <ele>423.96</ele>
        <time>2023-06-13T11:30:55.427Z</time>
      </trkpt>
      <trkpt lat="48.22928309440613" lon="17.073622941970825">
        <ele>423.85</ele>
        <time>2023-06-13T11:30:57.220Z</time>
      </trkpt>
      <trkpt lat="48.22915434837341" lon="17.07347273826599">
        <ele>423.78</ele>
        <time>2023-06-13T11:30:59.017Z</time>
      </trkpt>
      <trkpt lat="48.22898268699646" lon="17.073311805725098">
        <ele>423.7</ele>
        <time>2023-06-13T11:31:00.818Z</time>
      </trkpt>
      <trkpt lat="48.228628635406494" lon="17.073097229003906">
        <ele>423.58</ele>
        <time>2023-06-13T11:31:02.626Z</time>
      </trkpt>
      <trkpt lat="48.22855353355408" lon="17.07303285598755">
        <ele>423.44</ele>
        <time>2023-06-13T11:31:04.436Z</time>
      </trkpt>
      <trkpt lat="48.228360414505005" lon="17.072635889053345">
        <ele>423.21</ele>
        <time>2023-06-13T11:31:06.253Z</time>
      </trkpt>
      <trkpt lat="48.22826385498047" lon="17.07249641418457">
        <ele>422.86</ele>
        <time>2023-06-13T11:31:08.072Z</time>
      </trkpt>
      <trkpt lat="48.22814583778381" lon="17.072442770004272">
        <ele>422.46</ele>
        <time>2023-06-13T11:31:09.894Z</time>
      </trkpt>
      <trkpt lat="48.22797426022589" lon="17.072432041168213">
        <ele>421.99</ele>
        <time>2023-06-13T11:31:11.719Z</time>
      </trkpt>
      <trkpt lat="48.22797417640686" lon="17.072432041168213">
        <ele>421.46</ele>
        <time>2023-06-13T11:31:13.544Z</time>
      </trkpt>
      <trkpt lat="48.227620208635926" lon="17.072421312332153">
        <ele>420.63</ele>
        <time>2023-06-13T11:31:15.376Z</time>
      </trkpt>
      <trkpt lat="48.22744854725897" lon="17.072410583496094">
        <ele>419.67</ele>
        <time>2023-06-13T11:31:17.212Z</time>
      </trkpt>
      <trkpt lat="48.2274055480957" lon="17.072378396987915">
        <ele>418.77</ele>
        <time>2023-06-13T11:31:19.049Z</time>
      </trkpt>
      <trkpt lat="48.22733053006232" lon="17.07223892211914">
        <ele>417.89</ele>
        <time>2023-06-13T11:31:20.888Z</time>
      </trkpt>
      <trkpt lat="48.22722315788269" lon="17.07200288772583">
        <ele>417.02</ele>
        <time>2023-06-13T11:31:22.731Z</time>
      </trkpt>
      <trkpt lat="48.227137411013246" lon="17.071852684020996">
        <ele>416.07</ele>
        <time>2023-06-13T11:31:24.577Z</time>
      </trkpt>
      <trkpt lat="48.22671898640692" lon="17.071080207824707">
        <ele>414.74</ele>
        <time>2023-06-13T11:31:26.436Z</time>
      </trkpt>
      <trkpt lat="48.22656878270209" lon="17.070930004119873">
        <ele>413.38</ele>
        <time>2023-06-13T11:31:28.298Z</time>
      </trkpt>
      <trkpt lat="48.226364850997925" lon="17.070822715759277">
        <ele>412.03</ele>
        <time>2023-06-13T11:31:30.165Z</time>
      </trkpt>
      <trkpt lat="48.22604298591614" lon="17.070693969726562">
        <ele>410.44</ele>
        <time>2023-06-13T11:31:32.038Z</time>
      </trkpt>
      <trkpt lat="48.22579622268677" lon="17.07049012184143">
        <ele>408.6</ele>
        <time>2023-06-13T11:31:33.917Z</time>
      </trkpt>
      <trkpt lat="48.225635290145874" lon="17.0702862739563">
        <ele>406.84</ele>
        <time>2023-06-13T11:31:35.800Z</time>
      </trkpt>
      <trkpt lat="48.22542071342468" lon="17.070146799087524">
        <ele>405.13</ele>
        <time>2023-06-13T11:31:37.688Z</time>
      </trkpt>
      <trkpt lat="48.22520613670349" lon="17.070114612579346">
        <ele>403.54</ele>
        <time>2023-06-13T11:31:39.580Z</time>
      </trkpt>
      <trkpt lat="48.22500237263739" lon="17.070178985595703">
        <ele>401.86</ele>
        <time>2023-06-13T11:31:41.476Z</time>
      </trkpt>
      <trkpt lat="48.22406888008118" lon="17.07054376602173">
        <ele>400.2</ele>
        <time>2023-06-13T11:31:43.392Z</time>
      </trkpt>
      <trkpt lat="48.22386511601508" lon="17.070554494857788">
        <ele>398.71</ele>
        <time>2023-06-13T11:31:45.312Z</time>
      </trkpt>
      <trkpt lat="48.22372555732727" lon="17.07052230834961">
        <ele>397.32</ele>
        <time>2023-06-13T11:31:47.235Z</time>
      </trkpt>
      <trkpt lat="48.2229745388031" lon="17.070125341415405">
        <ele>395.93</ele>
        <time>2023-06-13T11:31:49.174Z</time>
      </trkpt>
      <trkpt lat="48.22248101234436" lon="17.069889307022095">
        <ele>394.51</ele>
        <time>2023-06-13T11:31:51.123Z</time>
      </trkpt>
      <trkpt lat="48.22209485806525" lon="17.06977128982544">
        <ele>393.26</ele>
        <time>2023-06-13T11:31:53.080Z</time>
      </trkpt>
      <trkpt lat="48.222094774246216" lon="17.06977128982544">
        <ele>392.4</ele>
        <time>2023-06-13T11:31:55.037Z</time>
      </trkpt>
      <trkpt lat="48.22204113006592" lon="17.06977128982544">
        <ele>391.69</ele>
        <time>2023-06-13T11:31:56.995Z</time>
      </trkpt>
      <trkpt lat="48.22153687477112" lon="17.069814205169678">
        <ele>390.97</ele>
        <time>2023-06-13T11:31:58.963Z</time>
      </trkpt>
      <trkpt lat="48.220657194033265" lon="17.07000732421875">
        <ele>390.49</ele>
        <time>2023-06-13T11:32:00.949Z</time>
      </trkpt>
      <trkpt lat="48.22000273503363" lon="17.070178985595703">
        <ele>390.56</ele>
        <time>2023-06-13T11:32:02.948Z</time>
      </trkpt>
      <trkpt lat="48.219648683443666" lon="17.070361375808716">
        <ele>390.59</ele>
        <time>2023-06-13T11:32:04.955Z</time>
      </trkpt>
      <trkpt lat="48.21945548057556" lon="17.070436477661133">
        <ele>390.53</ele>
        <time>2023-06-13T11:32:06.966Z</time>
      </trkpt>
      <trkpt lat="48.219101428985596" lon="17.07049012184143">
        <ele>390.43</ele>
        <time>2023-06-13T11:32:08.984Z</time>
      </trkpt>
      <trkpt lat="48.21900486946106" lon="17.070672512054443">
        <ele>390.86</ele>
        <time>2023-06-13T11:32:11.005Z</time>
      </trkpt>
      <trkpt lat="48.21881175041199" lon="17.070897817611694">
        <ele>391.33</ele>
        <time>2023-06-13T11:32:13.031Z</time>
      </trkpt>
      <trkpt lat="48.218618631362915" lon="17.071080207824707">
        <ele>391.75</ele>
        <time>2023-06-13T11:32:15.061Z</time>
      </trkpt>
      <trkpt lat="48.21830749511719" lon="17.07127332687378">
        <ele>392.05</ele>
        <time>2023-06-13T11:32:17.098Z</time>
      </trkpt>
      <trkpt lat="48.217856884002686" lon="17.0717990398407">
        <ele>392.27</ele>
        <time>2023-06-13T11:32:19.147Z</time>
      </trkpt>
      <trkpt lat="48.217599391937256" lon="17.07203507423401">
        <ele>392.39</ele>
        <time>2023-06-13T11:32:21.202Z</time>
      </trkpt>
      <trkpt lat="48.21729898452759" lon="17.07247495651245">
        <ele>392.5</ele>
        <time>2023-06-13T11:32:23.265Z</time>
      </trkpt>
      <trkpt lat="48.217159593477845" lon="17.07275390625">
        <ele>392.38</ele>
        <time>2023-06-13T11:32:25.333Z</time>
      </trkpt>
      <trkpt lat="48.21715950965881" lon="17.07275390625">
        <ele>392.31</ele>
        <time>2023-06-13T11:32:27.401Z</time>
      </trkpt>
      <trkpt lat="48.21695566177368" lon="17.073354721069336">
        <ele>391.68</ele>
        <time>2023-06-13T11:32:29.478Z</time>
      </trkpt>
      <trkpt lat="48.21603298187256" lon="17.07476019859314">
        <ele>391.88</ele>
        <time>2023-06-13T11:32:31.581Z</time>
      </trkpt>
      <trkpt lat="48.21547508239746" lon="17.075650691986084">
        <ele>391.84</ele>
        <time>2023-06-13T11:32:33.700Z</time>
      </trkpt>
      <trkpt lat="48.215378522872925" lon="17.075875997543335">
        <ele>391.35</ele>
        <time>2023-06-13T11:32:35.823Z</time>
      </trkpt>
      <trkpt lat="48.2149600982666" lon="17.076637744903564">
        <ele>390.53</ele>
        <time>2023-06-13T11:32:37.959Z</time>
      </trkpt>
      <trkpt lat="48.214616775512695" lon="17.077109813690186">
        <ele>389.4</ele>
        <time>2023-06-13T11:32:40.104Z</time>
      </trkpt>
      <trkpt lat="48.214198434725404" lon="17.07771062850952">
        <ele>388.26</ele>
        <time>2023-06-13T11:32:42.261Z</time>
      </trkpt>
      <trkpt lat="48.21408033370972" lon="17.07803249359131">
        <ele>387.41</ele>
        <time>2023-06-13T11:32:44.423Z</time>
      </trkpt>
      <trkpt lat="48.21398377418518" lon="17.07821488380432">
        <ele>386.61</ele>
        <time>2023-06-13T11:32:46.588Z</time>
      </trkpt>
      <trkpt lat="48.213865756988525" lon="17.078375816345215">
        <ele>385.77</ele>
        <time>2023-06-13T11:32:48.756Z</time>
      </trkpt>
      <trkpt lat="48.21373701095581" lon="17.07847237586975">
        <ele>384.86</ele>
        <time>2023-06-13T11:32:50.927Z</time>
      </trkpt>
      <trkpt lat="48.21353324688971" lon="17.078579664230347">
        <ele>383.95</ele>
        <time>2023-06-13T11:32:53.102Z</time>
      </trkpt>
      <trkpt lat="48.21326502598822" lon="17.078654766082764">
        <ele>382.95</ele>
        <time>2023-06-13T11:32:55.283Z</time>
      </trkpt>
      <trkpt lat="48.21262129582465" lon="17.078794240951538">
        <ele>381.67</ele>
        <time>2023-06-13T11:32:57.477Z</time>
      </trkpt>
      <trkpt lat="48.212159955874085" lon="17.079148292541504">
        <ele>380.91</ele>
        <time>2023-06-13T11:32:59.681Z</time>
      </trkpt>
      <trkpt lat="48.211902379989624" lon="17.079341411590576">
        <ele>380.4</ele>
        <time>2023-06-13T11:33:01.891Z</time>
      </trkpt>
      <trkpt lat="48.21156978607178" lon="17.07947015762329">
        <ele>379.99</ele>
        <time>2023-06-13T11:33:04.108Z</time>
      </trkpt>
      <trkpt lat="48.211398124694824" lon="17.07947015762329">
        <ele>379.64</ele>
        <time>2023-06-13T11:33:06.328Z</time>
      </trkpt>
      <trkpt lat="48.21122646331787" lon="17.079448699951172">
        <ele>379.29</ele>
        <time>2023-06-13T11:33:08.552Z</time>
      </trkpt>
      <trkpt lat="48.21081876754761" lon="17.07922339439392">
        <ele>378.87</ele>
        <time>2023-06-13T11:33:10.785Z</time>
      </trkpt>
      <trkpt lat="48.2104754447937" lon="17.079105377197266">
        <ele>378.1</ele>
        <time>2023-06-13T11:33:13.025Z</time>
      </trkpt>
      <trkpt lat="48.21013220585883" lon="17.079073190689087">
        <ele>377.37</ele>
        <time>2023-06-13T11:33:15.271Z</time>
      </trkpt>
      <trkpt lat="48.20984244346619" lon="17.079094648361206">
        <ele>376.75</ele>
        <time>2023-06-13T11:33:17.523Z</time>
      </trkpt>
      <trkpt lat="48.20969223976135" lon="17.079062461853027">
        <ele>376.16</ele>
        <time>2023-06-13T11:33:19.778Z</time>
      </trkpt>
      <trkpt lat="48.20953130722046" lon="17.07899808883667">
        <ele>375.37</ele>
        <time>2023-06-13T11:33:22.037Z</time>
      </trkpt>
      <trkpt lat="48.20920944213867" lon="17.07878351211548">
        <ele>374.38</ele>
        <time>2023-06-13T11:33:24.303Z</time>
      </trkpt>
      <trkpt lat="48.20900567807257" lon="17.07870841026306">
        <ele>373.61</ele>
        <time>2023-06-13T11:33:26.573Z</time>
      </trkpt>
      <trkpt lat="48.20876964367926" lon="17.078644037246704">
        <ele>373.11</ele>
        <time>2023-06-13T11:33:28.848Z</time>
      </trkpt>
      <trkpt lat="48.20673108100891" lon="17.078332901000977">
        <ele>372.86</ele>
        <time>2023-06-13T11:33:31.164Z</time>
      </trkpt>
      <trkpt lat="48.20663460530341" lon="17.078343629837036">
        <ele>372.75</ele>
        <time>2023-06-13T11:33:33.482Z</time>
      </trkpt>
      <trkpt lat="48.20651650428772" lon="17.07847237586975">
        <ele>373.0</ele>
        <time>2023-06-13T11:33:35.803Z</time>
      </trkpt>
      <trkpt lat="48.20645213127136" lon="17.078568935394287">
        <ele>373.65</ele>
        <time>2023-06-13T11:33:38.125Z</time>
      </trkpt>
      <trkpt lat="48.20631265640259" lon="17.07896590232849">
        <ele>374.79</ele>
        <time>2023-06-13T11:33:40.453Z</time>
      </trkpt>
      <trkpt lat="48.205111026763916" lon="17.081841230392456">
        <ele>376.61</ele>
        <time>2023-06-13T11:33:42.827Z</time>
      </trkpt>
      <trkpt lat="48.2049286365509" lon="17.082184553146362">
        <ele>377.3</ele>
        <time>2023-06-13T11:33:45.207Z</time>
      </trkpt>
      <trkpt lat="48.20474633015692" lon="17.082431316375732">
        <ele>378.04</ele>
        <time>2023-06-13T11:33:47.592Z</time>
      </trkpt>
      <trkpt lat="48.20474624633789" lon="17.082431316375732">
        <ele>378.67</ele>
        <time>2023-06-13T11:33:49.977Z</time>
      </trkpt>
      <trkpt lat="48.20402364246547" lon="17.08351098932326">
        <ele>379.41</ele>
        <time>2023-06-13T11:33:52.382Z</time>
      </trkpt>
      <trkpt lat="48.20395172573626" lon="17.08340261131525">
        <ele>381.86</ele>
        <time>2023-06-13T11:33:54.789Z</time>
      </trkpt>
      <trkpt lat="48.20395122282207" lon="17.083401856943965">
        <ele>381.89</ele>
        <time>2023-06-13T11:33:57.196Z</time>
      </trkpt>
      <trkpt lat="48.20395080372691" lon="17.08340118639171">
        <ele>381.91</ele>
        <time>2023-06-13T11:33:59.603Z</time>
      </trkpt>
      <trkpt lat="48.20395030081272" lon="17.083400432020426">
        <ele>381.94</ele>
        <time>2023-06-13T11:34:02.010Z</time>
      </trkpt>
      <trkpt lat="48.203949965536594" lon="17.083399929106236">
        <ele>381.96</ele>
        <time>2023-06-13T11:34:04.417Z</time>
      </trkpt>
      <trkpt lat="48.20402364246547" lon="17.08351098932326">
        <ele>380.07</ele>
        <time>2023-06-13T11:34:06.826Z</time>
      </trkpt>
      <trkpt lat="48.20381292141974" lon="17.083826065063477">
        <ele>379.9</ele>
        <time>2023-06-13T11:34:09.241Z</time>
      </trkpt>
      <trkpt lat="48.20381283760071" lon="17.083826065063477">
        <ele>379.66</ele>
        <time>2023-06-13T11:34:11.656Z</time>
      </trkpt>
      <trkpt lat="48.2034695148468" lon="17.084298133850098">
        <ele>379.1</ele>
        <time>2023-06-13T11:34:14.081Z</time>
      </trkpt>
      <trkpt lat="48.20328712463379" lon="17.084619998931885">
        <ele>378.7</ele>
        <time>2023-06-13T11:34:16.511Z</time>
      </trkpt>
      <trkpt lat="48.202868700027466" lon="17.08522081375122">
        <ele>376.92</ele>
        <time>2023-06-13T11:34:18.953Z</time>
      </trkpt>
      <trkpt lat="48.202654123306274" lon="17.085574865341187">
        <ele>376.12</ele>
        <time>2023-06-13T11:34:21.401Z</time>
      </trkpt>
      <trkpt lat="48.20225715637207" lon="17.086551189422607">
        <ele>375.86</ele>
        <time>2023-06-13T11:34:23.864Z</time>
      </trkpt>
      <trkpt lat="48.20212849415839" lon="17.086937427520752">
        <ele>375.76</ele>
        <time>2023-06-13T11:34:26.333Z</time>
      </trkpt>
      <trkpt lat="48.20211776532233" lon="17.087280750274658">
        <ele>375.88</ele>
        <time>2023-06-13T11:34:28.807Z</time>
      </trkpt>
      <trkpt lat="48.202117681503296" lon="17.08746314048767">
        <ele>376.22</ele>
        <time>2023-06-13T11:34:31.283Z</time>
      </trkpt>
      <trkpt lat="48.202149868011475" lon="17.088353633880615">
        <ele>377.02</ele>
        <time>2023-06-13T11:34:33.771Z</time>
      </trkpt>
      <trkpt lat="48.20208549499512" lon="17.088932991027832">
        <ele>378.31</ele>
        <time>2023-06-13T11:34:36.267Z</time>
      </trkpt>
      <trkpt lat="48.20208549499512" lon="17.089136838912964">
        <ele>379.27</ele>
        <time>2023-06-13T11:34:38.766Z</time>
      </trkpt>
      <trkpt lat="48.20218205451965" lon="17.08949089050293">
        <ele>379.81</ele>
        <time>2023-06-13T11:34:41.270Z</time>
      </trkpt>
      <trkpt lat="48.20232152938843" lon="17.089834213256836">
        <ele>380.0</ele>
        <time>2023-06-13T11:34:43.779Z</time>
      </trkpt>
      <trkpt lat="48.202375173568726" lon="17.090070247650146">
        <ele>380.3</ele>
        <time>2023-06-13T11:34:46.292Z</time>
      </trkpt>
      <trkpt lat="48.202418088912964" lon="17.09044575691223">
        <ele>380.52</ele>
        <time>2023-06-13T11:34:48.810Z</time>
      </trkpt>
      <trkpt lat="48.202407360076904" lon="17.09122896194458">
        <ele>380.56</ele>
        <time>2023-06-13T11:34:51.338Z</time>
      </trkpt>
      <trkpt lat="48.202375173568726" lon="17.0917010307312">
        <ele>380.61</ele>
        <time>2023-06-13T11:34:53.873Z</time>
      </trkpt>
      <trkpt lat="48.20233225822449" lon="17.091883420944214">
        <ele>380.53</ele>
        <time>2023-06-13T11:34:56.410Z</time>
      </trkpt>
      <trkpt lat="48.20227861404419" lon="17.092044353485107">
        <ele>380.32</ele>
        <time>2023-06-13T11:34:58.950Z</time>
      </trkpt>
      <trkpt lat="48.20219278335571" lon="17.09219455718994">
        <ele>380.02</ele>
        <time>2023-06-13T11:35:01.492Z</time>
      </trkpt>
      <trkpt lat="48.202139139175415" lon="17.09226965904236">
        <ele>379.73</ele>
        <time>2023-06-13T11:35:04.036Z</time>
      </trkpt>
      <trkpt lat="48.201881647109985" lon="17.09247350692749">
        <ele>379.16</ele>
        <time>2023-06-13T11:35:06.585Z</time>
      </trkpt>
      <trkpt lat="48.20176362991333" lon="17.09251642227173">
        <ele>378.68</ele>
        <time>2023-06-13T11:35:09.137Z</time>
      </trkpt>
      <trkpt lat="48.201656341552734" lon="17.09250569343567">
        <ele>378.21</ele>
        <time>2023-06-13T11:35:11.691Z</time>
      </trkpt>
      <trkpt lat="48.20099115371704" lon="17.092151641845703">
        <ele>377.97</ele>
        <time>2023-06-13T11:35:14.259Z</time>
      </trkpt>
      <trkpt lat="48.20085167884827" lon="17.092119455337524">
        <ele>377.5</ele>
        <time>2023-06-13T11:35:16.830Z</time>
      </trkpt>
      <trkpt lat="48.20071220397949" lon="17.092140913009644">
        <ele>376.83</ele>
        <time>2023-06-13T11:35:19.404Z</time>
      </trkpt>
      <trkpt lat="48.2005512714386" lon="17.09224820137024">
        <ele>375.92</ele>
        <time>2023-06-13T11:35:21.981Z</time>
      </trkpt>
      <trkpt lat="48.200411796569824" lon="17.092366218566895">
        <ele>374.97</ele>
        <time>2023-06-13T11:35:24.562Z</time>
      </trkpt>
      <trkpt lat="48.20030450820923" lon="17.09251642227173">
        <ele>373.74</ele>
        <time>2023-06-13T11:35:27.145Z</time>
      </trkpt>
      <trkpt lat="48.19984316825867" lon="17.093278169631958">
        <ele>371.59</ele>
        <time>2023-06-13T11:35:29.742Z</time>
      </trkpt>
      <trkpt lat="48.19975733757019" lon="17.093406915664673">
        <ele>369.89</ele>
        <time>2023-06-13T11:35:32.342Z</time>
      </trkpt>
      <trkpt lat="48.19969296455383" lon="17.09347128868103">
        <ele>368.28</ele>
        <time>2023-06-13T11:35:34.943Z</time>
      </trkpt>
      <trkpt lat="48.199617862701416" lon="17.09350347518921">
        <ele>366.73</ele>
        <time>2023-06-13T11:35:37.546Z</time>
      </trkpt>
      <trkpt lat="48.199371099472046" lon="17.09349274635315">
        <ele>365.4</ele>
        <time>2023-06-13T11:35:40.154Z</time>
      </trkpt>
      <trkpt lat="48.19923162460327" lon="17.093546390533447">
        <ele>363.9</ele>
        <time>2023-06-13T11:35:42.765Z</time>
      </trkpt>
      <trkpt lat="48.19881319999695" lon="17.093921899795532">
        <ele>361.93</ele>
        <time>2023-06-13T11:35:45.385Z</time>
      </trkpt>
      <trkpt lat="48.1985878944397" lon="17.094168663024902">
        <ele>360.48</ele>
        <time>2023-06-13T11:35:48.011Z</time>
      </trkpt>
      <trkpt lat="48.19845914840698" lon="17.094351053237915">
        <ele>359.2</ele>
        <time>2023-06-13T11:35:50.641Z</time>
      </trkpt>
      <trkpt lat="48.198169469833374" lon="17.095091342926025">
        <ele>357.77</ele>
        <time>2023-06-13T11:35:53.282Z</time>
      </trkpt>
      <trkpt lat="48.198169553652406" lon="17.095091342926025">
        <ele>356.65</ele>
        <time>2023-06-13T11:35:55.923Z</time>
      </trkpt>
      <trkpt lat="48.19799780845642" lon="17.095531225204468">
        <ele>355.24</ele>
        <time>2023-06-13T11:35:58.571Z</time>
      </trkpt>
      <trkpt lat="48.197879791259766" lon="17.09572434425354">
        <ele>354.17</ele>
        <time>2023-06-13T11:36:01.222Z</time>
      </trkpt>
      <trkpt lat="48.19779396057129" lon="17.09576725959778">
        <ele>353.37</ele>
        <time>2023-06-13T11:36:03.875Z</time>
      </trkpt>
      <trkpt lat="48.19772958755493" lon="17.09574580192566">
        <ele>352.72</ele>
        <time>2023-06-13T11:36:06.529Z</time>
      </trkpt>
      <trkpt lat="48.19768667221069" lon="17.09569215774536">
        <ele>352.11</ele>
        <time>2023-06-13T11:36:09.185Z</time>
      </trkpt>
      <trkpt lat="48.197665214538574" lon="17.095584869384766">
        <ele>351.48</ele>
        <time>2023-06-13T11:36:11.842Z</time>
      </trkpt>
      <trkpt lat="48.197665214538574" lon="17.094790935516357">
        <ele>351.08</ele>
        <time>2023-06-13T11:36:14.510Z</time>
      </trkpt>
      <trkpt lat="48.19770812988281" lon="17.094286680221558">
        <ele>350.29</ele>
        <time>2023-06-13T11:36:17.184Z</time>
      </trkpt>
      <trkpt lat="48.19771885871887" lon="17.0937180519104">
        <ele>349.14</ele>
        <time>2023-06-13T11:36:19.866Z</time>
      </trkpt>
      <trkpt lat="48.19769740104675" lon="17.093610763549805">
        <ele>347.96</ele>
        <time>2023-06-13T11:36:22.550Z</time>
      </trkpt>
      <trkpt lat="48.19754719734192" lon="17.0932137966156">
        <ele>346.2</ele>
        <time>2023-06-13T11:36:25.240Z</time>
      </trkpt>
      <trkpt lat="48.19749355316162" lon="17.093117237091064">
        <ele>344.57</ele>
        <time>2023-06-13T11:36:27.931Z</time>
      </trkpt>
      <trkpt lat="48.19745063781738" lon="17.093074321746826">
        <ele>342.77</ele>
        <time>2023-06-13T11:36:30.623Z</time>
      </trkpt>
      <trkpt lat="48.197396993637085" lon="17.093052864074707">
        <ele>340.77</ele>
        <time>2023-06-13T11:36:33.317Z</time>
      </trkpt>
      <trkpt lat="48.197150230407715" lon="17.093052864074707">
        <ele>338.11</ele>
        <time>2023-06-13T11:36:36.015Z</time>
      </trkpt>
      <trkpt lat="48.19695711135864" lon="17.09294557571411">
        <ele>335.9</ele>
        <time>2023-06-13T11:36:38.718Z</time>
      </trkpt>
      <trkpt lat="48.196860551834106" lon="17.092806100845337">
        <ele>334.08</ele>
        <time>2023-06-13T11:36:41.423Z</time>
      </trkpt>
      <trkpt lat="48.19682836532593" lon="17.0927095413208">
        <ele>332.46</ele>
        <time>2023-06-13T11:36:44.130Z</time>
      </trkpt>
      <trkpt lat="48.19682836532593" lon="17.092591524124146">
        <ele>330.87</ele>
        <time>2023-06-13T11:36:46.838Z</time>
      </trkpt>
      <trkpt lat="48.196860551834106" lon="17.09219455718994">
        <ele>329.22</ele>
        <time>2023-06-13T11:36:49.552Z</time>
      </trkpt>
      <trkpt lat="48.19681763648987" lon="17.091840505599976">
        <ele>327.29</ele>
        <time>2023-06-13T11:36:52.270Z</time>
      </trkpt>
      <trkpt lat="48.19682836532593" lon="17.091561555862427">
        <ele>325.68</ele>
        <time>2023-06-13T11:36:54.992Z</time>
      </trkpt>
      <trkpt lat="48.19656014442444" lon="17.09120750427246">
        <ele>323.62</ele>
        <time>2023-06-13T11:36:57.721Z</time>
      </trkpt>
      <trkpt lat="48.19649577140808" lon="17.091057300567627">
        <ele>321.72</ele>
        <time>2023-06-13T11:37:00.453Z</time>
      </trkpt>
      <trkpt lat="48.196388483047485" lon="17.09095001220703">
        <ele>319.28</ele>
        <time>2023-06-13T11:37:03.187Z</time>
      </trkpt>
      <trkpt lat="48.19618463516235" lon="17.090799808502197">
        <ele>316.48</ele>
        <time>2023-06-13T11:37:05.926Z</time>
      </trkpt>
      <trkpt lat="48.19608807563782" lon="17.0906925201416">
        <ele>314.07</ele>
        <time>2023-06-13T11:37:08.667Z</time>
      </trkpt>
      <trkpt lat="48.19581985473633" lon="17.09026336669922">
        <ele>311.45</ele>
        <time>2023-06-13T11:37:11.416Z</time>
      </trkpt>
      <trkpt lat="48.19570183753967" lon="17.090156078338623">
        <ele>309.31</ele>
        <time>2023-06-13T11:37:14.168Z</time>
      </trkpt>
      <trkpt lat="48.195701921358705" lon="17.090156078338623">
        <ele>307.61</ele>
        <time>2023-06-13T11:37:16.920Z</time>
      </trkpt>
      <trkpt lat="48.195648193359375" lon="17.090134620666504">
        <ele>305.78</ele>
        <time>2023-06-13T11:37:19.673Z</time>
      </trkpt>
      <trkpt lat="48.19554090499878" lon="17.09000587463379">
        <ele>304.04</ele>
        <time>2023-06-13T11:37:22.429Z</time>
      </trkpt>
      <trkpt lat="48.19537980481982" lon="17.089643608778715">
        <ele>302.86</ele>
        <time>2023-06-13T11:37:25.191Z</time>
      </trkpt>
      <trkpt lat="48.19537963718176" lon="17.089643189683557">
        <ele>302.86</ele>
        <time>2023-06-13T11:37:27.953Z</time>
      </trkpt>
      <trkpt lat="48.195379469543695" lon="17.08964285440743">
        <ele>302.86</ele>
        <time>2023-06-13T11:37:30.715Z</time>
      </trkpt>
      <trkpt lat="48.19537930190563" lon="17.08964235149324">
        <ele>302.86</ele>
        <time>2023-06-13T11:37:33.477Z</time>
      </trkpt>
      <trkpt lat="48.1953792180866" lon="17.089642100036144">
        <ele>302.86</ele>
        <time>2023-06-13T11:37:36.239Z</time>
      </trkpt>
      <trkpt lat="48.195369243621826" lon="17.089619636535645">
        <ele>296.42</ele>
        <time>2023-06-13T11:37:39.001Z</time>
      </trkpt>
      <trkpt lat="48.19522976875305" lon="17.08927631378174">
        <ele>292.97</ele>
        <time>2023-06-13T11:37:41.768Z</time>
      </trkpt>
      <trkpt lat="48.194929361343384" lon="17.088063955307007">
        <ele>287.39</ele>
        <time>2023-06-13T11:37:44.553Z</time>
      </trkpt>
      <trkpt lat="48.19485425949097" lon="17.087860107421875">
        <ele>282.19</ele>
        <time>2023-06-13T11:37:47.341Z</time>
      </trkpt>
      <trkpt lat="48.19477915763855" lon="17.087688446044922">
        <ele>276.89</ele>
        <time>2023-06-13T11:37:50.132Z</time>
      </trkpt>
      <trkpt lat="48.19402813911438" lon="17.086669206619263">
        <ele>270.05</ele>
        <time>2023-06-13T11:37:52.943Z</time>
      </trkpt>
      <trkpt lat="48.193899393081665" lon="17.086551189422607">
        <ele>265.15</ele>
        <time>2023-06-13T11:37:55.757Z</time>
      </trkpt>
      <trkpt lat="48.1933952216059" lon="17.08624005317688">
        <ele>259.88</ele>
        <time>2023-06-13T11:37:58.582Z</time>
      </trkpt>
      <trkpt lat="48.19335230626166" lon="17.0862078666687">
        <ele>256.08</ele>
        <time>2023-06-13T11:38:01.408Z</time>
      </trkpt>
      <trkpt lat="48.19323420524597" lon="17.086089849472046">
        <ele>252.69</ele>
        <time>2023-06-13T11:38:04.237Z</time>
      </trkpt>
      <trkpt lat="48.193137645721436" lon="17.08596110343933">
        <ele>250.02</ele>
        <time>2023-06-13T11:38:07.068Z</time>
      </trkpt>
      <trkpt lat="48.193116188049316" lon="17.085875272750854">
        <ele>248.13</ele>
        <time>2023-06-13T11:38:09.900Z</time>
      </trkpt>
      <trkpt lat="48.193116188049316" lon="17.08576798439026">
        <ele>246.78</ele>
        <time>2023-06-13T11:38:12.734Z</time>
      </trkpt>
      <trkpt lat="48.193137645721436" lon="17.085639238357544">
        <ele>245.88</ele>
        <time>2023-06-13T11:38:15.570Z</time>
      </trkpt>
      <trkpt lat="48.19334149360657" lon="17.085167169570923">
        <ele>245.49</ele>
        <time>2023-06-13T11:38:18.413Z</time>
      </trkpt>
      <trkpt lat="48.19352388381958" lon="17.084856033325195">
        <ele>245.04</ele>
        <time>2023-06-13T11:38:21.262Z</time>
      </trkpt>
      <trkpt lat="48.193748854100704" lon="17.084603821858764">
        <ele>244.96</ele>
        <time>2023-06-13T11:38:24.116Z</time>
      </trkpt>
      <trkpt lat="48.19374952465296" lon="17.08460315130651">
        <ele>244.96</ele>
        <time>2023-06-13T11:38:26.970Z</time>
      </trkpt>
      <trkpt lat="48.19375002756715" lon="17.08460264839232">
        <ele>244.96</ele>
        <time>2023-06-13T11:38:29.824Z</time>
      </trkpt>
      <trkpt lat="48.19375061430037" lon="17.084602061659098">
        <ele>244.96</ele>
        <time>2023-06-13T11:38:32.678Z</time>
      </trkpt>
      <trkpt lat="48.19375111721456" lon="17.084601558744907">
        <ele>244.96</ele>
        <time>2023-06-13T11:38:35.532Z</time>
      </trkpt>
      <trkpt lat="48.19379210472107" lon="17.084555625915527">
        <ele>249.4</ele>
        <time>2023-06-13T11:38:38.387Z</time>
      </trkpt>
      <trkpt lat="48.19380283355713" lon="17.08449125289917">
        <ele>249.67</ele>
        <time>2023-06-13T11:38:41.243Z</time>
      </trkpt>
      <trkpt lat="48.19379210472107" lon="17.08444833755493">
        <ele>249.79</ele>
        <time>2023-06-13T11:38:44.100Z</time>
      </trkpt>
      <trkpt lat="48.19373846054077" lon="17.084416151046753">
        <ele>249.7</ele>
        <time>2023-06-13T11:38:46.958Z</time>
      </trkpt>
      <trkpt lat="48.19344383664429" lon="17.08448731340468">
        <ele>249.37</ele>
        <time>2023-06-13T11:38:49.822Z</time>
      </trkpt>
      <trkpt lat="48.19344274699688" lon="17.084487648680806">
        <ele>249.37</ele>
        <time>2023-06-13T11:38:52.686Z</time>
      </trkpt>
      <trkpt lat="48.19344182498753" lon="17.0844879001379">
        <ele>249.37</ele>
        <time>2023-06-13T11:38:55.550Z</time>
      </trkpt>
      <trkpt lat="48.19344073534012" lon="17.084488235414028">
        <ele>249.37</ele>
        <time>2023-06-13T11:38:58.414Z</time>
      </trkpt>
      <trkpt lat="48.1934398971498" lon="17.084488486871123">
        <ele>249.37</ele>
        <time>2023-06-13T11:39:01.278Z</time>
      </trkpt>
      <trkpt lat="48.1934398971498" lon="17.084488570690155">
        <ele>246.79</ele>
        <time>2023-06-13T11:39:04.142Z</time>
      </trkpt>
      <trkpt lat="48.193384408950806" lon="17.08450198173523">
        <ele>245.95</ele>
        <time>2023-06-13T11:39:07.007Z</time>
      </trkpt>
      <trkpt lat="48.193159103393555" lon="17.084609270095825">
        <ele>244.71</ele>
        <time>2023-06-13T11:39:09.877Z</time>
      </trkpt>
      <trkpt lat="48.19283723831177" lon="17.084802389144897">
        <ele>243.06</ele>
        <time>2023-06-13T11:39:12.754Z</time>
      </trkpt>
      <trkpt lat="48.19260120391846" lon="17.084909677505493">
        <ele>241.37</ele>
        <time>2023-06-13T11:39:15.636Z</time>
      </trkpt>
      <trkpt lat="48.19249391555786" lon="17.08497405052185">
        <ele>239.99</ele>
        <time>2023-06-13T11:39:18.520Z</time>
      </trkpt>
      <trkpt lat="48.19244027137756" lon="17.08500623703003">
        <ele>238.96</ele>
        <time>2023-06-13T11:39:21.405Z</time>
      </trkpt>
      <trkpt lat="48.19236516952515" lon="17.08502769470215">
        <ele>238.17</ele>
        <time>2023-06-13T11:39:24.292Z</time>
      </trkpt>
      <trkpt lat="48.192408084869385" lon="17.085617780685425">
        <ele>237.85</ele>
        <time>2023-06-13T11:39:27.187Z</time>
      </trkpt>
      <trkpt lat="48.192418813705444" lon="17.086175680160522">
        <ele>237.64</ele>
        <time>2023-06-13T11:39:30.089Z</time>
      </trkpt>
      <trkpt lat="48.192397356033325" lon="17.086379528045654">
        <ele>237.5</ele>
        <time>2023-06-13T11:39:32.994Z</time>
      </trkpt>
      <trkpt lat="48.19233298301697" lon="17.086615562438965">
        <ele>237.55</ele>
        <time>2023-06-13T11:39:35.902Z</time>
      </trkpt>
      <trkpt lat="48.192182779312134" lon="17.086915969848633">
        <ele>237.96</ele>
        <time>2023-06-13T11:39:38.815Z</time>
      </trkpt>
      <trkpt lat="48.1920862197876" lon="17.086787223815918">
        <ele>238.44</ele>
        <time>2023-06-13T11:39:41.731Z</time>
      </trkpt>
      <trkpt lat="48.1920325756073" lon="17.086637020111084">
        <ele>239.03</ele>
        <time>2023-06-13T11:39:44.649Z</time>
      </trkpt>
      <trkpt lat="48.19200038909912" lon="17.08645462989807">
        <ele>239.68</ele>
        <time>2023-06-13T11:39:47.570Z</time>
      </trkpt>
      <trkpt lat="48.19196820259094" lon="17.086154222488403">
        <ele>240.65</ele>
        <time>2023-06-13T11:39:50.495Z</time>
      </trkpt>
      <trkpt lat="48.191936099901795" lon="17.086154222488403">
        <ele>242.55</ele>
        <time>2023-06-13T11:39:53.421Z</time>
      </trkpt>
      <trkpt lat="48.191871643066406" lon="17.086304426193237">
        <ele>245.18</ele>
        <time>2023-06-13T11:39:56.349Z</time>
      </trkpt>
      <trkpt lat="48.19182872772217" lon="17.086551189422607">
        <ele>248.63</ele>
        <time>2023-06-13T11:39:59.280Z</time>
      </trkpt>
      <trkpt lat="48.19185018539429" lon="17.08720564842224">
        <ele>252.4</ele>
        <time>2023-06-13T11:40:02.220Z</time>
      </trkpt>
      <trkpt lat="48.191871643066406" lon="17.08747386932373">
        <ele>254.8</ele>
        <time>2023-06-13T11:40:05.164Z</time>
      </trkpt>
      <trkpt lat="48.19189578294754" lon="17.087568333372474">
        <ele>256.46</ele>
        <time>2023-06-13T11:40:08.109Z</time>
      </trkpt>
      <trkpt lat="48.19189611822367" lon="17.08756959065795">
        <ele>256.49</ele>
        <time>2023-06-13T11:40:11.054Z</time>
      </trkpt>
      <trkpt lat="48.191896453499794" lon="17.087570764124393">
        <ele>256.52</ele>
        <time>2023-06-13T11:40:13.999Z</time>
      </trkpt>
      <trkpt lat="48.19189678877592" lon="17.08757202140987">
        <ele>256.55</ele>
        <time>2023-06-13T11:40:16.944Z</time>
      </trkpt>
      <trkpt lat="48.191897040233016" lon="17.08757302723825">
        <ele>256.58</ele>
        <time>2023-06-13T11:40:19.889Z</time>
      </trkpt>
      <trkpt lat="48.191897040233016" lon="17.08757311105728">
        <ele>259.2</ele>
        <time>2023-06-13T11:40:22.834Z</time>
      </trkpt>
      <trkpt lat="48.19222569465637" lon="17.088857889175415">
        <ele>259.62</ele>
        <time>2023-06-13T11:40:25.798Z</time>
      </trkpt>
      <trkpt lat="48.19222569465637" lon="17.088932991027832">
        <ele>260.83</ele>
        <time>2023-06-13T11:40:28.763Z</time>
      </trkpt>
      <trkpt lat="48.19220423698425" lon="17.08901882171631">
        <ele>262.78</ele>
        <time>2023-06-13T11:40:31.729Z</time>
      </trkpt>
      <trkpt lat="48.192172050476074" lon="17.089104652404785">
        <ele>265.45</ele>
        <time>2023-06-13T11:40:34.696Z</time>
      </trkpt>
      <trkpt lat="48.19207549095154" lon="17.08919048309326">
        <ele>269.09</ele>
        <time>2023-06-13T11:40:37.665Z</time>
      </trkpt>
      <trkpt lat="48.19180727005005" lon="17.089319229125977">
        <ele>273.84</ele>
        <time>2023-06-13T11:40:40.640Z</time>
      </trkpt>
      <trkpt lat="48.191624879837036" lon="17.089437246322632">
        <ele>278.26</ele>
        <time>2023-06-13T11:40:43.619Z</time>
      </trkpt>
      <trkpt lat="48.19144248962402" lon="17.089619636535645">
        <ele>282.08</ele>
        <time>2023-06-13T11:40:46.602Z</time>
      </trkpt>
      <trkpt lat="48.19120645523071" lon="17.08999514579773">
        <ele>285.18</ele>
        <time>2023-06-13T11:40:49.592Z</time>
      </trkpt>
      <trkpt lat="48.19102792069316" lon="17.090216344222426">
        <ele>287.6</ele>
        <time>2023-06-13T11:40:52.587Z</time>
      </trkpt>
      <trkpt lat="48.191027250140905" lon="17.090217266231775">
        <ele>287.62</ele>
        <time>2023-06-13T11:40:55.582Z</time>
      </trkpt>
      <trkpt lat="48.19102666340768" lon="17.090218104422092">
        <ele>287.64</ele>
        <time>2023-06-13T11:40:58.577Z</time>
      </trkpt>
      <trkpt lat="48.19102599285543" lon="17.09021902643144">
        <ele>287.66</ele>
        <time>2023-06-13T11:41:01.572Z</time>
      </trkpt>
      <trkpt lat="48.19102548994124" lon="17.090219780802727">
        <ele>287.67</ele>
        <time>2023-06-13T11:41:04.567Z</time>
      </trkpt>
      <trkpt lat="48.190895318984985" lon="17.090381383895874">
        <ele>298.72</ele>
        <time>2023-06-13T11:41:07.565Z</time>
      </trkpt>
      <trkpt lat="48.190176570788026" lon="17.091164588928223">
        <ele>303.3</ele>
        <time>2023-06-13T11:41:10.581Z</time>
      </trkpt>
      <trkpt lat="48.18981170654297" lon="17.091572284698486">
        <ele>306.74</ele>
        <time>2023-06-13T11:41:13.606Z</time>
      </trkpt>
      <trkpt lat="48.189682960510254" lon="17.091679573059082">
        <ele>309.88</ele>
        <time>2023-06-13T11:41:16.634Z</time>
      </trkpt>
      <trkpt lat="48.189650774002075" lon="17.091786861419678">
        <ele>312.58</ele>
        <time>2023-06-13T11:41:19.664Z</time>
      </trkpt>
      <trkpt lat="48.18961867131293" lon="17.09201216697693">
        <ele>315.18</ele>
        <time>2023-06-13T11:41:22.697Z</time>
      </trkpt>
      <trkpt lat="48.18960785865784" lon="17.092076539993286">
        <ele>317.22</ele>
        <time>2023-06-13T11:41:25.731Z</time>
      </trkpt>
      <trkpt lat="48.1896185874939" lon="17.092173099517822">
        <ele>318.99</ele>
        <time>2023-06-13T11:41:28.766Z</time>
      </trkpt>
      <trkpt lat="48.189650774002075" lon="17.09223747253418">
        <ele>320.48</ele>
        <time>2023-06-13T11:41:31.802Z</time>
      </trkpt>
      <trkpt lat="48.18977952003479" lon="17.092334032058716">
        <ele>321.87</ele>
        <time>2023-06-13T11:41:34.841Z</time>
      </trkpt>
      <trkpt lat="48.18984397687018" lon="17.092344760894775">
        <ele>322.98</ele>
        <time>2023-06-13T11:41:37.881Z</time>
      </trkpt>
      <trkpt lat="48.18999409675598" lon="17.092344760894775">
        <ele>324.07</ele>
        <time>2023-06-13T11:41:40.924Z</time>
      </trkpt>
      <trkpt lat="48.190176486968994" lon="17.092291116714478">
        <ele>325.11</ele>
        <time>2023-06-13T11:41:43.971Z</time>
      </trkpt>
      <trkpt lat="48.19050908088684" lon="17.09226965904236">
        <ele>326.37</ele>
        <time>2023-06-13T11:41:47.025Z</time>
      </trkpt>
      <trkpt lat="48.190670013427734" lon="17.092291116714478">
        <ele>327.61</ele>
        <time>2023-06-13T11:41:50.082Z</time>
      </trkpt>
      <trkpt lat="48.190895318984985" lon="17.092376947402954">
        <ele>329.03</ele>
        <time>2023-06-13T11:41:53.144Z</time>
      </trkpt>
      <trkpt lat="48.19098114967346" lon="17.09247350692749">
        <ele>330.7</ele>
        <time>2023-06-13T11:41:56.208Z</time>
      </trkpt>
      <trkpt lat="48.19099187850952" lon="17.09251642227173">
        <ele>332.49</ele>
        <time>2023-06-13T11:41:59.272Z</time>
      </trkpt>
      <trkpt lat="48.19098114967346" lon="17.092559337615967">
        <ele>334.51</ele>
        <time>2023-06-13T11:42:02.337Z</time>
      </trkpt>
      <trkpt lat="48.190938234329224" lon="17.092580795288086">
        <ele>336.73</ele>
        <time>2023-06-13T11:42:05.403Z</time>
      </trkpt>
      <trkpt lat="48.19077730178833" lon="17.092580795288086">
        <ele>339.2</ele>
        <time>2023-06-13T11:42:08.472Z</time>
      </trkpt>
      <trkpt lat="48.19061636924744" lon="17.092645168304443">
        <ele>341.9</ele>
        <time>2023-06-13T11:42:11.544Z</time>
      </trkpt>
      <trkpt lat="48.19044470787048" lon="17.092773914337158">
        <ele>344.91</ele>
        <time>2023-06-13T11:42:14.620Z</time>
      </trkpt>
      <trkpt lat="48.189629316329956" lon="17.093578577041626">
        <ele>349.39</ele>
        <time>2023-06-13T11:42:17.716Z</time>
      </trkpt>
      <trkpt lat="48.18958640098572" lon="17.093675136566162">
        <ele>351.71</ele>
        <time>2023-06-13T11:42:20.813Z</time>
      </trkpt>
      <trkpt lat="48.18959712982178" lon="17.09373950958252">
        <ele>353.7</ele>
        <time>2023-06-13T11:42:23.911Z</time>
      </trkpt>
      <trkpt lat="48.18969368934631" lon="17.09375023841858">
        <ele>355.28</ele>
        <time>2023-06-13T11:42:27.011Z</time>
      </trkpt>
      <trkpt lat="48.19011219777167" lon="17.093632221221924">
        <ele>356.44</ele>
        <time>2023-06-13T11:42:30.120Z</time>
      </trkpt>
      <trkpt lat="48.190433979034424" lon="17.093578577041626">
        <ele>357.61</ele>
        <time>2023-06-13T11:42:33.235Z</time>
      </trkpt>
      <trkpt lat="48.19058418273926" lon="17.093610763549805">
        <ele>358.37</ele>
        <time>2023-06-13T11:42:36.353Z</time>
      </trkpt>
      <trkpt lat="48.190670013427734" lon="17.09369659423828">
        <ele>359.19</ele>
        <time>2023-06-13T11:42:39.473Z</time>
      </trkpt>
      <trkpt lat="48.19070219993591" lon="17.093814611434937">
        <ele>359.93</ele>
        <time>2023-06-13T11:42:42.595Z</time>
      </trkpt>
      <trkpt lat="48.19070219993591" lon="17.093889713287354">
        <ele>360.38</ele>
        <time>2023-06-13T11:42:45.718Z</time>
      </trkpt>
      <trkpt lat="48.190670013427734" lon="17.09400773048401">
        <ele>360.77</ele>
        <time>2023-06-13T11:42:48.843Z</time>
      </trkpt>
      <trkpt lat="48.19062567315996" lon="17.094040671363473">
        <ele>361.02</ele>
        <time>2023-06-13T11:42:51.969Z</time>
      </trkpt>
      <trkpt lat="48.190624667331576" lon="17.09404150955379">
        <ele>361.03</ele>
        <time>2023-06-13T11:42:55.095Z</time>
      </trkpt>
      <trkpt lat="48.190623661503196" lon="17.094042347744107">
        <ele>361.04</ele>
        <time>2023-06-13T11:42:58.221Z</time>
      </trkpt>
      <trkpt lat="48.190622655674815" lon="17.094043185934424">
        <ele>361.05</ele>
        <time>2023-06-13T11:43:01.347Z</time>
      </trkpt>
      <trkpt lat="48.1906218174845" lon="17.094043856486678">
        <ele>361.06</ele>
        <time>2023-06-13T11:43:04.473Z</time>
      </trkpt>
      <trkpt lat="48.19058418273926" lon="17.094072103500366">
        <ele>361.57</ele>
        <time>2023-06-13T11:43:07.600Z</time>
      </trkpt>
      <trkpt lat="48.1900691986084" lon="17.094061374664307">
        <ele>364.45</ele>
        <time>2023-06-13T11:43:10.737Z</time>
      </trkpt>
      <trkpt lat="48.19006928242743" lon="17.094061374664307">
        <ele>367.37</ele>
        <time>2023-06-13T11:43:13.874Z</time>
      </trkpt>
      <trkpt lat="48.18976879119873" lon="17.09423303604126">
        <ele>370.56</ele>
        <time>2023-06-13T11:43:17.017Z</time>
      </trkpt>
      <trkpt lat="48.189157247543335" lon="17.094780206680298">
        <ele>374.88</ele>
        <time>2023-06-13T11:43:20.175Z</time>
      </trkpt>
      <trkpt lat="48.188685178756714" lon="17.095069885253906">
        <ele>379.23</ele>
        <time>2023-06-13T11:43:23.343Z</time>
      </trkpt>
      <trkpt lat="48.18830966949463" lon="17.09520936012268">
        <ele>384.53</ele>
        <time>2023-06-13T11:43:26.519Z</time>
      </trkpt>
      <trkpt lat="48.18786978721619" lon="17.09519863128662">
        <ele>390.42</ele>
        <time>2023-06-13T11:43:29.703Z</time>
      </trkpt>
      <trkpt lat="48.18777322769165" lon="17.0952308177948">
        <ele>395.19</ele>
        <time>2023-06-13T11:43:32.889Z</time>
      </trkpt>
      <trkpt lat="48.187655210494995" lon="17.095305919647217">
        <ele>399.56</ele>
        <time>2023-06-13T11:43:36.078Z</time>
      </trkpt>
      <trkpt lat="48.187429904937744" lon="17.09550976753235">
        <ele>403.65</ele>
        <time>2023-06-13T11:43:39.272Z</time>
      </trkpt>
      <trkpt lat="48.18663605488837" lon="17.09651827812195">
        <ele>407.96</ele>
        <time>2023-06-13T11:43:42.487Z</time>
      </trkpt>
      <trkpt lat="48.186442852020264" lon="17.096861600875854">
        <ele>410.73</ele>
        <time>2023-06-13T11:43:45.708Z</time>
      </trkpt>
      <trkpt lat="48.18635710515082" lon="17.097065448760986">
        <ele>412.84</ele>
        <time>2023-06-13T11:43:48.932Z</time>
      </trkpt>
      <trkpt lat="48.18632483482361" lon="17.097151279449463">
        <ele>414.46</ele>
        <time>2023-06-13T11:43:52.158Z</time>
      </trkpt>
      <trkpt lat="48.18632491864264" lon="17.097151279449463">
        <ele>415.64</ele>
        <time>2023-06-13T11:43:55.384Z</time>
      </trkpt>
      <trkpt lat="48.186196088790894" lon="17.097526788711548">
        <ele>416.41</ele>
        <time>2023-06-13T11:43:58.615Z</time>
      </trkpt>
      <trkpt lat="48.18611025810242" lon="17.097816467285156">
        <ele>416.99</ele>
        <time>2023-06-13T11:44:01.851Z</time>
      </trkpt>
      <trkpt lat="48.18603515625" lon="17.09799885749817">
        <ele>417.12</ele>
        <time>2023-06-13T11:44:05.089Z</time>
      </trkpt>
      <trkpt lat="48.18597078323364" lon="17.098095417022705">
        <ele>417.07</ele>
        <time>2023-06-13T11:44:08.329Z</time>
      </trkpt>
      <trkpt lat="48.18559527397156" lon="17.09849238395691">
        <ele>416.66</ele>
        <time>2023-06-13T11:44:11.578Z</time>
      </trkpt>
      <trkpt lat="48.185455882921815" lon="17.098631858825684">
        <ele>415.86</ele>
        <time>2023-06-13T11:44:14.831Z</time>
      </trkpt>
      <trkpt lat="48.185209119692445" lon="17.09896445274353">
        <ele>414.61</ele>
        <time>2023-06-13T11:44:18.090Z</time>
      </trkpt>
      <trkpt lat="48.185133934020996" lon="17.099082469940186">
        <ele>413.5</ele>
        <time>2023-06-13T11:44:21.352Z</time>
      </trkpt>
      <trkpt lat="48.1852734927088" lon="17.099061012268066">
        <ele>412.19</ele>
        <time>2023-06-13T11:44:24.616Z</time>
      </trkpt>
      <trkpt lat="48.1855309009552" lon="17.09898591041565">
        <ele>410.8</ele>
        <time>2023-06-13T11:44:27.886Z</time>
      </trkpt>
      <trkpt lat="48.18561681546271" lon="17.09918975830078">
        <ele>409.05</ele>
        <time>2023-06-13T11:44:31.159Z</time>
      </trkpt>
      <trkpt lat="48.18601369857788" lon="17.099318504333496">
        <ele>407.35</ele>
        <time>2023-06-13T11:44:34.440Z</time>
      </trkpt>
      <trkpt lat="48.186163902282715" lon="17.099415063858032">
        <ele>405.42</ele>
        <time>2023-06-13T11:44:37.724Z</time>
      </trkpt>
      <trkpt lat="48.18628191947937" lon="17.09950089454651">
        <ele>403.24</ele>
        <time>2023-06-13T11:44:41.011Z</time>
      </trkpt>
      <trkpt lat="48.18635702133179" lon="17.099597454071045">
        <ele>400.72</ele>
        <time>2023-06-13T11:44:44.300Z</time>
      </trkpt>
      <trkpt lat="48.186442852020264" lon="17.099790573120117">
        <ele>397.65</ele>
        <time>2023-06-13T11:44:47.592Z</time>
      </trkpt>
      <trkpt lat="48.18658232688904" lon="17.099919319152832">
        <ele>394.62</ele>
        <time>2023-06-13T11:44:50.887Z</time>
      </trkpt>
      <trkpt lat="48.186936378479004" lon="17.100058794021606">
        <ele>391.61</ele>
        <time>2023-06-13T11:44:54.190Z</time>
      </trkpt>
      <trkpt lat="48.187397718429565" lon="17.10026264190674">
        <ele>388.52</ele>
        <time>2023-06-13T11:44:57.502Z</time>
      </trkpt>
      <trkpt lat="48.18769812583923" lon="17.10047721862793">
        <ele>385.67</ele>
        <time>2023-06-13T11:45:00.821Z</time>
      </trkpt>
      <trkpt lat="48.18792317993939" lon="17.10053446702659">
        <ele>383.38</ele>
        <time>2023-06-13T11:45:04.144Z</time>
      </trkpt>
      <trkpt lat="48.187924437224865" lon="17.100534802302718">
        <ele>383.37</ele>
        <time>2023-06-13T11:45:07.467Z</time>
      </trkpt>
      <trkpt lat="48.18792552687228" lon="17.100535137578845">
        <ele>383.36</ele>
        <time>2023-06-13T11:45:10.791Z</time>
      </trkpt>
      <trkpt lat="48.18792678415775" lon="17.100535472854972">
        <ele>383.35</ele>
        <time>2023-06-13T11:45:14.115Z</time>
      </trkpt>
      <trkpt lat="48.1879279576242" lon="17.1005358081311">
        <ele>383.34</ele>
        <time>2023-06-13T11:45:17.439Z</time>
      </trkpt>
      <trkpt lat="48.18824529647827" lon="17.100616693496704">
        <ele>374.8</ele>
        <time>2023-06-13T11:45:20.769Z</time>
      </trkpt>
      <trkpt lat="48.18847060203552" lon="17.100595235824585">
        <ele>372.79</ele>
        <time>2023-06-13T11:45:24.104Z</time>
      </trkpt>
      <trkpt lat="48.188685178756714" lon="17.100616693496704">
        <ele>370.22</ele>
        <time>2023-06-13T11:45:27.443Z</time>
      </trkpt>
      <trkpt lat="48.18885684013367" lon="17.100541591644287">
        <ele>367.94</ele>
        <time>2023-06-13T11:45:30.785Z</time>
      </trkpt>
      <trkpt lat="48.18896412849426" lon="17.10044503211975">
        <ele>365.96</ele>
        <time>2023-06-13T11:45:34.130Z</time>
      </trkpt>
      <trkpt lat="48.1890070438385" lon="17.10045576095581">
        <ele>364.13</ele>
        <time>2023-06-13T11:45:37.476Z</time>
      </trkpt>
      <trkpt lat="48.1890070438385" lon="17.10048794746399">
        <ele>362.52</ele>
        <time>2023-06-13T11:45:40.822Z</time>
      </trkpt>
      <trkpt lat="48.18898558616638" lon="17.100541591644287">
        <ele>360.97</ele>
        <time>2023-06-13T11:45:44.169Z</time>
      </trkpt>
      <trkpt lat="48.18874955177307" lon="17.101024389266968">
        <ele>358.98</ele>
        <time>2023-06-13T11:45:47.524Z</time>
      </trkpt>
      <trkpt lat="48.18849205970764" lon="17.101410627365112">
        <ele>356.98</ele>
        <time>2023-06-13T11:45:50.886Z</time>
      </trkpt>
      <trkpt lat="48.188148736953735" lon="17.102043628692627">
        <ele>354.68</ele>
        <time>2023-06-13T11:45:54.259Z</time>
      </trkpt>
      <trkpt lat="48.18799861706793" lon="17.102268934249878">
        <ele>352.44</ele>
        <time>2023-06-13T11:45:57.637Z</time>
      </trkpt>
      <trkpt lat="48.1879448890686" lon="17.102365493774414">
        <ele>350.14</ele>
        <time>2023-06-13T11:46:01.016Z</time>
      </trkpt>
      <trkpt lat="48.18833121098578" lon="17.10245132446289">
        <ele>347.46</ele>
        <time>2023-06-13T11:46:04.403Z</time>
      </trkpt>
      <trkpt lat="48.188449228182435" lon="17.10244059562683">
        <ele>344.92</ele>
        <time>2023-06-13T11:46:07.792Z</time>
      </trkpt>
      <trkpt lat="48.18888911046088" lon="17.102376222610474">
        <ele>341.46</ele>
        <time>2023-06-13T11:46:11.190Z</time>
      </trkpt>
      <trkpt lat="48.188889026641846" lon="17.102376222610474">
        <ele>339.31</ele>
        <time>2023-06-13T11:46:14.588Z</time>
      </trkpt>
      <trkpt lat="48.189189434051514" lon="17.102408409118652">
        <ele>336.76</ele>
        <time>2023-06-13T11:46:17.992Z</time>
      </trkpt>
      <trkpt lat="48.189436197280884" lon="17.102311849594116">
        <ele>334.81</ele>
        <time>2023-06-13T11:46:21.401Z</time>
      </trkpt>
      <trkpt lat="48.189682960510254" lon="17.1021831035614">
        <ele>333.15</ele>
        <time>2023-06-13T11:46:24.816Z</time>
      </trkpt>
      <trkpt lat="48.18980064243078" lon="17.10214982740581">
        <ele>331.98</ele>
        <time>2023-06-13T11:46:28.233Z</time>
      </trkpt>
      <trkpt lat="48.18980189971626" lon="17.102149492129683">
        <ele>331.97</ele>
        <time>2023-06-13T11:46:31.650Z</time>
      </trkpt>
      <trkpt lat="48.18980298936367" lon="17.10214924067259">
        <ele>331.96</ele>
        <time>2023-06-13T11:46:35.067Z</time>
      </trkpt>
      <trkpt lat="48.189804246649146" lon="17.102148989215493">
        <ele>331.95</ele>
        <time>2023-06-13T11:46:38.484Z</time>
      </trkpt>
      <trkpt lat="48.18980550393462" lon="17.102148653939366">
        <ele>331.94</ele>
        <time>2023-06-13T11:46:41.901Z</time>
      </trkpt>
      <trkpt lat="48.19002628326416" lon="17.102086544036865">
        <ele>327.48</ele>
        <time>2023-06-13T11:46:45.323Z</time>
      </trkpt>
      <trkpt lat="48.1905198097229" lon="17.10194706916809">
        <ele>326.22</ele>
        <time>2023-06-13T11:46:48.755Z</time>
      </trkpt>
      <trkpt lat="48.19075584411621" lon="17.101829051971436">
        <ele>324.98</ele>
        <time>2023-06-13T11:46:52.192Z</time>
      </trkpt>
      <trkpt lat="48.191120624542236" lon="17.101625204086304">
        <ele>323.75</ele>
        <time>2023-06-13T11:46:55.636Z</time>
      </trkpt>
      <trkpt lat="48.19172143936157" lon="17.1011745929718">
        <ele>322.05</ele>
        <time>2023-06-13T11:46:59.094Z</time>
      </trkpt>
      <trkpt lat="48.19178581237793" lon="17.10119605064392">
        <ele>321.2</ele>
        <time>2023-06-13T11:47:02.553Z</time>
      </trkpt>
      <trkpt lat="48.19182872772217" lon="17.10124969482422">
        <ele>320.78</ele>
        <time>2023-06-13T11:47:06.013Z</time>
      </trkpt>
      <trkpt lat="48.19185026921332" lon="17.101346254348755">
        <ele>320.76</ele>
        <time>2023-06-13T11:47:09.475Z</time>
      </trkpt>
      <trkpt lat="48.191893100738525" lon="17.101603746414185">
        <ele>321.18</ele>
        <time>2023-06-13T11:47:12.940Z</time>
      </trkpt>
      <trkpt lat="48.191936016082764" lon="17.10175395011902">
        <ele>321.67</ele>
        <time>2023-06-13T11:47:16.407Z</time>
      </trkpt>
      <trkpt lat="48.192118406295776" lon="17.102054357528687">
        <ele>321.85</ele>
        <time>2023-06-13T11:47:19.880Z</time>
      </trkpt>
      <trkpt lat="48.192139863967896" lon="17.10219383239746">
        <ele>322.35</ele>
        <time>2023-06-13T11:47:23.355Z</time>
      </trkpt>
      <trkpt lat="48.19210767745972" lon="17.102408409118652">
        <ele>323.14</ele>
        <time>2023-06-13T11:47:26.833Z</time>
      </trkpt>
      <trkpt lat="48.19200038909912" lon="17.10293412208557">
        <ele>324.27</ele>
        <time>2023-06-13T11:47:30.318Z</time>
      </trkpt>
      <trkpt lat="48.191903829574585" lon="17.10323452949524">
        <ele>325.24</ele>
        <time>2023-06-13T11:47:33.808Z</time>
      </trkpt>
      <trkpt lat="48.19181799888611" lon="17.103588581085205">
        <ele>326.08</ele>
        <time>2023-06-13T11:47:37.303Z</time>
      </trkpt>
      <trkpt lat="48.19177508354187" lon="17.10396409034729">
        <ele>326.81</ele>
        <time>2023-06-13T11:47:40.803Z</time>
      </trkpt>
      <trkpt lat="48.19177508354187" lon="17.104318141937256">
        <ele>327.27</ele>
        <time>2023-06-13T11:47:44.307Z</time>
      </trkpt>
      <trkpt lat="48.191914558410645" lon="17.104908227920532">
        <ele>327.5</ele>
        <time>2023-06-13T11:47:47.820Z</time>
      </trkpt>
      <trkpt lat="48.19195747375488" lon="17.10494041442871">
        <ele>328.14</ele>
        <time>2023-06-13T11:47:51.334Z</time>
      </trkpt>
      <trkpt lat="48.19201111793518" lon="17.104918956756592">
        <ele>328.86</ele>
        <time>2023-06-13T11:47:54.849Z</time>
      </trkpt>
      <trkpt lat="48.1920862197876" lon="17.104897499084473">
        <ele>329.68</ele>
        <time>2023-06-13T11:47:58.365Z</time>
      </trkpt>
      <trkpt lat="48.192204320803285" lon="17.104811668395996">
        <ele>330.67</ele>
        <time>2023-06-13T11:48:01.884Z</time>
      </trkpt>
      <trkpt lat="48.192654848098755" lon="17.104039192199707">
        <ele>332.15</ele>
        <time>2023-06-13T11:48:05.417Z</time>
      </trkpt>
      <trkpt lat="48.19299817085266" lon="17.10368514060974">
        <ele>333.06</ele>
        <time>2023-06-13T11:48:08.958Z</time>
      </trkpt>
      <trkpt lat="48.19360971450806" lon="17.103127241134644">
        <ele>334.32</ele>
        <time>2023-06-13T11:48:12.513Z</time>
      </trkpt>
      <trkpt lat="48.19430708885193" lon="17.10267663002014">
        <ele>335.07</ele>
        <time>2023-06-13T11:48:16.084Z</time>
      </trkpt>
      <trkpt lat="48.19447875022888" lon="17.10246205329895">
        <ele>334.76</ele>
        <time>2023-06-13T11:48:19.659Z</time>
      </trkpt>
      <trkpt lat="48.19478988647461" lon="17.102022171020508">
        <ele>333.8</ele>
        <time>2023-06-13T11:48:23.243Z</time>
      </trkpt>
      <trkpt lat="48.19497227668762" lon="17.101850509643555">
        <ele>333.55</ele>
        <time>2023-06-13T11:48:26.831Z</time>
      </trkpt>
      <trkpt lat="48.1950581073761" lon="17.101850509643555">
        <ele>333.94</ele>
        <time>2023-06-13T11:48:30.421Z</time>
      </trkpt>
      <trkpt lat="48.1951117515564" lon="17.101904153823853">
        <ele>334.68</ele>
        <time>2023-06-13T11:48:34.012Z</time>
      </trkpt>
      <trkpt lat="48.19521903991699" lon="17.102172374725342">
        <ele>335.82</ele>
        <time>2023-06-13T11:48:37.607Z</time>
      </trkpt>
      <trkpt lat="48.195350551977754" lon="17.10247613489628">
        <ele>335.95</ele>
        <time>2023-06-13T11:48:41.207Z</time>
      </trkpt>
      <trkpt lat="48.195351054891944" lon="17.10247714072466">
        <ele>335.96</ele>
        <time>2023-06-13T11:48:44.807Z</time>
      </trkpt>
      <trkpt lat="48.1953514739871" lon="17.102477978914976">
        <ele>335.97</ele>
        <time>2023-06-13T11:48:48.407Z</time>
      </trkpt>
      <trkpt lat="48.19535197690129" lon="17.102478984743357">
        <ele>335.98</ele>
        <time>2023-06-13T11:48:52.007Z</time>
      </trkpt>
      <trkpt lat="48.19535239599645" lon="17.102479990571737">
        <ele>335.99</ele>
        <time>2023-06-13T11:48:55.607Z</time>
      </trkpt>
      <trkpt lat="48.19535239599645" lon="17.10248007439077">
        <ele>336.76</ele>
        <time>2023-06-13T11:48:59.207Z</time>
      </trkpt>
      <trkpt lat="48.19535851478577" lon="17.10249423980713">
        <ele>337.11</ele>
        <time>2023-06-13T11:49:02.807Z</time>
      </trkpt>
      <trkpt lat="48.19546580314636" lon="17.102859020233154">
        <ele>337.41</ele>
        <time>2023-06-13T11:49:06.413Z</time>
      </trkpt>
      <trkpt lat="48.19548726081848" lon="17.103148698806763">
        <ele>337.8</ele>
        <time>2023-06-13T11:49:10.023Z</time>
      </trkpt>
      <trkpt lat="48.1955623626709" lon="17.103610038757324">
        <ele>338.08</ele>
        <time>2023-06-13T11:49:13.639Z</time>
      </trkpt>
      <trkpt lat="48.19558382034302" lon="17.10393190383911">
        <ele>338.84</ele>
        <time>2023-06-13T11:49:17.259Z</time>
      </trkpt>
      <trkpt lat="48.19559454917908" lon="17.10423231124878">
        <ele>339.76</ele>
        <time>2023-06-13T11:49:20.883Z</time>
      </trkpt>
      <trkpt lat="48.19555163383484" lon="17.10445761680603">
        <ele>340.79</ele>
        <time>2023-06-13T11:49:24.510Z</time>
      </trkpt>
      <trkpt lat="48.195433616638184" lon="17.10473656654358">
        <ele>341.85</ele>
        <time>2023-06-13T11:49:28.142Z</time>
      </trkpt>
      <trkpt lat="48.195401430130005" lon="17.104843854904175">
        <ele>342.66</ele>
        <time>2023-06-13T11:49:31.775Z</time>
      </trkpt>
      <trkpt lat="48.195422887802124" lon="17.10494041442871">
        <ele>343.28</ele>
        <time>2023-06-13T11:49:35.410Z</time>
      </trkpt>
      <trkpt lat="48.1954550743103" lon="17.105015516281128">
        <ele>343.79</ele>
        <time>2023-06-13T11:49:39.046Z</time>
      </trkpt>
      <trkpt lat="48.1955087184906" lon="17.105090618133545">
        <ele>344.16</ele>
        <time>2023-06-13T11:49:42.683Z</time>
      </trkpt>
      <trkpt lat="48.195648193359375" lon="17.105058431625366">
        <ele>344.27</ele>
        <time>2023-06-13T11:49:46.323Z</time>
      </trkpt>
      <trkpt lat="48.19577693939209" lon="17.105090618133545">
        <ele>344.29</ele>
        <time>2023-06-13T11:49:49.966Z</time>
      </trkpt>
      <trkpt lat="48.1959593296051" lon="17.105273008346558">
        <ele>344.55</ele>
        <time>2023-06-13T11:49:53.613Z</time>
      </trkpt>
      <trkpt lat="48.19604516029358" lon="17.105273008346558">
        <ele>344.57</ele>
        <time>2023-06-13T11:49:57.262Z</time>
      </trkpt>
      <trkpt lat="48.196152448654175" lon="17.1052086353302">
        <ele>344.5</ele>
        <time>2023-06-13T11:50:00.913Z</time>
      </trkpt>
      <trkpt lat="48.19621682167053" lon="17.105122804641724">
        <ele>344.23</ele>
        <time>2023-06-13T11:50:04.566Z</time>
      </trkpt>
      <trkpt lat="48.19634556770325" lon="17.105036973953247">
        <ele>343.91</ele>
        <time>2023-06-13T11:50:08.222Z</time>
      </trkpt>
      <trkpt lat="48.196613788604736" lon="17.10471510887146">
        <ele>342.97</ele>
        <time>2023-06-13T11:50:11.885Z</time>
      </trkpt>
      <trkpt lat="48.19675326347351" lon="17.104650735855103">
        <ele>342.57</ele>
        <time>2023-06-13T11:50:15.551Z</time>
      </trkpt>
      <trkpt lat="48.19708585739136" lon="17.10443615913391">
        <ele>342.22</ele>
        <time>2023-06-13T11:50:19.224Z</time>
      </trkpt>
      <trkpt lat="48.197182416915894" lon="17.10445761680603">
        <ele>342.05</ele>
        <time>2023-06-13T11:50:22.899Z</time>
      </trkpt>
      <trkpt lat="48.19745063781738" lon="17.104640007019043">
        <ele>342.34</ele>
        <time>2023-06-13T11:50:26.580Z</time>
      </trkpt>
      <trkpt lat="48.1975793838501" lon="17.10467219352722">
        <ele>342.4</ele>
        <time>2023-06-13T11:50:30.263Z</time>
      </trkpt>
      <trkpt lat="48.19770812988281" lon="17.104661464691162">
        <ele>342.4</ele>
        <time>2023-06-13T11:50:33.949Z</time>
      </trkpt>
      <trkpt lat="48.197869062423706" lon="17.104597091674805">
        <ele>342.15</ele>
        <time>2023-06-13T11:50:37.638Z</time>
      </trkpt>
      <trkpt lat="48.19829821586609" lon="17.104371786117554">
        <ele>341.57</ele>
        <time>2023-06-13T11:50:41.336Z</time>
      </trkpt>
      <trkpt lat="48.198384046554565" lon="17.104361057281494">
        <ele>341.34</ele>
        <time>2023-06-13T11:50:45.036Z</time>
      </trkpt>
      <trkpt lat="48.19846987724304" lon="17.104382514953613">
        <ele>341.21</ele>
        <time>2023-06-13T11:50:48.738Z</time>
      </trkpt>
      <trkpt lat="48.1985342502594" lon="17.104414701461792">
        <ele>341.2</ele>
        <time>2023-06-13T11:50:52.441Z</time>
      </trkpt>
      <trkpt lat="48.19859862327576" lon="17.10448980331421">
        <ele>341.29</ele>
        <time>2023-06-13T11:50:56.146Z</time>
      </trkpt>
      <trkpt lat="48.198630809783936" lon="17.104607820510864">
        <ele>341.62</ele>
        <time>2023-06-13T11:50:59.852Z</time>
      </trkpt>
      <trkpt lat="48.198652267456055" lon="17.104800939559937">
        <ele>342.11</ele>
        <time>2023-06-13T11:51:03.561Z</time>
      </trkpt>
      <trkpt lat="48.198641538619995" lon="17.10500478744507">
        <ele>342.76</ele>
        <time>2023-06-13T11:51:07.273Z</time>
      </trkpt>
      <trkpt lat="48.198620080947876" lon="17.10517644882202">
        <ele>343.42</ele>
        <time>2023-06-13T11:51:10.987Z</time>
      </trkpt>
      <trkpt lat="48.1985342502594" lon="17.10548758506775">
        <ele>344.39</ele>
        <time>2023-06-13T11:51:14.706Z</time>
      </trkpt>
      <trkpt lat="48.19852352142334" lon="17.10566997528076">
        <ele>345.25</ele>
        <time>2023-06-13T11:51:18.427Z</time>
      </trkpt>
      <trkpt lat="48.19859862327576" lon="17.105798721313477">
        <ele>345.99</ele>
        <time>2023-06-13T11:51:22.150Z</time>
      </trkpt>
      <trkpt lat="48.19872736930847" lon="17.105841636657715">
        <ele>346.57</ele>
        <time>2023-06-13T11:51:25.876Z</time>
      </trkpt>
      <trkpt lat="48.19879174232483" lon="17.105841636657715">
        <ele>347.13</ele>
        <time>2023-06-13T11:51:29.603Z</time>
      </trkpt>
      <trkpt lat="48.19884538650513" lon="17.105863094329834">
        <ele>347.76</ele>
        <time>2023-06-13T11:51:33.331Z</time>
      </trkpt>
      <trkpt lat="48.198909759521484" lon="17.105841636657715">
        <ele>348.32</ele>
        <time>2023-06-13T11:51:37.061Z</time>
      </trkpt>
      <trkpt lat="48.19899559020996" lon="17.105884552001953">
        <ele>348.94</ele>
        <time>2023-06-13T11:51:40.793Z</time>
      </trkpt>
      <trkpt lat="48.19905996322632" lon="17.10597038269043">
        <ele>349.61</ele>
        <time>2023-06-13T11:51:44.526Z</time>
      </trkpt>
      <trkpt lat="48.1990921497345" lon="17.106066942214966">
        <ele>350.24</ele>
        <time>2023-06-13T11:51:48.261Z</time>
      </trkpt>
      <trkpt lat="48.199156522750854" lon="17.106131315231323">
        <ele>350.81</ele>
        <time>2023-06-13T11:51:51.997Z</time>
      </trkpt>
      <trkpt lat="48.19928526878357" lon="17.106142044067383">
        <ele>351.32</ele>
        <time>2023-06-13T11:51:55.736Z</time>
      </trkpt>
      <trkpt lat="48.199360370635986" lon="17.106066942214966">
        <ele>351.72</ele>
        <time>2023-06-13T11:51:59.477Z</time>
      </trkpt>
      <trkpt lat="48.19947838783264" lon="17.105863094329834">
        <ele>352.11</ele>
        <time>2023-06-13T11:52:03.221Z</time>
      </trkpt>
      <trkpt lat="48.19953203201294" lon="17.105809450149536">
        <ele>352.51</ele>
        <time>2023-06-13T11:52:06.967Z</time>
      </trkpt>
      <trkpt lat="48.199660778045654" lon="17.105573415756226">
        <ele>352.81</ele>
        <time>2023-06-13T11:52:10.717Z</time>
      </trkpt>
      <trkpt lat="48.199907541275024" lon="17.105294466018677">
        <ele>353.11</ele>
        <time>2023-06-13T11:52:14.473Z</time>
      </trkpt>
      <trkpt lat="48.20000410079956" lon="17.10523009300232">
        <ele>353.57</ele>
        <time>2023-06-13T11:52:18.231Z</time>
      </trkpt>
      <trkpt lat="48.200111389160156" lon="17.10523009300232">
        <ele>354.19</ele>
        <time>2023-06-13T11:52:21.991Z</time>
      </trkpt>
      <trkpt lat="48.20020794868469" lon="17.105294466018677">
        <ele>354.95</ele>
        <time>2023-06-13T11:52:25.753Z</time>
      </trkpt>
      <trkpt lat="48.20028305053711" lon="17.10548758506775">
        <ele>355.9</ele>
        <time>2023-06-13T11:52:29.518Z</time>
      </trkpt>
      <trkpt lat="48.200401067733765" lon="17.10592746734619">
        <ele>356.95</ele>
        <time>2023-06-13T11:52:33.290Z</time>
      </trkpt>
      <trkpt lat="48.200443983078" lon="17.106142044067383">
        <ele>357.69</ele>
        <time>2023-06-13T11:52:37.065Z</time>
      </trkpt>
      <trkpt lat="48.200615644454956" lon="17.10642099380493">
        <ele>358.33</ele>
        <time>2023-06-13T11:52:40.845Z</time>
      </trkpt>
      <trkpt lat="48.200626373291016" lon="17.106528282165527">
        <ele>358.99</ele>
        <time>2023-06-13T11:52:44.626Z</time>
      </trkpt>
      <trkpt lat="48.2006049156189" lon="17.10693597793579">
        <ele>359.74</ele>
        <time>2023-06-13T11:52:48.413Z</time>
      </trkpt>
      <trkpt lat="48.200637102127075" lon="17.107032537460327">
        <ele>360.4</ele>
        <time>2023-06-13T11:52:52.201Z</time>
      </trkpt>
      <trkpt lat="48.200669288635254" lon="17.107064723968506">
        <ele>361.09</ele>
        <time>2023-06-13T11:52:55.990Z</time>
      </trkpt>
      <trkpt lat="48.20071220397949" lon="17.107064723968506">
        <ele>361.8</ele>
        <time>2023-06-13T11:52:59.780Z</time>
      </trkpt>
      <trkpt lat="48.20084095001221" lon="17.10700035095215">
        <ele>362.58</ele>
        <time>2023-06-13T11:53:03.572Z</time>
      </trkpt>
      <trkpt lat="48.20101261138916" lon="17.106860876083374">
        <ele>363.49</ele>
        <time>2023-06-13T11:53:07.368Z</time>
      </trkpt>
      <trkpt lat="48.20130228996277" lon="17.10566997528076">
        <ele>364.43</ele>
        <time>2023-06-13T11:53:11.181Z</time>
      </trkpt>
      <trkpt lat="48.20147395133972" lon="17.105412483215332">
        <ele>365.26</ele>
        <time>2023-06-13T11:53:14.999Z</time>
      </trkpt>
      <trkpt lat="48.20154905319214" lon="17.105369567871094">
        <ele>366.02</ele>
        <time>2023-06-13T11:53:18.819Z</time>
      </trkpt>
      <trkpt lat="48.201624155044556" lon="17.105358839035034">
        <ele>366.8</ele>
        <time>2023-06-13T11:53:22.640Z</time>
      </trkpt>
      <trkpt lat="48.20169925689697" lon="17.105412483215332">
        <ele>367.62</ele>
        <time>2023-06-13T11:53:26.463Z</time>
      </trkpt>
      <trkpt lat="48.20179581642151" lon="17.105627059936523">
        <ele>368.56</ele>
        <time>2023-06-13T11:53:30.289Z</time>
      </trkpt>
      <trkpt lat="48.20183881558478" lon="17.106034755706787">
        <ele>369.38</ele>
        <time>2023-06-13T11:53:34.121Z</time>
      </trkpt>
      <trkpt lat="48.20202112197876" lon="17.106163501739502">
        <ele>370.03</ele>
        <time>2023-06-13T11:53:37.957Z</time>
      </trkpt>
      <trkpt lat="48.20222496986389" lon="17.106163501739502">
        <ele>370.59</ele>
        <time>2023-06-13T11:53:41.797Z</time>
      </trkpt>
      <trkpt lat="48.20243954658508" lon="17.106120586395264">
        <ele>371.15</ele>
        <time>2023-06-13T11:53:45.641Z</time>
      </trkpt>
      <trkpt lat="48.2025146484375" lon="17.106077671051025">
        <ele>371.87</ele>
        <time>2023-06-13T11:53:49.487Z</time>
      </trkpt>
      <trkpt lat="48.20258975028992" lon="17.106024026870728">
        <ele>372.66</ele>
        <time>2023-06-13T11:53:53.335Z</time>
      </trkpt>
      <trkpt lat="48.202911699190736" lon="17.105712890625">
        <ele>373.57</ele>
        <time>2023-06-13T11:53:57.190Z</time>
      </trkpt>
      <trkpt lat="48.20299744606018" lon="17.105616331100464">
        <ele>374.82</ele>
        <time>2023-06-13T11:54:01.047Z</time>
      </trkpt>
      <trkpt lat="48.203169107437134" lon="17.105358839035034">
        <ele>376.32</ele>
        <time>2023-06-13T11:54:04.909Z</time>
      </trkpt>
      <trkpt lat="48.20344805717468" lon="17.10474729537964">
        <ele>378.09</ele>
        <time>2023-06-13T11:54:08.781Z</time>
      </trkpt>
      <trkpt lat="48.203608989715576" lon="17.10448980331421">
        <ele>379.88</ele>
        <time>2023-06-13T11:54:12.658Z</time>
      </trkpt>
      <trkpt lat="48.20379137992859" lon="17.1042537689209">
        <ele>381.53</ele>
        <time>2023-06-13T11:54:16.540Z</time>
      </trkpt>
      <trkpt lat="48.20425271987915" lon="17.103770971298218">
        <ele>383.8</ele>
        <time>2023-06-13T11:54:20.433Z</time>
      </trkpt>
      <trkpt lat="48.2044243812561" lon="17.103567123413086">
        <ele>385.3</ele>
        <time>2023-06-13T11:54:24.330Z</time>
      </trkpt>
      <trkpt lat="48.204606771469116" lon="17.103309631347656">
        <ele>386.55</ele>
        <time>2023-06-13T11:54:28.232Z</time>
      </trkpt>
      <trkpt lat="48.2046558894217" lon="17.103260178118944">
        <ele>387.41</ele>
        <time>2023-06-13T11:54:32.136Z</time>
      </trkpt>
      <trkpt lat="48.204656979069114" lon="17.103259172290564">
        <ele>387.43</ele>
        <time>2023-06-13T11:54:36.040Z</time>
      </trkpt>
      <trkpt lat="48.204657984897494" lon="17.103258250281215">
        <ele>387.45</ele>
        <time>2023-06-13T11:54:39.944Z</time>
      </trkpt>
      <trkpt lat="48.20465907454491" lon="17.103257244452834">
        <ele>387.47</ele>
        <time>2023-06-13T11:54:43.848Z</time>
      </trkpt>
      <trkpt lat="48.20466016419232" lon="17.103256238624454">
        <ele>387.49</ele>
        <time>2023-06-13T11:54:47.752Z</time>
      </trkpt>
      <trkpt lat="48.20472478866577" lon="17.103191614151">
        <ele>390.26</ele>
        <time>2023-06-13T11:54:51.657Z</time>
      </trkpt>
      <trkpt lat="48.204896450042725" lon="17.103073596954346">
        <ele>390.64</ele>
        <time>2023-06-13T11:54:55.566Z</time>
      </trkpt>
      <trkpt lat="48.20504665374756" lon="17.10299849510193">
        <ele>391.2</ele>
        <time>2023-06-13T11:54:59.478Z</time>
      </trkpt>
      <trkpt lat="48.20521831512451" lon="17.10294485092163">
        <ele>392.04</ele>
        <time>2023-06-13T11:55:03.394Z</time>
      </trkpt>
      <trkpt lat="48.205411434173584" lon="17.10295557975769">
        <ele>393.13</ele>
        <time>2023-06-13T11:55:07.314Z</time>
      </trkpt>
      <trkpt lat="48.20580840110779" lon="17.103062868118286">
        <ele>394.47</ele>
        <time>2023-06-13T11:55:11.242Z</time>
      </trkpt>
      <trkpt lat="48.2059907913208" lon="17.103170156478882">
        <ele>395.67</ele>
        <time>2023-06-13T11:55:15.174Z</time>
      </trkpt>
      <trkpt lat="48.20611962117255" lon="17.10321307182312">
        <ele>396.68</ele>
        <time>2023-06-13T11:55:19.108Z</time>
      </trkpt>
      <trkpt lat="48.20622690953314" lon="17.1032452583313">
        <ele>397.54</ele>
        <time>2023-06-13T11:55:23.044Z</time>
      </trkpt>
      <trkpt lat="48.20643067359924" lon="17.103331089019775">
        <ele>398.16</ele>
        <time>2023-06-13T11:55:26.985Z</time>
      </trkpt>
      <trkpt lat="48.206602334976196" lon="17.10347056388855">
        <ele>398.62</ele>
        <time>2023-06-13T11:55:30.930Z</time>
      </trkpt>
      <trkpt lat="48.20667743682861" lon="17.103588581085205">
        <ele>398.99</ele>
        <time>2023-06-13T11:55:34.877Z</time>
      </trkpt>
      <trkpt lat="48.20698857307434" lon="17.104275226593018">
        <ele>399.42</ele>
        <time>2023-06-13T11:55:38.835Z</time>
      </trkpt>
      <trkpt lat="48.20708513259888" lon="17.104382514953613">
        <ele>399.87</ele>
        <time>2023-06-13T11:55:42.795Z</time>
      </trkpt>
      <trkpt lat="48.207138776779175" lon="17.104414701461792">
        <ele>400.34</ele>
        <time>2023-06-13T11:55:46.756Z</time>
      </trkpt>
      <trkpt lat="48.20747137069702" lon="17.104554176330566">
        <ele>401.05</ele>
        <time>2023-06-13T11:55:50.724Z</time>
      </trkpt>
      <trkpt lat="48.20775032043457" lon="17.104597091674805">
        <ele>401.8</ele>
        <time>2023-06-13T11:55:54.698Z</time>
      </trkpt>
      <trkpt lat="48.2080078125" lon="17.104597091674805">
        <ele>402.79</ele>
        <time>2023-06-13T11:55:58.677Z</time>
      </trkpt>
      <trkpt lat="48.20828676223755" lon="17.104543447494507">
        <ele>403.93</ele>
        <time>2023-06-13T11:56:02.662Z</time>
      </trkpt>
      <trkpt lat="48.20849061012268" lon="17.10446834564209">
        <ele>404.98</ele>
        <time>2023-06-13T11:56:06.651Z</time>
      </trkpt>
      <trkpt lat="48.20867300033569" lon="17.104371786117554">
        <ele>406.01</ele>
        <time>2023-06-13T11:56:10.644Z</time>
      </trkpt>
      <trkpt lat="48.2090163230896" lon="17.104049921035767">
        <ele>406.93</ele>
        <time>2023-06-13T11:56:14.645Z</time>
      </trkpt>
      <trkpt lat="48.209424102678895" lon="17.103824615478516">
        <ele>407.72</ele>
        <time>2023-06-13T11:56:18.655Z</time>
      </trkpt>
      <trkpt lat="48.20956349372864" lon="17.103760242462158">
        <ele>408.42</ele>
        <time>2023-06-13T11:56:22.668Z</time>
      </trkpt>
      <trkpt lat="48.21006774902344" lon="17.103352546691895">
        <ele>408.77</ele>
        <time>2023-06-13T11:56:26.692Z</time>
      </trkpt>
      <trkpt lat="48.21023941040039" lon="17.10325598716736">
        <ele>409.15</ele>
        <time>2023-06-13T11:56:30.720Z</time>
      </trkpt>
      <trkpt lat="48.21044325828552" lon="17.10320234298706">
        <ele>409.42</ele>
        <time>2023-06-13T11:56:34.752Z</time>
      </trkpt>
      <trkpt lat="48.21078658103943" lon="17.103073596954346">
        <ele>409.59</ele>
        <time>2023-06-13T11:56:38.791Z</time>
      </trkpt>
      <trkpt lat="48.2109260559082" lon="17.103052139282227">
        <ele>409.85</ele>
        <time>2023-06-13T11:56:42.833Z</time>
      </trkpt>
      <trkpt lat="48.21120500564575" lon="17.103170156478882">
        <ele>410.09</ele>
        <time>2023-06-13T11:56:46.880Z</time>
      </trkpt>
      <trkpt lat="48.211612701416016" lon="17.10322380065918">
        <ele>410.45</ele>
        <time>2023-06-13T11:56:50.936Z</time>
      </trkpt>
      <trkpt lat="48.21173071861267" lon="17.103266716003418">
        <ele>411.03</ele>
        <time>2023-06-13T11:56:54.994Z</time>
      </trkpt>
      <trkpt lat="48.21176298893988" lon="17.103298902511597">
        <ele>411.62</ele>
        <time>2023-06-13T11:56:59.053Z</time>
      </trkpt>
      <trkpt lat="48.21180590428412" lon="17.103567123413086">
        <ele>412.55</ele>
        <time>2023-06-13T11:57:03.116Z</time>
      </trkpt>
      <trkpt lat="48.211848735809326" lon="17.103620767593384">
        <ele>413.27</ele>
        <time>2023-06-13T11:57:07.180Z</time>
      </trkpt>
      <trkpt lat="48.211913108825684" lon="17.10367441177368">
        <ele>413.98</ele>
        <time>2023-06-13T11:57:11.245Z</time>
      </trkpt>
      <trkpt lat="48.21199893951416" lon="17.10368514060974">
        <ele>414.63</ele>
        <time>2023-06-13T11:57:15.312Z</time>
      </trkpt>
      <trkpt lat="48.21246027946472" lon="17.103631496429443">
        <ele>415.33</ele>
        <time>2023-06-13T11:57:19.388Z</time>
      </trkpt>
      <trkpt lat="48.2129430770874" lon="17.103663682937622">
        <ele>415.83</ele>
        <time>2023-06-13T11:57:23.474Z</time>
      </trkpt>
      <trkpt lat="48.21301817893982" lon="17.10370659828186">
        <ele>416.29</ele>
        <time>2023-06-13T11:57:27.561Z</time>
      </trkpt>
      <trkpt lat="48.21317911148071" lon="17.103846073150635">
        <ele>416.77</ele>
        <time>2023-06-13T11:57:31.652Z</time>
      </trkpt>
      <trkpt lat="48.213179195299745" lon="17.103846073150635">
        <ele>416.94</ele>
        <time>2023-06-13T11:57:35.743Z</time>
      </trkpt>
      <trkpt lat="48.21342587471008" lon="17.10421085357666">
        <ele>417.38</ele>
        <time>2023-06-13T11:57:39.841Z</time>
      </trkpt>
      <trkpt lat="48.213887214660645" lon="17.104146480560303">
        <ele>417.3</ele>
        <time>2023-06-13T11:57:43.948Z</time>
      </trkpt>
      <trkpt lat="48.2140052318573" lon="17.104146480560303">
        <ele>416.87</ele>
        <time>2023-06-13T11:57:48.058Z</time>
      </trkpt>
      <trkpt lat="48.214091062545776" lon="17.10417866706848">
        <ele>416.17</ele>
        <time>2023-06-13T11:57:52.169Z</time>
      </trkpt>
      <trkpt lat="48.214155435562134" lon="17.10422158241272">
        <ele>415.15</ele>
        <time>2023-06-13T11:57:56.282Z</time>
      </trkpt>
      <trkpt lat="48.21429491043091" lon="17.104361057281494">
        <ele>413.74</ele>
        <time>2023-06-13T11:58:00.398Z</time>
      </trkpt>
      <trkpt lat="48.21457386016846" lon="17.10447907447815">
        <ele>411.93</ele>
        <time>2023-06-13T11:58:04.520Z</time>
      </trkpt>
      <trkpt lat="48.21478843688965" lon="17.104618549346924">
        <ele>410.12</ele>
        <time>2023-06-13T11:58:08.647Z</time>
      </trkpt>
      <trkpt lat="48.21526050567627" lon="17.105047702789307">
        <ele>407.97</ele>
        <time>2023-06-13T11:58:12.785Z</time>
      </trkpt>
      <trkpt lat="48.21548581123352" lon="17.105144262313843">
        <ele>406.11</ele>
        <time>2023-06-13T11:58:16.927Z</time>
      </trkpt>
      <trkpt lat="48.21597933769226" lon="17.105584144592285">
        <ele>404.14</ele>
        <time>2023-06-13T11:58:21.081Z</time>
      </trkpt>
      <trkpt lat="48.21597942151129" lon="17.105584144592285">
        <ele>402.37</ele>
        <time>2023-06-13T11:58:25.235Z</time>
      </trkpt>
      <trkpt lat="48.21627974510193" lon="17.105841636657715">
        <ele>400.48</ele>
        <time>2023-06-13T11:58:29.396Z</time>
      </trkpt>
      <trkpt lat="48.21645140647888" lon="17.10594892501831">
        <ele>398.6</ele>
        <time>2023-06-13T11:58:33.561Z</time>
      </trkpt>
      <trkpt lat="48.21671962738037" lon="17.106077671051025">
        <ele>396.69</ele>
        <time>2023-06-13T11:58:37.731Z</time>
      </trkpt>
      <trkpt lat="48.21697720326483" lon="17.106152772903442">
        <ele>394.76</ele>
        <time>2023-06-13T11:58:41.907Z</time>
      </trkpt>
      <trkpt lat="48.21722388267517" lon="17.10618495941162">
        <ele>392.82</ele>
        <time>2023-06-13T11:58:46.087Z</time>
      </trkpt>
      <trkpt lat="48.217588663101196" lon="17.106335163116455">
        <ele>390.79</ele>
        <time>2023-06-13T11:58:50.275Z</time>
      </trkpt>
      <trkpt lat="48.21796417236328" lon="17.106581926345825">
        <ele>388.54</ele>
        <time>2023-06-13T11:58:54.471Z</time>
      </trkpt>
      <trkpt lat="48.21806073188782" lon="17.10668921470642">
        <ele>386.3</ele>
        <time>2023-06-13T11:58:58.670Z</time>
      </trkpt>
      <trkpt lat="48.218146646395326" lon="17.106828689575195">
        <ele>383.95</ele>
        <time>2023-06-13T11:59:02.871Z</time>
      </trkpt>
      <trkpt lat="48.21822166442871" lon="17.10698962211609">
        <ele>381.49</ele>
        <time>2023-06-13T11:59:07.075Z</time>
      </trkpt>
      <trkpt lat="48.21825393475592" lon="17.107129096984863">
        <ele>378.9</ele>
        <time>2023-06-13T11:59:11.281Z</time>
      </trkpt>
      <trkpt lat="48.21826457977295" lon="17.107311487197876">
        <ele>376.16</ele>
        <time>2023-06-13T11:59:15.489Z</time>
      </trkpt>
      <trkpt lat="48.21821093559265" lon="17.108019590377808">
        <ele>372.95</ele>
        <time>2023-06-13T11:59:19.707Z</time>
      </trkpt>
      <trkpt lat="48.21829676628113" lon="17.10943579673767">
        <ele>369.49</ele>
        <time>2023-06-13T11:59:23.944Z</time>
      </trkpt>
      <trkpt lat="48.218371868133545" lon="17.110068798065186">
        <ele>366.15</ele>
        <time>2023-06-13T11:59:28.189Z</time>
      </trkpt>
      <trkpt lat="48.218361139297485" lon="17.110412120819092">
        <ele>363.34</ele>
        <time>2023-06-13T11:59:32.439Z</time>
      </trkpt>
      <trkpt lat="48.21836122311652" lon="17.110412120819092">
        <ele>361.17</ele>
        <time>2023-06-13T11:59:36.689Z</time>
      </trkpt>
      <trkpt lat="48.21832895278931" lon="17.11098074913025">
        <ele>358.95</ele>
        <time>2023-06-13T11:59:40.947Z</time>
      </trkpt>
      <trkpt lat="48.21829685010016" lon="17.11119532585144">
        <ele>357.26</ele>
        <time>2023-06-13T11:59:45.208Z</time>
      </trkpt>
      <trkpt lat="48.218382596969604" lon="17.11122751235962">
        <ele>355.62</ele>
        <time>2023-06-13T11:59:49.470Z</time>
      </trkpt>
      <trkpt lat="48.21841478347778" lon="17.111334800720215">
        <ele>354.24</ele>
        <time>2023-06-13T11:59:53.734Z</time>
      </trkpt>
      <trkpt lat="48.21845769882202" lon="17.111366987228394">
        <ele>353.03</ele>
        <time>2023-06-13T11:59:57.999Z</time>
      </trkpt>
      <trkpt lat="48.2185435295105" lon="17.111377716064453">
        <ele>352.01</ele>
        <time>2023-06-13T12:00:02.266Z</time>
      </trkpt>
      <trkpt lat="48.218650901690125" lon="17.111345529556274">
        <ele>351.23</ele>
        <time>2023-06-13T12:00:06.535Z</time>
      </trkpt>
      <trkpt lat="48.218693817034364" lon="17.111334800720215">
        <ele>350.72</ele>
        <time>2023-06-13T12:00:10.805Z</time>
      </trkpt>
      <trkpt lat="48.21879029273987" lon="17.111345529556274">
        <ele>350.47</ele>
        <time>2023-06-13T12:00:15.077Z</time>
      </trkpt>
      <trkpt lat="48.21882247924805" lon="17.111399173736572">
        <ele>350.49</ele>
        <time>2023-06-13T12:00:19.350Z</time>
      </trkpt>
      <trkpt lat="48.21892976760864" lon="17.11142063140869">
        <ele>350.76</ele>
        <time>2023-06-13T12:00:23.625Z</time>
      </trkpt>
      <trkpt lat="48.21906924247742" lon="17.111527919769287">
        <ele>351.33</ele>
        <time>2023-06-13T12:00:27.903Z</time>
      </trkpt>
      <trkpt lat="48.219112157821655" lon="17.111538648605347">
        <ele>352.16</ele>
        <time>2023-06-13T12:00:32.182Z</time>
      </trkpt>
      <trkpt lat="48.219155073165894" lon="17.111527919769287">
        <ele>353.28</ele>
        <time>2023-06-13T12:00:36.462Z</time>
      </trkpt>
      <trkpt lat="48.21923017501831" lon="17.111345529556274">
        <ele>354.71</ele>
        <time>2023-06-13T12:00:40.744Z</time>
      </trkpt>
      <trkpt lat="48.219401836395264" lon="17.111302614212036">
        <ele>356.44</ele>
        <time>2023-06-13T12:00:45.030Z</time>
      </trkpt>
      <trkpt lat="48.21965932846069" lon="17.111109495162964">
        <ele>358.38</ele>
        <time>2023-06-13T12:00:49.322Z</time>
      </trkpt>
      <trkpt lat="48.21975588798523" lon="17.111045122146606">
        <ele>359.89</ele>
        <time>2023-06-13T12:00:53.616Z</time>
      </trkpt>
      <trkpt lat="48.21993827819824" lon="17.111045122146606">
        <ele>361.36</ele>
        <time>2023-06-13T12:00:57.914Z</time>
      </trkpt>
      <trkpt lat="48.22003483772278" lon="17.111002206802368">
        <ele>362.62</ele>
        <time>2023-06-13T12:01:02.214Z</time>
      </trkpt>
      <trkpt lat="48.22020649909973" lon="17.111034393310547">
        <ele>363.84</ele>
        <time>2023-06-13T12:01:06.517Z</time>
      </trkpt>
      <trkpt lat="48.22026014328003" lon="17.111012935638428">
        <ele>364.97</ele>
        <time>2023-06-13T12:01:10.821Z</time>
      </trkpt>
      <trkpt lat="48.22030305862427" lon="17.11095929145813">
        <ele>366.07</ele>
        <time>2023-06-13T12:01:15.126Z</time>
      </trkpt>
      <trkpt lat="48.220378160476685" lon="17.11069107055664">
        <ele>367.15</ele>
        <time>2023-06-13T12:01:19.435Z</time>
      </trkpt>
      <trkpt lat="48.22040917351842" lon="17.110638935118914">
        <ele>367.89</ele>
        <time>2023-06-13T12:01:23.745Z</time>
      </trkpt>
      <trkpt lat="48.22041009552777" lon="17.110637594014406">
        <ele>367.92</ele>
        <time>2023-06-13T12:01:28.055Z</time>
      </trkpt>
      <trkpt lat="48.220410933718085" lon="17.11063633672893">
        <ele>367.94</ele>
        <time>2023-06-13T12:01:32.365Z</time>
      </trkpt>
      <trkpt lat="48.2204117719084" lon="17.110634995624423">
        <ele>367.97</ele>
        <time>2023-06-13T12:01:36.675Z</time>
      </trkpt>
      <trkpt lat="48.22041269391775" lon="17.110633570700884">
        <ele>368.0</ele>
        <time>2023-06-13T12:01:40.985Z</time>
      </trkpt>
      <trkpt lat="48.2205069065094" lon="17.11047649383545">
        <ele>371.45</ele>
        <time>2023-06-13T12:01:45.298Z</time>
      </trkpt>
      <trkpt lat="48.22057127952576" lon="17.110326290130615">
        <ele>372.31</ele>
        <time>2023-06-13T12:01:49.613Z</time>
      </trkpt>
      <trkpt lat="48.220614194869995" lon="17.1102511882782">
        <ele>373.25</ele>
        <time>2023-06-13T12:01:53.930Z</time>
      </trkpt>
      <trkpt lat="48.220860958099365" lon="17.11018681526184">
        <ele>374.45</ele>
        <time>2023-06-13T12:01:58.252Z</time>
      </trkpt>
      <trkpt lat="48.221118450164795" lon="17.110261917114258">
        <ele>375.99</ele>
        <time>2023-06-13T12:02:02.579Z</time>
      </trkpt>
      <trkpt lat="48.22121500968933" lon="17.1102511882782">
        <ele>377.51</ele>
        <time>2023-06-13T12:02:06.908Z</time>
      </trkpt>
      <trkpt lat="48.22129011154175" lon="17.11018681526184">
        <ele>378.98</ele>
        <time>2023-06-13T12:02:11.239Z</time>
      </trkpt>
      <trkpt lat="48.221343755722046" lon="17.110015153884888">
        <ele>380.41</ele>
        <time>2023-06-13T12:02:15.572Z</time>
      </trkpt>
      <trkpt lat="48.221375942230225" lon="17.10997223854065">
        <ele>381.74</ele>
        <time>2023-06-13T12:02:19.906Z</time>
      </trkpt>
      <trkpt lat="48.22141885757446" lon="17.10997223854065">
        <ele>383.0</ele>
        <time>2023-06-13T12:02:24.241Z</time>
      </trkpt>
      <trkpt lat="48.22150468826294" lon="17.110025882720947">
        <ele>384.31</ele>
        <time>2023-06-13T12:02:28.578Z</time>
      </trkpt>
      <trkpt lat="48.221611976623535" lon="17.110025882720947">
        <ele>385.58</ele>
        <time>2023-06-13T12:02:32.917Z</time>
      </trkpt>
      <trkpt lat="48.22180509567261" lon="17.10992932319641">
        <ele>386.87</ele>
        <time>2023-06-13T12:02:37.260Z</time>
      </trkpt>
      <trkpt lat="48.221912467852235" lon="17.109822034835815">
        <ele>387.85</ele>
        <time>2023-06-13T12:02:41.606Z</time>
      </trkpt>
      <trkpt lat="48.22194457054138" lon="17.10972547531128">
        <ele>388.5</ele>
        <time>2023-06-13T12:02:45.953Z</time>
      </trkpt>
      <trkpt lat="48.22192311286926" lon="17.109596729278564">
        <ele>388.79</ele>
        <time>2023-06-13T12:02:50.302Z</time>
      </trkpt>
      <trkpt lat="48.22193384170532" lon="17.10947871208191">
        <ele>388.92</ele>
        <time>2023-06-13T12:02:54.652Z</time>
      </trkpt>
      <trkpt lat="48.221901655197144" lon="17.109349966049194">
        <ele>388.79</ele>
        <time>2023-06-13T12:02:59.004Z</time>
      </trkpt>
      <trkpt lat="48.221890926361084" lon="17.109038829803467">
        <ele>388.54</ele>
        <time>2023-06-13T12:03:03.360Z</time>
      </trkpt>
      <trkpt lat="48.2219123840332" lon="17.10871696472168">
        <ele>388.18</ele>
        <time>2023-06-13T12:03:07.721Z</time>
      </trkpt>
      <trkpt lat="48.22193384170532" lon="17.108652591705322">
        <ele>387.7</ele>
        <time>2023-06-13T12:03:12.083Z</time>
      </trkpt>
      <trkpt lat="48.22200894355774" lon="17.108545303344727">
        <ele>387.2</ele>
        <time>2023-06-13T12:03:16.447Z</time>
      </trkpt>
      <trkpt lat="48.22206258773804" lon="17.108395099639893">
        <ele>386.56</ele>
        <time>2023-06-13T12:03:20.813Z</time>
      </trkpt>
      <trkpt lat="48.222084045410156" lon="17.108062505722046">
        <ele>385.52</ele>
        <time>2023-06-13T12:03:25.183Z</time>
      </trkpt>
      <trkpt lat="48.2220733165741" lon="17.10798740386963">
        <ele>384.52</ele>
        <time>2023-06-13T12:03:29.554Z</time>
      </trkpt>
      <trkpt lat="48.22203040122986" lon="17.107890844345093">
        <ele>383.39</ele>
        <time>2023-06-13T12:03:33.927Z</time>
      </trkpt>
      <trkpt lat="48.221890926361084" lon="17.1076762676239">
        <ele>381.97</ele>
        <time>2023-06-13T12:03:38.304Z</time>
      </trkpt>
      <trkpt lat="48.221880197525024" lon="17.107590436935425">
        <ele>380.79</ele>
        <time>2023-06-13T12:03:42.682Z</time>
      </trkpt>
      <trkpt lat="48.221890926361084" lon="17.107386589050293">
        <ele>379.51</ele>
        <time>2023-06-13T12:03:47.063Z</time>
      </trkpt>
      <trkpt lat="48.22197675704956" lon="17.107161283493042">
        <ele>378.39</ele>
        <time>2023-06-13T12:03:51.447Z</time>
      </trkpt>
      <trkpt lat="48.22203040122986" lon="17.107107639312744">
        <ele>377.48</ele>
        <time>2023-06-13T12:03:55.833Z</time>
      </trkpt>
      <trkpt lat="48.222137689590454" lon="17.107032537460327">
        <ele>376.73</ele>
        <time>2023-06-13T12:04:00.221Z</time>
      </trkpt>
      <trkpt lat="48.22222352027893" lon="17.10700035095215">
        <ele>375.89</ele>
        <time>2023-06-13T12:04:04.611Z</time>
      </trkpt>
      <trkpt lat="48.22242736816406" lon="17.106828689575195">
        <ele>374.88</ele>
        <time>2023-06-13T12:04:09.006Z</time>
      </trkpt>
      <trkpt lat="48.22256684303284" lon="17.106764316558838">
        <ele>373.63</ele>
        <time>2023-06-13T12:04:13.403Z</time>
      </trkpt>
      <trkpt lat="48.222588300704956" lon="17.10671067237854">
        <ele>372.51</ele>
        <time>2023-06-13T12:04:17.801Z</time>
      </trkpt>
      <trkpt lat="48.2225775718689" lon="17.106635570526123">
        <ele>371.35</ele>
        <time>2023-06-13T12:04:22.200Z</time>
      </trkpt>
      <trkpt lat="48.2224702835083" lon="17.10647463798523">
        <ele>370.18</ele>
        <time>2023-06-13T12:04:26.602Z</time>
      </trkpt>
      <trkpt lat="48.222416639328" lon="17.106388807296753">
        <ele>368.98</ele>
        <time>2023-06-13T12:04:31.006Z</time>
      </trkpt>
      <trkpt lat="48.22240591049194" lon="17.106335163116455">
        <ele>367.69</ele>
        <time>2023-06-13T12:04:35.411Z</time>
      </trkpt>
      <trkpt lat="48.22243809700012" lon="17.10623860359192">
        <ele>366.28</ele>
        <time>2023-06-13T12:04:39.817Z</time>
      </trkpt>
      <trkpt lat="48.22251319885254" lon="17.10617423057556">
        <ele>364.72</ele>
        <time>2023-06-13T12:04:44.225Z</time>
      </trkpt>
      <trkpt lat="48.22253465652466" lon="17.106142044067383">
        <ele>363.35</ele>
        <time>2023-06-13T12:04:48.633Z</time>
      </trkpt>
      <trkpt lat="48.22253465652466" lon="17.106056213378906">
        <ele>361.98</ele>
        <time>2023-06-13T12:04:53.043Z</time>
      </trkpt>
      <trkpt lat="48.2224702835083" lon="17.10597038269043">
        <ele>360.7</ele>
        <time>2023-06-13T12:04:57.454Z</time>
      </trkpt>
      <trkpt lat="48.222341537475586" lon="17.105906009674072">
        <ele>359.31</ele>
        <time>2023-06-13T12:05:01.868Z</time>
      </trkpt>
      <trkpt lat="48.22232007980347" lon="17.105841636657715">
        <ele>357.98</ele>
        <time>2023-06-13T12:05:06.283Z</time>
      </trkpt>
      <trkpt lat="48.22232007980347" lon="17.105798721313477">
        <ele>356.77</ele>
        <time>2023-06-13T12:05:10.699Z</time>
      </trkpt>
      <trkpt lat="48.222341537475586" lon="17.105712890625">
        <ele>355.59</ele>
        <time>2023-06-13T12:05:15.116Z</time>
      </trkpt>
      <trkpt lat="48.22251319885254" lon="17.105551958084106">
        <ele>354.35</ele>
        <time>2023-06-13T12:05:19.537Z</time>
      </trkpt>
      <trkpt lat="48.2225239276886" lon="17.105519771575928">
        <ele>353.55</ele>
        <time>2023-06-13T12:05:23.958Z</time>
      </trkpt>
      <trkpt lat="48.22251319885254" lon="17.10544466972351">
        <ele>352.85</ele>
        <time>2023-06-13T12:05:28.380Z</time>
      </trkpt>
      <trkpt lat="48.22249174118042" lon="17.10542321205139">
        <ele>352.48</ele>
        <time>2023-06-13T12:05:32.803Z</time>
      </trkpt>
      <trkpt lat="48.222416639328" lon="17.10543394088745">
        <ele>352.36</ele>
        <time>2023-06-13T12:05:37.227Z</time>
      </trkpt>
      <trkpt lat="48.222341537475586" lon="17.105519771575928">
        <ele>352.35</ele>
        <time>2023-06-13T12:05:41.653Z</time>
      </trkpt>
      <trkpt lat="48.22222352027893" lon="17.105616331100464">
        <ele>352.28</ele>
        <time>2023-06-13T12:05:46.082Z</time>
      </trkpt>
      <trkpt lat="48.2220733165741" lon="17.105777263641357">
        <ele>352.16</ele>
        <time>2023-06-13T12:05:50.515Z</time>
      </trkpt>
      <trkpt lat="48.2219660282135" lon="17.10595965385437">
        <ele>351.88</ele>
        <time>2023-06-13T12:05:54.951Z</time>
      </trkpt>
      <trkpt lat="48.22194457054138" lon="17.10593819618225">
        <ele>351.22</ele>
        <time>2023-06-13T12:05:59.387Z</time>
      </trkpt>
      <trkpt lat="48.22198748588562" lon="17.105830907821655">
        <ele>350.4</ele>
        <time>2023-06-13T12:06:03.825Z</time>
      </trkpt>
      <trkpt lat="48.2220733165741" lon="17.105648517608643">
        <ele>349.22</ele>
        <time>2023-06-13T12:06:08.266Z</time>
      </trkpt>
      <trkpt lat="48.222084045410156" lon="17.105573415756226">
        <ele>347.93</ele>
        <time>2023-06-13T12:06:12.708Z</time>
      </trkpt>
      <trkpt lat="48.22218060493469" lon="17.105326652526855">
        <ele>346.29</ele>
        <time>2023-06-13T12:06:17.154Z</time>
      </trkpt>
      <trkpt lat="48.22220206260681" lon="17.10518717765808">
        <ele>344.98</ele>
        <time>2023-06-13T12:06:21.602Z</time>
      </trkpt>
      <trkpt lat="48.22224447503686" lon="17.10505918599665">
        <ele>343.99</ele>
        <time>2023-06-13T12:06:26.052Z</time>
      </trkpt>
      <trkpt lat="48.22224497795105" lon="17.105057761073112">
        <ele>343.98</ele>
        <time>2023-06-13T12:06:30.502Z</time>
      </trkpt>
      <trkpt lat="48.22224548086524" lon="17.105056503787637">
        <ele>343.97</ele>
        <time>2023-06-13T12:06:34.952Z</time>
      </trkpt>
      <trkpt lat="48.22224598377943" lon="17.105055078864098">
        <ele>343.96</ele>
        <time>2023-06-13T12:06:39.402Z</time>
      </trkpt>
      <trkpt lat="48.22224657051265" lon="17.105053570121527">
        <ele>343.95</ele>
        <time>2023-06-13T12:06:43.852Z</time>
      </trkpt>
      <trkpt lat="48.22227716445923" lon="17.10496187210083">
        <ele>339.56</ele>
        <time>2023-06-13T12:06:48.303Z</time>
      </trkpt>
      <trkpt lat="48.222330808639526" lon="17.104854583740234">
        <ele>339.52</ele>
        <time>2023-06-13T12:06:52.756Z</time>
      </trkpt>
      <trkpt lat="48.2224702835083" lon="17.10474729537964">
        <ele>339.58</ele>
        <time>2023-06-13T12:06:57.212Z</time>
      </trkpt>
      <trkpt lat="48.2225775718689" lon="17.10473656654358">
        <ele>340.14</ele>
        <time>2023-06-13T12:07:01.670Z</time>
      </trkpt>
      <trkpt lat="48.22262057103217" lon="17.104768753051758">
        <ele>341.06</ele>
        <time>2023-06-13T12:07:06.129Z</time>
      </trkpt>
      <trkpt lat="48.22266340255737" lon="17.104833126068115">
        <ele>342.3</ele>
        <time>2023-06-13T12:07:10.590Z</time>
      </trkpt>
      <trkpt lat="48.22268486022949" lon="17.104908227920532">
        <ele>343.78</ele>
        <time>2023-06-13T12:07:15.052Z</time>
      </trkpt>
      <trkpt lat="48.22278141975403" lon="17.10543394088745">
        <ele>346.37</ele>
        <time>2023-06-13T12:07:19.521Z</time>
      </trkpt>
      <trkpt lat="48.22278150357306" lon="17.10543394088745">
        <ele>348.35</ele>
        <time>2023-06-13T12:07:23.990Z</time>
      </trkpt>
      <trkpt lat="48.2229745388031" lon="17.10598111152649">
        <ele>350.52</ele>
        <time>2023-06-13T12:07:28.467Z</time>
      </trkpt>
      <trkpt lat="48.22324275970459" lon="17.10646390914917">
        <ele>352.98</ele>
        <time>2023-06-13T12:07:32.953Z</time>
      </trkpt>
      <trkpt lat="48.22390794754028" lon="17.10671067237854">
        <ele>354.28</ele>
        <time>2023-06-13T12:07:37.452Z</time>
      </trkpt>
      <trkpt lat="48.224133253097534" lon="17.106828689575195">
        <ele>355.74</ele>
        <time>2023-06-13T12:07:41.956Z</time>
      </trkpt>
      <trkpt lat="48.22520613670349" lon="17.10775136947632">
        <ele>358.18</ele>
        <time>2023-06-13T12:07:46.485Z</time>
      </trkpt>
      <trkpt lat="48.22542071342468" lon="17.107847929000854">
        <ele>359.68</ele>
        <time>2023-06-13T12:07:51.018Z</time>
      </trkpt>
      <trkpt lat="48.225635290145874" lon="17.107912302017212">
        <ele>361.03</ele>
        <time>2023-06-13T12:07:55.556Z</time>
      </trkpt>
      <trkpt lat="48.225871324539185" lon="17.10796594619751">
        <ele>362.16</ele>
        <time>2023-06-13T12:08:00.098Z</time>
      </trkpt>
      <trkpt lat="48.22624683380127" lon="17.108019590377808">
        <ele>362.66</ele>
        <time>2023-06-13T12:08:04.648Z</time>
      </trkpt>
      <trkpt lat="48.22643995285034" lon="17.108126878738403">
        <ele>363.03</ele>
        <time>2023-06-13T12:08:09.202Z</time>
      </trkpt>
      <trkpt lat="48.2265043258667" lon="17.10822343826294">
        <ele>363.43</ele>
        <time>2023-06-13T12:08:13.758Z</time>
      </trkpt>
      <trkpt lat="48.226611614227295" lon="17.108545303344727">
        <ele>363.92</ele>
        <time>2023-06-13T12:08:18.319Z</time>
      </trkpt>
      <trkpt lat="48.22671890258789" lon="17.109328508377075">
        <ele>364.76</ele>
        <time>2023-06-13T12:08:22.890Z</time>
      </trkpt>
      <trkpt lat="48.226836919784546" lon="17.109661102294922">
        <ele>365.21</ele>
        <time>2023-06-13T12:08:27.467Z</time>
      </trkpt>
      <trkpt lat="48.226869106292725" lon="17.109832763671875">
        <ele>365.73</ele>
        <time>2023-06-13T12:08:32.046Z</time>
      </trkpt>
      <trkpt lat="48.22691202163696" lon="17.10997223854065">
        <ele>366.09</ele>
        <time>2023-06-13T12:08:36.627Z</time>
      </trkpt>
      <trkpt lat="48.22696566581726" lon="17.110100984573364">
        <ele>366.29</ele>
        <time>2023-06-13T12:08:41.210Z</time>
      </trkpt>
      <trkpt lat="48.227373361587524" lon="17.110315561294556">
        <ele>366.05</ele>
        <time>2023-06-13T12:08:45.802Z</time>
      </trkpt>
      <trkpt lat="48.22774887084961" lon="17.11046576499939">
        <ele>365.81</ele>
        <time>2023-06-13T12:08:50.401Z</time>
      </trkpt>
      <trkpt lat="48.22781324386597" lon="17.110508680343628">
        <ele>365.48</ele>
        <time>2023-06-13T12:08:55.002Z</time>
      </trkpt>
      <trkpt lat="48.22806000709534" lon="17.110562324523926">
        <ele>364.79</ele>
        <time>2023-06-13T12:08:59.608Z</time>
      </trkpt>
      <trkpt lat="48.228113651275635" lon="17.110648155212402">
        <ele>364.26</ele>
        <time>2023-06-13T12:09:04.215Z</time>
      </trkpt>
      <trkpt lat="48.22819948196411" lon="17.11092710494995">
        <ele>363.85</ele>
        <time>2023-06-13T12:09:08.826Z</time>
      </trkpt>
      <trkpt lat="48.22819948196411" lon="17.11121678352356">
        <ele>363.48</ele>
        <time>2023-06-13T12:09:13.441Z</time>
      </trkpt>
      <trkpt lat="48.22822093963623" lon="17.11122751235962">
        <ele>362.86</ele>
        <time>2023-06-13T12:09:18.057Z</time>
      </trkpt>
      <trkpt lat="48.22825312614441" lon="17.11121678352356">
        <ele>362.17</ele>
        <time>2023-06-13T12:09:22.673Z</time>
      </trkpt>
      <trkpt lat="48.22830677032471" lon="17.111098766326904">
        <ele>361.42</ele>
        <time>2023-06-13T12:09:27.291Z</time>
      </trkpt>
      <trkpt lat="48.228328227996826" lon="17.111012935638428">
        <ele>360.68</ele>
        <time>2023-06-13T12:09:31.911Z</time>
      </trkpt>
      <trkpt lat="48.228328227996826" lon="17.11093783378601">
        <ele>359.9</ele>
        <time>2023-06-13T12:09:36.532Z</time>
      </trkpt>
      <trkpt lat="48.22840332984924" lon="17.11044430732727">
        <ele>358.69</ele>
        <time>2023-06-13T12:09:41.159Z</time>
      </trkpt>
      <trkpt lat="48.22844624519348" lon="17.110283374786377">
        <ele>357.89</ele>
        <time>2023-06-13T12:09:45.789Z</time>
      </trkpt>
      <trkpt lat="48.22847843170166" lon="17.1102511882782">
        <ele>357.23</ele>
        <time>2023-06-13T12:09:50.419Z</time>
      </trkpt>
      <trkpt lat="48.22854280471802" lon="17.11022973060608">
        <ele>356.68</ele>
        <time>2023-06-13T12:09:55.051Z</time>
      </trkpt>
      <trkpt lat="48.228585720062256" lon="17.11024045944214">
        <ele>356.27</ele>
        <time>2023-06-13T12:09:59.684Z</time>
      </trkpt>
      <trkpt lat="48.22865009307861" lon="17.110272645950317">
        <ele>356.0</ele>
        <time>2023-06-13T12:10:04.318Z</time>
      </trkpt>
      <trkpt lat="48.22867155075073" lon="17.110261917114258">
        <ele>355.81</ele>
        <time>2023-06-13T12:10:08.952Z</time>
      </trkpt>
      <trkpt lat="48.22866082191467" lon="17.110122442245483">
        <ele>355.65</ele>
        <time>2023-06-13T12:10:13.588Z</time>
      </trkpt>
      <trkpt lat="48.22867155075073" lon="17.110090255737305">
        <ele>355.66</ele>
        <time>2023-06-13T12:10:18.225Z</time>
      </trkpt>
      <trkpt lat="48.22870373725891" lon="17.110068798065186">
        <ele>355.8</ele>
        <time>2023-06-13T12:10:22.863Z</time>
      </trkpt>
      <trkpt lat="48.2289183139801" lon="17.109768390655518">
        <ele>356.1</ele>
        <time>2023-06-13T12:10:27.506Z</time>
      </trkpt>
      <trkpt lat="48.22900414466858" lon="17.10970401763916">
        <ele>356.5</ele>
        <time>2023-06-13T12:10:32.151Z</time>
      </trkpt>
      <trkpt lat="48.22910078801215" lon="17.10968255996704">
        <ele>357.02</ele>
        <time>2023-06-13T12:10:36.798Z</time>
      </trkpt>
      <trkpt lat="48.22929382324219" lon="17.109575271606445">
        <ele>357.73</ele>
        <time>2023-06-13T12:10:41.449Z</time>
      </trkpt>
      <trkpt lat="48.22956204414368" lon="17.10948944091797">
        <ele>358.61</ele>
        <time>2023-06-13T12:10:46.106Z</time>
      </trkpt>
      <trkpt lat="48.22974443435669" lon="17.109382152557373">
        <ele>359.35</ele>
        <time>2023-06-13T12:10:50.767Z</time>
      </trkpt>
      <trkpt lat="48.22974451817572" lon="17.109382152557373">
        <ele>360.11</ele>
        <time>2023-06-13T12:10:55.428Z</time>
      </trkpt>
      <trkpt lat="48.22989463806152" lon="17.109403610229492">
        <ele>361.07</ele>
        <time>2023-06-13T12:11:00.092Z</time>
      </trkpt>
      <trkpt lat="48.23001265525818" lon="17.109392881393433">
        <ele>361.98</ele>
        <time>2023-06-13T12:11:04.758Z</time>
      </trkpt>
      <trkpt lat="48.230141401290894" lon="17.109274864196777">
        <ele>362.86</ele>
        <time>2023-06-13T12:11:09.427Z</time>
      </trkpt>
      <trkpt lat="48.23020577430725" lon="17.10916757583618">
        <ele>363.8</ele>
        <time>2023-06-13T12:11:14.098Z</time>
      </trkpt>
      <trkpt lat="48.23029160499573" lon="17.10871696472168">
        <ele>364.69</ele>
        <time>2023-06-13T12:11:18.775Z</time>
      </trkpt>
      <trkpt lat="48.23029168881476" lon="17.10871696472168">
        <ele>365.67</ele>
        <time>2023-06-13T12:11:23.452Z</time>
      </trkpt>
      <trkpt lat="48.23029160499573" lon="17.108566761016846">
        <ele>366.61</ele>
        <time>2023-06-13T12:11:28.131Z</time>
      </trkpt>
      <trkpt lat="48.23031306266785" lon="17.108523845672607">
        <ele>367.7</ele>
        <time>2023-06-13T12:11:32.811Z</time>
      </trkpt>
      <trkpt lat="48.230355978012085" lon="17.10849165916443">
        <ele>368.9</ele>
        <time>2023-06-13T12:11:37.492Z</time>
      </trkpt>
      <trkpt lat="48.2304847240448" lon="17.10847020149231">
        <ele>370.28</ele>
        <time>2023-06-13T12:11:42.176Z</time>
      </trkpt>
      <trkpt lat="48.230592012405396" lon="17.108405828475952">
        <ele>371.65</ele>
        <time>2023-06-13T12:11:46.862Z</time>
      </trkpt>
      <trkpt lat="48.23080658912659" lon="17.10820198059082">
        <ele>373.0</ele>
        <time>2023-06-13T12:11:51.553Z</time>
      </trkpt>
      <trkpt lat="48.230881690979004" lon="17.1081805229187">
        <ele>374.47</ele>
        <time>2023-06-13T12:11:56.246Z</time>
      </trkpt>
      <trkpt lat="48.231085538864136" lon="17.108234167099">
        <ele>376.18</ele>
        <time>2023-06-13T12:12:00.943Z</time>
      </trkpt>
      <trkpt lat="48.23126792907715" lon="17.10820198059082">
        <ele>377.75</ele>
        <time>2023-06-13T12:12:05.643Z</time>
      </trkpt>
      <trkpt lat="48.23142886161804" lon="17.108234167099">
        <ele>379.54</ele>
        <time>2023-06-13T12:12:10.347Z</time>
      </trkpt>
      <trkpt lat="48.23169708251953" lon="17.10822343826294">
        <ele>381.49</ele>
        <time>2023-06-13T12:12:15.056Z</time>
      </trkpt>
      <trkpt lat="48.231868743896484" lon="17.108319997787476">
        <ele>383.4</ele>
        <time>2023-06-13T12:12:19.769Z</time>
      </trkpt>
      <trkpt lat="48.23202967643738" lon="17.108287811279297">
        <ele>385.09</ele>
        <time>2023-06-13T12:12:24.485Z</time>
      </trkpt>
      <trkpt lat="48.23217988014221" lon="17.108341455459595">
        <ele>386.78</ele>
        <time>2023-06-13T12:12:29.204Z</time>
      </trkpt>
      <trkpt lat="48.232340812683105" lon="17.108298540115356">
        <ele>388.39</ele>
        <time>2023-06-13T12:12:33.926Z</time>
      </trkpt>
      <trkpt lat="48.2325553894043" lon="17.108309268951416">
        <ele>389.98</ele>
        <time>2023-06-13T12:12:38.653Z</time>
      </trkpt>
      <trkpt lat="48.23274850845337" lon="17.108352184295654">
        <ele>391.42</ele>
        <time>2023-06-13T12:12:43.384Z</time>
      </trkpt>
      <trkpt lat="48.2330060005188" lon="17.108266353607178">
        <ele>392.6</ele>
        <time>2023-06-13T12:12:48.120Z</time>
      </trkpt>
      <trkpt lat="48.233091831207275" lon="17.108266353607178">
        <ele>393.66</ele>
        <time>2023-06-13T12:12:52.858Z</time>
      </trkpt>
      <trkpt lat="48.23328495025635" lon="17.108373641967773">
        <ele>394.68</ele>
        <time>2023-06-13T12:12:57.600Z</time>
      </trkpt>
      <trkpt lat="48.23339223861694" lon="17.108545303344727">
        <ele>395.7</ele>
        <time>2023-06-13T12:13:02.345Z</time>
      </trkpt>
      <trkpt lat="48.23343515396118" lon="17.108588218688965">
        <ele>396.42</ele>
        <time>2023-06-13T12:13:07.091Z</time>
      </trkpt>
      <trkpt lat="48.23364973068237" lon="17.108620405197144">
        <ele>396.9</ele>
        <time>2023-06-13T12:13:11.841Z</time>
      </trkpt>
      <trkpt lat="48.23376774787903" lon="17.108566761016846">
        <ele>397.16</ele>
        <time>2023-06-13T12:13:16.594Z</time>
      </trkpt>
      <trkpt lat="48.23425054550171" lon="17.108566761016846">
        <ele>397.48</ele>
        <time>2023-06-13T12:13:21.356Z</time>
      </trkpt>
      <trkpt lat="48.234357833862305" lon="17.108641862869263">
        <ele>397.68</ele>
        <time>2023-06-13T12:13:26.121Z</time>
      </trkpt>
      <trkpt lat="48.23447585105896" lon="17.108781337738037">
        <ele>397.76</ele>
        <time>2023-06-13T12:13:30.889Z</time>
      </trkpt>
      <trkpt lat="48.23454022407532" lon="17.108813524246216">
        <ele>397.6</ele>
        <time>2023-06-13T12:13:35.658Z</time>
      </trkpt>
      <trkpt lat="48.234840631484985" lon="17.108770608901978">
        <ele>397.19</ele>
        <time>2023-06-13T12:13:40.433Z</time>
      </trkpt>
      <trkpt lat="48.2349693775177" lon="17.10869550704956">
        <ele>396.73</ele>
        <time>2023-06-13T12:13:45.211Z</time>
      </trkpt>
      <trkpt lat="48.23503375053406" lon="17.1086847782135">
        <ele>396.23</ele>
        <time>2023-06-13T12:13:49.990Z</time>
      </trkpt>
      <trkpt lat="48.235108852386475" lon="17.10870623588562">
        <ele>395.65</ele>
        <time>2023-06-13T12:13:54.771Z</time>
      </trkpt>
      <trkpt lat="48.23515176773071" lon="17.10874915122986">
        <ele>395.04</ele>
        <time>2023-06-13T12:13:59.553Z</time>
      </trkpt>
      <trkpt lat="48.23524832725525" lon="17.10896372795105">
        <ele>394.47</ele>
        <time>2023-06-13T12:14:04.338Z</time>
      </trkpt>
      <trkpt lat="48.235323429107666" lon="17.109071016311646">
        <ele>393.74</ele>
        <time>2023-06-13T12:14:09.125Z</time>
      </trkpt>
      <trkpt lat="48.235366344451904" lon="17.109060287475586">
        <ele>392.86</ele>
        <time>2023-06-13T12:14:13.913Z</time>
      </trkpt>
      <trkpt lat="48.2355272769928" lon="17.10893154144287">
        <ele>391.78</ele>
        <time>2023-06-13T12:14:18.705Z</time>
      </trkpt>
      <trkpt lat="48.2359778881073" lon="17.108781337738037">
        <ele>390.92</ele>
        <time>2023-06-13T12:14:23.506Z</time>
      </trkpt>
      <trkpt lat="48.23613882064819" lon="17.10870623588562">
        <ele>389.92</ele>
        <time>2023-06-13T12:14:28.310Z</time>
      </trkpt>
      <trkpt lat="48.236321210861206" lon="17.108759880065918">
        <ele>389.09</ele>
        <time>2023-06-13T12:14:33.118Z</time>
      </trkpt>
      <trkpt lat="48.23647141456604" lon="17.10872769355774">
        <ele>387.97</ele>
        <time>2023-06-13T12:14:37.929Z</time>
      </trkpt>
      <trkpt lat="48.236600160598755" lon="17.10867404937744">
        <ele>386.9</ele>
        <time>2023-06-13T12:14:42.743Z</time>
      </trkpt>
      <trkpt lat="48.23666453361511" lon="17.10867404937744">
        <ele>385.87</ele>
        <time>2023-06-13T12:14:47.558Z</time>
      </trkpt>
      <trkpt lat="48.236868381500244" lon="17.108770608901978">
        <ele>384.84</ele>
        <time>2023-06-13T12:14:52.377Z</time>
      </trkpt>
      <trkpt lat="48.23699712753296" lon="17.108877897262573">
        <ele>384.04</ele>
        <time>2023-06-13T12:14:57.199Z</time>
      </trkpt>
      <trkpt lat="48.237072229385376" lon="17.108888626098633">
        <ele>383.18</ele>
        <time>2023-06-13T12:15:02.023Z</time>
      </trkpt>
      <trkpt lat="48.23721170425415" lon="17.108834981918335">
        <ele>382.21</ele>
        <time>2023-06-13T12:15:06.850Z</time>
      </trkpt>
      <trkpt lat="48.23727607727051" lon="17.108792066574097">
        <ele>381.55</ele>
        <time>2023-06-13T12:15:11.678Z</time>
      </trkpt>
      <trkpt lat="48.237587213516235" lon="17.10899591445923">
        <ele>381.1</ele>
        <time>2023-06-13T12:15:16.513Z</time>
      </trkpt>
      <trkpt lat="48.23769450187683" lon="17.109146118164062">
        <ele>380.84</ele>
        <time>2023-06-13T12:15:21.351Z</time>
      </trkpt>
      <trkpt lat="48.23774814605713" lon="17.109349966049194">
        <ele>380.8</ele>
        <time>2023-06-13T12:15:26.192Z</time>
      </trkpt>
      <trkpt lat="48.23775887489319" lon="17.10947871208191">
        <ele>380.74</ele>
        <time>2023-06-13T12:15:31.035Z</time>
      </trkpt>
      <trkpt lat="48.23774814605713" lon="17.1096932888031">
        <ele>380.81</ele>
        <time>2023-06-13T12:15:35.880Z</time>
      </trkpt>
      <trkpt lat="48.23764085769653" lon="17.11018681526184">
        <ele>381.04</ele>
        <time>2023-06-13T12:15:40.732Z</time>
      </trkpt>
      <trkpt lat="48.237565755844116" lon="17.110412120819092">
        <ele>381.2</ele>
        <time>2023-06-13T12:15:45.588Z</time>
      </trkpt>
      <trkpt lat="48.2374906539917" lon="17.110540866851807">
        <ele>381.51</ele>
        <time>2023-06-13T12:15:50.446Z</time>
      </trkpt>
      <trkpt lat="48.23714733123779" lon="17.110884189605713">
        <ele>381.98</ele>
        <time>2023-06-13T12:15:55.312Z</time>
      </trkpt>
      <trkpt lat="48.237082958221436" lon="17.11098074913025">
        <ele>382.48</ele>
        <time>2023-06-13T12:16:00.180Z</time>
      </trkpt>
      <trkpt lat="48.23705077171326" lon="17.111066579818726">
        <ele>383.16</ele>
        <time>2023-06-13T12:16:05.049Z</time>
      </trkpt>
      <trkpt lat="48.23702931404114" lon="17.11116313934326">
        <ele>384.0</ele>
        <time>2023-06-13T12:16:09.920Z</time>
      </trkpt>
      <trkpt lat="48.2370400428772" lon="17.11122751235962">
        <ele>384.89</ele>
        <time>2023-06-13T12:16:14.792Z</time>
      </trkpt>
      <trkpt lat="48.237104415893555" lon="17.111302614212036">
        <ele>385.94</ele>
        <time>2023-06-13T12:16:19.665Z</time>
      </trkpt>
      <trkpt lat="48.23720097541809" lon="17.111313343048096">
        <ele>387.17</ele>
        <time>2023-06-13T12:16:24.540Z</time>
      </trkpt>
      <trkpt lat="48.2373833656311" lon="17.11124897003174">
        <ele>388.5</ele>
        <time>2023-06-13T12:16:29.419Z</time>
      </trkpt>
      <trkpt lat="48.23744773864746" lon="17.111259698867798">
        <ele>390.18</ele>
        <time>2023-06-13T12:16:34.299Z</time>
      </trkpt>
      <trkpt lat="48.23752284049988" lon="17.111345529556274">
        <ele>392.15</ele>
        <time>2023-06-13T12:16:39.181Z</time>
      </trkpt>
      <trkpt lat="48.23755502700806" lon="17.11147427558899">
        <ele>394.29</ele>
        <time>2023-06-13T12:16:44.065Z</time>
      </trkpt>
      <trkpt lat="48.237597942352295" lon="17.112075090408325">
        <ele>396.84</ele>
        <time>2023-06-13T12:16:48.957Z</time>
      </trkpt>
      <trkpt lat="48.23770523071289" lon="17.112600803375244">
        <ele>399.14</ele>
        <time>2023-06-13T12:16:53.856Z</time>
      </trkpt>
      <trkpt lat="48.23791980743408" lon="17.113308906555176">
        <ele>401.29</ele>
        <time>2023-06-13T12:16:58.766Z</time>
      </trkpt>
      <trkpt lat="48.2380485534668" lon="17.113802433013916">
        <ele>403.45</ele>
        <time>2023-06-13T12:17:03.683Z</time>
      </trkpt>
      <trkpt lat="48.238112926483154" lon="17.11419939994812">
        <ele>405.67</ele>
        <time>2023-06-13T12:17:08.605Z</time>
      </trkpt>
      <trkpt lat="48.23814511299133" lon="17.114295959472656">
        <ele>407.51</ele>
        <time>2023-06-13T12:17:13.529Z</time>
      </trkpt>
      <trkpt lat="48.238370418548584" lon="17.11471438407898">
        <ele>409.26</ele>
        <time>2023-06-13T12:17:18.460Z</time>
      </trkpt>
      <trkpt lat="48.2383918762207" lon="17.114843130111694">
        <ele>411.25</ele>
        <time>2023-06-13T12:17:23.393Z</time>
      </trkpt>
      <trkpt lat="48.238381147384644" lon="17.11517572402954">
        <ele>413.4</ele>
        <time>2023-06-13T12:17:28.330Z</time>
      </trkpt>
      <trkpt lat="48.238445520401" lon="17.115390300750732">
        <ele>415.17</ele>
        <time>2023-06-13T12:17:33.270Z</time>
      </trkpt>
      <trkpt lat="48.2385528087616" lon="17.115572690963745">
        <ele>416.66</ele>
        <time>2023-06-13T12:17:38.214Z</time>
      </trkpt>
      <trkpt lat="48.238617181777954" lon="17.115637063980103">
        <ele>417.85</ele>
        <time>2023-06-13T12:17:43.159Z</time>
      </trkpt>
      <trkpt lat="48.23877811431885" lon="17.11573362350464">
        <ele>418.81</ele>
        <time>2023-06-13T12:17:48.108Z</time>
      </trkpt>
      <trkpt lat="48.23893904685974" lon="17.115787267684937">
        <ele>419.61</ele>
        <time>2023-06-13T12:17:53.060Z</time>
      </trkpt>
      <trkpt lat="48.2390570640564" lon="17.115797996520996">
        <ele>420.26</ele>
        <time>2023-06-13T12:17:58.014Z</time>
      </trkpt>
      <trkpt lat="48.23919653892517" lon="17.115765810012817">
        <ele>420.64</ele>
        <time>2023-06-13T12:18:02.971Z</time>
      </trkpt>
      <trkpt lat="48.239325284957886" lon="17.115765810012817">
        <ele>421.07</ele>
        <time>2023-06-13T12:18:07.931Z</time>
      </trkpt>
      <trkpt lat="48.23938965797424" lon="17.115787267684937">
        <ele>421.65</ele>
        <time>2023-06-13T12:18:12.892Z</time>
      </trkpt>
      <trkpt lat="48.23949694633484" lon="17.115883827209473">
        <ele>422.27</ele>
        <time>2023-06-13T12:18:17.856Z</time>
      </trkpt>
      <trkpt lat="48.239604234695435" lon="17.116119861602783">
        <ele>423.01</ele>
        <time>2023-06-13T12:18:22.823Z</time>
      </trkpt>
      <trkpt lat="48.24000120162964" lon="17.1172034740448">
        <ele>423.93</ele>
        <time>2023-06-13T12:18:27.807Z</time>
      </trkpt>
      <trkpt lat="48.24019432067871" lon="17.117525339126587">
        <ele>424.24</ele>
        <time>2023-06-13T12:18:32.797Z</time>
      </trkpt>
      <trkpt lat="48.24030160903931" lon="17.117600440979004">
        <ele>424.11</ele>
        <time>2023-06-13T12:18:37.789Z</time>
      </trkpt>
      <trkpt lat="48.24038743972778" lon="17.117632627487183">
        <ele>423.75</ele>
        <time>2023-06-13T12:18:42.783Z</time>
      </trkpt>
      <trkpt lat="48.24067711830139" lon="17.117782831192017">
        <ele>423.04</ele>
        <time>2023-06-13T12:18:47.783Z</time>
      </trkpt>
      <trkpt lat="48.24074149131775" lon="17.117836475372314">
        <ele>422.56</ele>
        <time>2023-06-13T12:18:52.784Z</time>
      </trkpt>
      <trkpt lat="48.240838050842285" lon="17.11798667907715">
        <ele>422.03</ele>
        <time>2023-06-13T12:18:57.788Z</time>
      </trkpt>
      <trkpt lat="48.24085573665798" lon="17.11804342456162">
        <ele>421.66</ele>
        <time>2023-06-13T12:19:02.793Z</time>
      </trkpt>
      <trkpt lat="48.24085623957217" lon="17.118045017123222">
        <ele>421.65</ele>
        <time>2023-06-13T12:19:07.798Z</time>
      </trkpt>
      <trkpt lat="48.24085674248636" lon="17.118046525865793">
        <ele>421.65</ele>
        <time>2023-06-13T12:19:12.803Z</time>
      </trkpt>
      <trkpt lat="48.24085724540055" lon="17.118048118427396">
        <ele>421.64</ele>
        <time>2023-06-13T12:19:17.808Z</time>
      </trkpt>
      <trkpt lat="48.24085783213377" lon="17.118049878627062">
        <ele>421.63</ele>
        <time>2023-06-13T12:19:22.813Z</time>
      </trkpt>
      <trkpt lat="48.24089169502258" lon="17.1181583404541">
        <ele>418.05</ele>
        <time>2023-06-13T12:19:27.820Z</time>
      </trkpt>
      <trkpt lat="48.24092388153076" lon="17.118330001831055">
        <ele>418.06</ele>
        <time>2023-06-13T12:19:32.829Z</time>
      </trkpt>
      <trkpt lat="48.24105262756348" lon="17.119531631469727">
        <ele>418.99</ele>
        <time>2023-06-13T12:19:37.854Z</time>
      </trkpt>
      <trkpt lat="48.24117064476013" lon="17.12043285369873">
        <ele>419.44</ele>
        <time>2023-06-13T12:19:42.892Z</time>
      </trkpt>
      <trkpt lat="48.24118137359619" lon="17.121044397354126">
        <ele>420.63</ele>
        <time>2023-06-13T12:19:47.938Z</time>
      </trkpt>
      <trkpt lat="48.24124574661255" lon="17.121505737304688">
        <ele>420.87</ele>
        <time>2023-06-13T12:19:52.990Z</time>
      </trkpt>
      <trkpt lat="48.241331577301025" lon="17.121773958206177">
        <ele>420.86</ele>
        <time>2023-06-13T12:19:58.046Z</time>
      </trkpt>
      <trkpt lat="48.241374492645264" lon="17.121827602386475">
        <ele>421.03</ele>
        <time>2023-06-13T12:20:03.103Z</time>
      </trkpt>
      <trkpt lat="48.24169635772705" lon="17.122074365615845">
        <ele>421.37</ele>
        <time>2023-06-13T12:20:08.167Z</time>
      </trkpt>
      <trkpt lat="48.24173927307129" lon="17.122128009796143">
        <ele>421.76</ele>
        <time>2023-06-13T12:20:13.233Z</time>
      </trkpt>
      <trkpt lat="48.24178218841553" lon="17.12218165397644">
        <ele>422.23</ele>
        <time>2023-06-13T12:20:18.300Z</time>
      </trkpt>
      <trkpt lat="48.241835832595825" lon="17.122353315353394">
        <ele>422.9</ele>
        <time>2023-06-13T12:20:23.369Z</time>
      </trkpt>
      <trkpt lat="48.241857290267944" lon="17.122803926467896">
        <ele>423.87</ele>
        <time>2023-06-13T12:20:28.444Z</time>
      </trkpt>
      <trkpt lat="48.241814374923706" lon="17.12341547012329">
        <ele>424.86</ele>
        <time>2023-06-13T12:20:33.528Z</time>
      </trkpt>
      <trkpt lat="48.24170708656311" lon="17.124145030975342">
        <ele>426.09</ele>
        <time>2023-06-13T12:20:38.622Z</time>
      </trkpt>
      <trkpt lat="48.241578340530396" lon="17.124820947647095">
        <ele>427.57</ele>
        <time>2023-06-13T12:20:43.725Z</time>
      </trkpt>
      <trkpt lat="48.24148178100586" lon="17.125142812728882">
        <ele>429.21</ele>
        <time>2023-06-13T12:20:48.833Z</time>
      </trkpt>
      <trkpt lat="48.24070930480957" lon="17.126322984695435">
        <ele>431.57</ele>
        <time>2023-06-13T12:20:53.963Z</time>
      </trkpt>
      <trkpt lat="48.24053772725165" lon="17.12668776512146">
        <ele>433.41</ele>
        <time>2023-06-13T12:20:59.099Z</time>
      </trkpt>
      <trkpt lat="48.240312337875366" lon="17.12690234184265">
        <ele>435.34</ele>
        <time>2023-06-13T12:21:04.240Z</time>
      </trkpt>
      <trkpt lat="48.240076303482056" lon="17.127041816711426">
        <ele>437.71</ele>
        <time>2023-06-13T12:21:09.386Z</time>
      </trkpt>
      <trkpt lat="48.239625692367554" lon="17.127288579940796">
        <ele>440.7</ele>
        <time>2023-06-13T12:21:14.542Z</time>
      </trkpt>
      <trkpt lat="48.23917508125305" lon="17.12744951248169">
        <ele>443.92</ele>
        <time>2023-06-13T12:21:19.707Z</time>
      </trkpt>
      <trkpt lat="48.238348960876465" lon="17.12793231010437">
        <ele>447.5</ele>
        <time>2023-06-13T12:21:24.890Z</time>
      </trkpt>
      <trkpt lat="48.23803782463074" lon="17.128082513809204">
        <ele>450.55</ele>
        <time>2023-06-13T12:21:30.079Z</time>
      </trkpt>
      <trkpt lat="48.237812519073486" lon="17.12815761566162">
        <ele>453.12</ele>
        <time>2023-06-13T12:21:35.273Z</time>
      </trkpt>
      <trkpt lat="48.237115228548646" lon="17.12817907333374">
        <ele>455.56</ele>
        <time>2023-06-13T12:21:40.481Z</time>
      </trkpt>
      <trkpt lat="48.237115144729614" lon="17.12817907333374">
        <ele>457.47</ele>
        <time>2023-06-13T12:21:45.689Z</time>
      </trkpt>
      <trkpt lat="48.23679327964783" lon="17.12822198867798">
        <ele>459.4</ele>
        <time>2023-06-13T12:21:50.903Z</time>
      </trkpt>
      <trkpt lat="48.23654660023749" lon="17.12820053100586">
        <ele>460.76</ele>
        <time>2023-06-13T12:21:56.122Z</time>
      </trkpt>
      <trkpt lat="48.23651432991028" lon="17.128243446350098">
        <ele>461.79</ele>
        <time>2023-06-13T12:22:01.342Z</time>
      </trkpt>
      <trkpt lat="48.23649287223816" lon="17.128286361694336">
        <ele>462.57</ele>
        <time>2023-06-13T12:22:06.563Z</time>
      </trkpt>
      <trkpt lat="48.23646076954901" lon="17.128286361694336">
        <ele>463.14</ele>
        <time>2023-06-13T12:22:11.784Z</time>
      </trkpt>
      <trkpt lat="48.236374855041504" lon="17.128254175186157">
        <ele>463.51</ele>
        <time>2023-06-13T12:22:17.007Z</time>
      </trkpt>
      <trkpt lat="48.23616027832031" lon="17.128297090530396">
        <ele>463.73</ele>
        <time>2023-06-13T12:22:22.235Z</time>
      </trkpt>
      <trkpt lat="48.23605298995972" lon="17.128382921218872">
        <ele>464.02</ele>
        <time>2023-06-13T12:22:27.465Z</time>
      </trkpt>
      <trkpt lat="48.235849142074585" lon="17.128629684448242">
        <ele>464.3</ele>
        <time>2023-06-13T12:22:32.700Z</time>
      </trkpt>
      <trkpt lat="48.23575266636908" lon="17.128833532333374">
        <ele>464.52</ele>
        <time>2023-06-13T12:22:37.939Z</time>
      </trkpt>
      <trkpt lat="48.23570438660681" lon="17.1289237216115">
        <ele>464.46</ele>
        <time>2023-06-13T12:22:43.179Z</time>
      </trkpt>
      <trkpt lat="48.23570371605456" lon="17.12892514653504">
        <ele>464.46</ele>
        <time>2023-06-13T12:22:48.419Z</time>
      </trkpt>
      <trkpt lat="48.235703045502305" lon="17.128926487639546">
        <ele>464.46</ele>
        <time>2023-06-13T12:22:53.659Z</time>
      </trkpt>
      <trkpt lat="48.23570237495005" lon="17.128927912563086">
        <ele>464.46</ele>
        <time>2023-06-13T12:22:58.899Z</time>
      </trkpt>
      <trkpt lat="48.235701620578766" lon="17.128929505124688">
        <ele>464.46</ele>
        <time>2023-06-13T12:23:04.139Z</time>
      </trkpt>
      <trkpt lat="48.235701620578766" lon="17.12892958894372">
        <ele>460.84</ele>
        <time>2023-06-13T12:23:09.379Z</time>
      </trkpt>
      <trkpt lat="48.2354736328125" lon="17.129359245300293">
        <ele>459.92</ele>
        <time>2023-06-13T12:23:14.627Z</time>
      </trkpt>
      <trkpt lat="48.235098123550415" lon="17.12989568710327">
        <ele>457.91</ele>
        <time>2023-06-13T12:23:19.885Z</time>
      </trkpt>
      <trkpt lat="48.23473342694342" lon="17.130292654037476">
        <ele>456.48</ele>
        <time>2023-06-13T12:23:25.152Z</time>
      </trkpt>
      <trkpt lat="48.23489301837981" lon="17.130490383133292">
        <ele>456.28</ele>
        <time>2023-06-13T12:23:30.423Z</time>
      </trkpt>
      <trkpt lat="48.234893940389156" lon="17.130491556599736">
        <ele>456.28</ele>
        <time>2023-06-13T12:23:35.694Z</time>
      </trkpt>
      <trkpt lat="48.23489477857947" lon="17.130492562428117">
        <ele>456.28</ele>
        <time>2023-06-13T12:23:40.965Z</time>
      </trkpt>
      <trkpt lat="48.23489570058882" lon="17.13049365207553">
        <ele>456.28</ele>
        <time>2023-06-13T12:23:46.236Z</time>
      </trkpt>
      <trkpt lat="48.2348967064172" lon="17.130494909361005">
        <ele>456.28</ele>
        <time>2023-06-13T12:23:51.507Z</time>
      </trkpt>
      <trkpt lat="48.23495873250067" lon="17.130571603775024">
        <ele>459.09</ele>
        <time>2023-06-13T12:23:56.780Z</time>
      </trkpt>
      <trkpt lat="48.23504447937012" lon="17.13070034980774">
        <ele>459.48</ele>
        <time>2023-06-13T12:24:02.055Z</time>
      </trkpt>
      <trkpt lat="48.23524832725525" lon="17.131129503250122">
        <ele>459.67</ele>
        <time>2023-06-13T12:24:07.337Z</time>
      </trkpt>
      <trkpt lat="48.235366344451904" lon="17.131279706954956">
        <ele>459.4</ele>
        <time>2023-06-13T12:24:12.622Z</time>
      </trkpt>
      <trkpt lat="48.23546290397644" lon="17.131376266479492">
        <ele>458.83</ele>
        <time>2023-06-13T12:24:17.910Z</time>
      </trkpt>
      <trkpt lat="48.235924243927" lon="17.13167667388916">
        <ele>457.89</ele>
        <time>2023-06-13T12:24:23.208Z</time>
      </trkpt>
      <trkpt lat="48.23598861694336" lon="17.131741046905518">
        <ele>456.91</ele>
        <time>2023-06-13T12:24:28.507Z</time>
      </trkpt>
      <trkpt lat="48.23602088727057" lon="17.131826877593994">
        <ele>455.74</ele>
        <time>2023-06-13T12:24:33.808Z</time>
      </trkpt>
      <trkpt lat="48.23602080345154" lon="17.131826877593994">
        <ele>454.5</ele>
        <time>2023-06-13T12:24:39.109Z</time>
      </trkpt>
      <trkpt lat="48.236063718795776" lon="17.132041454315186">
        <ele>453.07</ele>
        <time>2023-06-13T12:24:44.413Z</time>
      </trkpt>
      <trkpt lat="48.2360315322876" lon="17.13288903236389">
        <ele>451.33</ele>
        <time>2023-06-13T12:24:49.728Z</time>
      </trkpt>
      <trkpt lat="48.23604226112366" lon="17.13366150856018">
        <ele>449.17</ele>
        <time>2023-06-13T12:24:55.053Z</time>
      </trkpt>
      <trkpt lat="48.236117446795106" lon="17.133843898773193">
        <ele>447.14</ele>
        <time>2023-06-13T12:25:00.381Z</time>
      </trkpt>
      <trkpt lat="48.23616027832031" lon="17.13391900062561">
        <ele>445.22</ele>
        <time>2023-06-13T12:25:05.711Z</time>
      </trkpt>
      <trkpt lat="48.23628902435303" lon="17.134047746658325">
        <ele>443.21</ele>
        <time>2023-06-13T12:25:11.044Z</time>
      </trkpt>
      <trkpt lat="48.23650360107422" lon="17.134530544281006">
        <ele>441.33</ele>
        <time>2023-06-13T12:25:16.384Z</time>
      </trkpt>
      <trkpt lat="48.236879110336304" lon="17.13495969772339">
        <ele>439.52</ele>
        <time>2023-06-13T12:25:21.734Z</time>
      </trkpt>
      <trkpt lat="48.23705077171326" lon="17.13520646095276">
        <ele>438.03</ele>
        <time>2023-06-13T12:25:27.089Z</time>
      </trkpt>
      <trkpt lat="48.23713660240173" lon="17.135506868362427">
        <ele>436.77</ele>
        <time>2023-06-13T12:25:32.448Z</time>
      </trkpt>
      <trkpt lat="48.23715806007385" lon="17.135775089263916">
        <ele>435.9</ele>
        <time>2023-06-13T12:25:37.811Z</time>
      </trkpt>
      <trkpt lat="48.23715806007385" lon="17.135978937149048">
        <ele>435.53</ele>
        <time>2023-06-13T12:25:43.176Z</time>
      </trkpt>
      <trkpt lat="48.237104415893555" lon="17.136247158050537">
        <ele>435.41</ele>
        <time>2023-06-13T12:25:48.545Z</time>
      </trkpt>
      <trkpt lat="48.23673963546753" lon="17.13694453239441">
        <ele>435.58</ele>
        <time>2023-06-13T12:25:53.926Z</time>
      </trkpt>
      <trkpt lat="48.23654651641846" lon="17.137835025787354">
        <ele>436.96</ele>
        <time>2023-06-13T12:25:59.319Z</time>
      </trkpt>
      <trkpt lat="48.23650360107422" lon="17.138478755950928">
        <ele>437.26</ele>
        <time>2023-06-13T12:26:04.721Z</time>
      </trkpt>
      <trkpt lat="48.23652505874634" lon="17.138843536376953">
        <ele>437.72</ele>
        <time>2023-06-13T12:26:10.128Z</time>
      </trkpt>
      <trkpt lat="48.23660024441779" lon="17.1391761302948">
        <ele>438.2</ele>
        <time>2023-06-13T12:26:15.540Z</time>
      </trkpt>
      <trkpt lat="48.23667526245117" lon="17.13942289352417">
        <ele>438.58</ele>
        <time>2023-06-13T12:26:20.955Z</time>
      </trkpt>
      <trkpt lat="48.23673963546753" lon="17.13969111442566">
        <ele>438.71</ele>
        <time>2023-06-13T12:26:26.374Z</time>
      </trkpt>
      <trkpt lat="48.23679327964783" lon="17.139980792999268">
        <ele>438.68</ele>
        <time>2023-06-13T12:26:31.797Z</time>
      </trkpt>
      <trkpt lat="48.236846923828125" lon="17.1401309967041">
        <ele>438.72</ele>
        <time>2023-06-13T12:26:37.222Z</time>
      </trkpt>
      <trkpt lat="48.23697566986084" lon="17.140367031097412">
        <ele>438.54</ele>
        <time>2023-06-13T12:26:42.651Z</time>
      </trkpt>
      <trkpt lat="48.237104415893555" lon="17.140560150146484">
        <ele>438.06</ele>
        <time>2023-06-13T12:26:48.084Z</time>
      </trkpt>
      <trkpt lat="48.237204663455486" lon="17.140660397708416">
        <ele>437.53</ele>
        <time>2023-06-13T12:26:53.520Z</time>
      </trkpt>
      <trkpt lat="48.2372057531029" lon="17.14066148735583">
        <ele>437.53</ele>
        <time>2023-06-13T12:26:58.956Z</time>
      </trkpt>
      <trkpt lat="48.23720684275031" lon="17.14066257700324">
        <ele>437.53</ele>
        <time>2023-06-13T12:27:04.392Z</time>
      </trkpt>
      <trkpt lat="48.23720793239772" lon="17.140663666650653">
        <ele>437.53</ele>
        <time>2023-06-13T12:27:09.828Z</time>
      </trkpt>
      <trkpt lat="48.2372091896832" lon="17.14066492393613">
        <ele>437.53</ele>
        <time>2023-06-13T12:27:15.264Z</time>
      </trkpt>
      <trkpt lat="48.23722243309021" lon="17.14067816734314">
        <ele>428.69</ele>
        <time>2023-06-13T12:27:20.700Z</time>
      </trkpt>
      <trkpt lat="48.237351179122925" lon="17.140731811523438">
        <ele>427.58</ele>
        <time>2023-06-13T12:27:26.139Z</time>
      </trkpt>
      <trkpt lat="48.23766231536865" lon="17.140806913375854">
        <ele>425.6</ele>
        <time>2023-06-13T12:27:31.584Z</time>
      </trkpt>
      <trkpt lat="48.23814511299133" lon="17.141032218933105">
        <ele>423.96</ele>
        <time>2023-06-13T12:27:37.039Z</time>
      </trkpt>
      <trkpt lat="48.23820948600769" lon="17.1411395072937">
        <ele>423.02</ele>
        <time>2023-06-13T12:27:42.496Z</time>
      </trkpt>
      <trkpt lat="48.23823094367981" lon="17.141289710998535">
        <ele>422.48</ele>
        <time>2023-06-13T12:27:47.955Z</time>
      </trkpt>
      <trkpt lat="48.23822021484375" lon="17.141729593276978">
        <ele>422.54</ele>
        <time>2023-06-13T12:27:53.420Z</time>
      </trkpt>
      <trkpt lat="48.23819875717163" lon="17.141826152801514">
        <ele>422.84</ele>
        <time>2023-06-13T12:27:58.886Z</time>
      </trkpt>
      <trkpt lat="48.23814511299133" lon="17.141976356506348">
        <ele>423.32</ele>
        <time>2023-06-13T12:28:04.355Z</time>
      </trkpt>
      <trkpt lat="48.2378876209259" lon="17.14242696762085">
        <ele>424.36</ele>
        <time>2023-06-13T12:28:09.832Z</time>
      </trkpt>
      <trkpt lat="48.237565755844116" lon="17.14288830757141">
        <ele>425.86</ele>
        <time>2023-06-13T12:28:15.317Z</time>
      </trkpt>
      <trkpt lat="48.23740482330322" lon="17.14316725730896">
        <ele>427.1</ele>
        <time>2023-06-13T12:28:20.807Z</time>
      </trkpt>
      <trkpt lat="48.23714733123779" lon="17.14368224143982">
        <ele>428.36</ele>
        <time>2023-06-13T12:28:26.306Z</time>
      </trkpt>
      <trkpt lat="48.23739409446716" lon="17.14389681816101">
        <ele>430.13</ele>
        <time>2023-06-13T12:28:31.811Z</time>
      </trkpt>
      <trkpt lat="48.237630128860474" lon="17.14388608932495">
        <ele>431.99</ele>
        <time>2023-06-13T12:28:37.320Z</time>
      </trkpt>
      <trkpt lat="48.237876892089844" lon="17.143993377685547">
        <ele>434.02</ele>
        <time>2023-06-13T12:28:42.835Z</time>
      </trkpt>
      <trkpt lat="48.23825240135193" lon="17.144089937210083">
        <ele>436.21</ele>
        <time>2023-06-13T12:28:48.357Z</time>
      </trkpt>
      <trkpt lat="48.23879957199097" lon="17.14414358139038">
        <ele>438.59</ele>
        <time>2023-06-13T12:28:53.890Z</time>
      </trkpt>
      <trkpt lat="48.23896050453186" lon="17.14413285255432">
        <ele>440.81</ele>
        <time>2023-06-13T12:28:59.426Z</time>
      </trkpt>
      <trkpt lat="48.23914289474487" lon="17.144089937210083">
        <ele>443.03</ele>
        <time>2023-06-13T12:29:04.966Z</time>
      </trkpt>
      <trkpt lat="48.239314556121826" lon="17.144004106521606">
        <ele>445.2</ele>
        <time>2023-06-13T12:29:10.510Z</time>
      </trkpt>
      <trkpt lat="48.23963642120361" lon="17.143789529800415">
        <ele>447.62</ele>
        <time>2023-06-13T12:29:16.061Z</time>
      </trkpt>
      <trkpt lat="48.24002265930176" lon="17.143478393554688">
        <ele>449.98</ele>
        <time>2023-06-13T12:29:21.621Z</time>
      </trkpt>
      <trkpt lat="48.240398252382874" lon="17.143274545669556">
        <ele>452.06</ele>
        <time>2023-06-13T12:29:27.189Z</time>
      </trkpt>
      <trkpt lat="48.240838050842285" lon="17.142866849899292">
        <ele>454.39</ele>
        <time>2023-06-13T12:29:32.767Z</time>
      </trkpt>
      <trkpt lat="48.2410204410553" lon="17.142759561538696">
        <ele>456.6</ele>
        <time>2023-06-13T12:29:38.349Z</time>
      </trkpt>
      <trkpt lat="48.24122428894043" lon="17.142716646194458">
        <ele>458.75</ele>
        <time>2023-06-13T12:29:43.935Z</time>
      </trkpt>
      <trkpt lat="48.241567611694336" lon="17.142716646194458">
        <ele>460.95</ele>
        <time>2023-06-13T12:29:49.528Z</time>
      </trkpt>
      <trkpt lat="48.24176073074341" lon="17.142748832702637">
        <ele>463.15</ele>
        <time>2023-06-13T12:29:55.125Z</time>
      </trkpt>
      <trkpt lat="48.24203968048096" lon="17.142866849899292">
        <ele>465.35</ele>
        <time>2023-06-13T12:30:00.727Z</time>
      </trkpt>
      <trkpt lat="48.242350816726685" lon="17.14293122291565">
        <ele>467.52</ele>
        <time>2023-06-13T12:30:06.336Z</time>
      </trkpt>
      <trkpt lat="48.2425332069397" lon="17.14293122291565">
        <ele>469.7</ele>
        <time>2023-06-13T12:30:11.948Z</time>
      </trkpt>
      <trkpt lat="48.24326276779175" lon="17.14313507080078">
        <ele>472.22</ele>
        <time>2023-06-13T12:30:17.575Z</time>
      </trkpt>
      <trkpt lat="48.24353098869324" lon="17.1431565284729">
        <ele>474.42</ele>
        <time>2023-06-13T12:30:23.208Z</time>
      </trkpt>
      <trkpt lat="48.24370273388922" lon="17.14314579963684">
        <ele>476.58</ele>
        <time>2023-06-13T12:30:28.844Z</time>
      </trkpt>
      <trkpt lat="48.24392795562744" lon="17.1431565284729">
        <ele>478.71</ele>
        <time>2023-06-13T12:30:34.485Z</time>
      </trkpt>
      <trkpt lat="48.244110345840454" lon="17.14319944381714">
        <ele>480.71</ele>
        <time>2023-06-13T12:30:40.129Z</time>
      </trkpt>
      <trkpt lat="48.24448585510254" lon="17.143231630325317">
        <ele>482.72</ele>
        <time>2023-06-13T12:30:45.781Z</time>
      </trkpt>
      <trkpt lat="48.24501156806946" lon="17.143338918685913">
        <ele>484.66</ele>
        <time>2023-06-13T12:30:51.443Z</time>
      </trkpt>
      <trkpt lat="48.24515104293823" lon="17.14339256286621">
        <ele>486.39</ele>
        <time>2023-06-13T12:30:57.108Z</time>
      </trkpt>
      <trkpt lat="48.245354890823364" lon="17.14340329170227">
        <ele>488.11</ele>
        <time>2023-06-13T12:31:02.777Z</time>
      </trkpt>
      <trkpt lat="48.24544080533087" lon="17.14343547821045">
        <ele>489.74</ele>
        <time>2023-06-13T12:31:08.448Z</time>
      </trkpt>
      <trkpt lat="48.24597716331482" lon="17.143478393554688">
        <ele>491.56</ele>
        <time>2023-06-13T12:31:14.130Z</time>
      </trkpt>
      <trkpt lat="48.24679255485535" lon="17.143596410751343">
        <ele>493.14</ele>
        <time>2023-06-13T12:31:19.828Z</time>
      </trkpt>
      <trkpt lat="48.246878469362855" lon="17.14365005493164">
        <ele>494.51</ele>
        <time>2023-06-13T12:31:25.528Z</time>
      </trkpt>
      <trkpt lat="48.24694275856018" lon="17.14369297027588">
        <ele>495.92</ele>
        <time>2023-06-13T12:31:31.230Z</time>
      </trkpt>
      <trkpt lat="48.24703931808472" lon="17.143725156784058">
        <ele>497.29</ele>
        <time>2023-06-13T12:31:36.934Z</time>
      </trkpt>
      <trkpt lat="48.247361183166504" lon="17.143757343292236">
        <ele>498.9</ele>
        <time>2023-06-13T12:31:42.644Z</time>
      </trkpt>
      <trkpt lat="48.24770458973944" lon="17.143810987472534">
        <ele>500.58</ele>
        <time>2023-06-13T12:31:48.361Z</time>
      </trkpt>
      <trkpt lat="48.24770450592041" lon="17.143810987472534">
        <ele>501.84</ele>
        <time>2023-06-13T12:31:54.078Z</time>
      </trkpt>
      <trkpt lat="48.24814438819885" lon="17.143864631652832">
        <ele>503.23</ele>
        <time>2023-06-13T12:31:59.804Z</time>
      </trkpt>
      <trkpt lat="48.24818730354309" lon="17.14389681816101">
        <ele>504.39</ele>
        <time>2023-06-13T12:32:05.531Z</time>
      </trkpt>
      <trkpt lat="48.24820876121521" lon="17.144036293029785">
        <ele>505.49</ele>
        <time>2023-06-13T12:32:11.260Z</time>
      </trkpt>
      <trkpt lat="48.24850916862488" lon="17.144283056259155">
        <ele>506.64</ele>
        <time>2023-06-13T12:32:16.996Z</time>
      </trkpt>
      <trkpt lat="48.2484769821167" lon="17.14413285255432">
        <ele>507.59</ele>
        <time>2023-06-13T12:32:22.734Z</time>
      </trkpt>
      <trkpt lat="48.2484769821167" lon="17.144047021865845">
        <ele>508.46</ele>
        <time>2023-06-13T12:32:28.473Z</time>
      </trkpt>
      <trkpt lat="48.24856289662421" lon="17.14368224143982">
        <ele>509.3</ele>
        <time>2023-06-13T12:32:34.217Z</time>
      </trkpt>
      <trkpt lat="48.248616456985474" lon="17.143489122390747">
        <ele>510.09</ele>
        <time>2023-06-13T12:32:39.964Z</time>
      </trkpt>
      <trkpt lat="48.24867010116577" lon="17.143349647521973">
        <ele>510.85</ele>
        <time>2023-06-13T12:32:45.713Z</time>
      </trkpt>
      <trkpt lat="48.24870228767395" lon="17.143349647521973">
        <ele>511.53</ele>
        <time>2023-06-13T12:32:51.463Z</time>
      </trkpt>
      <trkpt lat="48.248831033706665" lon="17.14341402053833">
        <ele>512.3</ele>
        <time>2023-06-13T12:32:57.215Z</time>
      </trkpt>
      <trkpt lat="48.24892767705023" lon="17.143242359161377">
        <ele>512.94</ele>
        <time>2023-06-13T12:33:02.970Z</time>
      </trkpt>
      <trkpt lat="48.24913144111633" lon="17.142856121063232">
        <ele>513.65</ele>
        <time>2023-06-13T12:33:08.732Z</time>
      </trkpt>
      <trkpt lat="48.24926018714905" lon="17.142502069473267">
        <ele>513.98</ele>
        <time>2023-06-13T12:33:14.499Z</time>
      </trkpt>
      <trkpt lat="48.249313831329346" lon="17.14240550994873">
        <ele>514.4</ele>
        <time>2023-06-13T12:33:20.268Z</time>
      </trkpt>
      <trkpt lat="48.249603509902954" lon="17.142030000686646">
        <ele>514.66</ele>
        <time>2023-06-13T12:33:26.045Z</time>
      </trkpt>
      <trkpt lat="48.249603509902954" lon="17.142019271850586">
        <ele>515.06</ele>
        <time>2023-06-13T12:33:31.822Z</time>
      </trkpt>
      <trkpt lat="48.249592781066895" lon="17.141976356506348">
        <ele>515.44</ele>
        <time>2023-06-13T12:33:37.599Z</time>
      </trkpt>
      <trkpt lat="48.24965715408325" lon="17.141804695129395">
        <ele>515.8</ele>
        <time>2023-06-13T12:33:43.379Z</time>
      </trkpt>
      <trkpt lat="48.24968934059143" lon="17.141579389572144">
        <ele>516.15</ele>
        <time>2023-06-13T12:33:49.162Z</time>
      </trkpt>
      <trkpt lat="48.24975371360779" lon="17.141332626342773">
        <ele>516.62</ele>
        <time>2023-06-13T12:33:54.949Z</time>
      </trkpt>
      <trkpt lat="48.24977517127991" lon="17.141096591949463">
        <ele>517.07</ele>
        <time>2023-06-13T12:34:00.739Z</time>
      </trkpt>
      <trkpt lat="48.249807357788086" lon="17.140978574752808">
        <ele>517.68</ele>
        <time>2023-06-13T12:34:06.530Z</time>
      </trkpt>
      <trkpt lat="48.249861001968384" lon="17.140839099884033">
        <ele>518.35</ele>
        <time>2023-06-13T12:34:12.324Z</time>
      </trkpt>
      <trkpt lat="48.2499897480011" lon="17.140603065490723">
        <ele>519.08</ele>
        <time>2023-06-13T12:34:18.122Z</time>
      </trkpt>
      <trkpt lat="48.25016140937805" lon="17.14039921760559">
        <ele>519.92</ele>
        <time>2023-06-13T12:34:23.924Z</time>
      </trkpt>
      <trkpt lat="48.250547647476196" lon="17.14017391204834">
        <ele>520.84</ele>
        <time>2023-06-13T12:34:29.734Z</time>
      </trkpt>
      <trkpt lat="48.25073003768921" lon="17.140012979507446">
        <ele>521.48</ele>
        <time>2023-06-13T12:34:35.549Z</time>
      </trkpt>
      <trkpt lat="48.2508909702301" lon="17.139766216278076">
        <ele>522.0</ele>
        <time>2023-06-13T12:34:41.368Z</time>
      </trkpt>
      <trkpt lat="48.250891054049134" lon="17.139766216278076">
        <ele>522.44</ele>
        <time>2023-06-13T12:34:47.187Z</time>
      </trkpt>
      <trkpt lat="48.251084089279175" lon="17.13945508003235">
        <ele>522.8</ele>
        <time>2023-06-13T12:34:53.012Z</time>
      </trkpt>
      <trkpt lat="48.25120210647583" lon="17.139122486114502">
        <ele>523.14</ele>
        <time>2023-06-13T12:34:58.842Z</time>
      </trkpt>
      <trkpt lat="48.25128793716431" lon="17.138596773147583">
        <ele>523.23</ele>
        <time>2023-06-13T12:35:04.679Z</time>
      </trkpt>
      <trkpt lat="48.251330852508545" lon="17.138081789016724">
        <ele>523.19</ele>
        <time>2023-06-13T12:35:10.523Z</time>
      </trkpt>
      <trkpt lat="48.251363039016724" lon="17.137835025787354">
        <ele>522.88</ele>
        <time>2023-06-13T12:35:16.370Z</time>
      </trkpt>
      <trkpt lat="48.25143814086914" lon="17.13767409324646">
        <ele>522.35</ele>
        <time>2023-06-13T12:35:22.220Z</time>
      </trkpt>
      <trkpt lat="48.25151324272156" lon="17.137545347213745">
        <ele>521.58</ele>
        <time>2023-06-13T12:35:28.072Z</time>
      </trkpt>
      <trkpt lat="48.251577615737915" lon="17.13739514350891">
        <ele>520.58</ele>
        <time>2023-06-13T12:35:33.927Z</time>
      </trkpt>
      <trkpt lat="48.25162053108215" lon="17.1372127532959">
        <ele>519.28</ele>
        <time>2023-06-13T12:35:39.784Z</time>
      </trkpt>
      <trkpt lat="48.25166344642639" lon="17.1367084980011">
        <ele>517.57</ele>
        <time>2023-06-13T12:35:45.648Z</time>
      </trkpt>
      <trkpt lat="48.25167417526245" lon="17.136311531066895">
        <ele>515.71</ele>
        <time>2023-06-13T12:35:51.517Z</time>
      </trkpt>
      <trkpt lat="48.25163125991821" lon="17.1356463432312">
        <ele>513.92</ele>
        <time>2023-06-13T12:35:57.395Z</time>
      </trkpt>
      <trkpt lat="48.25167417526245" lon="17.13541030883789">
        <ele>511.86</ele>
        <time>2023-06-13T12:36:03.277Z</time>
      </trkpt>
      <trkpt lat="48.25203895568848" lon="17.13439106941223">
        <ele>509.2</ele>
        <time>2023-06-13T12:36:09.174Z</time>
      </trkpt>
      <trkpt lat="48.25212478637695" lon="17.134058475494385">
        <ele>506.85</ele>
        <time>2023-06-13T12:36:15.076Z</time>
      </trkpt>
      <trkpt lat="48.25213551521301" lon="17.13388681411743">
        <ele>504.47</ele>
        <time>2023-06-13T12:36:20.980Z</time>
      </trkpt>
      <trkpt lat="48.252081871032715" lon="17.133092880249023">
        <ele>501.72</ele>
        <time>2023-06-13T12:36:26.895Z</time>
      </trkpt>
      <trkpt lat="48.25201749801636" lon="17.132771015167236">
        <ele>499.25</ele>
        <time>2023-06-13T12:36:32.814Z</time>
      </trkpt>
      <trkpt lat="48.251845836639404" lon="17.1322238445282">
        <ele>496.72</ele>
        <time>2023-06-13T12:36:38.741Z</time>
      </trkpt>
      <trkpt lat="48.25152397155762" lon="17.13141918182373">
        <ele>494.28</ele>
        <time>2023-06-13T12:36:44.681Z</time>
      </trkpt>
      <trkpt lat="48.25147041119635" lon="17.13118314743042">
        <ele>492.12</ele>
        <time>2023-06-13T12:36:50.624Z</time>
      </trkpt>
      <trkpt lat="48.25142741203308" lon="17.130796909332275">
        <ele>489.98</ele>
        <time>2023-06-13T12:36:56.573Z</time>
      </trkpt>
      <trkpt lat="48.251363039016724" lon="17.13042140007019">
        <ele>488.14</ele>
        <time>2023-06-13T12:37:02.527Z</time>
      </trkpt>
      <trkpt lat="48.2514488697052" lon="17.130228281021118">
        <ele>486.42</ele>
        <time>2023-06-13T12:37:08.484Z</time>
      </trkpt>
      <trkpt lat="48.25171709060669" lon="17.12989568710327">
        <ele>484.76</ele>
        <time>2023-06-13T12:37:14.448Z</time>
      </trkpt>
      <trkpt lat="48.251856565475464" lon="17.129820585250854">
        <ele>483.25</ele>
        <time>2023-06-13T12:37:20.415Z</time>
      </trkpt>
      <trkpt lat="48.25196385383606" lon="17.129799127578735">
        <ele>481.83</ele>
        <time>2023-06-13T12:37:26.384Z</time>
      </trkpt>
      <trkpt lat="48.25203895568848" lon="17.129809856414795">
        <ele>480.46</ele>
        <time>2023-06-13T12:37:32.354Z</time>
      </trkpt>
      <trkpt lat="48.252092599868774" lon="17.12989568710327">
        <ele>479.13</ele>
        <time>2023-06-13T12:37:38.326Z</time>
      </trkpt>
      <trkpt lat="48.25212478637695" lon="17.130078077316284">
        <ele>477.8</ele>
        <time>2023-06-13T12:37:44.301Z</time>
      </trkpt>
      <trkpt lat="48.252103328704834" lon="17.130271196365356">
        <ele>476.52</ele>
        <time>2023-06-13T12:37:50.278Z</time>
      </trkpt>
      <trkpt lat="48.252114057540894" lon="17.130485773086548">
        <ele>475.19</ele>
        <time>2023-06-13T12:37:56.258Z</time>
      </trkpt>
      <trkpt lat="48.25214624404907" lon="17.13067889213562">
        <ele>473.8</ele>
        <time>2023-06-13T12:38:02.241Z</time>
      </trkpt>
      <trkpt lat="48.25217843055725" lon="17.130753993988037">
        <ele>472.31</ele>
        <time>2023-06-13T12:38:08.225Z</time>
      </trkpt>
      <trkpt lat="48.25223207473755" lon="17.130807638168335">
        <ele>470.71</ele>
        <time>2023-06-13T12:38:14.210Z</time>
      </trkpt>
      <trkpt lat="48.252328634262085" lon="17.130839824676514">
        <ele>468.95</ele>
        <time>2023-06-13T12:38:20.197Z</time>
      </trkpt>
      <trkpt lat="48.25243592262268" lon="17.130839824676514">
        <ele>467.05</ele>
        <time>2023-06-13T12:38:26.186Z</time>
      </trkpt>
      <trkpt lat="48.25273633003235" lon="17.130796909332275">
        <ele>464.97</ele>
        <time>2023-06-13T12:38:32.181Z</time>
      </trkpt>
      <trkpt lat="48.25300455093384" lon="17.130743265151978">
        <ele>462.57</ele>
        <time>2023-06-13T12:38:38.182Z</time>
      </trkpt>
      <trkpt lat="48.253358602523804" lon="17.130582332611084">
        <ele>459.71</ele>
        <time>2023-06-13T12:38:44.190Z</time>
      </trkpt>
      <trkpt lat="48.25345516204834" lon="17.130571603775024">
        <ele>457.6</ele>
        <time>2023-06-13T12:38:50.200Z</time>
      </trkpt>
      <trkpt lat="48.253594636917114" lon="17.130593061447144">
        <ele>455.44</ele>
        <time>2023-06-13T12:38:56.213Z</time>
      </trkpt>
      <trkpt lat="48.25366973876953" lon="17.1306574344635">
        <ele>453.46</ele>
        <time>2023-06-13T12:39:02.228Z</time>
      </trkpt>
      <trkpt lat="48.25372338294983" lon="17.13072180747986">
        <ele>451.56</ele>
        <time>2023-06-13T12:39:08.244Z</time>
      </trkpt>
      <trkpt lat="48.25374484062195" lon="17.130807638168335">
        <ele>449.79</ele>
        <time>2023-06-13T12:39:14.261Z</time>
      </trkpt>
      <trkpt lat="48.25374484062195" lon="17.1311616897583">
        <ele>448.29</ele>
        <time>2023-06-13T12:39:20.283Z</time>
      </trkpt>
      <trkpt lat="48.25376629829407" lon="17.131247520446777">
        <ele>446.45</ele>
        <time>2023-06-13T12:39:26.306Z</time>
      </trkpt>
      <trkpt lat="48.25403451919556" lon="17.13142991065979">
        <ele>444.32</ele>
        <time>2023-06-13T12:39:32.335Z</time>
      </trkpt>
      <trkpt lat="48.25417399406433" lon="17.131569385528564">
        <ele>442.51</ele>
        <time>2023-06-13T12:39:38.367Z</time>
      </trkpt>
      <trkpt lat="48.254302740097046" lon="17.13167667388916">
        <ele>440.85</ele>
        <time>2023-06-13T12:39:44.402Z</time>
      </trkpt>
      <trkpt lat="48.25451731681824" lon="17.13169813156128">
        <ele>439.34</ele>
        <time>2023-06-13T12:39:50.442Z</time>
      </trkpt>
      <trkpt lat="48.254581689834595" lon="17.13167667388916">
        <ele>438.47</ele>
        <time>2023-06-13T12:39:56.483Z</time>
      </trkpt>
      <trkpt lat="48.25461387634277" lon="17.131601572036743">
        <ele>437.98</ele>
        <time>2023-06-13T12:40:02.525Z</time>
      </trkpt>
      <trkpt lat="48.25461387634277" lon="17.131483554840088">
        <ele>437.9</ele>
        <time>2023-06-13T12:40:08.569Z</time>
      </trkpt>
      <trkpt lat="48.25475343503058" lon="17.131590843200684">
        <ele>438.46</ele>
        <time>2023-06-13T12:40:14.616Z</time>
      </trkpt>
      <trkpt lat="48.255311250686646" lon="17.132019996643066">
        <ele>439.82</ele>
        <time>2023-06-13T12:40:20.675Z</time>
      </trkpt>
      <trkpt lat="48.25624465942383" lon="17.132588624954224">
        <ele>440.42</ele>
        <time>2023-06-13T12:40:26.755Z</time>
      </trkpt>
      <trkpt lat="48.2564914226532" lon="17.13264226913452">
        <ele>441.14</ele>
        <time>2023-06-13T12:40:32.840Z</time>
      </trkpt>
      <trkpt lat="48.25680264271796" lon="17.13264226913452">
        <ele>441.91</ele>
        <time>2023-06-13T12:40:38.931Z</time>
      </trkpt>
      <trkpt lat="48.25692057609558" lon="17.13265299797058">
        <ele>442.83</ele>
        <time>2023-06-13T12:40:45.024Z</time>
      </trkpt>
      <trkpt lat="48.25696349143982" lon="17.13239550590515">
        <ele>443.68</ele>
        <time>2023-06-13T12:40:51.121Z</time>
      </trkpt>
      <trkpt lat="48.25701713562012" lon="17.13213801383972">
        <ele>445.49</ele>
        <time>2023-06-13T12:40:57.221Z</time>
      </trkpt>
      <trkpt lat="48.25715661048889" lon="17.13165521621704">
        <ele>448.05</ele>
        <time>2023-06-13T12:41:03.328Z</time>
      </trkpt>
      <trkpt lat="48.257296085357666" lon="17.131108045578003">
        <ele>450.43</ele>
        <time>2023-06-13T12:41:09.443Z</time>
      </trkpt>
      <trkpt lat="48.257349729537964" lon="17.131022214889526">
        <ele>452.55</ele>
        <time>2023-06-13T12:41:15.560Z</time>
      </trkpt>
      <trkpt lat="48.25745701789856" lon="17.13093638420105">
        <ele>454.97</ele>
        <time>2023-06-13T12:41:21.679Z</time>
      </trkpt>
      <trkpt lat="48.257564306259155" lon="17.13091492652893">
        <ele>457.48</ele>
        <time>2023-06-13T12:41:27.800Z</time>
      </trkpt>
      <trkpt lat="48.25765013694763" lon="17.13091492652893">
        <ele>460.02</ele>
        <time>2023-06-13T12:41:33.923Z</time>
      </trkpt>
      <trkpt lat="48.258100748062134" lon="17.131054401397705">
        <ele>462.91</ele>
        <time>2023-06-13T12:41:40.055Z</time>
      </trkpt>
      <trkpt lat="48.25811734423041" lon="17.131055323407054">
        <ele>464.09</ele>
        <time>2023-06-13T12:41:46.188Z</time>
      </trkpt>
      <trkpt lat="48.25811876915395" lon="17.131055407226086">
        <ele>464.2</ele>
        <time>2023-06-13T12:41:52.321Z</time>
      </trkpt>
      <trkpt lat="48.25812011025846" lon="17.131055491045117">
        <ele>464.3</ele>
        <time>2023-06-13T12:41:58.454Z</time>
      </trkpt>
      <trkpt lat="48.258121535182" lon="17.13105557486415">
        <ele>464.4</ele>
        <time>2023-06-13T12:42:04.587Z</time>
      </trkpt>
      <trkpt lat="48.2581231277436" lon="17.131055742502213">
        <ele>464.51</ele>
        <time>2023-06-13T12:42:10.720Z</time>
      </trkpt>
      <trkpt lat="48.25828313827515" lon="17.131065130233765">
        <ele>470.58</ele>
        <time>2023-06-13T12:42:16.856Z</time>
      </trkpt>
      <trkpt lat="48.258562088012695" lon="17.131236791610718">
        <ele>471.81</ele>
        <time>2023-06-13T12:42:22.998Z</time>
      </trkpt>
      <trkpt lat="48.259087800979614" lon="17.131365537643433">
        <ele>473.27</ele>
        <time>2023-06-13T12:42:29.151Z</time>
      </trkpt>
      <trkpt lat="48.25914144515991" lon="17.13138699531555">
        <ele>474.56</ele>
        <time>2023-06-13T12:42:35.305Z</time>
      </trkpt>
      <trkpt lat="48.25924881733954" lon="17.13147282600403">
        <ele>475.88</ele>
        <time>2023-06-13T12:42:41.461Z</time>
      </trkpt>
      <trkpt lat="48.259313106536865" lon="17.131569385528564">
        <ele>477.23</ele>
        <time>2023-06-13T12:42:47.619Z</time>
      </trkpt>
      <trkpt lat="48.25938820838928" lon="17.131869792938232">
        <ele>478.68</ele>
        <time>2023-06-13T12:42:53.781Z</time>
      </trkpt>
      <trkpt lat="48.25945258140564" lon="17.132019996643066">
        <ele>480.32</ele>
        <time>2023-06-13T12:42:59.946Z</time>
      </trkpt>
      <trkpt lat="48.259549140930176" lon="17.132127285003662">
        <ele>482.13</ele>
        <time>2023-06-13T12:43:06.113Z</time>
      </trkpt>
      <trkpt lat="48.25966715812683" lon="17.1321702003479">
        <ele>484.13</ele>
        <time>2023-06-13T12:43:12.283Z</time>
      </trkpt>
      <trkpt lat="48.25966724194586" lon="17.1321702003479">
        <ele>486.11</ele>
        <time>2023-06-13T12:43:18.453Z</time>
      </trkpt>
      <trkpt lat="48.26040744781494" lon="17.1322238445282">
        <ele>489.22</ele>
        <time>2023-06-13T12:43:24.637Z</time>
      </trkpt>
      <trkpt lat="48.26085805892944" lon="17.13218092918396">
        <ele>492.32</ele>
        <time>2023-06-13T12:43:30.830Z</time>
      </trkpt>
      <trkpt lat="48.26124429702759" lon="17.132052183151245">
        <ele>495.51</ele>
        <time>2023-06-13T12:43:37.031Z</time>
      </trkpt>
      <trkpt lat="48.26139450073242" lon="17.132062911987305">
        <ele>498.34</ele>
        <time>2023-06-13T12:43:43.235Z</time>
      </trkpt>
      <trkpt lat="48.261566162109375" lon="17.13215947151184">
        <ele>501.0</ele>
        <time>2023-06-13T12:43:49.443Z</time>
      </trkpt>
      <trkpt lat="48.26167345046997" lon="17.13215947151184">
        <ele>503.44</ele>
        <time>2023-06-13T12:43:55.653Z</time>
      </trkpt>
      <trkpt lat="48.261812925338745" lon="17.13221311569214">
        <ele>505.78</ele>
        <time>2023-06-13T12:44:01.866Z</time>
      </trkpt>
      <trkpt lat="48.26199531555176" lon="17.132256031036377">
        <ele>508.03</ele>
        <time>2023-06-13T12:44:08.083Z</time>
      </trkpt>
      <trkpt lat="48.26225280761719" lon="17.132266759872437">
        <ele>510.17</ele>
        <time>2023-06-13T12:44:14.305Z</time>
      </trkpt>
      <trkpt lat="48.262295722961426" lon="17.132256031036377">
        <ele>512.08</ele>
        <time>2023-06-13T12:44:20.528Z</time>
      </trkpt>
      <trkpt lat="48.26244592666626" lon="17.13215947151184">
        <ele>513.94</ele>
        <time>2023-06-13T12:44:26.754Z</time>
      </trkpt>
      <trkpt lat="48.26256402768195" lon="17.13215947151184">
        <ele>515.75</ele>
        <time>2023-06-13T12:44:32.982Z</time>
      </trkpt>
      <trkpt lat="48.26261758804321" lon="17.13218092918396">
        <ele>517.55</ele>
        <time>2023-06-13T12:44:39.212Z</time>
      </trkpt>
      <trkpt lat="48.2624888420105" lon="17.132545709609985">
        <ele>519.5</ele>
        <time>2023-06-13T12:44:45.447Z</time>
      </trkpt>
      <trkpt lat="48.2624351978302" lon="17.132792472839355">
        <ele>521.5</ele>
        <time>2023-06-13T12:44:51.686Z</time>
      </trkpt>
      <trkpt lat="48.26241374015808" lon="17.133082151412964">
        <ele>523.48</ele>
        <time>2023-06-13T12:44:57.928Z</time>
      </trkpt>
      <trkpt lat="48.26240301132202" lon="17.13318943977356">
        <ele>525.35</ele>
        <time>2023-06-13T12:45:04.172Z</time>
      </trkpt>
      <trkpt lat="48.26226353645325" lon="17.13369369506836">
        <ele>527.56</ele>
        <time>2023-06-13T12:45:10.423Z</time>
      </trkpt>
      <trkpt lat="48.26222062110901" lon="17.134015560150146">
        <ele>529.77</ele>
        <time>2023-06-13T12:45:16.679Z</time>
      </trkpt>
      <trkpt lat="48.262091875076294" lon="17.134745121002197">
        <ele>532.55</ele>
        <time>2023-06-13T12:45:22.945Z</time>
      </trkpt>
      <trkpt lat="48.262059688568115" lon="17.135077714920044">
        <ele>534.42</ele>
        <time>2023-06-13T12:45:29.215Z</time>
      </trkpt>
      <trkpt lat="48.26202750205994" lon="17.135292291641235">
        <ele>535.88</ele>
        <time>2023-06-13T12:45:35.488Z</time>
      </trkpt>
      <trkpt lat="48.26195240020752" lon="17.135624885559082">
        <ele>536.96</ele>
        <time>2023-06-13T12:45:41.766Z</time>
      </trkpt>
      <trkpt lat="48.26190948486328" lon="17.13590383529663">
        <ele>537.75</ele>
        <time>2023-06-13T12:45:48.048Z</time>
      </trkpt>
      <trkpt lat="48.26169490814209" lon="17.136622667312622">
        <ele>538.09</ele>
        <time>2023-06-13T12:45:54.340Z</time>
      </trkpt>
      <trkpt lat="48.26143741607666" lon="17.137277126312256">
        <ele>538.47</ele>
        <time>2023-06-13T12:46:00.642Z</time>
      </trkpt>
      <trkpt lat="48.261340856552124" lon="17.13767409324646">
        <ele>538.62</ele>
        <time>2023-06-13T12:46:06.950Z</time>
      </trkpt>
      <trkpt lat="48.26120138168335" lon="17.138038873672485">
        <ele>538.58</ele>
        <time>2023-06-13T12:46:13.264Z</time>
      </trkpt>
      <trkpt lat="48.261083364486694" lon="17.138489484786987">
        <ele>538.37</ele>
        <time>2023-06-13T12:46:19.584Z</time>
      </trkpt>
      <trkpt lat="48.261040449142456" lon="17.138779163360596">
        <ele>538.05</ele>
        <time>2023-06-13T12:46:25.908Z</time>
      </trkpt>
      <trkpt lat="48.2610297203064" lon="17.13888645172119">
        <ele>537.79</ele>
        <time>2023-06-13T12:46:32.233Z</time>
      </trkpt>
      <trkpt lat="48.261040449142456" lon="17.139025926589966">
        <ele>537.52</ele>
        <time>2023-06-13T12:46:38.560Z</time>
      </trkpt>
      <trkpt lat="48.26116919517517" lon="17.13989496231079">
        <ele>537.17</ele>
        <time>2023-06-13T12:46:44.899Z</time>
      </trkpt>
      <trkpt lat="48.26117992401123" lon="17.140324115753174">
        <ele>537.05</ele>
        <time>2023-06-13T12:46:51.244Z</time>
      </trkpt>
      <trkpt lat="48.26121211051941" lon="17.140538692474365">
        <ele>536.87</ele>
        <time>2023-06-13T12:46:57.592Z</time>
      </trkpt>
      <trkpt lat="48.26126575469971" lon="17.14066743850708">
        <ele>536.76</ele>
        <time>2023-06-13T12:47:03.942Z</time>
      </trkpt>
      <trkpt lat="48.261544704437256" lon="17.141010761260986">
        <ele>536.7</ele>
        <time>2023-06-13T12:47:10.299Z</time>
      </trkpt>
      <trkpt lat="48.26160907745361" lon="17.141042947769165">
        <ele>536.77</ele>
        <time>2023-06-13T12:47:16.657Z</time>
      </trkpt>
      <trkpt lat="48.26167345046997" lon="17.141042947769165">
        <ele>537.0</ele>
        <time>2023-06-13T12:47:23.017Z</time>
      </trkpt>
      <trkpt lat="48.26146960258484" lon="17.141729593276978">
        <ele>537.58</ele>
        <time>2023-06-13T12:47:29.387Z</time>
      </trkpt>
      <trkpt lat="48.26129802502692" lon="17.14215874671936">
        <ele>537.96</ele>
        <time>2023-06-13T12:47:35.763Z</time>
      </trkpt>
      <trkpt lat="48.26121211051941" lon="17.142362594604492">
        <ele>538.52</ele>
        <time>2023-06-13T12:47:42.143Z</time>
      </trkpt>
      <trkpt lat="48.261072635650635" lon="17.142620086669922">
        <ele>539.21</ele>
        <time>2023-06-13T12:47:48.527Z</time>
      </trkpt>
      <trkpt lat="48.260847330093384" lon="17.14293122291565">
        <ele>540.13</ele>
        <time>2023-06-13T12:47:54.917Z</time>
      </trkpt>
      <trkpt lat="48.26093316078186" lon="17.1432101726532">
        <ele>541.26</ele>
        <time>2023-06-13T12:48:01.311Z</time>
      </trkpt>
      <trkpt lat="48.26124429702759" lon="17.143778800964355">
        <ele>542.74</ele>
        <time>2023-06-13T12:48:07.715Z</time>
      </trkpt>
      <trkpt lat="48.261297941207886" lon="17.14390754699707">
        <ele>543.94</ele>
        <time>2023-06-13T12:48:14.121Z</time>
      </trkpt>
      <trkpt lat="48.26145887374878" lon="17.144529819488525">
        <ele>545.41</ele>
        <time>2023-06-13T12:48:20.536Z</time>
      </trkpt>
      <trkpt lat="48.261802196502686" lon="17.145334482192993">
        <ele>546.33</ele>
        <time>2023-06-13T12:48:26.964Z</time>
      </trkpt>
      <trkpt lat="48.26201677322388" lon="17.145752906799316">
        <ele>547.03</ele>
        <time>2023-06-13T12:48:33.399Z</time>
      </trkpt>
      <trkpt lat="48.262091875076294" lon="17.145849466323853">
        <ele>547.59</ele>
        <time>2023-06-13T12:48:39.836Z</time>
      </trkpt>
      <trkpt lat="48.26239228248596" lon="17.146053314208984">
        <ele>548.09</ele>
        <time>2023-06-13T12:48:46.280Z</time>
      </trkpt>
      <trkpt lat="48.262531757354736" lon="17.1461820602417">
        <ele>548.51</ele>
        <time>2023-06-13T12:48:52.727Z</time>
      </trkpt>
      <trkpt lat="48.262563943862915" lon="17.146246433258057">
        <ele>548.89</ele>
        <time>2023-06-13T12:48:59.175Z</time>
      </trkpt>
      <trkpt lat="48.262585401535034" lon="17.146342992782593">
        <ele>549.24</ele>
        <time>2023-06-13T12:49:05.624Z</time>
      </trkpt>
      <trkpt lat="48.26271423138678" lon="17.147319316864014">
        <ele>549.56</ele>
        <time>2023-06-13T12:49:12.087Z</time>
      </trkpt>
      <trkpt lat="48.26268196105957" lon="17.147490978240967">
        <ele>549.95</ele>
        <time>2023-06-13T12:49:18.552Z</time>
      </trkpt>
      <trkpt lat="48.26261758804321" lon="17.1476411819458">
        <ele>550.35</ele>
        <time>2023-06-13T12:49:25.019Z</time>
      </trkpt>
      <trkpt lat="48.26249957084656" lon="17.147791385650635">
        <ele>550.76</ele>
        <time>2023-06-13T12:49:31.489Z</time>
      </trkpt>
      <trkpt lat="48.26226353645325" lon="17.147973775863647">
        <ele>551.4</ele>
        <time>2023-06-13T12:49:37.965Z</time>
      </trkpt>
      <trkpt lat="48.261812925338745" lon="17.148284912109375">
        <ele>552.12</ele>
        <time>2023-06-13T12:49:44.451Z</time>
      </trkpt>
      <trkpt lat="48.26173782348633" lon="17.14837074279785">
        <ele>552.7</ele>
        <time>2023-06-13T12:49:50.939Z</time>
      </trkpt>
      <trkpt lat="48.26125502586365" lon="17.14938998222351">
        <ele>553.43</ele>
        <time>2023-06-13T12:49:57.443Z</time>
      </trkpt>
      <trkpt lat="48.261022847145796" lon="17.149821734055877">
        <ele>554.0</ele>
        <time>2023-06-13T12:50:03.955Z</time>
      </trkpt>
      <trkpt lat="48.261022260412574" lon="17.14982290752232">
        <ele>554.01</ele>
        <time>2023-06-13T12:50:10.467Z</time>
      </trkpt>
      <trkpt lat="48.26102175749838" lon="17.1498239133507">
        <ele>554.02</ele>
        <time>2023-06-13T12:50:16.979Z</time>
      </trkpt>
      <trkpt lat="48.26102125458419" lon="17.149825002998114">
        <ele>554.03</ele>
        <time>2023-06-13T12:50:23.491Z</time>
      </trkpt>
      <trkpt lat="48.26102066785097" lon="17.149826176464558">
        <ele>554.04</ele>
        <time>2023-06-13T12:50:30.003Z</time>
      </trkpt>
      <trkpt lat="48.2608687877655" lon="17.150108814239502">
        <ele>551.94</ele>
        <time>2023-06-13T12:50:36.520Z</time>
      </trkpt>
      <trkpt lat="48.26074004173279" lon="17.150248289108276">
        <ele>551.5</ele>
        <time>2023-06-13T12:50:43.040Z</time>
      </trkpt>
      <trkpt lat="48.260600566864014" lon="17.15037703514099">
        <ele>550.87</ele>
        <time>2023-06-13T12:50:49.563Z</time>
      </trkpt>
      <trkpt lat="48.26042890548706" lon="17.150462865829468">
        <ele>550.13</ele>
        <time>2023-06-13T12:50:56.090Z</time>
      </trkpt>
      <trkpt lat="48.260300159454346" lon="17.150505781173706">
        <ele>549.43</ele>
        <time>2023-06-13T12:51:02.619Z</time>
      </trkpt>
      <trkpt lat="48.2598602771759" lon="17.150527238845825">
        <ele>548.27</ele>
        <time>2023-06-13T12:51:09.157Z</time>
      </trkpt>
      <trkpt lat="48.25977453030646" lon="17.150505781173706">
        <ele>547.49</ele>
        <time>2023-06-13T12:51:15.697Z</time>
      </trkpt>
      <trkpt lat="48.2594096660614" lon="17.15015172958374">
        <ele>546.44</ele>
        <time>2023-06-13T12:51:22.246Z</time>
      </trkpt>
      <trkpt lat="48.25917371548712" lon="17.150044441223145">
        <ele>545.86</ele>
        <time>2023-06-13T12:51:28.799Z</time>
      </trkpt>
      <trkpt lat="48.25900197029114" lon="17.150012254714966">
        <ele>545.64</ele>
        <time>2023-06-13T12:51:35.356Z</time>
      </trkpt>
      <trkpt lat="48.25900205411017" lon="17.150012254714966">
        <ele>545.6</ele>
        <time>2023-06-13T12:51:41.913Z</time>
      </trkpt>
      <trkpt lat="48.259087800979614" lon="17.1501624584198">
        <ele>545.62</ele>
        <time>2023-06-13T12:51:48.473Z</time>
      </trkpt>
      <trkpt lat="48.25917363166809" lon="17.15036630630493">
        <ele>545.95</ele>
        <time>2023-06-13T12:51:55.036Z</time>
      </trkpt>
      <trkpt lat="48.259334564208984" lon="17.151052951812744">
        <ele>546.59</ele>
        <time>2023-06-13T12:52:01.609Z</time>
      </trkpt>
      <trkpt lat="48.25939893722534" lon="17.151267528533936">
        <ele>547.27</ele>
        <time>2023-06-13T12:52:08.185Z</time>
      </trkpt>
      <trkpt lat="48.25949549674988" lon="17.151492834091187">
        <ele>547.85</ele>
        <time>2023-06-13T12:52:14.764Z</time>
      </trkpt>
      <trkpt lat="48.2598602771759" lon="17.152254581451416">
        <ele>548.71</ele>
        <time>2023-06-13T12:52:21.356Z</time>
      </trkpt>
      <trkpt lat="48.25993537902832" lon="17.15239405632019">
        <ele>549.42</ele>
        <time>2023-06-13T12:52:27.950Z</time>
      </trkpt>
      <trkpt lat="48.260343074798584" lon="17.15290904045105">
        <ele>549.81</ele>
        <time>2023-06-13T12:52:34.555Z</time>
      </trkpt>
      <trkpt lat="48.26049327850342" lon="17.153048515319824">
        <ele>550.15</ele>
        <time>2023-06-13T12:52:41.163Z</time>
      </trkpt>
      <trkpt lat="48.26063275337219" lon="17.1531343460083">
        <ele>550.44</ele>
        <time>2023-06-13T12:52:47.774Z</time>
      </trkpt>
      <trkpt lat="48.261287212371826" lon="17.15335965156555">
        <ele>550.66</ele>
        <time>2023-06-13T12:52:54.399Z</time>
      </trkpt>
      <trkpt lat="48.261823654174805" lon="17.153509855270386">
        <ele>550.48</ele>
        <time>2023-06-13T12:53:01.035Z</time>
      </trkpt>
      <trkpt lat="48.26211333274841" lon="17.153563499450684">
        <ele>550.38</ele>
        <time>2023-06-13T12:53:07.677Z</time>
      </trkpt>
      <trkpt lat="48.26225280761719" lon="17.153542041778564">
        <ele>550.12</ele>
        <time>2023-06-13T12:53:14.321Z</time>
      </trkpt>
      <trkpt lat="48.26290726661682" lon="17.15335965156555">
        <ele>549.93</ele>
        <time>2023-06-13T12:53:20.979Z</time>
      </trkpt>
      <trkpt lat="48.26312184333801" lon="17.15338110923767">
        <ele>549.57</ele>
        <time>2023-06-13T12:53:27.641Z</time>
      </trkpt>
      <trkpt lat="48.26336860656738" lon="17.153456211090088">
        <ele>549.01</ele>
        <time>2023-06-13T12:53:34.308Z</time>
      </trkpt>
      <trkpt lat="48.26373338699341" lon="17.15364933013916">
        <ele>547.83</ele>
        <time>2023-06-13T12:53:40.983Z</time>
      </trkpt>
      <trkpt lat="48.26386213302612" lon="17.153756618499756">
        <ele>546.53</ele>
        <time>2023-06-13T12:53:47.661Z</time>
      </trkpt>
      <trkpt lat="48.26392650604248" lon="17.153853178024292">
        <ele>545.16</ele>
        <time>2023-06-13T12:53:54.341Z</time>
      </trkpt>
      <trkpt lat="48.26398015022278" lon="17.153960466384888">
        <ele>543.63</ele>
        <time>2023-06-13T12:54:01.022Z</time>
      </trkpt>
      <trkpt lat="48.26411962509155" lon="17.15442180633545">
        <ele>542.06</ele>
        <time>2023-06-13T12:54:07.710Z</time>
      </trkpt>
      <trkpt lat="48.264334201812744" lon="17.155237197875977">
        <ele>540.65</ele>
        <time>2023-06-13T12:54:14.410Z</time>
      </trkpt>
      <trkpt lat="48.26442003250122" lon="17.155483961105347">
        <ele>538.8</ele>
        <time>2023-06-13T12:54:21.114Z</time>
      </trkpt>
      <trkpt lat="48.264527320861816" lon="17.15564489364624">
        <ele>536.77</ele>
        <time>2023-06-13T12:54:27.821Z</time>
      </trkpt>
      <trkpt lat="48.26510667800903" lon="17.156063318252563">
        <ele>534.06</ele>
        <time>2023-06-13T12:54:34.541Z</time>
      </trkpt>
      <trkpt lat="48.26549291610718" lon="17.156245708465576">
        <ele>531.15</ele>
        <time>2023-06-13T12:54:41.269Z</time>
      </trkpt>
      <trkpt lat="48.26640486717224" lon="17.156492471694946">
        <ele>527.84</ele>
        <time>2023-06-13T12:54:48.015Z</time>
      </trkpt>
      <trkpt lat="48.26666235923767" lon="17.1566104888916">
        <ele>525.26</ele>
        <time>2023-06-13T12:54:54.767Z</time>
      </trkpt>
      <trkpt lat="48.26700568199158" lon="17.156546115875244">
        <ele>522.61</ele>
        <time>2023-06-13T12:55:01.525Z</time>
      </trkpt>
      <trkpt lat="48.26715596951544" lon="17.156460285186768">
        <ele>520.07</ele>
        <time>2023-06-13T12:55:08.287Z</time>
      </trkpt>
      <trkpt lat="48.26739192008972" lon="17.156202793121338">
        <ele>517.56</ele>
        <time>2023-06-13T12:55:15.055Z</time>
      </trkpt>
      <trkpt lat="48.267628038302064" lon="17.15592384338379">
        <ele>515.17</ele>
        <time>2023-06-13T12:55:21.829Z</time>
      </trkpt>
      <trkpt lat="48.268035650253296" lon="17.155462503433228">
        <ele>512.87</ele>
        <time>2023-06-13T12:55:28.613Z</time>
      </trkpt>
      <trkpt lat="48.268293142318726" lon="17.155226469039917">
        <ele>510.77</ele>
        <time>2023-06-13T12:55:35.403Z</time>
      </trkpt>
      <trkpt lat="48.2684326171875" lon="17.15518355369568">
        <ele>508.83</ele>
        <time>2023-06-13T12:55:42.196Z</time>
      </trkpt>
      <trkpt lat="48.26862573623657" lon="17.155226469039917">
        <ele>507.06</ele>
        <time>2023-06-13T12:55:48.993Z</time>
      </trkpt>
      <trkpt lat="48.26876521110535" lon="17.155323028564453">
        <ele>505.51</ele>
        <time>2023-06-13T12:55:55.793Z</time>
      </trkpt>
      <trkpt lat="48.26891541481018" lon="17.155537605285645">
        <ele>504.06</ele>
        <time>2023-06-13T12:56:02.597Z</time>
      </trkpt>
      <trkpt lat="48.26970934867859" lon="17.156556844711304">
        <ele>501.99</ele>
        <time>2023-06-13T12:56:09.422Z</time>
      </trkpt>
      <trkpt lat="48.26992392539978" lon="17.156749963760376">
        <ele>500.96</ele>
        <time>2023-06-13T12:56:16.252Z</time>
      </trkpt>
      <trkpt lat="48.270020484924316" lon="17.156814336776733">
        <ele>500.25</ele>
        <time>2023-06-13T12:56:23.084Z</time>
      </trkpt>
      <trkpt lat="48.27015995979309" lon="17.15685725212097">
        <ele>499.81</ele>
        <time>2023-06-13T12:56:29.919Z</time>
      </trkpt>
      <trkpt lat="48.27022433280945" lon="17.15685725212097">
        <ele>499.62</ele>
        <time>2023-06-13T12:56:36.755Z</time>
      </trkpt>
      <trkpt lat="48.27043890953064" lon="17.15687870979309">
        <ele>499.66</ele>
        <time>2023-06-13T12:56:43.595Z</time>
      </trkpt>
      <trkpt lat="48.270578468218446" lon="17.156964540481567">
        <ele>499.96</ele>
        <time>2023-06-13T12:56:50.438Z</time>
      </trkpt>
      <trkpt lat="48.270610654726624" lon="17.156985998153687">
        <ele>500.43</ele>
        <time>2023-06-13T12:56:57.282Z</time>
      </trkpt>
      <trkpt lat="48.27098608016968" lon="17.157243490219116">
        <ele>501.11</ele>
        <time>2023-06-13T12:57:04.134Z</time>
      </trkpt>
      <trkpt lat="48.27118992805481" lon="17.15743660926819">
        <ele>501.87</ele>
        <time>2023-06-13T12:57:10.991Z</time>
      </trkpt>
      <trkpt lat="48.27144742012024" lon="17.157576084136963">
        <ele>502.73</ele>
        <time>2023-06-13T12:57:17.854Z</time>
      </trkpt>
      <trkpt lat="48.27198386192322" lon="17.157962322235107">
        <ele>504.12</ele>
        <time>2023-06-13T12:57:24.729Z</time>
      </trkpt>
      <trkpt lat="48.27301383018494" lon="17.158724069595337">
        <ele>505.85</ele>
        <time>2023-06-13T12:57:31.627Z</time>
      </trkpt>
      <trkpt lat="48.274022340774536" lon="17.159528732299805">
        <ele>507.26</ele>
        <time>2023-06-13T12:57:38.547Z</time>
      </trkpt>
      <trkpt lat="48.2753849029541" lon="17.160816192626953">
        <ele>507.93</ele>
        <time>2023-06-13T12:57:45.500Z</time>
      </trkpt>
      <trkpt lat="48.27538498677313" lon="17.160816192626953">
        <ele>508.83</ele>
        <time>2023-06-13T12:57:52.453Z</time>
      </trkpt>
      <trkpt lat="48.27612519264221" lon="17.161513566970825">
        <ele>509.49</ele>
        <time>2023-06-13T12:57:59.423Z</time>
      </trkpt>
      <trkpt lat="48.27617883682251" lon="17.161728143692017">
        <ele>510.24</ele>
        <time>2023-06-13T12:58:06.396Z</time>
      </trkpt>
      <trkpt lat="48.276307582855225" lon="17.161964178085327">
        <ele>510.82</ele>
        <time>2023-06-13T12:58:13.373Z</time>
      </trkpt>
      <trkpt lat="48.27636122703552" lon="17.16214656829834">
        <ele>511.27</ele>
        <time>2023-06-13T12:58:20.353Z</time>
      </trkpt>
      <trkpt lat="48.27640414237976" lon="17.162210941314697">
        <ele>511.62</ele>
        <time>2023-06-13T12:58:27.334Z</time>
      </trkpt>
      <trkpt lat="48.27646851539612" lon="17.162275314331055">
        <ele>511.84</ele>
        <time>2023-06-13T12:58:34.317Z</time>
      </trkpt>
      <trkpt lat="48.276779651641846" lon="17.16241478919983">
        <ele>511.86</ele>
        <time>2023-06-13T12:58:41.306Z</time>
      </trkpt>
      <trkpt lat="48.27711224555969" lon="17.1626079082489">
        <ele>511.54</ele>
        <time>2023-06-13T12:58:48.302Z</time>
      </trkpt>
      <trkpt lat="48.277316093444824" lon="17.1626615524292">
        <ele>511.27</ele>
        <time>2023-06-13T12:58:55.302Z</time>
      </trkpt>
      <trkpt lat="48.2774555683136" lon="17.162725925445557">
        <ele>511.02</ele>
        <time>2023-06-13T12:59:02.305Z</time>
      </trkpt>
      <trkpt lat="48.277552127838135" lon="17.162833213806152">
        <ele>510.82</ele>
        <time>2023-06-13T12:59:09.311Z</time>
      </trkpt>
      <trkpt lat="48.277766704559326" lon="17.16292977333069">
        <ele>510.56</ele>
        <time>2023-06-13T12:59:16.321Z</time>
      </trkpt>
      <trkpt lat="48.27808856964111" lon="17.163015604019165">
        <ele>510.43</ele>
        <time>2023-06-13T12:59:23.338Z</time>
      </trkpt>
      <trkpt lat="48.27849626541138" lon="17.163165807724">
        <ele>510.31</ele>
        <time>2023-06-13T12:59:30.363Z</time>
      </trkpt>
      <trkpt lat="48.278775215148926" lon="17.163230180740356">
        <ele>510.05</ele>
        <time>2023-06-13T12:59:37.394Z</time>
      </trkpt>
      <trkpt lat="48.27893614768982" lon="17.163240909576416">
        <ele>509.6</ele>
        <time>2023-06-13T12:59:44.428Z</time>
      </trkpt>
      <trkpt lat="48.27912926673889" lon="17.16315507888794">
        <ele>509.02</ele>
        <time>2023-06-13T12:59:51.466Z</time>
      </trkpt>
      <trkpt lat="48.27923655509949" lon="17.163015604019165">
        <ele>508.31</ele>
        <time>2023-06-13T12:59:58.507Z</time>
      </trkpt>
      <trkpt lat="48.2792688254267" lon="17.162972688674927">
        <ele>507.54</ele>
        <time>2023-06-13T13:00:05.549Z</time>
      </trkpt>
      <trkpt lat="48.279569149017334" lon="17.162575721740723">
        <ele>506.6</ele>
        <time>2023-06-13T13:00:12.599Z</time>
      </trkpt>
      <trkpt lat="48.279783725738525" lon="17.16241478919983">
        <ele>505.56</ele>
        <time>2023-06-13T13:00:19.654Z</time>
      </trkpt>
      <trkpt lat="48.28022360801697" lon="17.162318229675293">
        <ele>504.5</ele>
        <time>2023-06-13T13:00:26.718Z</time>
      </trkpt>
      <trkpt lat="48.281307220458984" lon="17.161964178085327">
        <ele>502.99</ele>
        <time>2023-06-13T13:00:33.804Z</time>
      </trkpt>
      <trkpt lat="48.28214406967163" lon="17.161556482315063">
        <ele>501.57</ele>
        <time>2023-06-13T13:00:40.907Z</time>
      </trkpt>
      <trkpt lat="48.282755613327026" lon="17.161202430725098">
        <ele>500.59</ele>
        <time>2023-06-13T13:00:48.024Z</time>
      </trkpt>
      <trkpt lat="48.28309893608093" lon="17.16090202331543">
        <ele>499.57</ele>
        <time>2023-06-13T13:00:55.148Z</time>
      </trkpt>
      <trkpt lat="48.28344225883484" lon="17.160472869873047">
        <ele>498.71</ele>
        <time>2023-06-13T13:01:02.281Z</time>
      </trkpt>
      <trkpt lat="48.28366756439209" lon="17.16015100479126">
        <ele>497.74</ele>
        <time>2023-06-13T13:01:09.421Z</time>
      </trkpt>
      <trkpt lat="48.28366764821112" lon="17.16015100479126">
        <ele>496.67</ele>
        <time>2023-06-13T13:01:16.561Z</time>
      </trkpt>
      <trkpt lat="48.28389286994934" lon="17.16015100479126">
        <ele>495.57</ele>
        <time>2023-06-13T13:01:23.705Z</time>
      </trkpt>
      <trkpt lat="48.284043073654175" lon="17.160226106643677">
        <ele>494.47</ele>
        <time>2023-06-13T13:01:30.852Z</time>
      </trkpt>
      <trkpt lat="48.28412890434265" lon="17.160322666168213">
        <ele>493.35</ele>
        <time>2023-06-13T13:01:38.001Z</time>
      </trkpt>
      <trkpt lat="48.28424692153931" lon="17.160505056381226">
        <ele>492.17</ele>
        <time>2023-06-13T13:01:45.154Z</time>
      </trkpt>
      <trkpt lat="48.28424692153931" lon="17.160816192626953">
        <ele>491.04</ele>
        <time>2023-06-13T13:01:52.311Z</time>
      </trkpt>
      <trkpt lat="48.28418254852295" lon="17.1611487865448">
        <ele>490.06</ele>
        <time>2023-06-13T13:01:59.473Z</time>
      </trkpt>
      <trkpt lat="48.28412890434265" lon="17.16192126274109">
        <ele>488.79</ele>
        <time>2023-06-13T13:02:06.645Z</time>
      </trkpt>
      <trkpt lat="48.28409671783447" lon="17.162221670150757">
        <ele>487.86</ele>
        <time>2023-06-13T13:02:13.821Z</time>
      </trkpt>
      <trkpt lat="48.28495502471924" lon="17.161535024642944">
        <ele>486.51</ele>
        <time>2023-06-13T13:02:21.017Z</time>
      </trkpt>
      <trkpt lat="48.285019397735596" lon="17.161502838134766">
        <ele>486.02</ele>
        <time>2023-06-13T13:02:28.214Z</time>
      </trkpt>
      <trkpt lat="48.28508377075195" lon="17.161502838134766">
        <ele>485.59</ele>
        <time>2023-06-13T13:02:35.412Z</time>
      </trkpt>
      <trkpt lat="48.28513741493225" lon="17.161535024642944">
        <ele>485.2</ele>
        <time>2023-06-13T13:02:42.611Z</time>
      </trkpt>
      <trkpt lat="48.2854163646698" lon="17.161835432052612">
        <ele>485.06</ele>
        <time>2023-06-13T13:02:49.817Z</time>
      </trkpt>
      <trkpt lat="48.285545110702515" lon="17.16191053390503">
        <ele>484.81</ele>
        <time>2023-06-13T13:02:57.026Z</time>
      </trkpt>
      <trkpt lat="48.28565239906311" lon="17.161996364593506">
        <ele>484.55</ele>
        <time>2023-06-13T13:03:04.237Z</time>
      </trkpt>
      <trkpt lat="48.28571677207947" lon="17.162082195281982">
        <ele>484.39</ele>
        <time>2023-06-13T13:03:11.450Z</time>
      </trkpt>
      <trkpt lat="48.285781145095825" lon="17.162307500839233">
        <ele>484.34</ele>
        <time>2023-06-13T13:03:18.666Z</time>
      </trkpt>
      <trkpt lat="48.28582406044006" lon="17.16240406036377">
        <ele>484.47</ele>
        <time>2023-06-13T13:03:25.884Z</time>
      </trkpt>
      <trkpt lat="48.2858669757843" lon="17.162457704544067">
        <ele>484.75</ele>
        <time>2023-06-13T13:03:33.103Z</time>
      </trkpt>
      <trkpt lat="48.28595280647278" lon="17.16239333152771">
        <ele>485.16</ele>
        <time>2023-06-13T13:03:40.324Z</time>
      </trkpt>
      <trkpt lat="48.286070823669434" lon="17.16236114501953">
        <ele>485.72</ele>
        <time>2023-06-13T13:03:47.547Z</time>
      </trkpt>
      <trkpt lat="48.286253213882446" lon="17.16236114501953">
        <ele>486.45</ele>
        <time>2023-06-13T13:03:54.774Z</time>
      </trkpt>
      <trkpt lat="48.28640341758728" lon="17.16239333152771">
        <ele>487.23</ele>
        <time>2023-06-13T13:04:02.004Z</time>
      </trkpt>
      <trkpt lat="48.287036418914795" lon="17.16262936592102">
        <ele>488.11</ele>
        <time>2023-06-13T13:04:09.247Z</time>
      </trkpt>
      <trkpt lat="48.28716516494751" lon="17.16265082359314">
        <ele>488.97</ele>
        <time>2023-06-13T13:04:16.493Z</time>
      </trkpt>
      <trkpt lat="48.287261724472046" lon="17.16262936592102">
        <ele>489.97</ele>
        <time>2023-06-13T13:04:23.741Z</time>
      </trkpt>
      <trkpt lat="48.28735828399658" lon="17.162586450576782">
        <ele>491.05</ele>
        <time>2023-06-13T13:04:30.991Z</time>
      </trkpt>
      <trkpt lat="48.28765869140625" lon="17.162318229675293">
        <ele>492.39</ele>
        <time>2023-06-13T13:04:38.248Z</time>
      </trkpt>
      <trkpt lat="48.287765979766846" lon="17.162264585494995">
        <ele>493.39</ele>
        <time>2023-06-13T13:04:45.507Z</time>
      </trkpt>
      <trkpt lat="48.288270235061646" lon="17.16211438179016">
        <ele>494.2</ele>
        <time>2023-06-13T13:04:52.776Z</time>
      </trkpt>
      <trkpt lat="48.28840970993042" lon="17.161953449249268">
        <ele>495.0</ele>
        <time>2023-06-13T13:05:00.049Z</time>
      </trkpt>
      <trkpt lat="48.28864574432373" lon="17.16141700744629">
        <ele>496.02</ele>
        <time>2023-06-13T13:05:07.330Z</time>
      </trkpt>
      <trkpt lat="48.28874230384827" lon="17.161309719085693">
        <ele>496.63</ele>
        <time>2023-06-13T13:05:14.614Z</time>
      </trkpt>
      <trkpt lat="48.28890332020819" lon="17.161277532577515">
        <ele>496.85</ele>
        <time>2023-06-13T13:05:21.901Z</time>
      </trkpt>
      <trkpt lat="48.289042711257935" lon="17.161341905593872">
        <ele>496.59</ele>
        <time>2023-06-13T13:05:29.191Z</time>
      </trkpt>
      <trkpt lat="48.28920364379883" lon="17.161492109298706">
        <ele>496.0</ele>
        <time>2023-06-13T13:05:36.485Z</time>
      </trkpt>
      <trkpt lat="48.2893431186676" lon="17.16168522834778">
        <ele>495.09</ele>
        <time>2023-06-13T13:05:43.783Z</time>
      </trkpt>
      <trkpt lat="48.290019035339355" lon="17.163015604019165">
        <ele>493.32</ele>
        <time>2023-06-13T13:05:51.103Z</time>
      </trkpt>
      <trkpt lat="48.29013705253601" lon="17.16317653656006">
        <ele>492.81</ele>
        <time>2023-06-13T13:05:58.426Z</time>
      </trkpt>
      <trkpt lat="48.290297985076904" lon="17.163273096084595">
        <ele>492.3</ele>
        <time>2023-06-13T13:06:05.753Z</time>
      </trkpt>
      <trkpt lat="48.290566289797425" lon="17.163316011428833">
        <ele>491.63</ele>
        <time>2023-06-13T13:06:13.085Z</time>
      </trkpt>
      <trkpt lat="48.29098463058472" lon="17.16338038444519">
        <ele>490.55</ele>
        <time>2023-06-13T13:06:20.425Z</time>
      </trkpt>
      <trkpt lat="48.29107046127319" lon="17.16338038444519">
        <ele>489.82</ele>
        <time>2023-06-13T13:06:27.767Z</time>
      </trkpt>
      <trkpt lat="48.29117774963379" lon="17.163305282592773">
        <ele>489.34</ele>
        <time>2023-06-13T13:06:35.111Z</time>
      </trkpt>
      <trkpt lat="48.291231812909245" lon="17.16320050880313">
        <ele>489.19</ele>
        <time>2023-06-13T13:06:42.457Z</time>
      </trkpt>
      <trkpt lat="48.29123508185148" lon="17.163204364478588">
        <ele>489.49</ele>
        <time>2023-06-13T13:06:49.803Z</time>
      </trkpt>
      <trkpt lat="48.29123633913696" lon="17.163205789402127">
        <ele>489.61</ele>
        <time>2023-06-13T13:06:57.149Z</time>
      </trkpt>
      <trkpt lat="48.29123742878437" lon="17.163207130506635">
        <ele>489.72</ele>
        <time>2023-06-13T13:07:04.495Z</time>
      </trkpt>
      <trkpt lat="48.291238686069846" lon="17.163208555430174">
        <ele>489.84</ele>
        <time>2023-06-13T13:07:11.841Z</time>
      </trkpt>
      <trkpt lat="48.29123994335532" lon="17.163209980353713">
        <ele>489.96</ele>
        <time>2023-06-13T13:07:19.187Z</time>
      </trkpt>
      <trkpt lat="48.291231812909245" lon="17.16320050880313">
        <ele>490.67</ele>
        <time>2023-06-13T13:07:26.534Z</time>
      </trkpt>
      <trkpt lat="48.29134941101074" lon="17.162972688674927">
        <ele>491.79</ele>
        <time>2023-06-13T13:07:33.885Z</time>
      </trkpt>
      <trkpt lat="48.291778564453125" lon="17.162286043167114">
        <ele>493.48</ele>
        <time>2023-06-13T13:07:41.248Z</time>
      </trkpt>
      <trkpt lat="48.2919180393219" lon="17.161985635757446">
        <ele>495.55</ele>
        <time>2023-06-13T13:07:48.616Z</time>
      </trkpt>
      <trkpt lat="48.292025327682495" lon="17.1615993976593">
        <ele>497.77</ele>
        <time>2023-06-13T13:07:55.990Z</time>
      </trkpt>
      <trkpt lat="48.292057514190674" lon="17.161438465118408">
        <ele>499.41</ele>
        <time>2023-06-13T13:08:03.366Z</time>
      </trkpt>
      <trkpt lat="48.29207897186279" lon="17.16117024421692">
        <ele>500.8</ele>
        <time>2023-06-13T13:08:10.745Z</time>
      </trkpt>
      <trkpt lat="48.292057514190674" lon="17.161030769348145">
        <ele>501.83</ele>
        <time>2023-06-13T13:08:18.126Z</time>
      </trkpt>
      <trkpt lat="48.29192876815796" lon="17.16041922569275">
        <ele>502.81</ele>
        <time>2023-06-13T13:08:25.516Z</time>
      </trkpt>
      <trkpt lat="48.2919180393219" lon="17.160247564315796">
        <ele>503.15</ele>
        <time>2023-06-13T13:08:32.908Z</time>
      </trkpt>
      <trkpt lat="48.29192876815796" lon="17.159990072250366">
        <ele>503.17</ele>
        <time>2023-06-13T13:08:40.304Z</time>
      </trkpt>
      <trkpt lat="48.291993141174316" lon="17.159721851348877">
        <ele>502.78</ele>
        <time>2023-06-13T13:08:47.703Z</time>
      </trkpt>
      <trkpt lat="48.29223998822272" lon="17.15914249420166">
        <ele>501.94</ele>
        <time>2023-06-13T13:08:55.112Z</time>
      </trkpt>
      <trkpt lat="48.29223990440369" lon="17.15914249420166">
        <ele>501.59</ele>
        <time>2023-06-13T13:09:02.521Z</time>
      </trkpt>
      <trkpt lat="48.2923686504364" lon="17.158724069595337">
        <ele>500.97</ele>
        <time>2023-06-13T13:09:09.936Z</time>
      </trkpt>
      <trkpt lat="48.29240092076361" lon="17.158466577529907">
        <ele>500.97</ele>
        <time>2023-06-13T13:09:17.354Z</time>
      </trkpt>
      <trkpt lat="48.29244375228882" lon="17.15816617012024">
        <ele>501.27</ele>
        <time>2023-06-13T13:09:24.776Z</time>
      </trkpt>
      <trkpt lat="48.292497396469116" lon="17.157983779907227">
        <ele>501.78</ele>
        <time>2023-06-13T13:09:32.201Z</time>
      </trkpt>
      <trkpt lat="48.292551040649414" lon="17.15787649154663">
        <ele>502.14</ele>
        <time>2023-06-13T13:09:39.628Z</time>
      </trkpt>
      <trkpt lat="48.29260468482971" lon="17.157822847366333">
        <ele>502.23</ele>
        <time>2023-06-13T13:09:47.056Z</time>
      </trkpt>
      <trkpt lat="48.29265841282904" lon="17.157790660858154">
        <ele>502.11</ele>
        <time>2023-06-13T13:09:54.485Z</time>
      </trkpt>
      <trkpt lat="48.29269051551819" lon="17.157779932022095">
        <ele>501.79</ele>
        <time>2023-06-13T13:10:01.915Z</time>
      </trkpt>
      <trkpt lat="48.29314112663269" lon="17.157801389694214">
        <ele>501.23</ele>
        <time>2023-06-13T13:10:09.354Z</time>
      </trkpt>
      <trkpt lat="48.29319477081299" lon="17.157812118530273">
        <ele>500.63</ele>
        <time>2023-06-13T13:10:16.794Z</time>
      </trkpt>
      <trkpt lat="48.293269872665405" lon="17.15787649154663">
        <ele>499.8</ele>
        <time>2023-06-13T13:10:24.236Z</time>
      </trkpt>
      <trkpt lat="48.29334497451782" lon="17.15811252593994">
        <ele>498.65</ele>
        <time>2023-06-13T13:10:31.681Z</time>
      </trkpt>
      <trkpt lat="48.29338788986206" lon="17.15864896774292">
        <ele>497.36</ele>
        <time>2023-06-13T13:10:39.133Z</time>
      </trkpt>
      <trkpt lat="48.2934308052063" lon="17.158820629119873">
        <ele>496.81</ele>
        <time>2023-06-13T13:10:46.588Z</time>
      </trkpt>
      <trkpt lat="48.293505907058716" lon="17.15892791748047">
        <ele>496.6</ele>
        <time>2023-06-13T13:10:54.045Z</time>
      </trkpt>
      <trkpt lat="48.293559551239014" lon="17.158960103988647">
        <ele>496.65</ele>
        <time>2023-06-13T13:11:01.503Z</time>
      </trkpt>
      <trkpt lat="48.29366692341864" lon="17.158949375152588">
        <ele>497.01</ele>
        <time>2023-06-13T13:11:08.963Z</time>
      </trkpt>
      <trkpt lat="48.29366683959961" lon="17.158949375152588">
        <ele>497.44</ele>
        <time>2023-06-13T13:11:16.423Z</time>
      </trkpt>
      <trkpt lat="48.293752670288086" lon="17.15886354446411">
        <ele>498.34</ele>
        <time>2023-06-13T13:11:23.885Z</time>
      </trkpt>
      <trkpt lat="48.293806314468384" lon="17.158724069595337">
        <ele>499.39</ele>
        <time>2023-06-13T13:11:31.350Z</time>
      </trkpt>
      <trkpt lat="48.29383850097656" lon="17.158563137054443">
        <ele>500.49</ele>
        <time>2023-06-13T13:11:38.817Z</time>
      </trkpt>
      <trkpt lat="48.29384922981262" lon="17.158209085464478">
        <ele>501.86</ele>
        <time>2023-06-13T13:11:46.289Z</time>
      </trkpt>
      <trkpt lat="48.2938814163208" lon="17.157973051071167">
        <ele>503.43</ele>
        <time>2023-06-13T13:11:53.764Z</time>
      </trkpt>
      <trkpt lat="48.29392433166504" lon="17.15786576271057">
        <ele>504.87</ele>
        <time>2023-06-13T13:12:01.240Z</time>
      </trkpt>
      <trkpt lat="48.2939887046814" lon="17.157758474349976">
        <ele>506.19</ele>
        <time>2023-06-13T13:12:08.718Z</time>
      </trkpt>
      <trkpt lat="48.29410672187805" lon="17.15765118598938">
        <ele>507.27</ele>
        <time>2023-06-13T13:12:16.199Z</time>
      </trkpt>
      <trkpt lat="48.294557332992554" lon="17.157479524612427">
        <ele>507.42</ele>
        <time>2023-06-13T13:12:23.689Z</time>
      </trkpt>
      <trkpt lat="48.29458398744464" lon="17.15748354792595">
        <ele>507.81</ele>
        <time>2023-06-13T13:12:31.180Z</time>
      </trkpt>
      <trkpt lat="48.29458558000624" lon="17.157483799383044">
        <ele>507.84</ele>
        <time>2023-06-13T13:12:38.671Z</time>
      </trkpt>
      <trkpt lat="48.29458700492978" lon="17.15748405084014">
        <ele>507.87</ele>
        <time>2023-06-13T13:12:46.162Z</time>
      </trkpt>
      <trkpt lat="48.29458851367235" lon="17.157484302297235">
        <ele>507.9</ele>
        <time>2023-06-13T13:12:53.653Z</time>
      </trkpt>
      <trkpt lat="48.294590106233954" lon="17.15748455375433">
        <ele>507.93</ele>
        <time>2023-06-13T13:13:01.144Z</time>
      </trkpt>
      <trkpt lat="48.29469680786133" lon="17.157500982284546">
        <ele>509.57</ele>
        <time>2023-06-13T13:13:08.637Z</time>
      </trkpt>
      <trkpt lat="48.2948899269104" lon="17.157554626464844">
        <ele>509.65</ele>
        <time>2023-06-13T13:13:16.134Z</time>
      </trkpt>
      <trkpt lat="48.295050859451294" lon="17.157543897628784">
        <ele>510.08</ele>
        <time>2023-06-13T13:13:23.634Z</time>
      </trkpt>
      <trkpt lat="48.29515814781189" lon="17.15739369392395">
        <ele>511.34</ele>
        <time>2023-06-13T13:13:31.137Z</time>
      </trkpt>
      <trkpt lat="48.295512199401855" lon="17.15662121772766">
        <ele>513.88</ele>
        <time>2023-06-13T13:13:38.653Z</time>
      </trkpt>
      <trkpt lat="48.295555114746094" lon="17.156556844711304">
        <ele>515.86</ele>
        <time>2023-06-13T13:13:46.170Z</time>
      </trkpt>
      <trkpt lat="48.29571604728699" lon="17.15642809867859">
        <ele>517.74</ele>
        <time>2023-06-13T13:13:53.691Z</time>
      </trkpt>
      <trkpt lat="48.29615592956543" lon="17.156245708465576">
        <ele>519.46</ele>
        <time>2023-06-13T13:14:01.221Z</time>
      </trkpt>
      <trkpt lat="48.29633831977844" lon="17.15619206428528">
        <ele>520.85</ele>
        <time>2023-06-13T13:14:08.755Z</time>
      </trkpt>
      <trkpt lat="48.297014236450195" lon="17.15611696243286">
        <ele>522.78</ele>
        <time>2023-06-13T13:14:16.302Z</time>
      </trkpt>
      <trkpt lat="48.297239542007446" lon="17.15611696243286">
        <ele>524.13</ele>
        <time>2023-06-13T13:14:23.854Z</time>
      </trkpt>
      <trkpt lat="48.29743266105652" lon="17.156234979629517">
        <ele>525.1</ele>
        <time>2023-06-13T13:14:31.410Z</time>
      </trkpt>
      <trkpt lat="48.29772233963013" lon="17.15637445449829">
        <ele>525.99</ele>
        <time>2023-06-13T13:14:38.972Z</time>
      </trkpt>
      <trkpt lat="48.29793691635132" lon="17.156556844711304">
        <ele>526.74</ele>
        <time>2023-06-13T13:14:46.539Z</time>
      </trkpt>
      <trkpt lat="48.298237323760986" lon="17.15685725212097">
        <ele>527.53</ele>
        <time>2023-06-13T13:14:54.113Z</time>
      </trkpt>
      <trkpt lat="48.298419713974" lon="17.15693235397339">
        <ele>527.98</ele>
        <time>2023-06-13T13:15:01.691Z</time>
      </trkpt>
      <trkpt lat="48.29856991767883" lon="17.15692162513733">
        <ele>528.35</ele>
        <time>2023-06-13T13:15:09.272Z</time>
      </trkpt>
      <trkpt lat="48.298763036727905" lon="17.15687870979309">
        <ele>528.54</ele>
        <time>2023-06-13T13:15:16.857Z</time>
      </trkpt>
      <trkpt lat="48.29940676689148" lon="17.156310081481934">
        <ele>528.97</ele>
        <time>2023-06-13T13:15:24.457Z</time>
      </trkpt>
      <trkpt lat="48.299675071612" lon="17.15613842010498">
        <ele>529.67</ele>
        <time>2023-06-13T13:15:32.063Z</time>
      </trkpt>
      <trkpt lat="48.300007581710815" lon="17.15593457221985">
        <ele>530.06</ele>
        <time>2023-06-13T13:15:39.676Z</time>
      </trkpt>
      <trkpt lat="48.3004367351532" lon="17.155709266662598">
        <ele>529.85</ele>
        <time>2023-06-13T13:15:47.298Z</time>
      </trkpt>
      <trkpt lat="48.30121994018555" lon="17.155569791793823">
        <ele>530.1</ele>
        <time>2023-06-13T13:15:54.936Z</time>
      </trkpt>
      <trkpt lat="48.3013916015625" lon="17.155569791793823">
        <ele>530.05</ele>
        <time>2023-06-13T13:16:02.577Z</time>
      </trkpt>
      <trkpt lat="48.301992416381836" lon="17.155827283859253">
        <ele>529.43</ele>
        <time>2023-06-13T13:16:10.231Z</time>
      </trkpt>
      <trkpt lat="48.30212116241455" lon="17.15591311454773">
        <ele>529.25</ele>
        <time>2023-06-13T13:16:17.887Z</time>
      </trkpt>
      <trkpt lat="48.30222845077515" lon="17.156031131744385">
        <ele>529.25</ele>
        <time>2023-06-13T13:16:25.546Z</time>
      </trkpt>
      <trkpt lat="48.30230355262756" lon="17.15617060661316">
        <ele>529.37</ele>
        <time>2023-06-13T13:16:33.207Z</time>
      </trkpt>
      <trkpt lat="48.30237865447998" lon="17.156352996826172">
        <ele>529.61</ele>
        <time>2023-06-13T13:16:40.871Z</time>
      </trkpt>
      <trkpt lat="48.30241092480719" lon="17.156535387039185">
        <ele>529.91</ele>
        <time>2023-06-13T13:16:48.538Z</time>
      </trkpt>
      <trkpt lat="48.30246448516846" lon="17.156771421432495">
        <ele>530.35</ele>
        <time>2023-06-13T13:16:56.208Z</time>
      </trkpt>
      <trkpt lat="48.30247521400452" lon="17.15714693069458">
        <ele>530.79</ele>
        <time>2023-06-13T13:17:03.883Z</time>
      </trkpt>
      <trkpt lat="48.30246448516846" lon="17.157329320907593">
        <ele>531.48</ele>
        <time>2023-06-13T13:17:11.561Z</time>
      </trkpt>
      <trkpt lat="48.30241084098816" lon="17.157576084136963">
        <ele>532.21</ele>
        <time>2023-06-13T13:17:19.242Z</time>
      </trkpt>
      <trkpt lat="48.3024001121521" lon="17.15768337249756">
        <ele>533.04</ele>
        <time>2023-06-13T13:17:26.925Z</time>
      </trkpt>
      <trkpt lat="48.30242156982422" lon="17.157779932022095">
        <ele>534.04</ele>
        <time>2023-06-13T13:17:34.609Z</time>
      </trkpt>
      <trkpt lat="48.302539587020874" lon="17.15814471244812">
        <ele>535.38</ele>
        <time>2023-06-13T13:17:42.298Z</time>
      </trkpt>
      <trkpt lat="48.30258250236511" lon="17.158305644989014">
        <ele>536.58</ele>
        <time>2023-06-13T13:17:49.990Z</time>
      </trkpt>
      <trkpt lat="48.30259323120117" lon="17.15843439102173">
        <ele>537.74</ele>
        <time>2023-06-13T13:17:57.683Z</time>
      </trkpt>
      <trkpt lat="48.30256104469299" lon="17.159067392349243">
        <ele>539.39</ele>
        <time>2023-06-13T13:18:05.385Z</time>
      </trkpt>
      <trkpt lat="48.30238938331604" lon="17.160247564315796">
        <ele>540.36</ele>
        <time>2023-06-13T13:18:13.103Z</time>
      </trkpt>
      <trkpt lat="48.3023464679718" lon="17.16039776802063">
        <ele>541.29</ele>
        <time>2023-06-13T13:18:20.823Z</time>
      </trkpt>
      <trkpt lat="48.30221772193909" lon="17.16062307357788">
        <ele>542.27</ele>
        <time>2023-06-13T13:18:28.547Z</time>
      </trkpt>
      <trkpt lat="48.30165982246399" lon="17.161492109298706">
        <ele>542.81</ele>
        <time>2023-06-13T13:18:36.287Z</time>
      </trkpt>
      <trkpt lat="48.30085515975952" lon="17.162286043167114">
        <ele>542.89</ele>
        <time>2023-06-13T13:18:44.046Z</time>
      </trkpt>
      <trkpt lat="48.30075868405402" lon="17.16242551803589">
        <ele>543.55</ele>
        <time>2023-06-13T13:18:51.808Z</time>
      </trkpt>
      <trkpt lat="48.30071568489075" lon="17.162543535232544">
        <ele>544.27</ele>
        <time>2023-06-13T13:18:59.572Z</time>
      </trkpt>
      <trkpt lat="48.30069422721863" lon="17.1626615524292">
        <ele>545.04</ele>
        <time>2023-06-13T13:19:07.338Z</time>
      </trkpt>
      <trkpt lat="48.30070495605469" lon="17.16292977333069">
        <ele>545.82</ele>
        <time>2023-06-13T13:19:15.107Z</time>
      </trkpt>
      <trkpt lat="48.300747871398926" lon="17.163058519363403">
        <ele>546.62</ele>
        <time>2023-06-13T13:19:22.878Z</time>
      </trkpt>
      <trkpt lat="48.300801515579224" lon="17.16317653656006">
        <ele>547.48</ele>
        <time>2023-06-13T13:19:30.651Z</time>
      </trkpt>
      <trkpt lat="48.3008873462677" lon="17.163283824920654">
        <ele>548.44</ele>
        <time>2023-06-13T13:19:38.426Z</time>
      </trkpt>
      <trkpt lat="48.30132722854614" lon="17.163691520690918">
        <ele>549.62</ele>
        <time>2023-06-13T13:19:46.212Z</time>
      </trkpt>
      <trkpt lat="48.30143451690674" lon="17.16385245323181">
        <ele>550.58</ele>
        <time>2023-06-13T13:19:54.001Z</time>
      </trkpt>
      <trkpt lat="48.30158472061157" lon="17.164249420166016">
        <ele>551.55</ele>
        <time>2023-06-13T13:20:01.796Z</time>
      </trkpt>
      <trkpt lat="48.30161690711975" lon="17.16439962387085">
        <ele>552.56</ele>
        <time>2023-06-13T13:20:09.593Z</time>
      </trkpt>
      <trkpt lat="48.30167055130005" lon="17.1651291847229">
        <ele>553.57</ele>
        <time>2023-06-13T13:20:17.400Z</time>
      </trkpt>
      <trkpt lat="48.30170273780823" lon="17.165257930755615">
        <ele>554.76</ele>
        <time>2023-06-13T13:20:25.208Z</time>
      </trkpt>
      <trkpt lat="48.30182075500488" lon="17.165451049804688">
        <ele>556.07</ele>
        <time>2023-06-13T13:20:33.020Z</time>
      </trkpt>
      <trkpt lat="48.30221772193909" lon="17.165740728378296">
        <ele>557.97</ele>
        <time>2023-06-13T13:20:40.841Z</time>
      </trkpt>
      <trkpt lat="48.302260637283325" lon="17.165794372558594">
        <ele>558.42</ele>
        <time>2023-06-13T13:20:48.663Z</time>
      </trkpt>
      <trkpt lat="48.30231428146362" lon="17.16589093208313">
        <ele>558.54</ele>
        <time>2023-06-13T13:20:56.487Z</time>
      </trkpt>
      <trkpt lat="48.3023464679718" lon="17.166030406951904">
        <ele>558.23</ele>
        <time>2023-06-13T13:21:04.313Z</time>
      </trkpt>
      <trkpt lat="48.30244302749634" lon="17.166749238967896">
        <ele>557.26</ele>
        <time>2023-06-13T13:21:12.148Z</time>
      </trkpt>
      <trkpt lat="48.302485942840576" lon="17.16689944267273">
        <ele>556.75</ele>
        <time>2023-06-13T13:21:19.986Z</time>
      </trkpt>
      <trkpt lat="48.30256104469299" lon="17.167017459869385">
        <ele>556.17</ele>
        <time>2023-06-13T13:21:27.826Z</time>
      </trkpt>
      <trkpt lat="48.30268979072571" lon="17.16711401939392">
        <ele>555.52</ele>
        <time>2023-06-13T13:21:35.669Z</time>
      </trkpt>
      <trkpt lat="48.302764892578125" lon="17.1671462059021">
        <ele>554.65</ele>
        <time>2023-06-13T13:21:43.513Z</time>
      </trkpt>
      <trkpt lat="48.30289363861084" lon="17.16716766357422">
        <ele>553.5</ele>
        <time>2023-06-13T13:21:51.360Z</time>
      </trkpt>
      <trkpt lat="48.30317267216742" lon="17.16717839241028">
        <ele>551.99</ele>
        <time>2023-06-13T13:21:59.212Z</time>
      </trkpt>
      <trkpt lat="48.303730487823486" lon="17.167038917541504">
        <ele>550.12</ele>
        <time>2023-06-13T13:22:07.076Z</time>
      </trkpt>
      <trkpt lat="48.30383777618408" lon="17.166996002197266">
        <ele>549.0</ele>
        <time>2023-06-13T13:22:14.942Z</time>
      </trkpt>
      <trkpt lat="48.303842302411795" lon="17.16699231415987">
        <ele>548.61</ele>
        <time>2023-06-13T13:22:22.808Z</time>
      </trkpt>
      <trkpt lat="48.303843727335334" lon="17.16699130833149">
        <ele>548.5</ele>
        <time>2023-06-13T13:22:30.674Z</time>
      </trkpt>
      <trkpt lat="48.30384506843984" lon="17.16699038632214">
        <ele>548.4</ele>
        <time>2023-06-13T13:22:38.540Z</time>
      </trkpt>
      <trkpt lat="48.30384640954435" lon="17.16698938049376">
        <ele>548.3</ele>
        <time>2023-06-13T13:22:46.406Z</time>
      </trkpt>
      <trkpt lat="48.30384791828692" lon="17.16698837466538">
        <ele>548.19</ele>
        <time>2023-06-13T13:22:54.272Z</time>
      </trkpt>
      <trkpt lat="48.304009437561035" lon="17.16686725616455">
        <ele>539.43</ele>
        <time>2023-06-13T13:23:02.142Z</time>
      </trkpt>
      <trkpt lat="48.30437421798706" lon="17.166459560394287">
        <ele>537.06</ele>
        <time>2023-06-13T13:23:10.021Z</time>
      </trkpt>
      <trkpt lat="48.3044707775116" lon="17.16636300086975">
        <ele>535.16</ele>
        <time>2023-06-13T13:23:17.902Z</time>
      </trkpt>
      <trkpt lat="48.30462098121643" lon="17.166255712509155">
        <ele>533.28</ele>
        <time>2023-06-13T13:23:25.786Z</time>
      </trkpt>
      <trkpt lat="48.30470681190491" lon="17.166244983673096">
        <ele>531.56</ele>
        <time>2023-06-13T13:23:33.672Z</time>
      </trkpt>
      <trkpt lat="48.30480337142944" lon="17.166255712509155">
        <ele>530.13</ele>
        <time>2023-06-13T13:23:41.560Z</time>
      </trkpt>
      <trkpt lat="48.30496430397034" lon="17.166320085525513">
        <ele>528.69</ele>
        <time>2023-06-13T13:23:49.451Z</time>
      </trkpt>
      <trkpt lat="48.305318439379334" lon="17.166523933410645">
        <ele>527.27</ele>
        <time>2023-06-13T13:23:57.350Z</time>
      </trkpt>
      <trkpt lat="48.3053183555603" lon="17.166523933410645">
        <ele>526.5</ele>
        <time>2023-06-13T13:24:05.249Z</time>
      </trkpt>
      <trkpt lat="48.30546855926514" lon="17.166545391082764">
        <ele>525.88</ele>
        <time>2023-06-13T13:24:13.151Z</time>
      </trkpt>
      <trkpt lat="48.30556511878967" lon="17.166523933410645">
        <ele>525.66</ele>
        <time>2023-06-13T13:24:21.055Z</time>
      </trkpt>
      <trkpt lat="48.30565094947815" lon="17.166470289230347">
        <ele>525.73</ele>
        <time>2023-06-13T13:24:28.961Z</time>
      </trkpt>
      <trkpt lat="48.305736780166626" lon="17.16635227203369">
        <ele>525.91</ele>
        <time>2023-06-13T13:24:36.869Z</time>
      </trkpt>
      <trkpt lat="48.305790424346924" lon="17.166212797164917">
        <ele>526.17</ele>
        <time>2023-06-13T13:24:44.779Z</time>
      </trkpt>
      <trkpt lat="48.30583333969116" lon="17.166073322296143">
        <ele>526.46</ele>
        <time>2023-06-13T13:24:52.691Z</time>
      </trkpt>
      <trkpt lat="48.30584406852722" lon="17.16585874557495">
        <ele>526.79</ele>
        <time>2023-06-13T13:25:00.606Z</time>
      </trkpt>
      <trkpt lat="48.30581188201904" lon="17.1651291847229">
        <ele>527.32</ele>
        <time>2023-06-13T13:25:08.531Z</time>
      </trkpt>
      <trkpt lat="48.30581188201904" lon="17.16463565826416">
        <ele>528.03</ele>
        <time>2023-06-13T13:25:16.463Z</time>
      </trkpt>
      <trkpt lat="48.3058226108551" lon="17.16413140296936">
        <ele>528.64</ele>
        <time>2023-06-13T13:25:24.401Z</time>
      </trkpt>
      <trkpt lat="48.305768966674805" lon="17.163594961166382">
        <ele>529.91</ele>
        <time>2023-06-13T13:25:32.347Z</time>
      </trkpt>
      <trkpt lat="48.305779695510864" lon="17.163294553756714">
        <ele>531.02</ele>
        <time>2023-06-13T13:25:40.297Z</time>
      </trkpt>
      <trkpt lat="48.305994272232056" lon="17.163079977035522">
        <ele>531.8</ele>
        <time>2023-06-13T13:25:48.252Z</time>
      </trkpt>
      <trkpt lat="48.30606937408447" lon="17.16291904449463">
        <ele>533.22</ele>
        <time>2023-06-13T13:25:56.209Z</time>
      </trkpt>
      <trkpt lat="48.30606937408447" lon="17.162842098623514">
        <ele>534.24</ele>
        <time>2023-06-13T13:26:04.167Z</time>
      </trkpt>
      <trkpt lat="48.30606937408447" lon="17.16283991932869">
        <ele>534.28</ele>
        <time>2023-06-13T13:26:12.126Z</time>
      </trkpt>
      <trkpt lat="48.30606937408447" lon="17.162747383117676">
        <ele>538.41</ele>
        <time>2023-06-13T13:26:20.086Z</time>
      </trkpt>
      <trkpt lat="48.305983543395996" lon="17.16262936592102">
        <ele>539.98</ele>
        <time>2023-06-13T13:26:28.048Z</time>
      </trkpt>
      <trkpt lat="48.30585479736328" lon="17.16264009475708">
        <ele>541.15</ele>
        <time>2023-06-13T13:26:36.013Z</time>
      </trkpt>
      <trkpt lat="48.30567240715027" lon="17.162779569625854">
        <ele>542.15</ele>
        <time>2023-06-13T13:26:43.982Z</time>
      </trkpt>
      <trkpt lat="48.30556511878967" lon="17.162736654281616">
        <ele>543.53</ele>
        <time>2023-06-13T13:26:51.953Z</time>
      </trkpt>
      <trkpt lat="48.305522203445435" lon="17.16267228126526">
        <ele>544.91</ele>
        <time>2023-06-13T13:26:59.925Z</time>
      </trkpt>
      <trkpt lat="48.305500745773315" lon="17.162575721740723">
        <ele>546.31</ele>
        <time>2023-06-13T13:27:07.899Z</time>
      </trkpt>
      <trkpt lat="48.305511474609375" lon="17.16242551803589">
        <ele>547.7</ele>
        <time>2023-06-13T13:27:15.875Z</time>
      </trkpt>
      <trkpt lat="48.30571532249451" lon="17.16212511062622">
        <ele>549.26</ele>
        <time>2023-06-13T13:27:23.856Z</time>
      </trkpt>
      <trkpt lat="48.305736780166626" lon="17.161942720413208">
        <ele>550.76</ele>
        <time>2023-06-13T13:27:31.840Z</time>
      </trkpt>
      <trkpt lat="48.30566167831421" lon="17.161803245544434">
        <ele>552.21</ele>
        <time>2023-06-13T13:27:39.826Z</time>
      </trkpt>
      <trkpt lat="48.30556511878967" lon="17.161781787872314">
        <ele>553.49</ele>
        <time>2023-06-13T13:27:47.814Z</time>
      </trkpt>
      <trkpt lat="48.30545783042908" lon="17.161846160888672">
        <ele>554.7</ele>
        <time>2023-06-13T13:27:55.804Z</time>
      </trkpt>
      <trkpt lat="48.30533981323242" lon="17.162039279937744">
        <ele>555.89</ele>
        <time>2023-06-13T13:28:03.798Z</time>
      </trkpt>
      <trkpt lat="48.305253982543945" lon="17.162071466445923">
        <ele>557.24</ele>
        <time>2023-06-13T13:28:11.794Z</time>
      </trkpt>
      <trkpt lat="48.30518960952759" lon="17.162028551101685">
        <ele>558.54</ele>
        <time>2023-06-13T13:28:19.791Z</time>
      </trkpt>
      <trkpt lat="48.30512523651123" lon="17.16191053390503">
        <ele>559.85</ele>
        <time>2023-06-13T13:28:27.790Z</time>
      </trkpt>
      <trkpt lat="48.30512523651123" lon="17.161717414855957">
        <ele>561.04</ele>
        <time>2023-06-13T13:28:35.792Z</time>
      </trkpt>
      <trkpt lat="48.30520033836365" lon="17.161577939987183">
        <ele>562.03</ele>
        <time>2023-06-13T13:28:43.796Z</time>
      </trkpt>
      <trkpt lat="48.305329168215394" lon="17.161416839808226">
        <ele>563.05</ele>
        <time>2023-06-13T13:28:51.803Z</time>
      </trkpt>
      <trkpt lat="48.30545783042908" lon="17.161256074905396">
        <ele>564.03</ele>
        <time>2023-06-13T13:28:59.814Z</time>
      </trkpt>
      <trkpt lat="48.305479288101196" lon="17.16112732887268">
        <ele>565.3</ele>
        <time>2023-06-13T13:29:07.827Z</time>
      </trkpt>
      <trkpt lat="48.30545783042908" lon="17.160998582839966">
        <ele>566.71</ele>
        <time>2023-06-13T13:29:15.841Z</time>
      </trkpt>
      <trkpt lat="48.30536127090454" lon="17.16089129447937">
        <ele>568.26</ele>
        <time>2023-06-13T13:29:23.858Z</time>
      </trkpt>
      <trkpt lat="48.305286169052124" lon="17.16088056564331">
        <ele>569.74</ele>
        <time>2023-06-13T13:29:31.876Z</time>
      </trkpt>
      <trkpt lat="48.30509305000305" lon="17.16089129447937">
        <ele>571.36</ele>
        <time>2023-06-13T13:29:39.898Z</time>
      </trkpt>
      <trkpt lat="48.30493211746216" lon="17.160955667495728">
        <ele>572.98</ele>
        <time>2023-06-13T13:29:47.923Z</time>
      </trkpt>
      <trkpt lat="48.30469608306885" lon="17.161234617233276">
        <ele>574.64</ele>
        <time>2023-06-13T13:29:55.955Z</time>
      </trkpt>
      <trkpt lat="48.30462098121643" lon="17.161288261413574">
        <ele>576.19</ele>
        <time>2023-06-13T13:30:03.988Z</time>
      </trkpt>
      <trkpt lat="48.304524421691895" lon="17.161256074905396">
        <ele>577.75</ele>
        <time>2023-06-13T13:30:12.023Z</time>
      </trkpt>
      <trkpt lat="48.3044707775116" lon="17.16117024421692">
        <ele>579.18</ele>
        <time>2023-06-13T13:30:20.060Z</time>
      </trkpt>
      <trkpt lat="48.30446004867554" lon="17.160987854003906">
        <ele>580.5</ele>
        <time>2023-06-13T13:30:28.099Z</time>
      </trkpt>
      <trkpt lat="48.304524505510926" lon="17.160735139623284">
        <ele>581.72</ele>
        <time>2023-06-13T13:30:36.142Z</time>
      </trkpt>
      <trkpt lat="48.30458879470825" lon="17.160483598709106">
        <ele>582.97</ele>
        <time>2023-06-13T13:30:44.188Z</time>
      </trkpt>
      <trkpt lat="48.304781913757324" lon="17.16015100479126">
        <ele>584.03</ele>
        <time>2023-06-13T13:30:52.240Z</time>
      </trkpt>
      <trkpt lat="48.305028676986694" lon="17.159968614578247">
        <ele>584.86</ele>
        <time>2023-06-13T13:31:00.298Z</time>
      </trkpt>
      <trkpt lat="48.305243253707886" lon="17.159850597381592">
        <ele>585.73</ele>
        <time>2023-06-13T13:31:08.360Z</time>
      </trkpt>
      <trkpt lat="48.30542019568384" lon="17.159823775291443">
        <ele>586.5</ele>
        <time>2023-06-13T13:31:16.426Z</time>
      </trkpt>
      <trkpt lat="48.30559730529785" lon="17.159796953201294">
        <ele>587.32</ele>
        <time>2023-06-13T13:31:24.495Z</time>
      </trkpt>
      <trkpt lat="48.30580643378198" lon="17.15983442030847">
        <ele>588.13</ele>
        <time>2023-06-13T13:31:32.569Z</time>
      </trkpt>
      <trkpt lat="48.306015729904175" lon="17.15987205505371">
        <ele>588.94</ele>
        <time>2023-06-13T13:31:40.647Z</time>
      </trkpt>
      <trkpt lat="48.30611228942871" lon="17.159829139709473">
        <ele>589.63</ele>
        <time>2023-06-13T13:31:48.727Z</time>
      </trkpt>
      <trkpt lat="48.30618739128113" lon="17.159732580184937">
        <ele>590.28</ele>
        <time>2023-06-13T13:31:56.809Z</time>
      </trkpt>
      <trkpt lat="48.30631613731384" lon="17.159507274627686">
        <ele>590.95</ele>
        <time>2023-06-13T13:32:04.895Z</time>
      </trkpt>
      <trkpt lat="48.3063805103302" lon="17.159206867218018">
        <ele>591.61</ele>
        <time>2023-06-13T13:32:12.985Z</time>
      </trkpt>
      <trkpt lat="48.30646642483771" lon="17.158949375152588">
        <ele>592.24</ele>
        <time>2023-06-13T13:32:21.079Z</time>
      </trkpt>
      <trkpt lat="48.306273221969604" lon="17.159045934677124">
        <ele>592.54</ele>
        <time>2023-06-13T13:32:29.177Z</time>
      </trkpt>
      <trkpt lat="48.30608010292053" lon="17.15911030769348">
        <ele>592.74</ele>
        <time>2023-06-13T13:32:37.279Z</time>
      </trkpt>
      <trkpt lat="48.30590844154358" lon="17.1591317653656">
        <ele>592.96</ele>
        <time>2023-06-13T13:32:45.384Z</time>
      </trkpt>
      <trkpt lat="48.30568313598633" lon="17.1591317653656">
        <ele>593.13</ele>
        <time>2023-06-13T13:32:53.494Z</time>
      </trkpt>
      <trkpt lat="48.30545783042908" lon="17.1591317653656">
        <ele>593.3</ele>
        <time>2023-06-13T13:33:01.608Z</time>
      </trkpt>
      <trkpt lat="48.305307710543275" lon="17.159099578857422">
        <ele>593.44</ele>
        <time>2023-06-13T13:33:09.725Z</time>
      </trkpt>
      <trkpt lat="48.305050218477845" lon="17.159051299095154">
        <ele>593.62</ele>
        <time>2023-06-13T13:33:17.848Z</time>
      </trkpt>
      <trkpt lat="48.304792642593384" lon="17.159003019332886">
        <ele>593.67</ele>
        <time>2023-06-13T13:33:25.976Z</time>
      </trkpt>
      <trkpt lat="48.3046639803797" lon="17.15888500213623">
        <ele>593.71</ele>
        <time>2023-06-13T13:33:34.107Z</time>
      </trkpt>
      <trkpt lat="48.30457806587219" lon="17.158756256103516">
        <ele>593.71</ele>
        <time>2023-06-13T13:33:42.240Z</time>
      </trkpt>
      <trkpt lat="48.30450304783881" lon="17.158595323562622">
        <ele>593.71</ele>
        <time>2023-06-13T13:33:50.376Z</time>
      </trkpt>
      <trkpt lat="48.30446004867554" lon="17.158316373825073">
        <ele>593.8</ele>
        <time>2023-06-13T13:33:58.516Z</time>
      </trkpt>
      <trkpt lat="48.304422330111265" lon="17.157875318080187">
        <ele>593.93</ele>
        <time>2023-06-13T13:34:06.662Z</time>
      </trkpt>
      <trkpt lat="48.304384695366025" lon="17.1574342623353">
        <ele>594.01</ele>
        <time>2023-06-13T13:34:14.814Z</time>
      </trkpt>
      <trkpt lat="48.304347060620785" lon="17.156993206590414">
        <ele>594.07</ele>
        <time>2023-06-13T13:34:22.972Z</time>
      </trkpt>
      <trkpt lat="48.3043098449707" lon="17.156556844711304">
        <ele>594.18</ele>
        <time>2023-06-13T13:34:31.135Z</time>
      </trkpt>
      <trkpt lat="48.30426139757037" lon="17.15630941092968">
        <ele>594.3</ele>
        <time>2023-06-13T13:34:39.302Z</time>
      </trkpt>
      <trkpt lat="48.30421328544617" lon="17.156063318252563">
        <ele>594.64</ele>
        <time>2023-06-13T13:34:47.472Z</time>
      </trkpt>
      <trkpt lat="48.3040735591203" lon="17.155747236683965">
        <ele>595.1</ele>
        <time>2023-06-13T13:34:55.647Z</time>
      </trkpt>
      <trkpt lat="48.30393383279443" lon="17.155431238934398">
        <ele>595.69</ele>
        <time>2023-06-13T13:35:03.827Z</time>
      </trkpt>
      <trkpt lat="48.30379410646856" lon="17.15511524118483">
        <ele>596.39</ele>
        <time>2023-06-13T13:35:12.012Z</time>
      </trkpt>
      <trkpt lat="48.30365438014269" lon="17.154799243435264">
        <ele>597.09</ele>
        <time>2023-06-13T13:35:20.203Z</time>
      </trkpt>
      <trkpt lat="48.303515911102295" lon="17.154486179351807">
        <ele>597.88</ele>
        <time>2023-06-13T13:35:28.399Z</time>
      </trkpt>
      <trkpt lat="48.30339789390564" lon="17.154293060302734">
        <ele>598.51</ele>
        <time>2023-06-13T13:35:36.598Z</time>
      </trkpt>
      <trkpt lat="48.30333352088928" lon="17.154228687286377">
        <ele>599.02</ele>
        <time>2023-06-13T13:35:44.799Z</time>
      </trkpt>
      <trkpt lat="48.303108131513" lon="17.15409985743463">
        <ele>599.43</ele>
        <time>2023-06-13T13:35:53.004Z</time>
      </trkpt>
      <trkpt lat="48.30288290977478" lon="17.153971195220947">
        <ele>600.03</ele>
        <time>2023-06-13T13:36:01.214Z</time>
      </trkpt>
      <trkpt lat="48.30268258228898" lon="17.153828032314777">
        <ele>600.7</ele>
        <time>2023-06-13T13:36:09.429Z</time>
      </trkpt>
      <trkpt lat="48.30248225480318" lon="17.15368495322764">
        <ele>601.23</ele>
        <time>2023-06-13T13:36:17.648Z</time>
      </trkpt>
      <trkpt lat="48.302282094955444" lon="17.153542041778564">
        <ele>601.64</ele>
        <time>2023-06-13T13:36:25.872Z</time>
      </trkpt>
      <trkpt lat="48.30205670557916" lon="17.153431149199605">
        <ele>601.94</ele>
        <time>2023-06-13T13:36:34.100Z</time>
      </trkpt>
      <trkpt lat="48.30183140002191" lon="17.153320256620646">
        <ele>602.21</ele>
        <time>2023-06-13T13:36:42.333Z</time>
      </trkpt>
      <trkpt lat="48.30160617828369" lon="17.153209447860718">
        <ele>602.26</ele>
        <time>2023-06-13T13:36:50.571Z</time>
      </trkpt>
      <trkpt lat="48.301366455852985" lon="17.15302336961031">
        <ele>602.32</ele>
        <time>2023-06-13T13:36:58.814Z</time>
      </trkpt>
      <trkpt lat="48.30112673342228" lon="17.152837375178933">
        <ele>602.16</ele>
        <time>2023-06-13T13:37:07.063Z</time>
      </trkpt>
      <trkpt lat="48.3008873462677" lon="17.15265154838562">
        <ele>602.04</ele>
        <time>2023-06-13T13:37:15.317Z</time>
      </trkpt>
      <trkpt lat="48.300747787579894" lon="17.152522718533874">
        <ele>601.94</ele>
        <time>2023-06-13T13:37:23.574Z</time>
      </trkpt>
      <trkpt lat="48.30060839653015" lon="17.15239405632019">
        <ele>601.75</ele>
        <time>2023-06-13T13:37:31.835Z</time>
      </trkpt>
      <trkpt lat="48.3003830909729" lon="17.152222394943237">
        <ele>601.41</ele>
        <time>2023-06-13T13:37:40.101Z</time>
      </trkpt>
      <trkpt lat="48.30018997192383" lon="17.15215802192688">
        <ele>600.86</ele>
        <time>2023-06-13T13:37:48.371Z</time>
      </trkpt>
      <trkpt lat="48.29997003078461" lon="17.15215265750885">
        <ele>600.18</ele>
        <time>2023-06-13T13:37:56.645Z</time>
      </trkpt>
      <trkpt lat="48.299750089645386" lon="17.15214729309082">
        <ele>599.36</ele>
        <time>2023-06-13T13:38:04.923Z</time>
      </trkpt>
      <trkpt lat="48.299514055252075" lon="17.152276039123535">
        <ele>598.21</ele>
        <time>2023-06-13T13:38:13.206Z</time>
      </trkpt>
      <trkpt lat="48.29933702945709" lon="17.152313506230712">
        <ele>597.04</ele>
        <time>2023-06-13T13:38:21.493Z</time>
      </trkpt>
      <trkpt lat="48.29916000366211" lon="17.152351140975952">
        <ele>595.73</ele>
        <time>2023-06-13T13:38:29.784Z</time>
      </trkpt>
      <trkpt lat="48.29906344413757" lon="17.152351140975952">
        <ele>594.34</ele>
        <time>2023-06-13T13:38:38.077Z</time>
      </trkpt>
      <trkpt lat="48.29896688461304" lon="17.152329683303833">
        <ele>592.86</ele>
        <time>2023-06-13T13:38:46.371Z</time>
      </trkpt>
      <trkpt lat="48.298795223236084" lon="17.15236178599298">
        <ele>591.26</ele>
        <time>2023-06-13T13:38:54.669Z</time>
      </trkpt>
      <trkpt lat="48.29862356185913" lon="17.15239405632019">
        <ele>589.5</ele>
        <time>2023-06-13T13:39:02.970Z</time>
      </trkpt>
      <trkpt lat="48.29843044281006" lon="17.152335047721863">
        <ele>587.58</ele>
        <time>2023-06-13T13:39:11.275Z</time>
      </trkpt>
      <trkpt lat="48.298237323760986" lon="17.152276039123535">
        <ele>585.56</ele>
        <time>2023-06-13T13:39:19.584Z</time>
      </trkpt>
      <trkpt lat="48.29813003540039" lon="17.152286767959595">
        <ele>583.67</ele>
        <time>2023-06-13T13:39:27.895Z</time>
      </trkpt>
      <trkpt lat="48.298044204711914" lon="17.152351140975952">
        <ele>581.8</ele>
        <time>2023-06-13T13:39:36.208Z</time>
      </trkpt>
      <trkpt lat="48.297877656295896" lon="17.152582062408328">
        <ele>579.94</ele>
        <time>2023-06-13T13:39:44.526Z</time>
      </trkpt>
      <trkpt lat="48.29771161079407" lon="17.152812480926514">
        <ele>578.06</ele>
        <time>2023-06-13T13:39:52.848Z</time>
      </trkpt>
      <trkpt lat="48.297507762908936" lon="17.15293049812317">
        <ele>576.19</ele>
        <time>2023-06-13T13:40:01.175Z</time>
      </trkpt>
      <trkpt lat="48.297282457351685" lon="17.15315580368042">
        <ele>574.37</ele>
        <time>2023-06-13T13:40:09.507Z</time>
      </trkpt>
      <trkpt lat="48.29706788063049" lon="17.153263092041016">
        <ele>572.7</ele>
        <time>2023-06-13T13:40:17.844Z</time>
      </trkpt>
      <trkpt lat="48.29690158367157" lon="17.15331665240228">
        <ele>571.25</ele>
        <time>2023-06-13T13:40:26.184Z</time>
      </trkpt>
      <trkpt lat="48.29673528671265" lon="17.15337038040161">
        <ele>569.94</ele>
        <time>2023-06-13T13:40:34.528Z</time>
      </trkpt>
      <trkpt lat="48.29657427035272" lon="17.153257643803954">
        <ele>568.79</ele>
        <time>2023-06-13T13:40:42.875Z</time>
      </trkpt>
      <trkpt lat="48.29641342163086" lon="17.15314507484436">
        <ele>567.78</ele>
        <time>2023-06-13T13:40:51.226Z</time>
      </trkpt>
      <trkpt lat="48.29619172029197" lon="17.153069972991943">
        <ele>566.87</ele>
        <time>2023-06-13T13:40:59.581Z</time>
      </trkpt>
      <trkpt lat="48.295970018953085" lon="17.152994871139526">
        <ele>566.01</ele>
        <time>2023-06-13T13:41:07.941Z</time>
      </trkpt>
      <trkpt lat="48.2957483176142" lon="17.15291976928711">
        <ele>565.15</ele>
        <time>2023-06-13T13:41:16.305Z</time>
      </trkpt>
      <trkpt lat="48.295533657073975" lon="17.15293049812317">
        <ele>564.34</ele>
        <time>2023-06-13T13:41:24.674Z</time>
      </trkpt>
      <trkpt lat="48.29546928405762" lon="17.152973413467407">
        <ele>563.56</ele>
        <time>2023-06-13T13:41:33.044Z</time>
      </trkpt>
      <trkpt lat="48.295276165008545" lon="17.153026973828673">
        <ele>562.78</ele>
        <time>2023-06-13T13:41:41.418Z</time>
      </trkpt>
      <trkpt lat="48.29508304595947" lon="17.153080701828003">
        <ele>562.01</ele>
        <time>2023-06-13T13:41:49.796Z</time>
      </trkpt>
      <trkpt lat="48.29493284225464" lon="17.153091430664062">
        <ele>561.13</ele>
        <time>2023-06-13T13:41:58.177Z</time>
      </trkpt>
      <trkpt lat="48.29507231712341" lon="17.152769565582275">
        <ele>560.11</ele>
        <time>2023-06-13T13:42:06.563Z</time>
      </trkpt>
      <trkpt lat="48.295265436172485" lon="17.152512073516846">
        <ele>559.0</ele>
        <time>2023-06-13T13:42:14.954Z</time>
      </trkpt>
      <trkpt lat="48.29545855522156" lon="17.152297496795654">
        <ele>557.87</ele>
        <time>2023-06-13T13:42:23.350Z</time>
      </trkpt>
      <trkpt lat="48.29556584358215" lon="17.152029275894165">
        <ele>556.7</ele>
        <time>2023-06-13T13:42:31.750Z</time>
      </trkpt>
      <trkpt lat="48.29561957158148" lon="17.15173884294927">
        <ele>555.47</ele>
        <time>2023-06-13T13:42:40.154Z</time>
      </trkpt>
      <trkpt lat="48.29567313194275" lon="17.15144991874695">
        <ele>554.19</ele>
        <time>2023-06-13T13:42:48.562Z</time>
      </trkpt>
      <trkpt lat="48.29571604728699" lon="17.151010036468506">
        <ele>552.86</ele>
        <time>2023-06-13T13:42:56.976Z</time>
      </trkpt>
      <trkpt lat="48.29570531845093" lon="17.1506667137146">
        <ele>551.46</ele>
        <time>2023-06-13T13:43:05.395Z</time>
      </trkpt>
      <trkpt lat="48.29576449468732" lon="17.150274105370045">
        <ele>550.01</ele>
        <time>2023-06-13T13:43:13.819Z</time>
      </trkpt>
      <trkpt lat="48.295823419466615" lon="17.14988350868225">
        <ele>548.7</ele>
        <time>2023-06-13T13:43:22.248Z</time>
      </trkpt>
      <trkpt lat="48.29586625099182" lon="17.149658203125">
        <ele>547.34</ele>
        <time>2023-06-13T13:43:30.681Z</time>
      </trkpt>
      <trkpt lat="48.29594688490033" lon="17.149292500689626">
        <ele>545.95</ele>
        <time>2023-06-13T13:43:39.119Z</time>
      </trkpt>
      <trkpt lat="48.296027183532715" lon="17.14892864227295">
        <ele>544.47</ele>
        <time>2023-06-13T13:43:47.562Z</time>
      </trkpt>
      <trkpt lat="48.296070182695985" lon="17.148659667000175">
        <ele>543.05</ele>
        <time>2023-06-13T13:43:56.009Z</time>
      </trkpt>
      <trkpt lat="48.29611301422119" lon="17.14839220046997">
        <ele>541.65</ele>
        <time>2023-06-13T13:44:04.459Z</time>
      </trkpt>
      <trkpt lat="48.29623103141785" lon="17.148038148880005">
        <ele>540.23</ele>
        <time>2023-06-13T13:44:12.915Z</time>
      </trkpt>
      <trkpt lat="48.29638123512268" lon="17.147727012634277">
        <ele>538.88</ele>
        <time>2023-06-13T13:44:21.376Z</time>
      </trkpt>
      <trkpt lat="48.296542167663574" lon="17.147512435913086">
        <ele>537.43</ele>
        <time>2023-06-13T13:44:29.841Z</time>
      </trkpt>
      <trkpt lat="48.29668164253235" lon="17.147340774536133">
        <ele>536.07</ele>
        <time>2023-06-13T13:44:38.310Z</time>
      </trkpt>
      <trkpt lat="48.29685707576573" lon="17.147061405703425">
        <ele>534.65</ele>
        <time>2023-06-13T13:44:46.784Z</time>
      </trkpt>
      <trkpt lat="48.29703250899911" lon="17.14678212068975">
        <ele>533.25</ele>
        <time>2023-06-13T13:44:55.263Z</time>
      </trkpt>
      <trkpt lat="48.29720735549927" lon="17.146503925323486">
        <ele>531.82</ele>
        <time>2023-06-13T13:45:03.747Z</time>
      </trkpt>
      <trkpt lat="48.297303915023804" lon="17.14643955230713">
        <ele>530.53</ele>
        <time>2023-06-13T13:45:12.233Z</time>
      </trkpt>
      <trkpt lat="48.297475492581725" lon="17.14639127254486">
        <ele>529.12</ele>
        <time>2023-06-13T13:45:20.723Z</time>
      </trkpt>
      <trkpt lat="48.29764723777771" lon="17.146342992782593">
        <ele>527.77</ele>
        <time>2023-06-13T13:45:29.216Z</time>
      </trkpt>
      <trkpt lat="48.29781889915466" lon="17.14617133140564">
        <ele>526.34</ele>
        <time>2023-06-13T13:45:37.713Z</time>
      </trkpt>
      <trkpt lat="48.29800145700574" lon="17.145870504900813">
        <ele>524.92</ele>
        <time>2023-06-13T13:45:46.216Z</time>
      </trkpt>
      <trkpt lat="48.29818409867585" lon="17.145569678395987">
        <ele>523.54</ele>
        <time>2023-06-13T13:45:54.724Z</time>
      </trkpt>
      <trkpt lat="48.2983660697937" lon="17.145270109176636">
        <ele>522.27</ele>
        <time>2023-06-13T13:46:03.237Z</time>
      </trkpt>
      <trkpt lat="48.29855399206281" lon="17.14500155299902">
        <ele>520.98</ele>
        <time>2023-06-13T13:46:11.756Z</time>
      </trkpt>
      <trkpt lat="48.298741579055786" lon="17.144733667373657">
        <ele>519.79</ele>
        <time>2023-06-13T13:46:20.280Z</time>
      </trkpt>
      <trkpt lat="48.29883813858032" lon="17.144615650177002">
        <ele>518.43</ele>
        <time>2023-06-13T13:46:28.806Z</time>
      </trkpt>
      <trkpt lat="48.298988342285156" lon="17.144508361816406">
        <ele>517.14</ele>
        <time>2023-06-13T13:46:37.336Z</time>
      </trkpt>
      <trkpt lat="48.29913854598999" lon="17.14437416754663">
        <ele>515.67</ele>
        <time>2023-06-13T13:46:45.869Z</time>
      </trkpt>
      <trkpt lat="48.299288749694824" lon="17.144240140914917">
        <ele>514.25</ele>
        <time>2023-06-13T13:46:54.406Z</time>
      </trkpt>
      <trkpt lat="48.299490083009005" lon="17.143982397392392">
        <ele>512.73</ele>
        <time>2023-06-13T13:47:02.948Z</time>
      </trkpt>
      <trkpt lat="48.299691416323185" lon="17.143724653869867">
        <ele>511.21</ele>
        <time>2023-06-13T13:47:11.495Z</time>
      </trkpt>
      <trkpt lat="48.2998928334564" lon="17.143466910347342">
        <ele>509.81</ele>
        <time>2023-06-13T13:47:20.048Z</time>
      </trkpt>
      <trkpt lat="48.30009341239929" lon="17.1432101726532">
        <ele>508.4</ele>
        <time>2023-06-13T13:47:28.606Z</time>
      </trkpt>
      <trkpt lat="48.300261637195945" lon="17.142984615638852">
        <ele>507.1</ele>
        <time>2023-06-13T13:47:37.168Z</time>
      </trkpt>
      <trkpt lat="48.3004298619926" lon="17.142759058624506">
        <ele>505.87</ele>
        <time>2023-06-13T13:47:45.735Z</time>
      </trkpt>
      <trkpt lat="48.30059766769409" lon="17.142534255981445">
        <ele>504.63</ele>
        <time>2023-06-13T13:47:54.306Z</time>
      </trkpt>
      <trkpt lat="48.30075340345502" lon="17.14228715747595">
        <ele>503.29</ele>
        <time>2023-06-13T13:48:02.882Z</time>
      </trkpt>
      <trkpt lat="48.30090880393982" lon="17.142040729522705">
        <ele>502.09</ele>
        <time>2023-06-13T13:48:11.462Z</time>
      </trkpt>
      <trkpt lat="48.30105381086469" lon="17.141761276870966">
        <ele>500.76</ele>
        <time>2023-06-13T13:48:20.047Z</time>
      </trkpt>
      <trkpt lat="48.30119848251343" lon="17.141482830047607">
        <ele>499.47</ele>
        <time>2023-06-13T13:48:28.637Z</time>
      </trkpt>
      <trkpt lat="48.30121994018555" lon="17.14138627052307">
        <ele>498.3</ele>
        <time>2023-06-13T13:48:37.228Z</time>
      </trkpt>
      <trkpt lat="48.30121994018555" lon="17.141085863113403">
        <ele>497.09</ele>
        <time>2023-06-13T13:48:45.823Z</time>
      </trkpt>
      <trkpt lat="48.301252126693726" lon="17.140978574752808">
        <ele>496.01</ele>
        <time>2023-06-13T13:48:54.420Z</time>
      </trkpt>
      <trkpt lat="48.30136486329138" lon="17.14080129750073">
        <ele>494.89</ele>
        <time>2023-06-13T13:49:03.020Z</time>
      </trkpt>
      <trkpt lat="48.30147743225098" lon="17.140624523162842">
        <ele>493.94</ele>
        <time>2023-06-13T13:49:11.623Z</time>
      </trkpt>
      <trkpt lat="48.301509618759155" lon="17.140506505966187">
        <ele>492.85</ele>
        <time>2023-06-13T13:49:20.228Z</time>
      </trkpt>
      <trkpt lat="48.301509618759155" lon="17.14037775993347">
        <ele>491.79</ele>
        <time>2023-06-13T13:49:28.835Z</time>
      </trkpt>
      <trkpt lat="48.301482712849975" lon="17.140108784660697">
        <ele>490.71</ele>
        <time>2023-06-13T13:49:37.445Z</time>
      </trkpt>
      <trkpt lat="48.30145597457886" lon="17.139841318130493">
        <ele>489.57</ele>
        <time>2023-06-13T13:49:46.059Z</time>
      </trkpt>
      <trkpt lat="48.30147206783295" lon="17.13957234285772">
        <ele>488.39</ele>
        <time>2023-06-13T13:49:54.677Z</time>
      </trkpt>
      <trkpt lat="48.301488161087036" lon="17.139304876327515">
        <ele>487.3</ele>
        <time>2023-06-13T13:50:03.298Z</time>
      </trkpt>
      <trkpt lat="48.301498889923096" lon="17.139219045639038">
        <ele>486.19</ele>
        <time>2023-06-13T13:50:11.920Z</time>
      </trkpt>
      <trkpt lat="48.301584888249636" lon="17.138971695676446">
        <ele>484.83</ele>
        <time>2023-06-13T13:50:20.546Z</time>
      </trkpt>
      <trkpt lat="48.30167055130005" lon="17.138725519180298">
        <ele>483.56</ele>
        <time>2023-06-13T13:50:29.176Z</time>
      </trkpt>
      <trkpt lat="48.3017457369715" lon="17.138478169217706">
        <ele>482.13</ele>
        <time>2023-06-13T13:50:37.809Z</time>
      </trkpt>
      <trkpt lat="48.30182075500488" lon="17.138231992721558">
        <ele>480.69</ele>
        <time>2023-06-13T13:50:46.446Z</time>
      </trkpt>
      <trkpt lat="48.30191748216748" lon="17.137866290286183">
        <ele>479.29</ele>
        <time>2023-06-13T13:50:55.088Z</time>
      </trkpt>
      <trkpt lat="48.302013874053955" lon="17.137502431869507">
        <ele>477.97</ele>
        <time>2023-06-13T13:51:03.736Z</time>
      </trkpt>
      <trkpt lat="48.30206751823425" lon="17.137373685836792">
        <ele>476.53</ele>
        <time>2023-06-13T13:51:12.386Z</time>
      </trkpt>
      <trkpt lat="48.30214262008667" lon="17.137223482131958">
        <ele>475.09</ele>
        <time>2023-06-13T13:51:21.038Z</time>
      </trkpt>
      <trkpt lat="48.30232501029968" lon="17.13696599006653">
        <ele>473.61</ele>
        <time>2023-06-13T13:51:29.695Z</time>
      </trkpt>
      <trkpt lat="48.30241637304425" lon="17.136724088340998">
        <ele>472.12</ele>
        <time>2023-06-13T13:51:38.356Z</time>
      </trkpt>
      <trkpt lat="48.302507400512695" lon="17.136483192443848">
        <ele>470.74</ele>
        <time>2023-06-13T13:51:47.020Z</time>
      </trkpt>
      <trkpt lat="48.302625585347414" lon="17.136218072846532">
        <ele>469.4</ele>
        <time>2023-06-13T13:51:55.689Z</time>
      </trkpt>
      <trkpt lat="48.302743854001164" lon="17.135952953249216">
        <ele>468.05</ele>
        <time>2023-06-13T13:52:04.362Z</time>
      </trkpt>
      <trkpt lat="48.30286145210266" lon="17.13568925857544">
        <ele>466.91</ele>
        <time>2023-06-13T13:52:13.039Z</time>
      </trkpt>
      <trkpt lat="48.3030010946095" lon="17.135434951633215">
        <ele>465.65</ele>
        <time>2023-06-13T13:52:21.721Z</time>
      </trkpt>
      <trkpt lat="48.30314082093537" lon="17.13518064469099">
        <ele>464.56</ele>
        <time>2023-06-13T13:52:30.407Z</time>
      </trkpt>
      <trkpt lat="48.303279876708984" lon="17.13492751121521">
        <ele>463.56</ele>
        <time>2023-06-13T13:52:39.097Z</time>
      </trkpt>
      <trkpt lat="48.30347299575806" lon="17.13464856147766">
        <ele>462.81</ele>
        <time>2023-06-13T13:52:47.793Z</time>
      </trkpt>
      <trkpt lat="48.303494453430176" lon="17.13467001914978">
        <ele>462.04</ele>
        <time>2023-06-13T13:52:56.489Z</time>
      </trkpt>
      <trkpt lat="48.30360174179077" lon="17.13470220565796">
        <ele>461.31</ele>
        <time>2023-06-13T13:53:05.187Z</time>
      </trkpt>
      <trkpt lat="48.303730487823486" lon="17.1346914768219">
        <ele>460.74</ele>
        <time>2023-06-13T13:53:13.888Z</time>
      </trkpt>
      <trkpt lat="48.30396920442581" lon="17.134871184825897">
        <ele>460.16</ele>
        <time>2023-06-13T13:53:22.594Z</time>
      </trkpt>
      <trkpt lat="48.30420800484717" lon="17.135050976648927">
        <ele>459.79</ele>
        <time>2023-06-13T13:53:31.306Z</time>
      </trkpt>
      <trkpt lat="48.304446805268526" lon="17.135230768471956">
        <ele>459.63</ele>
        <time>2023-06-13T13:53:40.023Z</time>
      </trkpt>
      <trkpt lat="48.30468535423279" lon="17.13541030883789">
        <ele>459.53</ele>
        <time>2023-06-13T13:53:48.745Z</time>
      </trkpt>
      <trkpt lat="48.30485701560974" lon="17.135501503944397">
        <ele>459.52</ele>
        <time>2023-06-13T13:53:57.471Z</time>
      </trkpt>
      <trkpt lat="48.305028760805726" lon="17.135592699050903">
        <ele>459.65</ele>
        <time>2023-06-13T13:54:06.201Z</time>
      </trkpt>
      <trkpt lat="48.30516815185547" lon="17.13571071624756">
        <ele>459.89</ele>
        <time>2023-06-13T13:54:14.934Z</time>
      </trkpt>
      <trkpt lat="48.30533981323242" lon="17.135823369026184">
        <ele>460.27</ele>
        <time>2023-06-13T13:54:23.671Z</time>
      </trkpt>
      <trkpt lat="48.305511474609375" lon="17.13593602180481">
        <ele>460.74</ele>
        <time>2023-06-13T13:54:32.411Z</time>
      </trkpt>
      <trkpt lat="48.30571532249451" lon="17.136150598526">
        <ele>461.03</ele>
        <time>2023-06-13T13:54:41.156Z</time>
      </trkpt>
      <trkpt lat="48.30594087950885" lon="17.136435164138675">
        <ele>461.4</ele>
        <time>2023-06-13T13:54:49.907Z</time>
      </trkpt>
      <trkpt lat="48.30616601742804" lon="17.136719226837158">
        <ele>462.05</ele>
        <time>2023-06-13T13:54:58.664Z</time>
      </trkpt>
      <trkpt lat="48.30633759498596" lon="17.13696599006653">
        <ele>462.77</ele>
        <time>2023-06-13T13:55:07.426Z</time>
      </trkpt>
      <trkpt lat="48.30651478841901" lon="17.137153828516603">
        <ele>463.51</ele>
        <time>2023-06-13T13:55:16.192Z</time>
      </trkpt>
      <trkpt lat="48.30669173039496" lon="17.137341499328613">
        <ele>464.33</ele>
        <time>2023-06-13T13:55:24.963Z</time>
      </trkpt>
      <trkpt lat="48.30684185028076" lon="17.13739514350891">
        <ele>465.25</ele>
        <time>2023-06-13T13:55:33.737Z</time>
      </trkpt>
      <trkpt lat="48.30695986747742" lon="17.137480974197388">
        <ele>466.23</ele>
        <time>2023-06-13T13:55:42.513Z</time>
      </trkpt>
      <trkpt lat="48.307045698165894" lon="17.137609720230103">
        <ele>467.24</ele>
        <time>2023-06-13T13:55:51.292Z</time>
      </trkpt>
      <trkpt lat="48.30712088383734" lon="17.137749195098877">
        <ele>468.31</ele>
        <time>2023-06-13T13:56:00.073Z</time>
      </trkpt>
      <trkpt lat="48.307281732559204" lon="17.138081789016724">
        <ele>469.32</ele>
        <time>2023-06-13T13:56:08.860Z</time>
      </trkpt>
      <trkpt lat="48.307507038116455" lon="17.13821053504944">
        <ele>470.5</ele>
        <time>2023-06-13T13:56:17.652Z</time>
      </trkpt>
      <trkpt lat="48.307742988690734" lon="17.138269459828734">
        <ele>471.89</ele>
        <time>2023-06-13T13:56:26.448Z</time>
      </trkpt>
      <trkpt lat="48.307979106903076" lon="17.138328552246094">
        <ele>473.43</ele>
        <time>2023-06-13T13:56:35.249Z</time>
      </trkpt>
      <trkpt lat="48.308236598968506" lon="17.138596773147583">
        <ele>475.43</ele>
        <time>2023-06-13T13:56:44.056Z</time>
      </trkpt>
      <trkpt lat="48.3083438873291" lon="17.13862895965576">
        <ele>477.35</ele>
        <time>2023-06-13T13:56:52.866Z</time>
      </trkpt>
      <trkpt lat="48.30856919288635" lon="17.13863968849182">
        <ele>479.57</ele>
        <time>2023-06-13T13:57:01.680Z</time>
      </trkpt>
      <trkpt lat="48.30875686369836" lon="17.138677155598998">
        <ele>481.83</ele>
        <time>2023-06-13T13:57:10.498Z</time>
      </trkpt>
      <trkpt lat="48.30894470214844" lon="17.13871479034424">
        <ele>484.25</ele>
        <time>2023-06-13T13:57:19.320Z</time>
      </trkpt>
      <trkpt lat="48.30921300686896" lon="17.138864994049072">
        <ele>486.8</ele>
        <time>2023-06-13T13:57:28.147Z</time>
      </trkpt>
      <trkpt lat="48.30941677093506" lon="17.13894009590149">
        <ele>489.51</ele>
        <time>2023-06-13T13:57:36.979Z</time>
      </trkpt>
      <trkpt lat="48.30957770347595" lon="17.13896155357361">
        <ele>492.3</ele>
        <time>2023-06-13T13:57:45.814Z</time>
      </trkpt>
      <trkpt lat="48.30968499183655" lon="17.139004468917847">
        <ele>495.19</ele>
        <time>2023-06-13T13:57:54.651Z</time>
      </trkpt>
      <trkpt lat="48.30989956855774" lon="17.1391761302948">
        <ele>498.03</ele>
        <time>2023-06-13T13:58:03.493Z</time>
      </trkpt>
      <trkpt lat="48.310028314590454" lon="17.13915467262268">
        <ele>501.24</ele>
        <time>2023-06-13T13:58:12.338Z</time>
      </trkpt>
      <trkpt lat="48.31014633178711" lon="17.139036655426025">
        <ele>504.7</ele>
        <time>2023-06-13T13:58:21.185Z</time>
      </trkpt>
      <trkpt lat="48.310242891311646" lon="17.138800621032715">
        <ele>508.42</ele>
        <time>2023-06-13T13:58:30.036Z</time>
      </trkpt>
      <trkpt lat="48.310275077819824" lon="17.13842511177063">
        <ele>512.27</ele>
        <time>2023-06-13T13:58:38.892Z</time>
      </trkpt>
      <trkpt lat="48.31026962958276" lon="17.138134595006704">
        <ele>515.84</ele>
        <time>2023-06-13T13:58:47.752Z</time>
      </trkpt>
      <trkpt lat="48.310264348983765" lon="17.137845754623413">
        <ele>519.31</ele>
        <time>2023-06-13T13:58:56.616Z</time>
      </trkpt>
      <trkpt lat="48.310232078656554" lon="17.137587508186698">
        <ele>522.6</ele>
        <time>2023-06-13T13:59:05.483Z</time>
      </trkpt>
      <trkpt lat="48.31019997596741" lon="17.137330770492554">
        <ele>525.75</ele>
        <time>2023-06-13T13:59:14.354Z</time>
      </trkpt>
      <trkpt lat="48.310103164985776" lon="17.137024328112602">
        <ele>528.74</ele>
        <time>2023-06-13T13:59:23.229Z</time>
      </trkpt>
      <trkpt lat="48.310006856918335" lon="17.136719226837158">
        <ele>531.42</ele>
        <time>2023-06-13T13:59:32.109Z</time>
      </trkpt>
      <trkpt lat="48.309985399246216" lon="17.136515378952026">
        <ele>533.8</ele>
        <time>2023-06-13T13:59:40.992Z</time>
      </trkpt>
      <trkpt lat="48.310017585754395" lon="17.136279344558716">
        <ele>535.94</ele>
        <time>2023-06-13T13:59:49.878Z</time>
      </trkpt>
      <trkpt lat="48.310065949335694" lon="17.136053452268243">
        <ele>537.78</ele>
        <time>2023-06-13T13:59:58.767Z</time>
      </trkpt>
      <trkpt lat="48.31011414527893" lon="17.135828733444214">
        <ele>539.33</ele>
        <time>2023-06-13T14:00:07.659Z</time>
      </trkpt>
      <trkpt lat="48.31029653549194" lon="17.135705268010497">
        <ele>540.61</ele>
        <time>2023-06-13T14:00:16.555Z</time>
      </trkpt>
      <trkpt lat="48.310478925704956" lon="17.135581970214844">
        <ele>541.63</ele>
        <time>2023-06-13T14:00:25.455Z</time>
      </trkpt>
      <trkpt lat="48.31074454821646" lon="17.135353814810514">
        <ele>542.41</ele>
        <time>2023-06-13T14:00:34.361Z</time>
      </trkpt>
      <trkpt lat="48.31101017072797" lon="17.135125743225217">
        <ele>542.76</ele>
        <time>2023-06-13T14:00:43.273Z</time>
      </trkpt>
      <trkpt lat="48.311275877058506" lon="17.13489767163992">
        <ele>542.77</ele>
        <time>2023-06-13T14:00:52.192Z</time>
      </trkpt>
      <trkpt lat="48.31154108047485" lon="17.13467001914978">
        <ele>542.84</ele>
        <time>2023-06-13T14:01:01.117Z</time>
      </trkpt>
      <trkpt lat="48.31171274185181" lon="17.134562646970153">
        <ele>542.89</ele>
        <time>2023-06-13T14:01:10.045Z</time>
      </trkpt>
      <trkpt lat="48.31188440322876" lon="17.13445544242859">
        <ele>542.8</ele>
        <time>2023-06-13T14:01:18.977Z</time>
      </trkpt>
      <trkpt lat="48.31212043762207" lon="17.134320242330432">
        <ele>542.48</ele>
        <time>2023-06-13T14:01:27.914Z</time>
      </trkpt>
      <trkpt lat="48.31235647201538" lon="17.134185042232275">
        <ele>541.97</ele>
        <time>2023-06-13T14:01:36.856Z</time>
      </trkpt>
      <trkpt lat="48.31259250640869" lon="17.134049842134118">
        <ele>541.65</ele>
        <time>2023-06-13T14:01:45.803Z</time>
      </trkpt>
      <trkpt lat="48.312828624621034" lon="17.13391464203596">
        <ele>541.32</ele>
        <time>2023-06-13T14:01:54.755Z</time>
      </trkpt>
      <trkpt lat="48.31306457519531" lon="17.133779525756836">
        <ele>540.67</ele>
        <time>2023-06-13T14:02:03.712Z</time>
      </trkpt>
      <trkpt lat="48.313268423080444" lon="17.13361850939691">
        <ele>539.81</ele>
        <time>2023-06-13T14:02:12.674Z</time>
      </trkpt>
      <trkpt lat="48.313472270965576" lon="17.13345766067505">
        <ele>539.11</ele>
        <time>2023-06-13T14:02:21.641Z</time>
      </trkpt>
      <trkpt lat="48.313704784959555" lon="17.13326085358858">
        <ele>538.71</ele>
        <time>2023-06-13T14:02:30.613Z</time>
      </trkpt>
      <trkpt lat="48.313937382772565" lon="17.133064046502113">
        <ele>538.37</ele>
        <time>2023-06-13T14:02:39.590Z</time>
      </trkpt>
      <trkpt lat="48.31416964530945" lon="17.132867574691772">
        <ele>537.9</ele>
        <time>2023-06-13T14:02:48.573Z</time>
      </trkpt>
      <trkpt lat="48.3143896702677" lon="17.132685100659728">
        <ele>537.4</ele>
        <time>2023-06-13T14:02:57.561Z</time>
      </trkpt>
      <trkpt lat="48.31460952758789" lon="17.132502794265747">
        <ele>536.71</ele>
        <time>2023-06-13T14:03:06.554Z</time>
      </trkpt>
      <trkpt lat="48.31483491696417" lon="17.132331049069762">
        <ele>535.98</ele>
        <time>2023-06-13T14:03:15.552Z</time>
      </trkpt>
      <trkpt lat="48.315060306340456" lon="17.132159303873777">
        <ele>535.01</ele>
        <time>2023-06-13T14:03:24.555Z</time>
      </trkpt>
      <trkpt lat="48.31528569571674" lon="17.131987642496824">
        <ele>533.89</ele>
        <time>2023-06-13T14:03:33.563Z</time>
      </trkpt>
      <trkpt lat="48.31551108509302" lon="17.13181589730084">
        <ele>532.63</ele>
        <time>2023-06-13T14:03:42.576Z</time>
      </trkpt>
      <trkpt lat="48.31573613919318" lon="17.13164448738098">
        <ele>531.29</ele>
        <time>2023-06-13T14:03:51.594Z</time>
      </trkpt>
      <trkpt lat="48.315972089767456" lon="17.131564021110535">
        <ele>529.86</ele>
        <time>2023-06-13T14:04:00.617Z</time>
      </trkpt>
      <trkpt lat="48.31620812416077" lon="17.131483554840088">
        <ele>528.38</ele>
        <time>2023-06-13T14:04:09.645Z</time>
      </trkpt>
      <trkpt lat="48.316470980644226" lon="17.131365537643433">
        <ele>526.92</ele>
        <time>2023-06-13T14:04:18.678Z</time>
      </trkpt>
      <trkpt lat="48.31673392094672" lon="17.131247520446777">
        <ele>525.46</ele>
        <time>2023-06-13T14:04:27.717Z</time>
      </trkpt>
      <trkpt lat="48.316733837127686" lon="17.131247520446777">
        <ele>523.92</ele>
        <time>2023-06-13T14:04:36.756Z</time>
      </trkpt>
      <trkpt lat="48.316980600357056" lon="17.13115096092224">
        <ele>522.21</ele>
        <time>2023-06-13T14:04:45.800Z</time>
      </trkpt>
      <trkpt lat="48.317168271169066" lon="17.131124138832092">
        <ele>520.41</ele>
        <time>2023-06-13T14:04:54.848Z</time>
      </trkpt>
      <trkpt lat="48.31735619343817" lon="17.131097316741943">
        <ele>518.49</ele>
        <time>2023-06-13T14:05:03.899Z</time>
      </trkpt>
      <trkpt lat="48.31760278902948" lon="17.131070494651794">
        <ele>516.44</ele>
        <time>2023-06-13T14:05:12.955Z</time>
      </trkpt>
      <trkpt lat="48.31784963607788" lon="17.131043672561646">
        <ele>514.32</ele>
        <time>2023-06-13T14:05:22.016Z</time>
      </trkpt>
      <trkpt lat="48.317989110946655" lon="17.131000757217407">
        <ele>512.18</ele>
        <time>2023-06-13T14:05:31.080Z</time>
      </trkpt>
      <trkpt lat="48.318246603012085" lon="17.130872011184692">
        <ele>509.93</ele>
        <time>2023-06-13T14:05:40.150Z</time>
      </trkpt>
      <trkpt lat="48.31843435764313" lon="17.130716359242797">
        <ele>507.67</ele>
        <time>2023-06-13T14:05:49.224Z</time>
      </trkpt>
      <trkpt lat="48.31862211227417" lon="17.130560874938965">
        <ele>505.32</ele>
        <time>2023-06-13T14:05:58.302Z</time>
      </trkpt>
      <trkpt lat="48.31885672174394" lon="17.13033540174365">
        <ele>502.82</ele>
        <time>2023-06-13T14:06:07.386Z</time>
      </trkpt>
      <trkpt lat="48.31909133121371" lon="17.130109928548336">
        <ele>500.14</ele>
        <time>2023-06-13T14:06:16.475Z</time>
      </trkpt>
      <trkpt lat="48.319326024502516" lon="17.129884539172053">
        <ele>497.42</ele>
        <time>2023-06-13T14:06:25.570Z</time>
      </trkpt>
      <trkpt lat="48.31956063397229" lon="17.12965906597674">
        <ele>494.77</ele>
        <time>2023-06-13T14:06:34.670Z</time>
      </trkpt>
      <trkpt lat="48.31979524344206" lon="17.129433676600456">
        <ele>492.13</ele>
        <time>2023-06-13T14:06:43.776Z</time>
      </trkpt>
      <trkpt lat="48.32002993673086" lon="17.129208203405142">
        <ele>489.56</ele>
        <time>2023-06-13T14:06:52.888Z</time>
      </trkpt>
      <trkpt lat="48.320263624191284" lon="17.128983736038208">
        <ele>486.94</ele>
        <time>2023-06-13T14:07:02.005Z</time>
      </trkpt>
      <trkpt lat="48.32043008878827" lon="17.12874200195074">
        <ele>484.42</ele>
        <time>2023-06-13T14:07:11.127Z</time>
      </trkpt>
      <trkpt lat="48.32059621810913" lon="17.128500938415527">
        <ele>481.81</ele>
        <time>2023-06-13T14:07:20.253Z</time>
      </trkpt>
      <trkpt lat="48.320735692977905" lon="17.128243446350098">
        <ele>479.28</ele>
        <time>2023-06-13T14:07:29.384Z</time>
      </trkpt>
      <trkpt lat="48.320843148976564" lon="17.127953181043267">
        <ele>476.88</ele>
        <time>2023-06-13T14:07:38.519Z</time>
      </trkpt>
      <trkpt lat="48.320950688794255" lon="17.127662915736437">
        <ele>474.39</ele>
        <time>2023-06-13T14:07:47.659Z</time>
      </trkpt>
      <trkpt lat="48.32105755805969" lon="17.127374410629272">
        <ele>471.98</ele>
        <time>2023-06-13T14:07:56.803Z</time>
      </trkpt>
      <trkpt lat="48.32113265991211" lon="17.127074003219604">
        <ele>469.63</ele>
        <time>2023-06-13T14:08:05.951Z</time>
      </trkpt>
      <trkpt lat="48.32115411758423" lon="17.126784324645996">
        <ele>467.39</ele>
        <time>2023-06-13T14:08:15.103Z</time>
      </trkpt>
      <trkpt lat="48.32113265991211" lon="17.126580476760864">
        <ele>465.42</ele>
        <time>2023-06-13T14:08:24.258Z</time>
      </trkpt>
      <trkpt lat="48.32118630409241" lon="17.126559019088745">
        <ele>463.77</ele>
        <time>2023-06-13T14:08:33.414Z</time>
      </trkpt>
      <trkpt lat="48.32139015197754" lon="17.126559019088745">
        <ele>462.21</ele>
        <time>2023-06-13T14:08:42.574Z</time>
      </trkpt>
      <trkpt lat="48.3215977717191" lon="17.126874094828963">
        <ele>461.14</ele>
        <time>2023-06-13T14:08:51.740Z</time>
      </trkpt>
      <trkpt lat="48.32180547527969" lon="17.12718917056918">
        <ele>460.03</ele>
        <time>2023-06-13T14:09:00.912Z</time>
      </trkpt>
      <trkpt lat="48.322012424468994" lon="17.127503156661987">
        <ele>458.87</ele>
        <time>2023-06-13T14:09:10.090Z</time>
      </trkpt>
      <trkpt lat="48.322259187698364" lon="17.127739191055298">
        <ele>457.73</ele>
        <time>2023-06-13T14:09:19.274Z</time>
      </trkpt>
      <trkpt lat="48.322505950927734" lon="17.127878665924072">
        <ele>456.61</ele>
        <time>2023-06-13T14:09:28.463Z</time>
      </trkpt>
      <trkpt lat="48.32262396812439" lon="17.12791085243225">
        <ele>455.63</ele>
        <time>2023-06-13T14:09:37.654Z</time>
      </trkpt>
      <trkpt lat="48.32282781600952" lon="17.12792158126831">
        <ele>454.66</ele>
        <time>2023-06-13T14:09:46.850Z</time>
      </trkpt>
      <trkpt lat="48.322999477386475" lon="17.12790012359619">
        <ele>453.75</ele>
        <time>2023-06-13T14:09:56.049Z</time>
      </trkpt>
      <trkpt lat="48.323224782943726" lon="17.127835750579834">
        <ele>452.79</ele>
        <time>2023-06-13T14:10:05.253Z</time>
      </trkpt>
      <trkpt lat="48.32345008850098" lon="17.12772846221924">
        <ele>451.88</ele>
        <time>2023-06-13T14:10:14.461Z</time>
      </trkpt>
      <trkpt lat="48.323650415986776" lon="17.127570966258645">
        <ele>450.97</ele>
        <time>2023-06-13T14:10:23.674Z</time>
      </trkpt>
      <trkpt lat="48.323850743472576" lon="17.127413554117084">
        <ele>450.11</ele>
        <time>2023-06-13T14:10:32.891Z</time>
      </trkpt>
      <trkpt lat="48.32405090332031" lon="17.127256393432617">
        <ele>449.36</ele>
        <time>2023-06-13T14:10:42.113Z</time>
      </trkpt>
      <trkpt lat="48.32419582642615" lon="17.12710602208972">
        <ele>448.68</ele>
        <time>2023-06-13T14:10:51.338Z</time>
      </trkpt>
      <trkpt lat="48.32434058189392" lon="17.12695598602295">
        <ele>447.99</ele>
        <time>2023-06-13T14:11:00.567Z</time>
      </trkpt>
      <trkpt lat="48.32451593130827" lon="17.1267375536263">
        <ele>447.37</ele>
        <time>2023-06-13T14:11:09.801Z</time>
      </trkpt>
      <trkpt lat="48.32469136454165" lon="17.12651920504868">
        <ele>446.74</ele>
        <time>2023-06-13T14:11:19.039Z</time>
      </trkpt>
      <trkpt lat="48.32486629486084" lon="17.126301527023315">
        <ele>446.15</ele>
        <time>2023-06-13T14:11:28.282Z</time>
      </trkpt>
      <trkpt lat="48.324952125549316" lon="17.12615132331848">
        <ele>445.44</ele>
        <time>2023-06-13T14:11:37.527Z</time>
      </trkpt>
      <trkpt lat="48.32510610111058" lon="17.12581453844905">
        <ele>444.66</ele>
        <time>2023-06-13T14:11:46.778Z</time>
      </trkpt>
      <trkpt lat="48.32526016049087" lon="17.125477753579617">
        <ele>444.02</ele>
        <time>2023-06-13T14:11:56.034Z</time>
      </trkpt>
      <trkpt lat="48.32541346549988" lon="17.125142812728882">
        <ele>443.43</ele>
        <time>2023-06-13T14:12:05.296Z</time>
      </trkpt>
      <trkpt lat="48.32554246298969" lon="17.12479337118566">
        <ele>442.89</ele>
        <time>2023-06-13T14:12:14.563Z</time>
      </trkpt>
      <trkpt lat="48.32567095756531" lon="17.12444543838501">
        <ele>442.51</ele>
        <time>2023-06-13T14:12:23.835Z</time>
      </trkpt>
      <trkpt lat="48.325794506818056" lon="17.12421434931457">
        <ele>442.17</ele>
        <time>2023-06-13T14:12:33.111Z</time>
      </trkpt>
      <trkpt lat="48.32591772079468" lon="17.12398409843445">
        <ele>441.9</ele>
        <time>2023-06-13T14:12:42.391Z</time>
      </trkpt>
      <trkpt lat="48.32603573799133" lon="17.123801708221436">
        <ele>441.72</ele>
        <time>2023-06-13T14:12:51.675Z</time>
      </trkpt>
      <trkpt lat="48.32620748318732" lon="17.12362987920642">
        <ele>441.61</ele>
        <time>2023-06-13T14:13:00.963Z</time>
      </trkpt>
      <trkpt lat="48.32637906074524" lon="17.12345838546753">
        <ele>441.41</ele>
        <time>2023-06-13T14:13:10.255Z</time>
      </trkpt>
      <trkpt lat="48.32657754421234" lon="17.123308097943664">
        <ele>441.18</ele>
        <time>2023-06-13T14:13:19.551Z</time>
      </trkpt>
      <trkpt lat="48.32677602767944" lon="17.12315797805786">
        <ele>440.84</ele>
        <time>2023-06-13T14:13:28.852Z</time>
      </trkpt>
      <trkpt lat="48.32693167962134" lon="17.123002242296934">
        <ele>440.52</ele>
        <time>2023-06-13T14:13:38.156Z</time>
      </trkpt>
      <trkpt lat="48.32708716392517" lon="17.122846841812134">
        <ele>440.22</ele>
        <time>2023-06-13T14:13:47.464Z</time>
      </trkpt>
      <trkpt lat="48.327301908284426" lon="17.122574765235186">
        <ele>439.83</ele>
        <time>2023-06-13T14:13:56.778Z</time>
      </trkpt>
      <trkpt lat="48.32751665264368" lon="17.122302688658237">
        <ele>439.37</ele>
        <time>2023-06-13T14:14:06.097Z</time>
      </trkpt>
      <trkpt lat="48.327730894088745" lon="17.122031450271606">
        <ele>439.02</ele>
        <time>2023-06-13T14:14:15.422Z</time>
      </trkpt>
      <trkpt lat="48.3279025554657" lon="17.121645212173462">
        <ele>438.5</ele>
        <time>2023-06-13T14:14:24.753Z</time>
      </trkpt>
      <trkpt lat="48.327966928482056" lon="17.121387720108032">
        <ele>438.02</ele>
        <time>2023-06-13T14:14:34.088Z</time>
      </trkpt>
      <trkpt lat="48.32802057266235" lon="17.12119460105896">
        <ele>437.57</ele>
        <time>2023-06-13T14:14:43.426Z</time>
      </trkpt>
      <trkpt lat="48.32807421684265" lon="17.12092638015747">
        <ele>437.15</ele>
        <time>2023-06-13T14:14:52.767Z</time>
      </trkpt>
      <trkpt lat="48.32809567451477" lon="17.120635863393545">
        <ele>436.69</ele>
        <time>2023-06-13T14:15:02.112Z</time>
      </trkpt>
      <trkpt lat="48.32811713218689" lon="17.120347023010254">
        <ele>436.23</ele>
        <time>2023-06-13T14:15:11.461Z</time>
      </trkpt>
      <trkpt lat="48.32811168394983" lon="17.120067235082388">
        <ele>435.78</ele>
        <time>2023-06-13T14:15:20.814Z</time>
      </trkpt>
      <trkpt lat="48.32810640335083" lon="17.119789123535156">
        <ele>435.27</ele>
        <time>2023-06-13T14:15:30.171Z</time>
      </trkpt>
      <trkpt lat="48.328076815232635" lon="17.119436748325825">
        <ele>434.73</ele>
        <time>2023-06-13T14:15:39.532Z</time>
      </trkpt>
      <trkpt lat="48.32804722711444" lon="17.119084456935525">
        <ele>434.11</ele>
        <time>2023-06-13T14:15:48.898Z</time>
      </trkpt>
      <trkpt lat="48.32801763899624" lon="17.118732165545225">
        <ele>433.48</ele>
        <time>2023-06-13T14:15:58.269Z</time>
      </trkpt>
      <trkpt lat="48.327988386154175" lon="17.118383646011353">
        <ele>432.67</ele>
        <time>2023-06-13T14:16:07.645Z</time>
      </trkpt>
      <trkpt lat="48.32794530317187" lon="17.118050130084157">
        <ele>431.7</ele>
        <time>2023-06-13T14:16:17.025Z</time>
      </trkpt>
      <trkpt lat="48.3279023040086" lon="17.117716697975993">
        <ele>430.56</ele>
        <time>2023-06-13T14:16:26.410Z</time>
      </trkpt>
      <trkpt lat="48.32785964012146" lon="17.117385864257812">
        <ele>429.25</ele>
        <time>2023-06-13T14:16:35.799Z</time>
      </trkpt>
      <trkpt lat="48.32784991711378" lon="17.116927541792393">
        <ele>427.63</ele>
        <time>2023-06-13T14:16:45.194Z</time>
      </trkpt>
      <trkpt lat="48.327840277925134" lon="17.116469219326973">
        <ele>425.89</ele>
        <time>2023-06-13T14:16:54.595Z</time>
      </trkpt>
      <trkpt lat="48.327830554917455" lon="17.116010980680585">
        <ele>424.02</ele>
        <time>2023-06-13T14:17:04.002Z</time>
      </trkpt>
      <trkpt lat="48.32782091572881" lon="17.115552658215165">
        <ele>421.89</ele>
        <time>2023-06-13T14:17:13.416Z</time>
      </trkpt>
      <trkpt lat="48.32781119272113" lon="17.115094419568777">
        <ele>419.59</ele>
        <time>2023-06-13T14:17:22.836Z</time>
      </trkpt>
      <trkpt lat="48.32780155353248" lon="17.114636097103357">
        <ele>417.36</ele>
        <time>2023-06-13T14:17:32.262Z</time>
      </trkpt>
      <trkpt lat="48.327791914343834" lon="17.114177774637938">
        <ele>415.05</ele>
        <time>2023-06-13T14:17:41.694Z</time>
      </trkpt>
      <trkpt lat="48.327782191336155" lon="17.11371953599155">
        <ele>412.72</ele>
        <time>2023-06-13T14:17:51.132Z</time>
      </trkpt>
      <trkpt lat="48.32777255214751" lon="17.11326121352613">
        <ele>410.32</ele>
        <time>2023-06-13T14:18:00.576Z</time>
      </trkpt>
      <trkpt lat="48.327763080596924" lon="17.112815380096436">
        <ele>407.81</ele>
        <time>2023-06-13T14:18:10.026Z</time>
      </trkpt>
      <trkpt lat="48.32778453826904" lon="17.112368876114488">
        <ele>405.1</ele>
        <time>2023-06-13T14:18:19.482Z</time>
      </trkpt>
      <trkpt lat="48.32780599594116" lon="17.11192488670349">
        <ele>402.36</ele>
        <time>2023-06-13T14:18:28.944Z</time>
      </trkpt>
      <trkpt lat="48.32785435952246" lon="17.111467653885484">
        <ele>399.57</ele>
        <time>2023-06-13T14:18:38.412Z</time>
      </trkpt>
      <trkpt lat="48.3279025554657" lon="17.111012935638428">
        <ele>396.85</ele>
        <time>2023-06-13T14:18:47.886Z</time>
      </trkpt>
      <trkpt lat="48.32796701230109" lon="17.110668690875173">
        <ele>394.39</ele>
        <time>2023-06-13T14:18:57.365Z</time>
      </trkpt>
      <trkpt lat="48.32803155295551" lon="17.11032452993095">
        <ele>392.11</ele>
        <time>2023-06-13T14:19:06.849Z</time>
      </trkpt>
      <trkpt lat="48.32809567451477" lon="17.10998296737671">
        <ele>390.14</ele>
        <time>2023-06-13T14:19:16.338Z</time>
      </trkpt>
      <trkpt lat="48.32816759124398" lon="17.109684236347675">
        <ele>388.41</ele>
        <time>2023-06-13T14:19:25.831Z</time>
      </trkpt>
      <trkpt lat="48.328239507973194" lon="17.109385589137673">
        <ele>386.74</ele>
        <time>2023-06-13T14:19:35.328Z</time>
      </trkpt>
      <trkpt lat="48.32831058651209" lon="17.1090907137841">
        <ele>385.28</ele>
        <time>2023-06-13T14:19:44.829Z</time>
      </trkpt>
      <trkpt lat="48.32831058651209" lon="17.10909079760313">
        <ele>383.26</ele>
        <time>2023-06-13T14:19:54.330Z</time>
      </trkpt>
      <trkpt lat="48.328380240127444" lon="17.108801202848554">
        <ele>381.14</ele>
        <time>2023-06-13T14:20:03.835Z</time>
      </trkpt>
      <trkpt lat="48.328449726104736" lon="17.108513116836548">
        <ele>378.84</ele>
        <time>2023-06-13T14:20:13.345Z</time>
      </trkpt>
      <trkpt lat="48.32853036001325" lon="17.108055967837572">
        <ele>376.46</ele>
        <time>2023-06-13T14:20:22.861Z</time>
      </trkpt>
      <trkpt lat="48.32861065864563" lon="17.107601165771484">
        <ele>374.4</ele>
        <time>2023-06-13T14:20:32.383Z</time>
      </trkpt>
      <trkpt lat="48.32861065864563" lon="17.107365131378174">
        <ele>372.62</ele>
        <time>2023-06-13T14:20:41.908Z</time>
      </trkpt>
      <trkpt lat="48.32862138748169" lon="17.106897085905075">
        <ele>370.57</ele>
        <time>2023-06-13T14:20:51.440Z</time>
      </trkpt>
      <trkpt lat="48.32863211631775" lon="17.10643172264099">
        <ele>368.15</ele>
        <time>2023-06-13T14:21:00.978Z</time>
      </trkpt>
      <trkpt lat="48.32859976217151" lon="17.106094602495432">
        <ele>365.73</ele>
        <time>2023-06-13T14:21:10.520Z</time>
      </trkpt>
      <trkpt lat="48.3285674918443" lon="17.105757566168904">
        <ele>363.31</ele>
        <time>2023-06-13T14:21:20.067Z</time>
      </trkpt>
      <trkpt lat="48.32853555679321" lon="17.10542321205139">
        <ele>361.43</ele>
        <time>2023-06-13T14:21:29.618Z</time>
      </trkpt>
      <trkpt lat="48.328494653105736" lon="17.10516169667244">
        <ele>359.73</ele>
        <time>2023-06-13T14:21:39.173Z</time>
      </trkpt>
      <trkpt lat="48.328454084694386" lon="17.104901606217027">
        <ele>358.52</ele>
        <time>2023-06-13T14:21:48.731Z</time>
      </trkpt>
      <trkpt lat="48.32839507609606" lon="17.104524252936244">
        <ele>354.93</ele>
        <time>2023-06-13T14:21:58.295Z</time>
      </trkpt>
      <trkpt lat="48.32833615131676" lon="17.104146983474493">
        <ele>351.72</ele>
        <time>2023-06-13T14:22:07.864Z</time>
      </trkpt>
      <trkpt lat="48.328277142718434" lon="17.103769714012742">
        <ele>348.19</ele>
        <time>2023-06-13T14:22:17.438Z</time>
      </trkpt>
      <trkpt lat="48.32821821793914" lon="17.10339236073196">
        <ele>344.12</ele>
        <time>2023-06-13T14:22:27.017Z</time>
      </trkpt>
      <trkpt lat="48.32816004753113" lon="17.103019952774048">
        <ele>339.49</ele>
        <time>2023-06-13T14:22:36.601Z</time>
      </trkpt>
      <trkpt lat="48.32804974168539" lon="17.102596163749695">
        <ele>334.38</ele>
        <time>2023-06-13T14:22:46.191Z</time>
      </trkpt>
      <trkpt lat="48.327939519658685" lon="17.102172458544374">
        <ele>328.87</ele>
        <time>2023-06-13T14:22:55.787Z</time>
      </trkpt>
      <trkpt lat="48.32782929763198" lon="17.10174866952002">
        <ele>323.07</ele>
        <time>2023-06-13T14:23:05.390Z</time>
      </trkpt>
      <trkpt lat="48.32771907560527" lon="17.1013249643147">
        <ele>317.19</ele>
        <time>2023-06-13T14:23:14.999Z</time>
      </trkpt>
      <trkpt lat="48.327610194683075" lon="17.10090620443225">
        <ele>312.28</ele>
        <time>2023-06-13T14:23:24.614Z</time>
      </trkpt>
      <trkpt lat="48.327517826110125" lon="17.100551314651966">
        <ele>294.72</ele>
        <time>2023-06-13T14:23:34.234Z</time>
      </trkpt>
      <trkpt lat="48.327425541356206" lon="17.100196508690715">
        <ele>290.12</ele>
        <time>2023-06-13T14:23:43.859Z</time>
      </trkpt>
      <trkpt lat="48.32733392715454" lon="17.099844217300415">
        <ele>285.3</ele>
        <time>2023-06-13T14:23:53.489Z</time>
      </trkpt>
      <trkpt lat="48.32728556357324" lon="17.09959141910076">
        <ele>281.4</ele>
        <time>2023-06-13T14:24:03.122Z</time>
      </trkpt>
      <trkpt lat="48.32723745144904" lon="17.099339962005615">
        <ele>278.32</ele>
        <time>2023-06-13T14:24:12.759Z</time>
      </trkpt>
      <trkpt lat="48.32731246948242" lon="17.098910808563232">
        <ele>276.4</ele>
        <time>2023-06-13T14:24:22.402Z</time>
      </trkpt>
      <trkpt lat="48.32736611366272" lon="17.09844946861267">
        <ele>275.15</ele>
        <time>2023-06-13T14:24:32.051Z</time>
      </trkpt>
      <trkpt lat="48.32735538482666" lon="17.098288536071777">
        <ele>274.03</ele>
        <time>2023-06-13T14:24:41.702Z</time>
      </trkpt>
      <trkpt lat="48.32733392715454" lon="17.098073959350586">
        <ele>272.97</ele>
        <time>2023-06-13T14:24:51.356Z</time>
      </trkpt>
      <trkpt lat="48.32728028297424" lon="17.097870111465454">
        <ele>271.92</ele>
        <time>2023-06-13T14:25:01.013Z</time>
      </trkpt>
      <trkpt lat="48.32716913893819" lon="17.097533158957958">
        <ele>270.76</ele>
        <time>2023-06-13T14:25:10.675Z</time>
      </trkpt>
      <trkpt lat="48.327058078721166" lon="17.097196290269494">
        <ele>269.88</ele>
        <time>2023-06-13T14:25:20.342Z</time>
      </trkpt>
      <trkpt lat="48.3269476890564" lon="17.096861600875854">
        <ele>269.09</ele>
        <time>2023-06-13T14:25:30.014Z</time>
      </trkpt>
      <trkpt lat="48.326829420402646" lon="17.096549794077873">
        <ele>268.56</ele>
        <time>2023-06-13T14:25:39.691Z</time>
      </trkpt>
      <trkpt lat="48.326711151748896" lon="17.096238071098924">
        <ele>268.09</ele>
        <time>2023-06-13T14:25:49.373Z</time>
      </trkpt>
      <trkpt lat="48.32659363746643" lon="17.095928192138672">
        <ele>267.71</ele>
        <time>2023-06-13T14:25:59.059Z</time>
      </trkpt>
      <trkpt lat="48.326497077941895" lon="17.095595598220825">
        <ele>267.54</ele>
        <time>2023-06-13T14:26:08.750Z</time>
      </trkpt>
      <trkpt lat="48.32641124725342" lon="17.095273733139038">
        <ele>267.52</ele>
        <time>2023-06-13T14:26:18.446Z</time>
      </trkpt>
      <trkpt lat="48.326368164271116" lon="17.095042476430535">
        <ele>267.58</ele>
        <time>2023-06-13T14:26:28.145Z</time>
      </trkpt>
      <trkpt lat="48.32632541656494" lon="17.094812393188477">
        <ele>267.75</ele>
        <time>2023-06-13T14:26:37.847Z</time>
      </trkpt>
      <trkpt lat="48.32627160474658" lon="17.094484325498343">
        <ele>268.07</ele>
        <time>2023-06-13T14:26:47.554Z</time>
      </trkpt>
      <trkpt lat="48.326218128204346" lon="17.094157934188843">
        <ele>268.38</ele>
        <time>2023-06-13T14:26:57.265Z</time>
      </trkpt>
      <trkpt lat="48.32612156867981" lon="17.0937180519104">
        <ele>268.46</ele>
        <time>2023-06-13T14:27:06.982Z</time>
      </trkpt>
      <trkpt lat="48.32602475769818" lon="17.09347078576684">
        <ele>268.37</ele>
        <time>2023-06-13T14:27:16.703Z</time>
      </trkpt>
      <trkpt lat="48.32592844963074" lon="17.09322452545166">
        <ele>268.22</ele>
        <time>2023-06-13T14:27:26.428Z</time>
      </trkpt>
      <trkpt lat="48.32582116127014" lon="17.09298849105835">
        <ele>268.04</ele>
        <time>2023-06-13T14:27:36.157Z</time>
      </trkpt>
      <trkpt lat="48.32561731338501" lon="17.09269881248474">
        <ele>267.82</ele>
        <time>2023-06-13T14:27:45.891Z</time>
      </trkpt>
      <trkpt lat="48.325434755533934" lon="17.092498317360878">
        <ele>267.52</ele>
        <time>2023-06-13T14:27:55.630Z</time>
      </trkpt>
      <trkpt lat="48.32525219768286" lon="17.092297906056046">
        <ele>267.07</ele>
        <time>2023-06-13T14:28:05.373Z</time>
      </trkpt>
      <trkpt lat="48.32507014274597" lon="17.092097997665405">
        <ele>266.48</ele>
        <time>2023-06-13T14:28:15.121Z</time>
      </trkpt>
      <trkpt lat="48.324887501075864" lon="17.09186707623303">
        <ele>265.84</ele>
        <time>2023-06-13T14:28:24.874Z</time>
      </trkpt>
      <trkpt lat="48.324705362319946" lon="17.091636657714844">
        <ele>265.12</ele>
        <time>2023-06-13T14:28:34.632Z</time>
      </trkpt>
      <trkpt lat="48.32461953163147" lon="17.09144353866577">
        <ele>264.46</ele>
        <time>2023-06-13T14:28:44.393Z</time>
      </trkpt>
      <trkpt lat="48.32455515861511" lon="17.091186046600342">
        <ele>263.81</ele>
        <time>2023-06-13T14:28:54.157Z</time>
      </trkpt>
      <trkpt lat="48.32450268790126" lon="17.090754378587008">
        <ele>263.14</ele>
        <time>2023-06-13T14:29:03.927Z</time>
      </trkpt>
      <trkpt lat="48.324450217187405" lon="17.090322794392705">
        <ele>262.49</ele>
        <time>2023-06-13T14:29:13.703Z</time>
      </trkpt>
      <trkpt lat="48.32439783029258" lon="17.08989112637937">
        <ele>261.85</ele>
        <time>2023-06-13T14:29:23.485Z</time>
      </trkpt>
      <trkpt lat="48.32434535957873" lon="17.089459542185068">
        <ele>261.16</ele>
        <time>2023-06-13T14:29:33.273Z</time>
      </trkpt>
      <trkpt lat="48.32429297268391" lon="17.089027874171734">
        <ele>260.4</ele>
        <time>2023-06-13T14:29:43.067Z</time>
      </trkpt>
      <trkpt lat="48.32424050197005" lon="17.08859628997743">
        <ele>259.81</ele>
        <time>2023-06-13T14:29:52.866Z</time>
      </trkpt>
      <trkpt lat="48.32418811507523" lon="17.088164621964097">
        <ele>259.25</ele>
        <time>2023-06-13T14:30:02.671Z</time>
      </trkpt>
      <trkpt lat="48.32413673400879" lon="17.08774209022522">
        <ele>258.8</ele>
        <time>2023-06-13T14:30:12.482Z</time>
      </trkpt>
      <trkpt lat="48.32410463131964" lon="17.087302207946777">
        <ele>258.49</ele>
        <time>2023-06-13T14:30:22.299Z</time>
      </trkpt>
      <trkpt lat="48.3241224847734" lon="17.086836006492376">
        <ele>258.47</ele>
        <time>2023-06-13T14:30:32.122Z</time>
      </trkpt>
      <trkpt lat="48.324140422046185" lon="17.086369805037975">
        <ele>258.3</ele>
        <time>2023-06-13T14:30:41.951Z</time>
      </trkpt>
      <trkpt lat="48.32415835931897" lon="17.085903687402606">
        <ele>257.94</ele>
        <time>2023-06-13T14:30:51.787Z</time>
      </trkpt>
      <trkpt lat="48.32417629659176" lon="17.085437485948205">
        <ele>257.35</ele>
        <time>2023-06-13T14:31:01.629Z</time>
      </trkpt>
      <trkpt lat="48.324194233864546" lon="17.084971284493804">
        <ele>256.76</ele>
        <time>2023-06-13T14:31:11.477Z</time>
      </trkpt>
      <trkpt lat="48.32421217113733" lon="17.084505166858435">
        <ele>256.03</ele>
        <time>2023-06-13T14:31:21.331Z</time>
      </trkpt>
      <trkpt lat="48.32423010841012" lon="17.084038965404034">
        <ele>255.03</ele>
        <time>2023-06-13T14:31:31.192Z</time>
      </trkpt>
      <trkpt lat="48.32424804568291" lon="17.083572763949633">
        <ele>253.83</ele>
        <time>2023-06-13T14:31:41.059Z</time>
      </trkpt>
      <trkpt lat="48.324265480041504" lon="17.083117961883545">
        <ele>252.54</ele>
        <time>2023-06-13T14:31:50.932Z</time>
      </trkpt>
      <trkpt lat="48.324265480041504" lon="17.082688808441162">
        <ele>251.0</ele>
        <time>2023-06-13T14:32:00.811Z</time>
      </trkpt>
      <trkpt lat="48.324227845296264" lon="17.082323022186756">
        <ele>249.57</ele>
        <time>2023-06-13T14:32:10.695Z</time>
      </trkpt>
      <trkpt lat="48.32419046200812" lon="17.08195924758911">
        <ele>248.21</ele>
        <time>2023-06-13T14:32:20.583Z</time>
      </trkpt>
      <trkpt lat="48.32415450364351" lon="17.081622127443552">
        <ele>247.05</ele>
        <time>2023-06-13T14:32:30.476Z</time>
      </trkpt>
      <trkpt lat="48.32411862909794" lon="17.081285091117024">
        <ele>246.11</ele>
        <time>2023-06-13T14:32:40.374Z</time>
      </trkpt>
      <trkpt lat="48.32408308982849" lon="17.08095073699951">
        <ele>245.24</ele>
        <time>2023-06-13T14:32:50.276Z</time>
      </trkpt>
      <trkpt lat="48.32406154833734" lon="17.080660220235586">
        <ele>244.59</ele>
        <time>2023-06-13T14:33:00.182Z</time>
      </trkpt>
      <trkpt lat="48.32404017448425" lon="17.080371379852295">
        <ele>244.0</ele>
        <time>2023-06-13T14:33:10.092Z</time>
      </trkpt>
      <trkpt lat="48.32404017448425" lon="17.079903334379196">
        <ele>243.69</ele>
        <time>2023-06-13T14:33:20.008Z</time>
      </trkpt>
      <trkpt lat="48.32404017448425" lon="17.079437971115112">
        <ele>243.42</ele>
        <time>2023-06-13T14:33:29.930Z</time>
      </trkpt>
      <trkpt lat="48.3240482211113" lon="17.079050643369555">
        <ele>243.27</ele>
        <time>2023-06-13T14:33:39.858Z</time>
      </trkpt>
      <trkpt lat="48.324056351557374" lon="17.07866339944303">
        <ele>243.03</ele>
        <time>2023-06-13T14:33:49.791Z</time>
      </trkpt>
      <trkpt lat="48.32406439818442" lon="17.078276071697474">
        <ele>242.9</ele>
        <time>2023-06-13T14:33:59.729Z</time>
      </trkpt>
      <trkpt lat="48.32407244481146" lon="17.077893018722534">
        <ele>242.75</ele>
        <time>2023-06-13T14:34:09.672Z</time>
      </trkpt>
      <trkpt lat="48.32408317364752" lon="17.0777428150177">
        <ele>242.57</ele>
        <time>2023-06-13T14:34:19.617Z</time>
      </trkpt>
      <trkpt lat="48.32409247756004" lon="17.07760216668248">
        <ele>242.52</ele>
        <time>2023-06-13T14:34:29.564Z</time>
      </trkpt>
      <trkpt lat="48.32409247756004" lon="17.07760208286345">
        <ele>241.38</ele>
        <time>2023-06-13T14:34:39.511Z</time>
      </trkpt>
      <trkpt lat="48.32409264519811" lon="17.077599987387657">
        <ele>241.39</ele>
        <time>2023-06-13T14:34:49.458Z</time>
      </trkpt>
      <trkpt lat="48.324092561379075" lon="17.077599903568625">
        <ele>239.95</ele>
        <time>2023-06-13T14:34:59.405Z</time>
      </trkpt>
      <trkpt lat="48.32409272901714" lon="17.077597891911864">
        <ele>239.95</ele>
        <time>2023-06-13T14:35:09.352Z</time>
      </trkpt>
      <trkpt lat="48.3240928966552" lon="17.07759571261704">
        <ele>239.95</ele>
        <time>2023-06-13T14:35:19.299Z</time>
      </trkpt>
      <trkpt lat="48.324093064293265" lon="17.077593449503183">
        <ele>239.95</ele>
        <time>2023-06-13T14:35:29.246Z</time>
      </trkpt>
      <trkpt lat="48.32413673400879" lon="17.076938152313232">
        <ele>236.26</ele>
        <time>2023-06-13T14:35:39.202Z</time>
      </trkpt>
      <trkpt lat="48.32436203956604" lon="17.075704336166382">
        <ele>234.36</ele>
        <time>2023-06-13T14:35:49.175Z</time>
      </trkpt>
      <trkpt lat="48.32467317581177" lon="17.074202299118042">
        <ele>231.99</ele>
        <time>2023-06-13T14:35:59.169Z</time>
      </trkpt>
      <trkpt lat="48.32483410835266" lon="17.07326889038086">
        <ele>230.31</ele>
        <time>2023-06-13T14:36:09.176Z</time>
      </trkpt>
      <trkpt lat="48.3249306678772" lon="17.072635889053345">
        <ele>228.7</ele>
        <time>2023-06-13T14:36:19.191Z</time>
      </trkpt>
      <trkpt lat="48.324244022369385" lon="17.072432041168213">
        <ele>226.83</ele>
        <time>2023-06-13T14:36:29.220Z</time>
      </trkpt>
      <trkpt lat="48.32414746284485" lon="17.072453498840332">
        <ele>225.74</ele>
        <time>2023-06-13T14:36:39.251Z</time>
      </trkpt>
      <trkpt lat="48.32407236099243" lon="17.07249641418457">
        <ele>225.09</ele>
        <time>2023-06-13T14:36:49.284Z</time>
      </trkpt>
      <trkpt lat="48.323997259140015" lon="17.072625160217285">
        <ele>224.87</ele>
        <time>2023-06-13T14:36:59.319Z</time>
      </trkpt>
      <trkpt lat="48.3238685131073" lon="17.073065042495728">
        <ele>225.14</ele>
        <time>2023-06-13T14:37:09.361Z</time>
      </trkpt>
      <trkpt lat="48.323707580566406" lon="17.07347273826599">
        <ele>225.51</ele>
        <time>2023-06-13T14:37:19.409Z</time>
      </trkpt>
      <trkpt lat="48.32361102104187" lon="17.073612213134766">
        <ele>226.1</ele>
        <time>2023-06-13T14:37:29.460Z</time>
      </trkpt>
      <trkpt lat="48.323503732681274" lon="17.07374095916748">
        <ele>226.92</ele>
        <time>2023-06-13T14:37:39.513Z</time>
      </trkpt>
      <trkpt lat="48.322999561205506" lon="17.07428812980652">
        <ele>228.13</ele>
        <time>2023-06-13T14:37:49.579Z</time>
      </trkpt>
      <trkpt lat="48.32236655987799" lon="17.07474946975708">
        <ele>230.18</ele>
        <time>2023-06-13T14:37:59.659Z</time>
      </trkpt>
      <trkpt lat="48.32236647605896" lon="17.07474946975708">
        <ele>232.04</ele>
        <time>2023-06-13T14:38:09.739Z</time>
      </trkpt>
      <trkpt lat="48.32205533981323" lon="17.074921131134033">
        <ele>234.92</ele>
        <time>2023-06-13T14:38:19.826Z</time>
      </trkpt>
      <trkpt lat="48.321712017059326" lon="17.07576870918274">
        <ele>238.24</ele>
        <time>2023-06-13T14:38:29.926Z</time>
      </trkpt>
      <trkpt lat="48.32167983055115" lon="17.076058387756348">
        <ele>241.04</ele>
        <time>2023-06-13T14:38:40.030Z</time>
      </trkpt>
      <trkpt lat="48.32144379615784" lon="17.076659202575684">
        <ele>244.2</ele>
        <time>2023-06-13T14:38:50.143Z</time>
      </trkpt>
      <trkpt lat="48.32136869430542" lon="17.076798677444458">
        <ele>246.92</ele>
        <time>2023-06-13T14:39:00.258Z</time>
      </trkpt>
      <trkpt lat="48.32105755805969" lon="17.07721710205078">
        <ele>249.56</ele>
        <time>2023-06-13T14:39:10.382Z</time>
      </trkpt>
      <trkpt lat="48.320971727371216" lon="17.077356576919556">
        <ele>252.15</ele>
        <time>2023-06-13T14:39:20.508Z</time>
      </trkpt>
      <trkpt lat="48.32054257392883" lon="17.078408002853394">
        <ele>255.6</ele>
        <time>2023-06-13T14:39:30.651Z</time>
      </trkpt>
      <trkpt lat="48.32043528556824" lon="17.07853674888611">
        <ele>258.55</ele>
        <time>2023-06-13T14:39:40.797Z</time>
      </trkpt>
      <trkpt lat="48.320274353027344" lon="17.078686952590942">
        <ele>261.57</ele>
        <time>2023-06-13T14:39:50.946Z</time>
      </trkpt>
      <trkpt lat="48.32014560699463" lon="17.078858613967896">
        <ele>264.67</ele>
        <time>2023-06-13T14:40:01.099Z</time>
      </trkpt>
      <trkpt lat="48.31993103027344" lon="17.079427242279053">
        <ele>268.22</ele>
        <time>2023-06-13T14:40:11.261Z</time>
      </trkpt>
      <trkpt lat="48.3197808265686" lon="17.07974910736084">
        <ele>272.02</ele>
        <time>2023-06-13T14:40:21.428Z</time>
      </trkpt>
      <trkpt lat="48.319222927093506" lon="17.081186771392822">
        <ele>276.78</ele>
        <time>2023-06-13T14:40:31.617Z</time>
      </trkpt>
      <trkpt lat="48.318965435028076" lon="17.082109451293945">
        <ele>281.26</ele>
        <time>2023-06-13T14:40:41.819Z</time>
      </trkpt>
      <trkpt lat="48.31889033317566" lon="17.08248496055603">
        <ele>285.71</ele>
        <time>2023-06-13T14:40:52.027Z</time>
      </trkpt>
      <trkpt lat="48.31881523132324" lon="17.082817554473877">
        <ele>290.4</ele>
        <time>2023-06-13T14:41:02.239Z</time>
      </trkpt>
      <trkpt lat="48.318493366241455" lon="17.083557844161987">
        <ele>295.58</ele>
        <time>2023-06-13T14:41:12.463Z</time>
      </trkpt>
      <trkpt lat="48.31835397519171" lon="17.084072828292847">
        <ele>301.21</ele>
        <time>2023-06-13T14:41:22.694Z</time>
      </trkpt>
      <trkpt lat="48.31818222999573" lon="17.084662914276123">
        <ele>307.02</ele>
        <time>2023-06-13T14:41:32.934Z</time>
      </trkpt>
      <trkpt lat="48.317967653274536" lon="17.085692882537842">
        <ele>313.32</ele>
        <time>2023-06-13T14:41:43.188Z</time>
      </trkpt>
      <trkpt lat="48.31763505935669" lon="17.086358070373535">
        <ele>319.77</ele>
        <time>2023-06-13T14:41:53.454Z</time>
      </trkpt>
      <trkpt lat="48.31744194030762" lon="17.086797952651978">
        <ele>326.23</ele>
        <time>2023-06-13T14:42:03.727Z</time>
      </trkpt>
      <trkpt lat="48.31688404083252" lon="17.088353633880615">
        <ele>332.99</ele>
        <time>2023-06-13T14:42:14.023Z</time>
      </trkpt>
      <trkpt lat="48.31637986935675" lon="17.08998441696167">
        <ele>339.36</ele>
        <time>2023-06-13T14:42:24.343Z</time>
      </trkpt>
      <trkpt lat="48.31558585166931" lon="17.09174394607544">
        <ele>347.26</ele>
        <time>2023-06-13T14:42:34.692Z</time>
      </trkpt>
      <trkpt lat="48.31541419029236" lon="17.092280387878418">
        <ele>353.74</ele>
        <time>2023-06-13T14:42:45.048Z</time>
      </trkpt>
      <trkpt lat="48.315253257751465" lon="17.092677354812622">
        <ele>359.97</ele>
        <time>2023-06-13T14:42:55.411Z</time>
      </trkpt>
      <trkpt lat="48.31518888473511" lon="17.09294557571411">
        <ele>365.84</ele>
        <time>2023-06-13T14:43:05.777Z</time>
      </trkpt>
      <trkpt lat="48.31512451171875" lon="17.093567848205566">
        <ele>371.79</ele>
        <time>2023-06-13T14:43:16.152Z</time>
      </trkpt>
      <trkpt lat="48.31509232521057" lon="17.09445834159851">
        <ele>377.67</ele>
        <time>2023-06-13T14:43:26.539Z</time>
      </trkpt>
      <trkpt lat="48.3147919178009" lon="17.095638513565063">
        <ele>383.14</ele>
        <time>2023-06-13T14:43:36.943Z</time>
      </trkpt>
      <trkpt lat="48.31456661224365" lon="17.0962393283844">
        <ele>387.21</ele>
        <time>2023-06-13T14:43:47.356Z</time>
      </trkpt>
      <trkpt lat="48.31442713737488" lon="17.096282243728638">
        <ele>390.43</ele>
        <time>2023-06-13T14:43:57.772Z</time>
      </trkpt>
      <trkpt lat="48.313976526260376" lon="17.096335887908936">
        <ele>393.16</ele>
        <time>2023-06-13T14:44:08.197Z</time>
      </trkpt>
      <trkpt lat="48.313761949539185" lon="17.096325159072876">
        <ele>395.16</ele>
        <time>2023-06-13T14:44:18.626Z</time>
      </trkpt>
      <trkpt lat="48.31346154212952" lon="17.096164226531982">
        <ele>396.43</ele>
        <time>2023-06-13T14:44:29.061Z</time>
      </trkpt>
      <trkpt lat="48.31312894821167" lon="17.095885276794434">
        <ele>397.06</ele>
        <time>2023-06-13T14:44:39.504Z</time>
      </trkpt>
      <trkpt lat="48.3131290320307" lon="17.095885276794434">
        <ele>397.05</ele>
        <time>2023-06-13T14:44:49.947Z</time>
      </trkpt>
      <trkpt lat="48.31260323524475" lon="17.09543466567993">
        <ele>396.37</ele>
        <time>2023-06-13T14:45:00.402Z</time>
      </trkpt>
      <trkpt lat="48.31238865852356" lon="17.095316648483276">
        <ele>395.3</ele>
        <time>2023-06-13T14:45:10.862Z</time>
      </trkpt>
      <trkpt lat="48.31119775772095" lon="17.09497332572937">
        <ele>393.21</ele>
        <time>2023-06-13T14:45:21.346Z</time>
      </trkpt>
      <trkpt lat="48.311015367507935" lon="17.094866037368774">
        <ele>391.41</ele>
        <time>2023-06-13T14:45:31.834Z</time>
      </trkpt>
      <trkpt lat="48.310790061950684" lon="17.09469437599182">
        <ele>389.34</ele>
        <time>2023-06-13T14:45:42.327Z</time>
      </trkpt>
      <trkpt lat="48.31056475639343" lon="17.094597816467285">
        <ele>387.6</ele>
        <time>2023-06-13T14:45:52.825Z</time>
      </trkpt>
      <trkpt lat="48.310307264328" lon="17.094533443450928">
        <ele>386.16</ele>
        <time>2023-06-13T14:46:03.328Z</time>
      </trkpt>
      <trkpt lat="48.31017851829529" lon="17.09445834159851">
        <ele>384.85</ele>
        <time>2023-06-13T14:46:13.834Z</time>
      </trkpt>
      <trkpt lat="48.31004977226257" lon="17.094308137893677">
        <ele>383.62</ele>
        <time>2023-06-13T14:46:24.343Z</time>
      </trkpt>
      <trkpt lat="48.309749364852905" lon="17.094061374664307">
        <ele>382.62</ele>
        <time>2023-06-13T14:46:34.859Z</time>
      </trkpt>
      <trkpt lat="48.309534788131714" lon="17.093932628631592">
        <ele>381.29</ele>
        <time>2023-06-13T14:46:45.379Z</time>
      </trkpt>
      <trkpt lat="48.309534871950746" lon="17.093932628631592">
        <ele>379.68</ele>
        <time>2023-06-13T14:46:55.899Z</time>
      </trkpt>
      <trkpt lat="48.308998346328735" lon="17.093642950057983">
        <ele>377.96</ele>
        <time>2023-06-13T14:47:06.431Z</time>
      </trkpt>
      <trkpt lat="48.308740854263306" lon="17.093567848205566">
        <ele>376.1</ele>
        <time>2023-06-13T14:47:16.968Z</time>
      </trkpt>
      <trkpt lat="48.3084511756897" lon="17.093557119369507">
        <ele>374.33</ele>
        <time>2023-06-13T14:47:27.511Z</time>
      </trkpt>
      <trkpt lat="48.30820441246033" lon="17.093621492385864">
        <ele>372.62</ele>
        <time>2023-06-13T14:47:38.059Z</time>
      </trkpt>
      <trkpt lat="48.30689549446106" lon="17.09420084953308">
        <ele>370.4</ele>
        <time>2023-06-13T14:47:48.634Z</time>
      </trkpt>
      <trkpt lat="48.30689557828009" lon="17.09420084953308">
        <ele>369.44</ele>
        <time>2023-06-13T14:47:59.209Z</time>
      </trkpt>
      <trkpt lat="48.30642350949347" lon="17.094297409057617">
        <ele>368.74</ele>
        <time>2023-06-13T14:48:09.794Z</time>
      </trkpt>
      <trkpt lat="48.30606937408447" lon="17.094275951385498">
        <ele>367.59</ele>
        <time>2023-06-13T14:48:20.386Z</time>
      </trkpt>
      <trkpt lat="48.305736780166626" lon="17.0942223072052">
        <ele>366.11</ele>
        <time>2023-06-13T14:48:30.985Z</time>
      </trkpt>
      <trkpt lat="48.30545783042908" lon="17.094179391860962">
        <ele>364.54</ele>
        <time>2023-06-13T14:48:41.589Z</time>
      </trkpt>
      <trkpt lat="48.30528449267149" lon="17.094138069078326">
        <ele>363.38</ele>
        <time>2023-06-13T14:48:52.197Z</time>
      </trkpt>
      <trkpt lat="48.30528264865279" lon="17.094137649983168">
        <ele>363.37</ele>
        <time>2023-06-13T14:49:02.805Z</time>
      </trkpt>
      <trkpt lat="48.30528097227216" lon="17.09413731470704">
        <ele>363.36</ele>
        <time>2023-06-13T14:49:13.413Z</time>
      </trkpt>
      <trkpt lat="48.30527921207249" lon="17.094136895611882">
        <ele>363.35</ele>
        <time>2023-06-13T14:49:24.021Z</time>
      </trkpt>
      <trkpt lat="48.30527728423476" lon="17.094136476516724">
        <ele>363.34</ele>
        <time>2023-06-13T14:49:34.629Z</time>
      </trkpt>
      <trkpt lat="48.30437421798706" lon="17.093921899795532">
        <ele>352.35</ele>
        <time>2023-06-13T14:49:45.255Z</time>
      </trkpt>
      <trkpt lat="48.30384850502014" lon="17.093932628631592">
        <ele>349.44</ele>
        <time>2023-06-13T14:49:55.892Z</time>
      </trkpt>
      <trkpt lat="48.30370903015137" lon="17.093889713287354">
        <ele>347.31</ele>
        <time>2023-06-13T14:50:06.532Z</time>
      </trkpt>
      <trkpt lat="48.302786350250244" lon="17.093310356140137">
        <ele>346.88</ele>
        <time>2023-06-13T14:50:17.192Z</time>
      </trkpt>
      <trkpt lat="48.302282094955444" lon="17.09246277809143">
        <ele>344.82</ele>
        <time>2023-06-13T14:50:27.867Z</time>
      </trkpt>
      <trkpt lat="48.30216407775879" lon="17.092323303222656">
        <ele>343.7</ele>
        <time>2023-06-13T14:50:38.545Z</time>
      </trkpt>
      <trkpt lat="48.30200322903693" lon="17.092183828353882">
        <ele>343.14</ele>
        <time>2023-06-13T14:50:49.226Z</time>
      </trkpt>
      <trkpt lat="48.302003145217896" lon="17.092183828353882">
        <ele>343.06</ele>
        <time>2023-06-13T14:50:59.907Z</time>
      </trkpt>
      <trkpt lat="48.301820838823915" lon="17.092087268829346">
        <ele>343.36</ele>
        <time>2023-06-13T14:51:10.592Z</time>
      </trkpt>
      <trkpt lat="48.30143451690674" lon="17.091829776763916">
        <ele>344.21</ele>
        <time>2023-06-13T14:51:21.286Z</time>
      </trkpt>
      <trkpt lat="48.30091953277588" lon="17.091625928878784">
        <ele>345.35</ele>
        <time>2023-06-13T14:51:31.990Z</time>
      </trkpt>
      <trkpt lat="48.300737142562866" lon="17.09149718284607">
        <ele>346.32</ele>
        <time>2023-06-13T14:51:42.698Z</time>
      </trkpt>
      <trkpt lat="48.30070495605469" lon="17.091432809829712">
        <ele>347.11</ele>
        <time>2023-06-13T14:51:53.408Z</time>
      </trkpt>
      <trkpt lat="48.30065131187439" lon="17.091304063796997">
        <ele>347.82</ele>
        <time>2023-06-13T14:52:04.120Z</time>
      </trkpt>
      <trkpt lat="48.30061912536621" lon="17.091175317764282">
        <ele>348.39</ele>
        <time>2023-06-13T14:52:14.833Z</time>
      </trkpt>
      <trkpt lat="48.30061912536621" lon="17.09099292755127">
        <ele>348.68</ele>
        <time>2023-06-13T14:52:25.549Z</time>
      </trkpt>
      <trkpt lat="48.30064066685736" lon="17.090553045272827">
        <ele>348.69</ele>
        <time>2023-06-13T14:52:36.271Z</time>
      </trkpt>
      <trkpt lat="48.3008873462677" lon="17.089287042617798">
        <ele>348.3</ele>
        <time>2023-06-13T14:52:47.010Z</time>
      </trkpt>
      <trkpt lat="48.30091961659491" lon="17.088686227798462">
        <ele>348.4</ele>
        <time>2023-06-13T14:52:57.757Z</time>
      </trkpt>
      <trkpt lat="48.30091953277588" lon="17.088310718536377">
        <ele>347.99</ele>
        <time>2023-06-13T14:53:08.509Z</time>
      </trkpt>
      <trkpt lat="48.30087661743164" lon="17.08802103996277">
        <ele>347.45</ele>
        <time>2023-06-13T14:53:19.265Z</time>
      </trkpt>
      <trkpt lat="48.30056548118591" lon="17.08674430847168">
        <ele>346.75</ele>
        <time>2023-06-13T14:53:30.040Z</time>
      </trkpt>
      <trkpt lat="48.30051192082465" lon="17.086400985717773">
        <ele>346.83</ele>
        <time>2023-06-13T14:53:40.819Z</time>
      </trkpt>
      <trkpt lat="48.30040463246405" lon="17.08571434020996">
        <ele>347.54</ele>
        <time>2023-06-13T14:53:51.608Z</time>
      </trkpt>
      <trkpt lat="48.300286531448364" lon="17.085306644439697">
        <ele>348.61</ele>
        <time>2023-06-13T14:54:02.403Z</time>
      </trkpt>
      <trkpt lat="48.30014948733151" lon="17.08494856953621">
        <ele>349.26</ele>
        <time>2023-06-13T14:54:13.203Z</time>
      </trkpt>
      <trkpt lat="48.30014890059829" lon="17.084946893155575">
        <ele>349.27</ele>
        <time>2023-06-13T14:54:24.003Z</time>
      </trkpt>
      <trkpt lat="48.300148313865066" lon="17.084945300593972">
        <ele>349.28</ele>
        <time>2023-06-13T14:54:34.803Z</time>
      </trkpt>
      <trkpt lat="48.300147727131844" lon="17.084943624213338">
        <ele>349.29</ele>
        <time>2023-06-13T14:54:45.603Z</time>
      </trkpt>
      <trkpt lat="48.30014705657959" lon="17.084941864013672">
        <ele>349.3</ele>
        <time>2023-06-13T14:54:56.403Z</time>
      </trkpt>
      <trkpt lat="48.30007195472717" lon="17.085038423538208">
        <ele>351.64</ele>
        <time>2023-06-13T14:55:07.205Z</time>
      </trkpt>
      <trkpt lat="48.29997539520264" lon="17.08521008491516">
        <ele>352.15</ele>
        <time>2023-06-13T14:55:18.010Z</time>
      </trkpt>
      <trkpt lat="48.299931893125176" lon="17.085309075191617">
        <ele>352.34</ele>
        <time>2023-06-13T14:55:28.817Z</time>
      </trkpt>
      <trkpt lat="48.29993097111583" lon="17.08531125448644">
        <ele>352.35</ele>
        <time>2023-06-13T14:55:39.624Z</time>
      </trkpt>
      <trkpt lat="48.29993013292551" lon="17.085313349962234">
        <ele>352.36</ele>
        <time>2023-06-13T14:55:50.431Z</time>
      </trkpt>
      <trkpt lat="48.29992921091616" lon="17.08531552925706">
        <ele>352.37</ele>
        <time>2023-06-13T14:56:01.238Z</time>
      </trkpt>
      <trkpt lat="48.29992820508778" lon="17.085317876189947">
        <ele>352.38</ele>
        <time>2023-06-13T14:56:12.045Z</time>
      </trkpt>
      <trkpt lat="48.29990029335022" lon="17.085381746292114">
        <ele>353.49</ele>
        <time>2023-06-13T14:56:22.853Z</time>
      </trkpt>
      <trkpt lat="48.2998251914978" lon="17.08577871322632">
        <ele>354.84</ele>
        <time>2023-06-13T14:56:33.666Z</time>
      </trkpt>
      <trkpt lat="48.299803733825684" lon="17.086379528045654">
        <ele>357.26</ele>
        <time>2023-06-13T14:56:44.487Z</time>
      </trkpt>
      <trkpt lat="48.29972863197327" lon="17.086905241012573">
        <ele>359.55</ele>
        <time>2023-06-13T14:56:55.316Z</time>
      </trkpt>
      <trkpt lat="48.29963207244873" lon="17.087398767471313">
        <ele>361.77</ele>
        <time>2023-06-13T14:57:06.152Z</time>
      </trkpt>
      <trkpt lat="48.29956560395658" lon="17.08766397088766">
        <ele>363.64</ele>
        <time>2023-06-13T14:57:16.991Z</time>
      </trkpt>
      <trkpt lat="48.29956510104239" lon="17.087666066363454">
        <ele>363.66</ele>
        <time>2023-06-13T14:57:27.830Z</time>
      </trkpt>
      <trkpt lat="48.29956468194723" lon="17.08766791038215">
        <ele>363.68</ele>
        <time>2023-06-13T14:57:38.669Z</time>
      </trkpt>
      <trkpt lat="48.29956417903304" lon="17.087670005857944">
        <ele>363.7</ele>
        <time>2023-06-13T14:57:49.508Z</time>
      </trkpt>
      <trkpt lat="48.29956367611885" lon="17.087672352790833">
        <ele>363.73</ele>
        <time>2023-06-13T14:58:00.347Z</time>
      </trkpt>
      <trkpt lat="48.29943895339966" lon="17.088171243667603">
        <ele>370.71</ele>
        <time>2023-06-13T14:58:11.194Z</time>
      </trkpt>
      <trkpt lat="48.29941749572754" lon="17.088375091552734">
        <ele>372.47</ele>
        <time>2023-06-13T14:58:22.043Z</time>
      </trkpt>
      <trkpt lat="48.29947113990784" lon="17.089126110076904">
        <ele>374.45</ele>
        <time>2023-06-13T14:58:32.902Z</time>
      </trkpt>
      <trkpt lat="48.29947113990784" lon="17.08925485610962">
        <ele>376.47</ele>
        <time>2023-06-13T14:58:43.763Z</time>
      </trkpt>
      <trkpt lat="48.29938530921936" lon="17.089812755584717">
        <ele>379.29</ele>
        <time>2023-06-13T14:58:54.632Z</time>
      </trkpt>
      <trkpt lat="48.29941749572754" lon="17.09048867225647">
        <ele>380.88</ele>
        <time>2023-06-13T14:59:05.510Z</time>
      </trkpt>
      <trkpt lat="48.29940676689148" lon="17.09095001220703">
        <ele>382.77</ele>
        <time>2023-06-13T14:59:16.394Z</time>
      </trkpt>
      <trkpt lat="48.299267292022705" lon="17.092409133911133">
        <ele>384.73</ele>
        <time>2023-06-13T14:59:27.298Z</time>
      </trkpt>
      <trkpt lat="48.29920291900635" lon="17.092773914337158">
        <ele>386.24</ele>
        <time>2023-06-13T14:59:38.207Z</time>
      </trkpt>
      <trkpt lat="48.29911708831787" lon="17.093160152435303">
        <ele>387.55</ele>
        <time>2023-06-13T14:59:49.121Z</time>
      </trkpt>
      <trkpt lat="48.29893469810486" lon="17.093589305877686">
        <ele>389.0</ele>
        <time>2023-06-13T15:00:00.042Z</time>
      </trkpt>
      <trkpt lat="48.298805952072144" lon="17.094029188156128">
        <ele>390.53</ele>
        <time>2023-06-13T15:00:10.969Z</time>
      </trkpt>
      <trkpt lat="48.29873085021973" lon="17.094404697418213">
        <ele>391.97</ele>
        <time>2023-06-13T15:00:21.902Z</time>
      </trkpt>
      <trkpt lat="48.29868793487549" lon="17.094780206680298">
        <ele>393.17</ele>
        <time>2023-06-13T15:00:32.840Z</time>
      </trkpt>
      <trkpt lat="48.29867720603943" lon="17.095069885253906">
        <ele>393.99</ele>
        <time>2023-06-13T15:00:43.782Z</time>
      </trkpt>
      <trkpt lat="48.29873085021973" lon="17.095810174942017">
        <ele>394.11</ele>
        <time>2023-06-13T15:00:54.733Z</time>
      </trkpt>
      <trkpt lat="48.298795223236084" lon="17.096132040023804">
        <ele>393.87</ele>
        <time>2023-06-13T15:01:05.689Z</time>
      </trkpt>
      <trkpt lat="48.29894542694092" lon="17.09671139717102">
        <ele>393.12</ele>
        <time>2023-06-13T15:01:16.653Z</time>
      </trkpt>
      <trkpt lat="48.299041986465454" lon="17.09696888923645">
        <ele>392.51</ele>
        <time>2023-06-13T15:01:27.621Z</time>
      </trkpt>
      <trkpt lat="48.299299478530884" lon="17.097333669662476">
        <ele>391.95</ele>
        <time>2023-06-13T15:01:38.596Z</time>
      </trkpt>
      <trkpt lat="48.29946041107178" lon="17.097601890563965">
        <ele>391.32</ele>
        <time>2023-06-13T15:01:49.576Z</time>
      </trkpt>
      <trkpt lat="48.29949268139899" lon="17.09771990776062">
        <ele>390.61</ele>
        <time>2023-06-13T15:02:00.558Z</time>
      </trkpt>
      <trkpt lat="48.299535512924194" lon="17.097891569137573">
        <ele>389.87</ele>
        <time>2023-06-13T15:02:11.542Z</time>
      </trkpt>
      <trkpt lat="48.29963207244873" lon="17.098052501678467">
        <ele>389.0</ele>
        <time>2023-06-13T15:02:22.529Z</time>
      </trkpt>
      <trkpt lat="48.29972863197327" lon="17.098170518875122">
        <ele>388.0</ele>
        <time>2023-06-13T15:02:33.519Z</time>
      </trkpt>
      <trkpt lat="48.299803733825684" lon="17.098342180252075">
        <ele>386.84</ele>
        <time>2023-06-13T15:02:44.511Z</time>
      </trkpt>
      <trkpt lat="48.29985737800598" lon="17.098546028137207">
        <ele>385.54</ele>
        <time>2023-06-13T15:02:55.506Z</time>
      </trkpt>
      <trkpt lat="48.29988956451416" lon="17.098814249038696">
        <ele>384.1</ele>
        <time>2023-06-13T15:03:06.505Z</time>
      </trkpt>
      <trkpt lat="48.29995393753052" lon="17.098878622055054">
        <ele>382.78</ele>
        <time>2023-06-13T15:03:17.505Z</time>
      </trkpt>
      <trkpt lat="48.30006122589111" lon="17.098889350891113">
        <ele>381.46</ele>
        <time>2023-06-13T15:03:28.508Z</time>
      </trkpt>
      <trkpt lat="48.30021142959595" lon="17.098857164382935">
        <ele>380.11</ele>
        <time>2023-06-13T15:03:39.514Z</time>
      </trkpt>
      <trkpt lat="48.300254344940186" lon="17.098889350891113">
        <ele>378.9</ele>
        <time>2023-06-13T15:03:50.521Z</time>
      </trkpt>
      <trkpt lat="48.300254344940186" lon="17.09896445274353">
        <ele>377.76</ele>
        <time>2023-06-13T15:04:01.529Z</time>
      </trkpt>
      <trkpt lat="48.30018997192383" lon="17.099093198776245">
        <ele>376.69</ele>
        <time>2023-06-13T15:04:12.539Z</time>
      </trkpt>
      <trkpt lat="48.299503326416016" lon="17.100090980529785">
        <ele>375.67</ele>
        <time>2023-06-13T15:04:23.568Z</time>
      </trkpt>
      <trkpt lat="48.299288749694824" lon="17.10046648979187">
        <ele>374.6</ele>
        <time>2023-06-13T15:04:34.604Z</time>
      </trkpt>
      <trkpt lat="48.29910635948181" lon="17.10073471069336">
        <ele>373.79</ele>
        <time>2023-06-13T15:04:45.645Z</time>
      </trkpt>
      <trkpt lat="48.29893469810486" lon="17.10100293159485">
        <ele>372.99</ele>
        <time>2023-06-13T15:04:56.691Z</time>
      </trkpt>
      <trkpt lat="48.29865574836731" lon="17.101378440856934">
        <ele>372.13</ele>
        <time>2023-06-13T15:05:07.744Z</time>
      </trkpt>
      <trkpt lat="48.2983660697937" lon="17.10171103477478">
        <ele>371.33</ele>
        <time>2023-06-13T15:05:18.804Z</time>
      </trkpt>
      <trkpt lat="48.29819440841675" lon="17.101861238479614">
        <ele>370.68</ele>
        <time>2023-06-13T15:05:29.868Z</time>
      </trkpt>
      <trkpt lat="48.29806566238403" lon="17.10200071334839">
        <ele>370.2</ele>
        <time>2023-06-13T15:05:40.936Z</time>
      </trkpt>
      <trkpt lat="48.29789400100708" lon="17.102290391921997">
        <ele>369.78</ele>
        <time>2023-06-13T15:05:52.009Z</time>
      </trkpt>
      <trkpt lat="48.297754526138306" lon="17.102569341659546">
        <ele>369.49</ele>
        <time>2023-06-13T15:06:03.086Z</time>
      </trkpt>
      <trkpt lat="48.29758286476135" lon="17.103116512298584">
        <ele>369.44</ele>
        <time>2023-06-13T15:06:14.171Z</time>
      </trkpt>
      <trkpt lat="48.2973575592041" lon="17.103652954101562">
        <ele>369.64</ele>
        <time>2023-06-13T15:06:25.265Z</time>
      </trkpt>
      <trkpt lat="48.29656362533569" lon="17.105391025543213">
        <ele>370.16</ele>
        <time>2023-06-13T15:06:36.387Z</time>
      </trkpt>
      <trkpt lat="48.296488523483276" lon="17.105627059936523">
        <ele>370.85</ele>
        <time>2023-06-13T15:06:47.513Z</time>
      </trkpt>
      <trkpt lat="48.2964563369751" lon="17.105777263641357">
        <ele>371.77</ele>
        <time>2023-06-13T15:06:58.641Z</time>
      </trkpt>
      <trkpt lat="48.2964563369751" lon="17.105873823165894">
        <ele>373.04</ele>
        <time>2023-06-13T15:07:09.770Z</time>
      </trkpt>
      <trkpt lat="48.29644560813904" lon="17.106034755706787">
        <ele>374.62</ele>
        <time>2023-06-13T15:07:20.901Z</time>
      </trkpt>
      <trkpt lat="48.29647779464722" lon="17.106066942214966">
        <ele>376.41</ele>
        <time>2023-06-13T15:07:32.033Z</time>
      </trkpt>
      <trkpt lat="48.296595895662904" lon="17.106302976608276">
        <ele>378.74</ele>
        <time>2023-06-13T15:07:43.169Z</time>
      </trkpt>
      <trkpt lat="48.29642415046692" lon="17.10673213005066">
        <ele>381.32</ele>
        <time>2023-06-13T15:07:54.312Z</time>
      </trkpt>
      <trkpt lat="48.29618811607361" lon="17.107558250427246">
        <ele>383.78</ele>
        <time>2023-06-13T15:08:05.467Z</time>
      </trkpt>
      <trkpt lat="48.2951904181391" lon="17.11016535758972">
        <ele>386.98</ele>
        <time>2023-06-13T15:08:16.662Z</time>
      </trkpt>
      <trkpt lat="48.29509377479553" lon="17.110508680343628">
        <ele>388.98</ele>
        <time>2023-06-13T15:08:27.862Z</time>
      </trkpt>
      <trkpt lat="48.295029401779175" lon="17.11099147796631">
        <ele>390.85</ele>
        <time>2023-06-13T15:08:39.068Z</time>
      </trkpt>
      <trkpt lat="48.29495429992676" lon="17.111291885375977">
        <ele>393.1</ele>
        <time>2023-06-13T15:08:50.279Z</time>
      </trkpt>
      <trkpt lat="48.29487919807434" lon="17.11147427558899">
        <ele>395.8</ele>
        <time>2023-06-13T15:09:01.492Z</time>
      </trkpt>
      <trkpt lat="48.294535875320435" lon="17.112053632736206">
        <ele>399.11</ele>
        <time>2023-06-13T15:09:12.716Z</time>
      </trkpt>
      <trkpt lat="48.294267654418945" lon="17.112547159194946">
        <ele>402.22</ele>
        <time>2023-06-13T15:09:23.948Z</time>
      </trkpt>
      <trkpt lat="48.29416036605835" lon="17.112804651260376">
        <ele>405.0</ele>
        <time>2023-06-13T15:09:35.184Z</time>
      </trkpt>
      <trkpt lat="48.29389214515686" lon="17.113523483276367">
        <ele>408.12</ele>
        <time>2023-06-13T15:09:46.431Z</time>
      </trkpt>
      <trkpt lat="48.29347522929311" lon="17.114746822044253">
        <ele>411.86</ele>
        <time>2023-06-13T15:09:57.697Z</time>
      </trkpt>
      <trkpt lat="48.29347522929311" lon="17.114746905863285">
        <ele>411.87</ele>
        <time>2023-06-13T15:10:08.963Z</time>
      </trkpt>
      <trkpt lat="48.29347531311214" lon="17.114746822044253">
        <ele>411.88</ele>
        <time>2023-06-13T15:10:20.229Z</time>
      </trkpt>
      <trkpt lat="48.29347539693117" lon="17.114746822044253">
        <ele>411.89</ele>
        <time>2023-06-13T15:10:31.495Z</time>
      </trkpt>
      <trkpt lat="48.29347531311214" lon="17.11474715732038">
        <ele>411.9</ele>
        <time>2023-06-13T15:10:42.761Z</time>
      </trkpt>
      <trkpt lat="48.293055379763246" lon="17.11598038673401">
        <ele>425.25</ele>
        <time>2023-06-13T15:10:54.045Z</time>
      </trkpt>
      <trkpt lat="48.292336547747254" lon="17.118072509765625">
        <ele>428.74</ele>
        <time>2023-06-13T15:11:05.361Z</time>
      </trkpt>
      <trkpt lat="48.29233646392822" lon="17.118072509765625">
        <ele>430.64</ele>
        <time>2023-06-13T15:11:16.677Z</time>
      </trkpt>
      <trkpt lat="48.29206824302673" lon="17.118866443634033">
        <ele>432.29</ele>
        <time>2023-06-13T15:11:28.004Z</time>
      </trkpt>
      <trkpt lat="48.291810750961304" lon="17.119542360305786">
        <ele>433.56</ele>
        <time>2023-06-13T15:11:39.342Z</time>
      </trkpt>
      <trkpt lat="48.29137086868286" lon="17.120572328567505">
        <ele>434.83</ele>
        <time>2023-06-13T15:11:50.696Z</time>
      </trkpt>
      <trkpt lat="48.29098471440375" lon="17.12141990661621">
        <ele>435.54</ele>
        <time>2023-06-13T15:12:02.064Z</time>
      </trkpt>
      <trkpt lat="48.290802324190736" lon="17.121827602386475">
        <ele>434.79</ele>
        <time>2023-06-13T15:12:13.438Z</time>
      </trkpt>
      <trkpt lat="48.29045900143683" lon="17.122503519058228">
        <ele>432.92</ele>
        <time>2023-06-13T15:12:24.824Z</time>
      </trkpt>
      <trkpt lat="48.290319526568055" lon="17.122761011123657">
        <ele>430.71</ele>
        <time>2023-06-13T15:12:36.214Z</time>
      </trkpt>
      <trkpt lat="48.28987956047058" lon="17.12347984313965">
        <ele>427.62</ele>
        <time>2023-06-13T15:12:47.617Z</time>
      </trkpt>
      <trkpt lat="48.28932166099548" lon="17.12444543838501">
        <ele>423.91</ele>
        <time>2023-06-13T15:12:59.037Z</time>
      </trkpt>
      <trkpt lat="48.289053440093994" lon="17.124853134155273">
        <ele>421.06</ele>
        <time>2023-06-13T15:13:10.465Z</time>
      </trkpt>
      <trkpt lat="48.28867793083191" lon="17.125378847122192">
        <ele>418.68</ele>
        <time>2023-06-13T15:13:21.903Z</time>
      </trkpt>
      <trkpt lat="48.288559913635254" lon="17.125303745269775">
        <ele>417.22</ele>
        <time>2023-06-13T15:13:33.344Z</time>
      </trkpt>
      <trkpt lat="48.28862428665161" lon="17.125121355056763">
        <ele>416.42</ele>
        <time>2023-06-13T15:13:44.788Z</time>
      </trkpt>
      <trkpt lat="48.288817405700684" lon="17.12472438812256">
        <ele>416.46</ele>
        <time>2023-06-13T15:13:56.238Z</time>
      </trkpt>
      <trkpt lat="48.288849676027894" lon="17.124617099761963">
        <ele>416.91</ele>
        <time>2023-06-13T15:14:07.690Z</time>
      </trkpt>
      <trkpt lat="48.28892469406128" lon="17.12445616722107">
        <ele>418.12</ele>
        <time>2023-06-13T15:14:19.144Z</time>
      </trkpt>
      <trkpt lat="48.28918218612671" lon="17.124134302139282">
        <ele>419.87</ele>
        <time>2023-06-13T15:14:30.605Z</time>
      </trkpt>
      <trkpt lat="48.289257287979126" lon="17.12394118309021">
        <ele>422.27</ele>
        <time>2023-06-13T15:14:42.069Z</time>
      </trkpt>
      <trkpt lat="48.289289474487305" lon="17.12372660636902">
        <ele>425.16</ele>
        <time>2023-06-13T15:14:53.536Z</time>
      </trkpt>
      <trkpt lat="48.289310932159424" lon="17.12347984313965">
        <ele>428.56</ele>
        <time>2023-06-13T15:15:05.006Z</time>
      </trkpt>
      <trkpt lat="48.289278745651245" lon="17.12319016456604">
        <ele>432.28</ele>
        <time>2023-06-13T15:15:16.480Z</time>
      </trkpt>
      <trkpt lat="48.28921437263489" lon="17.12294340133667">
        <ele>436.13</ele>
        <time>2023-06-13T15:15:27.958Z</time>
      </trkpt>
      <trkpt lat="48.28912854194641" lon="17.1226966381073">
        <ele>440.23</ele>
        <time>2023-06-13T15:15:39.439Z</time>
      </trkpt>
      <trkpt lat="48.28898906707764" lon="17.122385501861572">
        <ele>444.62</ele>
        <time>2023-06-13T15:15:50.925Z</time>
      </trkpt>
      <trkpt lat="48.288559913635254" lon="17.121806144714355">
        <ele>450.07</ele>
        <time>2023-06-13T15:16:02.423Z</time>
      </trkpt>
      <trkpt lat="48.288391437381506" lon="17.12162953801453">
        <ele>453.12</ele>
        <time>2023-06-13T15:16:13.925Z</time>
      </trkpt>
      <trkpt lat="48.2883898448199" lon="17.121627861633897">
        <ele>453.16</ele>
        <time>2023-06-13T15:16:25.427Z</time>
      </trkpt>
      <trkpt lat="48.28838833607733" lon="17.121626269072294">
        <ele>453.2</ele>
        <time>2023-06-13T15:16:36.929Z</time>
      </trkpt>
      <trkpt lat="48.28838674351573" lon="17.12162467651069">
        <ele>453.24</ele>
        <time>2023-06-13T15:16:48.431Z</time>
      </trkpt>
      <trkpt lat="48.28838515095413" lon="17.121623000130057">
        <ele>453.28</ele>
        <time>2023-06-13T15:16:59.933Z</time>
      </trkpt>
      <trkpt lat="48.288334608078" lon="17.121570110321045">
        <ele>467.61</ele>
        <time>2023-06-13T15:17:11.437Z</time>
      </trkpt>
      <trkpt lat="48.287540674209595" lon="17.120615243911743">
        <ele>470.92</ele>
        <time>2023-06-13T15:17:22.961Z</time>
      </trkpt>
      <trkpt lat="48.28733682632446" lon="17.12045431137085">
        <ele>472.73</ele>
        <time>2023-06-13T15:17:34.489Z</time>
      </trkpt>
      <trkpt lat="48.28721880912781" lon="17.12042212486267">
        <ele>473.69</ele>
        <time>2023-06-13T15:17:46.020Z</time>
      </trkpt>
      <trkpt lat="48.287047147750854" lon="17.12043285369873">
        <ele>473.93</ele>
        <time>2023-06-13T15:17:57.554Z</time>
      </trkpt>
      <trkpt lat="48.28689702786505" lon="17.12041139602661">
        <ele>473.62</ele>
        <time>2023-06-13T15:18:09.091Z</time>
      </trkpt>
      <trkpt lat="48.286564350128174" lon="17.12018609046936">
        <ele>472.91</ele>
        <time>2023-06-13T15:18:20.636Z</time>
      </trkpt>
      <trkpt lat="48.286027908325195" lon="17.119649648666382">
        <ele>471.43</ele>
        <time>2023-06-13T15:18:32.194Z</time>
      </trkpt>
      <trkpt lat="48.28518033027649" lon="17.119048833847046">
        <ele>469.69</ele>
        <time>2023-06-13T15:18:43.770Z</time>
      </trkpt>
      <trkpt lat="48.28508377075195" lon="17.118995189666748">
        <ele>468.33</ele>
        <time>2023-06-13T15:18:55.348Z</time>
      </trkpt>
      <trkpt lat="48.28495502471924" lon="17.11897373199463">
        <ele>467.07</ele>
        <time>2023-06-13T15:19:06.929Z</time>
      </trkpt>
      <trkpt lat="48.284794092178345" lon="17.119027376174927">
        <ele>465.9</ele>
        <time>2023-06-13T15:19:18.513Z</time>
      </trkpt>
      <trkpt lat="48.28470826148987" lon="17.119016647338867">
        <ele>464.94</ele>
        <time>2023-06-13T15:19:30.099Z</time>
      </trkpt>
      <trkpt lat="48.28463315963745" lon="17.11893081665039">
        <ele>464.25</ele>
        <time>2023-06-13T15:19:41.687Z</time>
      </trkpt>
      <trkpt lat="48.28407526016235" lon="17.11794376373291">
        <ele>465.1</ele>
        <time>2023-06-13T15:19:53.292Z</time>
      </trkpt>
      <trkpt lat="48.28315258026123" lon="17.117149829864502">
        <ele>465.22</ele>
        <time>2023-06-13T15:20:04.918Z</time>
      </trkpt>
      <trkpt lat="48.28285217285156" lon="17.116806507110596">
        <ele>464.62</ele>
        <time>2023-06-13T15:20:16.552Z</time>
      </trkpt>
      <trkpt lat="48.282551765441895" lon="17.116291522979736">
        <ele>463.92</ele>
        <time>2023-06-13T15:20:28.195Z</time>
      </trkpt>
      <trkpt lat="48.28224062919617" lon="17.11547613143921">
        <ele>463.16</ele>
        <time>2023-06-13T15:20:39.851Z</time>
      </trkpt>
      <trkpt lat="48.282036781311035" lon="17.11441397666931">
        <ele>462.78</ele>
        <time>2023-06-13T15:20:51.521Z</time>
      </trkpt>
      <trkpt lat="48.281865203753114" lon="17.11371660232544">
        <ele>464.43</ele>
        <time>2023-06-13T15:21:03.201Z</time>
      </trkpt>
      <trkpt lat="48.28186511993408" lon="17.11371660232544">
        <ele>466.63</ele>
        <time>2023-06-13T15:21:14.881Z</time>
      </trkpt>
      <trkpt lat="48.281575441360474" lon="17.113341093063354">
        <ele>470.47</ele>
        <time>2023-06-13T15:21:26.569Z</time>
      </trkpt>
      <trkpt lat="48.281049728393555" lon="17.112600803375244">
        <ele>475.3</ele>
        <time>2023-06-13T15:21:38.272Z</time>
      </trkpt>
      <trkpt lat="48.28072786331177" lon="17.11194634437561">
        <ele>480.41</ele>
        <time>2023-06-13T15:21:49.985Z</time>
      </trkpt>
      <trkpt lat="48.28050255775452" lon="17.111313343048096">
        <ele>485.87</ele>
        <time>2023-06-13T15:22:01.708Z</time>
      </trkpt>
      <trkpt lat="48.280309438705444" lon="17.110261917114258">
        <ele>491.91</ele>
        <time>2023-06-13T15:22:13.446Z</time>
      </trkpt>
      <trkpt lat="48.28013777732849" lon="17.109811305999756">
        <ele>497.77</ele>
        <time>2023-06-13T15:22:25.190Z</time>
      </trkpt>
      <trkpt lat="48.2799768447876" lon="17.109661102294922">
        <ele>503.43</ele>
        <time>2023-06-13T15:22:36.938Z</time>
      </trkpt>
      <trkpt lat="48.279772996902466" lon="17.109586000442505">
        <ele>508.9</ele>
        <time>2023-06-13T15:22:48.690Z</time>
      </trkpt>
      <trkpt lat="48.279536962509155" lon="17.109403610229492">
        <ele>514.4</ele>
        <time>2023-06-13T15:23:00.448Z</time>
      </trkpt>
      <trkpt lat="48.2788610458374" lon="17.109049558639526">
        <ele>519.86</ele>
        <time>2023-06-13T15:23:12.220Z</time>
      </trkpt>
      <trkpt lat="48.27864646911621" lon="17.108888626098633">
        <ele>523.84</ele>
        <time>2023-06-13T15:23:23.997Z</time>
      </trkpt>
      <trkpt lat="48.27792772091925" lon="17.108137607574463">
        <ele>527.49</ele>
        <time>2023-06-13T15:23:35.791Z</time>
      </trkpt>
      <trkpt lat="48.27792763710022" lon="17.108137607574463">
        <ele>529.48</ele>
        <time>2023-06-13T15:23:47.585Z</time>
      </trkpt>
      <trkpt lat="48.277820348739624" lon="17.108030319213867">
        <ele>530.7</ele>
        <time>2023-06-13T15:23:59.382Z</time>
      </trkpt>
      <trkpt lat="48.277519941329956" lon="17.107858657836914">
        <ele>530.94</ele>
        <time>2023-06-13T15:24:11.185Z</time>
      </trkpt>
      <trkpt lat="48.277037143707275" lon="17.107622623443604">
        <ele>530.38</ele>
        <time>2023-06-13T15:24:22.999Z</time>
      </trkpt>
      <trkpt lat="48.276522159576416" lon="17.10742950439453">
        <ele>529.26</ele>
        <time>2023-06-13T15:24:34.823Z</time>
      </trkpt>
      <trkpt lat="48.27495583333075" lon="17.106657028198242">
        <ele>527.14</ele>
        <time>2023-06-13T15:24:46.680Z</time>
      </trkpt>
      <trkpt lat="48.27495574951172" lon="17.106657028198242">
        <ele>526.94</ele>
        <time>2023-06-13T15:24:58.537Z</time>
      </trkpt>
      <trkpt lat="48.27464461326599" lon="17.10646390914917">
        <ele>526.81</ele>
        <time>2023-06-13T15:25:10.401Z</time>
      </trkpt>
      <trkpt lat="48.27444084919989" lon="17.10647463798523">
        <ele>526.89</ele>
        <time>2023-06-13T15:25:22.269Z</time>
      </trkpt>
      <trkpt lat="48.27436566352844" lon="17.10645318031311">
        <ele>527.07</ele>
        <time>2023-06-13T15:25:34.139Z</time>
      </trkpt>
      <trkpt lat="48.27370047569275" lon="17.106109857559204">
        <ele>527.69</ele>
        <time>2023-06-13T15:25:46.023Z</time>
      </trkpt>
      <trkpt lat="48.27240237034857" lon="17.105562686920166">
        <ele>528.78</ele>
        <time>2023-06-13T15:25:57.934Z</time>
      </trkpt>
      <trkpt lat="48.27213406562805" lon="17.105283737182617">
        <ele>527.53</ele>
        <time>2023-06-13T15:26:09.851Z</time>
      </trkpt>
      <trkpt lat="48.27092179097235" lon="17.10296630859375">
        <ele>524.55</ele>
        <time>2023-06-13T15:26:21.808Z</time>
      </trkpt>
      <trkpt lat="48.27092170715332" lon="17.10296630859375">
        <ele>523.84</ele>
        <time>2023-06-13T15:26:33.765Z</time>
      </trkpt>
      <trkpt lat="48.27048685401678" lon="17.102118143811822">
        <ele>523.22</ele>
        <time>2023-06-13T15:26:45.736Z</time>
      </trkpt>
      <trkpt lat="48.27051317319274" lon="17.102087382227182">
        <ele>523.42</ele>
        <time>2023-06-13T15:26:57.708Z</time>
      </trkpt>
      <trkpt lat="48.270514849573374" lon="17.102085538208485">
        <ele>523.44</ele>
        <time>2023-06-13T15:27:09.680Z</time>
      </trkpt>
      <trkpt lat="48.270516442134976" lon="17.10208377800882">
        <ele>523.46</ele>
        <time>2023-06-13T15:27:21.652Z</time>
      </trkpt>
      <trkpt lat="48.27051811851561" lon="17.10208193399012">
        <ele>523.48</ele>
        <time>2023-06-13T15:27:33.624Z</time>
      </trkpt>
      <trkpt lat="48.27048685401678" lon="17.102118143811822">
        <ele>521.37</ele>
        <time>2023-06-13T15:27:45.596Z</time>
      </trkpt>
      <trkpt lat="48.270324328914285" lon="17.101801224052906">
        <ele>521.6</ele>
        <time>2023-06-13T15:27:57.574Z</time>
      </trkpt>
      <trkpt lat="48.27016188763082" lon="17.101484388113022">
        <ele>521.68</ele>
        <time>2023-06-13T15:28:09.557Z</time>
      </trkpt>
      <trkpt lat="48.269999446347356" lon="17.101167552173138">
        <ele>521.47</ele>
        <time>2023-06-13T15:28:21.545Z</time>
      </trkpt>
      <trkpt lat="48.269838094711304" lon="17.100852727890015">
        <ele>520.73</ele>
        <time>2023-06-13T15:28:33.539Z</time>
      </trkpt>
      <trkpt lat="48.26958571560681" lon="17.101121116429567">
        <ele>519.26</ele>
        <time>2023-06-13T15:28:45.539Z</time>
      </trkpt>
      <trkpt lat="48.269333420321345" lon="17.10138950496912">
        <ele>517.68</ele>
        <time>2023-06-13T15:28:57.545Z</time>
      </trkpt>
      <trkpt lat="48.26908112503588" lon="17.101657977327704">
        <ele>516.12</ele>
        <time>2023-06-13T15:29:09.557Z</time>
      </trkpt>
      <trkpt lat="48.268829584121704" lon="17.10192561149597">
        <ele>514.58</ele>
        <time>2023-06-13T15:29:21.576Z</time>
      </trkpt>
      <trkpt lat="48.26865792274475" lon="17.10201144218445">
        <ele>513.22</ele>
        <time>2023-06-13T15:29:33.598Z</time>
      </trkpt>
      <trkpt lat="48.26844334602356" lon="17.10221529006958">
        <ele>511.92</ele>
        <time>2023-06-13T15:29:45.625Z</time>
      </trkpt>
      <trkpt lat="48.268271600827575" lon="17.102322578430176">
        <ele>510.65</ele>
        <time>2023-06-13T15:29:57.656Z</time>
      </trkpt>
      <trkpt lat="48.26810002326965" lon="17.10242986679077">
        <ele>509.34</ele>
        <time>2023-06-13T15:30:09.691Z</time>
      </trkpt>
      <trkpt lat="48.26783113181591" lon="17.10254503414035">
        <ele>507.91</ele>
        <time>2023-06-13T15:30:21.731Z</time>
      </trkpt>
      <trkpt lat="48.26756224036217" lon="17.102660285308957">
        <ele>506.61</ele>
        <time>2023-06-13T15:30:33.777Z</time>
      </trkpt>
      <trkpt lat="48.267293348908424" lon="17.102775536477566">
        <ele>505.22</ele>
        <time>2023-06-13T15:30:45.828Z</time>
      </trkpt>
      <trkpt lat="48.267030492424965" lon="17.10288810543716">
        <ele>504.04</ele>
        <time>2023-06-13T15:30:57.885Z</time>
      </trkpt>
      <trkpt lat="48.26702839694917" lon="17.10288902744651">
        <ele>504.04</ele>
        <time>2023-06-13T15:31:09.942Z</time>
      </trkpt>
      <trkpt lat="48.26702638529241" lon="17.102889949455857">
        <ele>504.04</ele>
        <time>2023-06-13T15:31:21.999Z</time>
      </trkpt>
      <trkpt lat="48.26702445745468" lon="17.102890871465206">
        <ele>504.04</ele>
        <time>2023-06-13T15:31:34.056Z</time>
      </trkpt>
      <trkpt lat="48.266848772764206" lon="17.102966057136655">
        <ele>501.81</ele>
        <time>2023-06-13T15:31:46.117Z</time>
      </trkpt>
      <trkpt lat="48.26667317189276" lon="17.103041410446167">
        <ele>501.09</ele>
        <time>2023-06-13T15:31:58.181Z</time>
      </trkpt>
      <trkpt lat="48.26667308807373" lon="17.103041410446167">
        <ele>500.59</ele>
        <time>2023-06-13T15:32:10.245Z</time>
      </trkpt>
      <trkpt lat="48.26640486717224" lon="17.103148698806763">
        <ele>499.9</ele>
        <time>2023-06-13T15:32:22.315Z</time>
      </trkpt>
      <trkpt lat="48.26620629988611" lon="17.103304266929626">
        <ele>499.48</ele>
        <time>2023-06-13T15:32:34.389Z</time>
      </trkpt>
      <trkpt lat="48.26600790023804" lon="17.10345983505249">
        <ele>498.88</ele>
        <time>2023-06-13T15:32:46.468Z</time>
      </trkpt>
      <trkpt lat="48.26583615504205" lon="17.103567123413086">
        <ele>498.44</ele>
        <time>2023-06-13T15:32:58.551Z</time>
      </trkpt>
      <trkpt lat="48.26566457748413" lon="17.10367441177368">
        <ele>498.04</ele>
        <time>2023-06-13T15:33:10.637Z</time>
      </trkpt>
      <trkpt lat="48.26542669907212" lon="17.103966772556305">
        <ele>497.71</ele>
        <time>2023-06-13T15:33:22.730Z</time>
      </trkpt>
      <trkpt lat="48.26519359834492" lon="17.104253266006708">
        <ele>497.75</ele>
        <time>2023-06-13T15:33:34.829Z</time>
      </trkpt>
      <trkpt lat="48.26519217342138" lon="17.104255110025406">
        <ele>497.76</ele>
        <time>2023-06-13T15:33:46.928Z</time>
      </trkpt>
      <trkpt lat="48.265190748497844" lon="17.104256954044104">
        <ele>497.77</ele>
        <time>2023-06-13T15:33:59.027Z</time>
      </trkpt>
      <trkpt lat="48.265189407393336" lon="17.10425871424377">
        <ele>497.78</ele>
        <time>2023-06-13T15:34:11.126Z</time>
      </trkpt>
      <trkpt lat="48.26502981595695" lon="17.104454850777984">
        <ele>497.78</ele>
        <time>2023-06-13T15:34:23.229Z</time>
      </trkpt>
      <trkpt lat="48.26487064361572" lon="17.104650735855103">
        <ele>497.12</ele>
        <time>2023-06-13T15:34:35.336Z</time>
      </trkpt>
      <trkpt lat="48.26471658423543" lon="17.104933625087142">
        <ele>496.07</ele>
        <time>2023-06-13T15:34:47.448Z</time>
      </trkpt>
      <trkpt lat="48.26456260867417" lon="17.105216598138213">
        <ele>494.73</ele>
        <time>2023-06-13T15:34:59.565Z</time>
      </trkpt>
      <trkpt lat="48.26440930366516" lon="17.10549831390381">
        <ele>493.24</ele>
        <time>2023-06-13T15:35:11.687Z</time>
      </trkpt>
      <trkpt lat="48.26419975608587" lon="17.105850102379918">
        <ele>491.58</ele>
        <time>2023-06-13T15:35:23.815Z</time>
      </trkpt>
      <trkpt lat="48.263990292325616" lon="17.10620197467506">
        <ele>490.23</ele>
        <time>2023-06-13T15:35:35.949Z</time>
      </trkpt>
      <trkpt lat="48.26378074474633" lon="17.1065538469702">
        <ele>488.79</ele>
        <time>2023-06-13T15:35:48.089Z</time>
      </trkpt>
      <trkpt lat="48.263572454452515" lon="17.106903791427612">
        <ele>487.53</ele>
        <time>2023-06-13T15:36:00.236Z</time>
      </trkpt>
      <trkpt lat="48.26342375949025" lon="17.107256082817912">
        <ele>485.84</ele>
        <time>2023-06-13T15:36:12.388Z</time>
      </trkpt>
      <trkpt lat="48.26327506452799" lon="17.107608374208212">
        <ele>484.27</ele>
        <time>2023-06-13T15:36:24.546Z</time>
      </trkpt>
      <trkpt lat="48.26312645338476" lon="17.107960749417543">
        <ele>482.38</ele>
        <time>2023-06-13T15:36:36.709Z</time>
      </trkpt>
      <trkpt lat="48.262977758422494" lon="17.108313040807843">
        <ele>480.17</ele>
        <time>2023-06-13T15:36:48.878Z</time>
      </trkpt>
      <trkpt lat="48.26282914727926" lon="17.108665416017175">
        <ele>477.66</ele>
        <time>2023-06-13T15:37:01.053Z</time>
      </trkpt>
      <trkpt lat="48.262680452317" lon="17.109017707407475">
        <ele>475.72</ele>
        <time>2023-06-13T15:37:13.233Z</time>
      </trkpt>
      <trkpt lat="48.26253636740148" lon="17.109358934685588">
        <ele>474.18</ele>
        <time>2023-06-13T15:37:25.419Z</time>
      </trkpt>
      <trkpt lat="48.26253544539213" lon="17.109361197799444">
        <ele>474.17</ele>
        <time>2023-06-13T15:37:37.605Z</time>
      </trkpt>
      <trkpt lat="48.262534607201815" lon="17.10936337709427">
        <ele>474.16</ele>
        <time>2023-06-13T15:37:49.791Z</time>
      </trkpt>
      <trkpt lat="48.2625337690115" lon="17.10936547257006">
        <ele>474.15</ele>
        <time>2023-06-13T15:38:01.977Z</time>
      </trkpt>
      <trkpt lat="48.26249957084656" lon="17.10944652557373">
        <ele>471.21</ele>
        <time>2023-06-13T15:38:14.164Z</time>
      </trkpt>
      <trkpt lat="48.2623419072479" lon="17.109765289351344">
        <ele>469.33</ele>
        <time>2023-06-13T15:38:26.356Z</time>
      </trkpt>
      <trkpt lat="48.262184327468276" lon="17.11008413694799">
        <ele>467.01</ele>
        <time>2023-06-13T15:38:38.554Z</time>
      </trkpt>
      <trkpt lat="48.26202750205994" lon="17.110401391983032">
        <ele>464.11</ele>
        <time>2023-06-13T15:38:50.757Z</time>
      </trkpt>
      <trkpt lat="48.26180202886462" lon="17.110605323687196">
        <ele>460.92</ele>
        <time>2023-06-13T15:39:02.965Z</time>
      </trkpt>
      <trkpt lat="48.261576890945435" lon="17.110809087753296">
        <ele>457.75</ele>
        <time>2023-06-13T15:39:15.178Z</time>
      </trkpt>
      <trkpt lat="48.2612765673548" lon="17.11091637611389">
        <ele>454.45</ele>
        <time>2023-06-13T15:39:27.397Z</time>
      </trkpt>
      <trkpt lat="48.26127648353577" lon="17.11091637611389">
        <ele>451.62</ele>
        <time>2023-06-13T15:39:39.617Z</time>
      </trkpt>
      <trkpt lat="48.26113315299153" lon="17.111184932291508">
        <ele>448.19</ele>
        <time>2023-06-13T15:39:51.841Z</time>
      </trkpt>
      <trkpt lat="48.26098990626633" lon="17.111453572288156">
        <ele>444.76</ele>
        <time>2023-06-13T15:40:04.070Z</time>
      </trkpt>
      <trkpt lat="48.260847330093384" lon="17.11172103881836">
        <ele>441.55</ele>
        <time>2023-06-13T15:40:16.303Z</time>
      </trkpt>
      <trkpt lat="48.260600566864014" lon="17.111645936965942">
        <ele>438.43</ele>
        <time>2023-06-13T15:40:28.541Z</time>
      </trkpt>
      <trkpt lat="48.26049327850342" lon="17.111796140670776">
        <ele>435.51</ele>
        <time>2023-06-13T15:40:40.782Z</time>
      </trkpt>
      <trkpt lat="48.260300159454346" lon="17.11169958114624">
        <ele>432.52</ele>
        <time>2023-06-13T15:40:53.027Z</time>
      </trkpt>
      <trkpt lat="48.26012849807739" lon="17.111624479293823">
        <ele>429.56</ele>
        <time>2023-06-13T15:41:05.276Z</time>
      </trkpt>
      <trkpt lat="48.25989246368408" lon="17.1117103099823">
        <ele>426.42</ele>
        <time>2023-06-13T15:41:17.530Z</time>
      </trkpt>
      <trkpt lat="48.25971007347107" lon="17.11149573326111">
        <ele>423.2</ele>
        <time>2023-06-13T15:41:29.788Z</time>
      </trkpt>
      <trkpt lat="48.25943112373352" lon="17.11143136024475">
        <ele>419.85</ele>
        <time>2023-06-13T15:41:42.052Z</time>
      </trkpt>
      <trkpt lat="48.25918972492218" lon="17.111468827351928">
        <ele>416.68</ele>
        <time>2023-06-13T15:41:54.321Z</time>
      </trkpt>
      <trkpt lat="48.25894832611084" lon="17.111506462097168">
        <ele>413.58</ele>
        <time>2023-06-13T15:42:06.595Z</time>
      </trkpt>
      <trkpt lat="48.25866577215493" lon="17.111434880644083">
        <ele>410.44</ele>
        <time>2023-06-13T15:42:18.875Z</time>
      </trkpt>
      <trkpt lat="48.258383302018046" lon="17.11136338301003">
        <ele>407.28</ele>
        <time>2023-06-13T15:42:31.160Z</time>
      </trkpt>
      <trkpt lat="48.258100748062134" lon="17.111291885375977">
        <ele>403.92</ele>
        <time>2023-06-13T15:42:43.451Z</time>
      </trkpt>
      <trkpt lat="48.25786110945046" lon="17.111427756026387">
        <ele>400.37</ele>
        <time>2023-06-13T15:42:55.747Z</time>
      </trkpt>
      <trkpt lat="48.257621470838785" lon="17.111563626676798">
        <ele>396.89</ele>
        <time>2023-06-13T15:43:08.048Z</time>
      </trkpt>
      <trkpt lat="48.25738191604614" lon="17.11169958114624">
        <ele>393.2</ele>
        <time>2023-06-13T15:43:20.354Z</time>
      </trkpt>
      <trkpt lat="48.25721025466919" lon="17.111651301383972">
        <ele>389.88</ele>
        <time>2023-06-13T15:43:32.664Z</time>
      </trkpt>
      <trkpt lat="48.257038593292236" lon="17.111603021621704">
        <ele>386.59</ele>
        <time>2023-06-13T15:43:44.977Z</time>
      </trkpt>
      <trkpt lat="48.25697422027588" lon="17.11142063140869">
        <ele>383.51</ele>
        <time>2023-06-13T15:43:57.293Z</time>
      </trkpt>
      <trkpt lat="48.25713515281677" lon="17.111045122146606">
        <ele>380.64</ele>
        <time>2023-06-13T15:44:09.615Z</time>
      </trkpt>
      <trkpt lat="48.25716197490692" lon="17.11073314771056">
        <ele>377.55</ele>
        <time>2023-06-13T15:44:21.941Z</time>
      </trkpt>
      <trkpt lat="48.25718879699707" lon="17.11042284965515">
        <ele>374.05</ele>
        <time>2023-06-13T15:44:34.271Z</time>
      </trkpt>
      <trkpt lat="48.25717798434198" lon="17.110169967636466">
        <ele>370.31</ele>
        <time>2023-06-13T15:44:46.605Z</time>
      </trkpt>
      <trkpt lat="48.25716733932495" lon="17.10991859436035">
        <ele>366.24</ele>
        <time>2023-06-13T15:44:58.942Z</time>
      </trkpt>
      <trkpt lat="48.25708670541644" lon="17.10969278588891">
        <ele>361.99</ele>
        <time>2023-06-13T15:45:11.283Z</time>
      </trkpt>
      <trkpt lat="48.25700640678406" lon="17.10946798324585">
        <ele>357.58</ele>
        <time>2023-06-13T15:45:23.627Z</time>
      </trkpt>
      <trkpt lat="48.25683449395001" lon="17.109237061813474">
        <ele>352.93</ele>
        <time>2023-06-13T15:45:35.976Z</time>
      </trkpt>
      <trkpt lat="48.25666308403015" lon="17.109006643295288">
        <ele>348.26</ele>
        <time>2023-06-13T15:45:48.329Z</time>
      </trkpt>
      <trkpt lat="48.25650751590729" lon="17.10893145762384">
        <ele>343.7</ele>
        <time>2023-06-13T15:46:00.686Z</time>
      </trkpt>
      <trkpt lat="48.256352031603456" lon="17.108856439590454">
        <ele>339.15</ele>
        <time>2023-06-13T15:46:13.046Z</time>
      </trkpt>
      <trkpt lat="48.25611591339111" lon="17.10895299911499">
        <ele>334.81</ele>
        <time>2023-06-13T15:46:25.411Z</time>
      </trkpt>
      <trkpt lat="48.25591742992401" lon="17.108990466222167">
        <ele>330.31</ele>
        <time>2023-06-13T15:46:37.780Z</time>
      </trkpt>
      <trkpt lat="48.25571894645691" lon="17.109028100967407">
        <ele>325.81</ele>
        <time>2023-06-13T15:46:50.153Z</time>
      </trkpt>
      <trkpt lat="48.25545072555542" lon="17.109006643295288">
        <ele>321.01</ele>
        <time>2023-06-13T15:47:02.531Z</time>
      </trkpt>
      <trkpt lat="48.25518258847296" lon="17.10898518562317">
        <ele>316.6</ele>
        <time>2023-06-13T15:47:14.914Z</time>
      </trkpt>
      <trkpt lat="48.254914451390505" lon="17.10896372795105">
        <ele>312.44</ele>
        <time>2023-06-13T15:47:27.303Z</time>
      </trkpt>
      <trkpt lat="48.25464606285095" lon="17.10894227027893">
        <ele>308.41</ele>
        <time>2023-06-13T15:47:39.697Z</time>
      </trkpt>
      <trkpt lat="48.25440466403961" lon="17.108877897262573">
        <ele>304.26</ele>
        <time>2023-06-13T15:47:52.096Z</time>
      </trkpt>
      <trkpt lat="48.25416326522827" lon="17.108813524246216">
        <ele>300.3</ele>
        <time>2023-06-13T15:48:04.500Z</time>
      </trkpt>
      <trkpt lat="48.25390577316284" lon="17.108802795410156">
        <ele>296.66</ele>
        <time>2023-06-13T15:48:16.909Z</time>
      </trkpt>
      <trkpt lat="48.253852128982544" lon="17.108770608901978">
        <ele>293.56</ele>
        <time>2023-06-13T15:48:29.319Z</time>
      </trkpt>
      <trkpt lat="48.253819942474365" lon="17.10870623588562">
        <ele>290.65</ele>
        <time>2023-06-13T15:48:41.730Z</time>
      </trkpt>
      <trkpt lat="48.25377702713013" lon="17.108566761016846">
        <ele>287.87</ele>
        <time>2023-06-13T15:48:54.143Z</time>
      </trkpt>
      <trkpt lat="48.25373411178589" lon="17.108556032180786">
        <ele>285.65</ele>
        <time>2023-06-13T15:49:06.557Z</time>
      </trkpt>
      <trkpt lat="48.2539648655802" lon="17.10837355814874">
        <ele>283.75</ele>
        <time>2023-06-13T15:49:18.977Z</time>
      </trkpt>
      <trkpt lat="48.254195619374514" lon="17.108191084116697">
        <ele>281.93</ele>
        <time>2023-06-13T15:49:31.402Z</time>
      </trkpt>
      <trkpt lat="48.254426373168826" lon="17.108008610084653">
        <ele>280.25</ele>
        <time>2023-06-13T15:49:43.832Z</time>
      </trkpt>
      <trkpt lat="48.25465679168701" lon="17.107826471328735">
        <ele>279.05</ele>
        <time>2023-06-13T15:49:56.267Z</time>
      </trkpt>
      <trkpt lat="48.25488209724426" lon="17.107568979263306">
        <ele>278.06</ele>
        <time>2023-06-13T15:50:08.708Z</time>
      </trkpt>
      <trkpt lat="48.25508074834943" lon="17.10731115192175">
        <ele>277.33</ele>
        <time>2023-06-13T15:50:21.154Z</time>
      </trkpt>
      <trkpt lat="48.2552791479975" lon="17.107053995132446">
        <ele>276.76</ele>
        <time>2023-06-13T15:50:33.605Z</time>
      </trkpt>
      <trkpt lat="48.255343521013856" lon="17.10697889328003">
        <ele>276.37</ele>
        <time>2023-06-13T15:50:46.058Z</time>
      </trkpt>
      <trkpt lat="48.25559045188129" lon="17.106715785339475">
        <ele>276.13</ele>
        <time>2023-06-13T15:50:58.517Z</time>
      </trkpt>
      <trkpt lat="48.255837047472596" lon="17.10645318031311">
        <ele>275.97</ele>
        <time>2023-06-13T15:51:10.982Z</time>
      </trkpt>
      <trkpt lat="48.25600862503052" lon="17.1062171459198">
        <ele>275.67</ele>
        <time>2023-06-13T15:51:23.452Z</time>
      </trkpt>
      <trkpt lat="48.25613737106323" lon="17.10592746734619">
        <ele>275.18</ele>
        <time>2023-06-13T15:51:35.926Z</time>
      </trkpt>
      <trkpt lat="48.256137454882264" lon="17.10592746734619">
        <ele>275.04</ele>
        <time>2023-06-13T15:51:48.400Z</time>
      </trkpt>
      <trkpt lat="48.25622336938977" lon="17.10566938854754">
        <ele>274.73</ele>
        <time>2023-06-13T15:52:00.878Z</time>
      </trkpt>
      <trkpt lat="48.256309032440186" lon="17.105412483215332">
        <ele>274.83</ele>
        <time>2023-06-13T15:52:13.360Z</time>
      </trkpt>
      <trkpt lat="48.25642704963684" lon="17.105262279510498">
        <ele>275.47</ele>
        <time>2023-06-13T15:52:25.845Z</time>
      </trkpt>
      <trkpt lat="48.25642713345587" lon="17.105262279510498">
        <ele>276.02</ele>
        <time>2023-06-13T15:52:38.330Z</time>
      </trkpt>
      <trkpt lat="48.25665235519409" lon="17.105015516281128">
        <ele>276.9</ele>
        <time>2023-06-13T15:52:50.821Z</time>
      </trkpt>
      <trkpt lat="48.25678126886487" lon="17.10480060428381">
        <ele>277.21</ele>
        <time>2023-06-13T15:53:03.316Z</time>
      </trkpt>
      <trkpt lat="48.25690984725952" lon="17.104586362838745">
        <ele>277.26</ele>
        <time>2023-06-13T15:53:15.815Z</time>
      </trkpt>
      <trkpt lat="48.25713498517871" lon="17.10428855381906">
        <ele>277.26</ele>
        <time>2023-06-13T15:53:28.320Z</time>
      </trkpt>
      <trkpt lat="48.25713641010225" lon="17.104286709800363">
        <ele>277.26</ele>
        <time>2023-06-13T15:53:40.825Z</time>
      </trkpt>
      <trkpt lat="48.25713783502579" lon="17.104284949600697">
        <ele>277.26</ele>
        <time>2023-06-13T15:53:53.330Z</time>
      </trkpt>
      <trkpt lat="48.25713934376836" lon="17.104283105582">
        <ele>277.26</ele>
        <time>2023-06-13T15:54:05.835Z</time>
      </trkpt>
      <trkpt lat="48.25721025466919" lon="17.10418939590454">
        <ele>281.32</ele>
        <time>2023-06-13T15:54:18.342Z</time>
      </trkpt>
      <trkpt lat="48.25736070983112" lon="17.10387230850756">
        <ele>281.41</ele>
        <time>2023-06-13T15:54:30.854Z</time>
      </trkpt>
      <trkpt lat="48.25751066207886" lon="17.103556394577026">
        <ele>281.64</ele>
        <time>2023-06-13T15:54:43.371Z</time>
      </trkpt>
      <trkpt lat="48.257666397839785" lon="17.10327702574432">
        <ele>281.71</ele>
        <time>2023-06-13T15:54:55.893Z</time>
      </trkpt>
      <trkpt lat="48.257821798324585" lon="17.10299849510193">
        <ele>281.77</ele>
        <time>2023-06-13T15:55:08.420Z</time>
      </trkpt>
      <trkpt lat="48.257918525487185" lon="17.10274586454034">
        <ele>281.67</ele>
        <time>2023-06-13T15:55:20.951Z</time>
      </trkpt>
      <trkpt lat="48.25801491737366" lon="17.10249423980713">
        <ele>281.19</ele>
        <time>2023-06-13T15:55:33.485Z</time>
      </trkpt>
      <trkpt lat="48.25806328095496" lon="17.102257618680596">
        <ele>280.19</ele>
        <time>2023-06-13T15:55:46.023Z</time>
      </trkpt>
      <trkpt lat="48.25811147689819" lon="17.102022171020508">
        <ele>278.88</ele>
        <time>2023-06-13T15:55:58.564Z</time>
      </trkpt>
      <trkpt lat="48.25820803642273" lon="17.10171103477478">
        <ele>277.6</ele>
        <time>2023-06-13T15:56:11.110Z</time>
      </trkpt>
      <trkpt lat="48.25829395093024" lon="17.10147500038147">
        <ele>276.22</ele>
        <time>2023-06-13T15:56:23.659Z</time>
      </trkpt>
      <trkpt lat="48.258347595110536" lon="17.101346254348755">
        <ele>275.06</ele>
        <time>2023-06-13T15:56:36.210Z</time>
      </trkpt>
      <trkpt lat="48.25841188430786" lon="17.10120677947998">
        <ele>274.03</ele>
        <time>2023-06-13T15:56:48.764Z</time>
      </trkpt>
      <trkpt lat="48.258580192923546" lon="17.100830599665642">
        <ele>272.82</ele>
        <time>2023-06-13T15:57:01.324Z</time>
      </trkpt>
      <trkpt lat="48.25874858535826" lon="17.100454419851303">
        <ele>271.85</ele>
        <time>2023-06-13T15:57:13.890Z</time>
      </trkpt>
      <trkpt lat="48.25891613960266" lon="17.100080251693726">
        <ele>271.45</ele>
        <time>2023-06-13T15:57:26.462Z</time>
      </trkpt>
      <trkpt lat="48.25899124145508" lon="17.099887132644653">
        <ele>270.79</ele>
        <time>2023-06-13T15:57:39.037Z</time>
      </trkpt>
      <trkpt lat="48.25906651094556" lon="17.09959133528173">
        <ele>269.85</ele>
        <time>2023-06-13T15:57:51.616Z</time>
      </trkpt>
      <trkpt lat="48.25914144515991" lon="17.099297046661377">
        <ele>268.97</ele>
        <time>2023-06-13T15:58:04.199Z</time>
      </trkpt>
      <trkpt lat="48.25919508934021" lon="17.099114656448364">
        <ele>268.16</ele>
        <time>2023-06-13T15:58:16.785Z</time>
      </trkpt>
      <trkpt lat="48.25937747955322" lon="17.098803520202637">
        <ele>267.79</ele>
        <time>2023-06-13T15:58:29.376Z</time>
      </trkpt>
      <trkpt lat="48.259538412094116" lon="17.09843873977661">
        <ele>267.21</ele>
        <time>2023-06-13T15:58:41.973Z</time>
      </trkpt>
      <trkpt lat="48.25965642929077" lon="17.098095417022705">
        <ele>266.41</ele>
        <time>2023-06-13T15:58:54.575Z</time>
      </trkpt>
      <trkpt lat="48.25973153114319" lon="17.097676992416382">
        <ele>265.79</ele>
        <time>2023-06-13T15:59:07.183Z</time>
      </trkpt>
      <trkpt lat="48.25975298881531" lon="17.09745168685913">
        <ele>264.9</ele>
        <time>2023-06-13T15:59:19.794Z</time>
      </trkpt>
      <trkpt lat="48.25975298881531" lon="17.09720492362976">
        <ele>263.78</ele>
        <time>2023-06-13T15:59:32.408Z</time>
      </trkpt>
      <trkpt lat="48.259742176160216" lon="17.096860595047474">
        <ele>262.4</ele>
        <time>2023-06-13T15:59:45.027Z</time>
      </trkpt>
      <trkpt lat="48.25973144732416" lon="17.09651635028422">
        <ele>260.56</ele>
        <time>2023-06-13T15:59:57.651Z</time>
      </trkpt>
      <trkpt lat="48.25972080230713" lon="17.096174955368042">
        <ele>258.52</ele>
        <time>2023-06-13T16:00:10.279Z</time>
      </trkpt>
      <trkpt lat="48.2597101572901" lon="17.095853090286255">
        <ele>256.64</ele>
        <time>2023-06-13T16:00:22.912Z</time>
      </trkpt>
      <trkpt lat="48.25973697938025" lon="17.09561102092266">
        <ele>255.0</ele>
        <time>2023-06-13T16:00:35.548Z</time>
      </trkpt>
      <trkpt lat="48.25976371765137" lon="17.095370292663574">
        <ele>253.41</ele>
        <time>2023-06-13T16:00:48.187Z</time>
      </trkpt>
      <trkpt lat="48.259838819503784" lon="17.09496259689331">
        <ele>251.75</ele>
        <time>2023-06-13T16:01:00.832Z</time>
      </trkpt>
      <trkpt lat="48.25993537902832" lon="17.094597816467285">
        <ele>250.12</ele>
        <time>2023-06-13T16:01:13.482Z</time>
      </trkpt>
      <trkpt lat="48.25999983586371" lon="17.094371924176812">
        <ele>248.73</ele>
        <time>2023-06-13T16:01:26.135Z</time>
      </trkpt>
      <trkpt lat="48.260064125061035" lon="17.094147205352783">
        <ele>247.56</ele>
        <time>2023-06-13T16:01:38.791Z</time>
      </trkpt>
      <trkpt lat="48.260139394551516" lon="17.09380840882659">
        <ele>246.47</ele>
        <time>2023-06-13T16:01:51.452Z</time>
      </trkpt>
      <trkpt lat="48.26021432876587" lon="17.09347128868103">
        <ele>245.45</ele>
        <time>2023-06-13T16:02:04.118Z</time>
      </trkpt>
      <trkpt lat="48.2602680567652" lon="17.093170126900077">
        <ele>244.53</ele>
        <time>2023-06-13T16:02:16.788Z</time>
      </trkpt>
      <trkpt lat="48.260321617126465" lon="17.092870473861694">
        <ele>243.7</ele>
        <time>2023-06-13T16:02:29.462Z</time>
      </trkpt>
      <trkpt lat="48.260353887453675" lon="17.092602252960205">
        <ele>242.92</ele>
        <time>2023-06-13T16:02:42.140Z</time>
      </trkpt>
      <trkpt lat="48.260353803634644" lon="17.092537879943848">
        <ele>242.36</ele>
        <time>2023-06-13T16:02:54.819Z</time>
      </trkpt>
      <trkpt lat="48.260353887453675" lon="17.092537879943848">
        <ele>241.89</ele>
        <time>2023-06-13T16:03:07.498Z</time>
      </trkpt>
      <trkpt lat="48.260369980707765" lon="17.092198999598622">
        <ele>241.39</ele>
        <time>2023-06-13T16:03:20.181Z</time>
      </trkpt>
      <trkpt lat="48.26038599014282" lon="17.091861963272095">
        <ele>241.06</ele>
        <time>2023-06-13T16:03:32.869Z</time>
      </trkpt>
      <trkpt lat="48.26042898930609" lon="17.091630706563592">
        <ele>240.83</ele>
        <time>2023-06-13T16:03:45.560Z</time>
      </trkpt>
      <trkpt lat="48.2604718208313" lon="17.091400623321533">
        <ele>240.75</ele>
        <time>2023-06-13T16:03:58.254Z</time>
      </trkpt>
      <trkpt lat="48.260607942938805" lon="17.091002818197012">
        <ele>240.76</ele>
        <time>2023-06-13T16:04:10.954Z</time>
      </trkpt>
      <trkpt lat="48.26074414886534" lon="17.09060501307249">
        <ele>240.79</ele>
        <time>2023-06-13T16:04:23.660Z</time>
      </trkpt>
      <trkpt lat="48.26087951660156" lon="17.09020972251892">
        <ele>240.87</ele>
        <time>2023-06-13T16:04:36.372Z</time>
      </trkpt>
      <trkpt lat="48.260958306491375" lon="17.089833291247487">
        <ele>241.02</ele>
        <time>2023-06-13T16:04:49.089Z</time>
      </trkpt>
      <trkpt lat="48.26103718020022" lon="17.089456859976053">
        <ele>241.18</ele>
        <time>2023-06-13T16:05:01.812Z</time>
      </trkpt>
      <trkpt lat="48.26111555099487" lon="17.089083194732666">
        <ele>241.28</ele>
        <time>2023-06-13T16:05:14.540Z</time>
      </trkpt>
      <trkpt lat="48.26120154932141" lon="17.088819751515985">
        <ele>241.47</ele>
        <time>2023-06-13T16:05:27.272Z</time>
      </trkpt>
      <trkpt lat="48.261287212371826" lon="17.088557481765747">
        <ele>241.67</ele>
        <time>2023-06-13T16:05:40.008Z</time>
      </trkpt>
      <trkpt lat="48.261410761624575" lon="17.088224217295647">
        <ele>241.98</ele>
        <time>2023-06-13T16:05:52.749Z</time>
      </trkpt>
      <trkpt lat="48.261533975601196" lon="17.087892293930054">
        <ele>242.14</ele>
        <time>2023-06-13T16:06:05.495Z</time>
      </trkpt>
      <trkpt lat="48.26170563697815" lon="17.087548971176147">
        <ele>242.24</ele>
        <time>2023-06-13T16:06:18.247Z</time>
      </trkpt>
      <trkpt lat="48.26188467442989" lon="17.087255269289017">
        <ele>242.38</ele>
        <time>2023-06-13T16:06:31.004Z</time>
      </trkpt>
      <trkpt lat="48.26206371188164" lon="17.086961651220918">
        <ele>242.54</ele>
        <time>2023-06-13T16:06:43.766Z</time>
      </trkpt>
      <trkpt lat="48.26224207878113" lon="17.086669206619263">
        <ele>242.62</ele>
        <time>2023-06-13T16:06:56.534Z</time>
      </trkpt>
      <trkpt lat="48.262408543378115" lon="17.086368296295404">
        <ele>242.45</ele>
        <time>2023-06-13T16:07:09.307Z</time>
      </trkpt>
      <trkpt lat="48.262574672698975" lon="17.086068391799927">
        <ele>242.01</ele>
        <time>2023-06-13T16:07:22.085Z</time>
      </trkpt>
      <trkpt lat="48.26266050338745" lon="17.085843086242676">
        <ele>241.43</ele>
        <time>2023-06-13T16:07:34.867Z</time>
      </trkpt>
      <trkpt lat="48.26277868822217" lon="17.085574362426996">
        <ele>240.69</ele>
        <time>2023-06-13T16:07:47.653Z</time>
      </trkpt>
      <trkpt lat="48.26289695687592" lon="17.085305638611317">
        <ele>239.89</ele>
        <time>2023-06-13T16:08:00.443Z</time>
      </trkpt>
      <trkpt lat="48.26301455497742" lon="17.085038423538208">
        <ele>239.11</ele>
        <time>2023-06-13T16:08:13.237Z</time>
      </trkpt>
      <trkpt lat="48.26317548751831" lon="17.0846951007843">
        <ele>238.36</ele>
        <time>2023-06-13T16:08:26.037Z</time>
      </trkpt>
      <trkpt lat="48.26335276477039" lon="17.084367368370295">
        <ele>237.48</ele>
        <time>2023-06-13T16:08:38.843Z</time>
      </trkpt>
      <trkpt lat="48.263529539108276" lon="17.084040641784668">
        <ele>236.49</ele>
        <time>2023-06-13T16:08:51.654Z</time>
      </trkpt>
      <trkpt lat="48.263583183288574" lon="17.083858251571655">
        <ele>235.6</ele>
        <time>2023-06-13T16:09:04.468Z</time>
      </trkpt>
      <trkpt lat="48.26364764012396" lon="17.083551725372672">
        <ele>234.8</ele>
        <time>2023-06-13T16:09:17.286Z</time>
      </trkpt>
      <trkpt lat="48.26371192932129" lon="17.08324670791626">
        <ele>234.03</ele>
        <time>2023-06-13T16:09:30.108Z</time>
      </trkpt>
      <trkpt lat="48.26373338699341" lon="17.082914113998413">
        <ele>233.29</ele>
        <time>2023-06-13T16:09:42.935Z</time>
      </trkpt>
      <trkpt lat="48.26376020908356" lon="17.08262904547155">
        <ele>232.66</ele>
        <time>2023-06-13T16:09:55.766Z</time>
      </trkpt>
      <trkpt lat="48.263787031173706" lon="17.082345485687256">
        <ele>232.05</ele>
        <time>2023-06-13T16:10:08.601Z</time>
      </trkpt>
      <trkpt lat="48.263830030336976" lon="17.082081958651543">
        <ele>231.62</ele>
        <time>2023-06-13T16:10:21.439Z</time>
      </trkpt>
      <trkpt lat="48.26387286186218" lon="17.081819772720337">
        <ele>231.22</ele>
        <time>2023-06-13T16:10:34.281Z</time>
      </trkpt>
      <trkpt lat="48.26386213302612" lon="17.08145499229431">
        <ele>230.88</ele>
        <time>2023-06-13T16:10:47.128Z</time>
      </trkpt>
      <trkpt lat="48.26380857266486" lon="17.081304788589478">
        <ele>230.59</ele>
        <time>2023-06-13T16:10:59.977Z</time>
      </trkpt>
      <trkpt lat="48.26373338699341" lon="17.081197500228882">
        <ele>230.35</ele>
        <time>2023-06-13T16:11:12.828Z</time>
      </trkpt>
      <trkpt lat="48.26363766565919" lon="17.08096724934876">
        <ele>230.14</ele>
        <time>2023-06-13T16:11:25.683Z</time>
      </trkpt>
      <trkpt lat="48.2635454647243" lon="17.080745296552777">
        <ele>230.09</ele>
        <time>2023-06-13T16:11:38.541Z</time>
      </trkpt>
      <trkpt lat="48.26354437507689" lon="17.080742698162794">
        <ele>230.09</ele>
        <time>2023-06-13T16:11:51.399Z</time>
      </trkpt>
      <trkpt lat="48.26354336924851" lon="17.080740267410874">
        <ele>230.09</ele>
        <time>2023-06-13T16:12:04.257Z</time>
      </trkpt>
      <trkpt lat="48.26354244723916" lon="17.080737920477986">
        <ele>230.09</ele>
        <time>2023-06-13T16:12:17.115Z</time>
      </trkpt>
      <trkpt lat="48.26354160904884" lon="17.08073574118316">
        <ele>228.32</ele>
        <time>2023-06-13T16:12:29.973Z</time>
      </trkpt>
      <trkpt lat="48.26354160904884" lon="17.080735825002193">
        <ele>229.95</ele>
        <time>2023-06-13T16:12:42.831Z</time>
      </trkpt>
      <trkpt lat="48.2634437084198" lon="17.08050012588501">
        <ele>230.23</ele>
        <time>2023-06-13T16:12:55.693Z</time>
      </trkpt>
      <trkpt lat="48.26337933540344" lon="17.080371379852295">
        <ele>230.64</ele>
        <time>2023-06-13T16:13:08.557Z</time>
      </trkpt>
      <trkpt lat="48.263078927993774" lon="17.08002805709839">
        <ele>231.21</ele>
        <time>2023-06-13T16:13:21.429Z</time>
      </trkpt>
      <trkpt lat="48.262553215026855" lon="17.079330682754517">
        <ele>232.34</ele>
        <time>2023-06-13T16:13:34.315Z</time>
      </trkpt>
      <trkpt lat="48.262306451797485" lon="17.079319953918457">
        <ele>233.65</ele>
        <time>2023-06-13T16:13:47.206Z</time>
      </trkpt>
      <trkpt lat="48.26219916343689" lon="17.079373598098755">
        <ele>234.95</ele>
        <time>2023-06-13T16:14:00.099Z</time>
      </trkpt>
      <trkpt lat="48.2618772983551" lon="17.079674005508423">
        <ele>236.56</ele>
        <time>2023-06-13T16:14:13.000Z</time>
      </trkpt>
      <trkpt lat="48.26174855232239" lon="17.0797061920166">
        <ele>238.2</ele>
        <time>2023-06-13T16:14:25.903Z</time>
      </trkpt>
      <trkpt lat="48.26161980628967" lon="17.079663276672363">
        <ele>240.01</ele>
        <time>2023-06-13T16:14:38.809Z</time>
      </trkpt>
      <trkpt lat="48.261330127716064" lon="17.079663276672363">
        <ele>241.95</ele>
        <time>2023-06-13T16:14:51.721Z</time>
      </trkpt>
      <trkpt lat="48.26118000783026" lon="17.0797598361969">
        <ele>244.04</ele>
        <time>2023-06-13T16:15:04.636Z</time>
      </trkpt>
      <trkpt lat="48.2609760761261" lon="17.079942226409912">
        <ele>246.58</ele>
        <time>2023-06-13T16:15:17.556Z</time>
      </trkpt>
      <trkpt lat="48.260793685913086" lon="17.080049514770508">
        <ele>249.25</ele>
        <time>2023-06-13T16:15:30.480Z</time>
      </trkpt>
      <trkpt lat="48.2602144125849" lon="17.080382108688354">
        <ele>252.56</ele>
        <time>2023-06-13T16:15:43.416Z</time>
      </trkpt>
      <trkpt lat="48.26021432876587" lon="17.080382108688354">
        <ele>254.92</ele>
        <time>2023-06-13T16:15:56.352Z</time>
      </trkpt>
      <trkpt lat="48.25996764935553" lon="17.080661058425903">
        <ele>257.8</ele>
        <time>2023-06-13T16:16:09.294Z</time>
      </trkpt>
      <trkpt lat="48.25975298881531" lon="17.080907821655273">
        <ele>260.52</ele>
        <time>2023-06-13T16:16:22.242Z</time>
      </trkpt>
      <trkpt lat="48.259334564208984" lon="17.081304788589478">
        <ele>263.43</ele>
        <time>2023-06-13T16:16:35.200Z</time>
      </trkpt>
      <trkpt lat="48.25921663083136" lon="17.08149790763855">
        <ele>265.87</ele>
        <time>2023-06-13T16:16:48.161Z</time>
      </trkpt>
      <trkpt lat="48.259003311395645" lon="17.081710807979107">
        <ele>268.05</ele>
        <time>2023-06-13T16:17:01.127Z</time>
      </trkpt>
      <trkpt lat="48.25900155119598" lon="17.081712651997805">
        <ele>268.07</ele>
        <time>2023-06-13T16:17:14.093Z</time>
      </trkpt>
      <trkpt lat="48.25899979099631" lon="17.081714496016502">
        <ele>268.09</ele>
        <time>2023-06-13T16:17:27.059Z</time>
      </trkpt>
      <trkpt lat="48.25899819843471" lon="17.081716172397137">
        <ele>268.11</ele>
        <time>2023-06-13T16:17:40.025Z</time>
      </trkpt>
      <trkpt lat="48.25899627059698" lon="17.081718184053898">
        <ele>268.14</ele>
        <time>2023-06-13T16:17:52.991Z</time>
      </trkpt>
      <trkpt lat="48.25894832611084" lon="17.08176612854004">
        <ele>269.08</ele>
        <time>2023-06-13T16:18:05.959Z</time>
      </trkpt>
      <trkpt lat="48.25852998532355" lon="17.082141637802124">
        <ele>269.89</ele>
        <time>2023-06-13T16:18:18.936Z</time>
      </trkpt>
      <trkpt lat="48.258379781618714" lon="17.082324028015137">
        <ele>270.67</ele>
        <time>2023-06-13T16:18:31.917Z</time>
      </trkpt>
      <trkpt lat="48.258111560717225" lon="17.082570791244507">
        <ele>271.6</ele>
        <time>2023-06-13T16:18:44.904Z</time>
      </trkpt>
      <trkpt lat="48.25811147689819" lon="17.082570791244507">
        <ele>272.75</ele>
        <time>2023-06-13T16:18:57.891Z</time>
      </trkpt>
      <trkpt lat="48.25750001706183" lon="17.083171606063843">
        <ele>275.11</ele>
        <time>2023-06-13T16:19:10.893Z</time>
      </trkpt>
      <trkpt lat="48.25740337371826" lon="17.08326816558838">
        <ele>277.04</ele>
        <time>2023-06-13T16:19:23.897Z</time>
      </trkpt>
      <trkpt lat="48.25727462768555" lon="17.083300352096558">
        <ele>279.27</ele>
        <time>2023-06-13T16:19:36.904Z</time>
      </trkpt>
      <trkpt lat="48.25694211758673" lon="17.083311080932617">
        <ele>282.04</ele>
        <time>2023-06-13T16:19:49.918Z</time>
      </trkpt>
      <trkpt lat="48.25657733716071" lon="17.083375453948975">
        <ele>285.22</ele>
        <time>2023-06-13T16:20:02.939Z</time>
      </trkpt>
      <trkpt lat="48.25654515065253" lon="17.083386182785034">
        <ele>288.35</ele>
        <time>2023-06-13T16:20:15.961Z</time>
      </trkpt>
      <trkpt lat="48.25652369298041" lon="17.083396911621094">
        <ele>291.99</ele>
        <time>2023-06-13T16:20:28.983Z</time>
      </trkpt>
      <trkpt lat="48.25597643852234" lon="17.08369731903076">
        <ele>297.18</ele>
        <time>2023-06-13T16:20:42.017Z</time>
      </trkpt>
      <trkpt lat="48.25546145439148" lon="17.084083557128906">
        <ele>302.51</ele>
        <time>2023-06-13T16:20:55.062Z</time>
      </trkpt>
      <trkpt lat="48.25490355491638" lon="17.084619998931885">
        <ele>308.05</ele>
        <time>2023-06-13T16:21:08.121Z</time>
      </trkpt>
      <trkpt lat="48.25445294380188" lon="17.085156440734863">
        <ele>312.47</ele>
        <time>2023-06-13T16:21:21.191Z</time>
      </trkpt>
      <trkpt lat="48.253605365753174" lon="17.085821628570557">
        <ele>317.01</ele>
        <time>2023-06-13T16:21:34.280Z</time>
      </trkpt>
      <trkpt lat="48.253374360501766" lon="17.085951045155525">
        <ele>319.83</ele>
        <time>2023-06-13T16:21:47.374Z</time>
      </trkpt>
      <trkpt lat="48.25337209738791" lon="17.085952386260033">
        <ele>319.86</ele>
        <time>2023-06-13T16:22:00.468Z</time>
      </trkpt>
      <trkpt lat="48.25337000191212" lon="17.08595364354551">
        <ele>319.89</ele>
        <time>2023-06-13T16:22:13.562Z</time>
      </trkpt>
      <trkpt lat="48.253367990255356" lon="17.085954817011952">
        <ele>319.92</ele>
        <time>2023-06-13T16:22:26.656Z</time>
      </trkpt>
      <trkpt lat="48.25336564332247" lon="17.08595615811646">
        <ele>319.95</ele>
        <time>2023-06-13T16:22:39.750Z</time>
      </trkpt>
      <trkpt lat="48.252553939819336" lon="17.086411714553833">
        <ele>327.72</ele>
        <time>2023-06-13T16:22:52.862Z</time>
      </trkpt>
      <trkpt lat="48.25228571891785" lon="17.08650827407837">
        <ele>329.51</ele>
        <time>2023-06-13T16:23:05.979Z</time>
      </trkpt>
      <trkpt lat="48.25222142972052" lon="17.08650827407837">
        <ele>330.9</ele>
        <time>2023-06-13T16:23:19.098Z</time>
      </trkpt>
      <trkpt lat="48.252060413360596" lon="17.08648681640625">
        <ele>332.23</ele>
        <time>2023-06-13T16:23:32.220Z</time>
      </trkpt>
      <trkpt lat="48.251835107803345" lon="17.086336612701416">
        <ele>333.42</ele>
        <time>2023-06-13T16:23:45.347Z</time>
      </trkpt>
      <trkpt lat="48.2512451056391" lon="17.08572506904602">
        <ele>335.18</ele>
        <time>2023-06-13T16:23:58.488Z</time>
      </trkpt>
      <trkpt lat="48.25103052891791" lon="17.08551049232483">
        <ele>337.03</ele>
        <time>2023-06-13T16:24:11.634Z</time>
      </trkpt>
      <trkpt lat="48.250815868377686" lon="17.085285186767578">
        <ele>338.65</ele>
        <time>2023-06-13T16:24:24.786Z</time>
      </trkpt>
      <trkpt lat="48.25046190060675" lon="17.08497405052185">
        <ele>340.59</ele>
        <time>2023-06-13T16:24:37.946Z</time>
      </trkpt>
      <trkpt lat="48.24982889927924" lon="17.08446979522705">
        <ele>343.15</ele>
        <time>2023-06-13T16:24:51.120Z</time>
      </trkpt>
      <trkpt lat="48.24964642524719" lon="17.084330320358276">
        <ele>344.31</ele>
        <time>2023-06-13T16:25:04.298Z</time>
      </trkpt>
      <trkpt lat="48.2494854927063" lon="17.084126472473145">
        <ele>344.59</ele>
        <time>2023-06-13T16:25:17.480Z</time>
      </trkpt>
      <trkpt lat="48.24924945831299" lon="17.08376169204712">
        <ele>344.08</ele>
        <time>2023-06-13T16:25:30.669Z</time>
      </trkpt>
      <trkpt lat="48.24970241636038" lon="17.0824727229774">
        <ele>342.75</ele>
        <time>2023-06-13T16:25:43.878Z</time>
      </trkpt>
      <trkpt lat="48.24970266781747" lon="17.08247222006321">
        <ele>342.75</ele>
        <time>2023-06-13T16:25:57.087Z</time>
      </trkpt>
      <trkpt lat="48.24970283545554" lon="17.08247180096805">
        <ele>342.75</ele>
        <time>2023-06-13T16:26:10.296Z</time>
      </trkpt>
      <trkpt lat="48.24970291927457" lon="17.082471633329988">
        <ele>342.75</ele>
        <time>2023-06-13T16:26:23.505Z</time>
      </trkpt>
      <trkpt lat="48.249703254550695" lon="17.082470878958702">
        <ele>342.75</ele>
        <time>2023-06-13T16:26:36.714Z</time>
      </trkpt>
      <trkpt lat="48.24973225593567" lon="17.082388401031494">
        <ele>339.83</ele>
        <time>2023-06-13T16:26:49.924Z</time>
      </trkpt>
      <trkpt lat="48.249850273132324" lon="17.081540822982788">
        <ele>340.3</ele>
        <time>2023-06-13T16:27:03.146Z</time>
      </trkpt>
      <trkpt lat="48.249839544296265" lon="17.081422805786133">
        <ele>340.76</ele>
        <time>2023-06-13T16:27:16.369Z</time>
      </trkpt>
      <trkpt lat="48.249785983935" lon="17.081218957901">
        <ele>341.35</ele>
        <time>2023-06-13T16:27:29.595Z</time>
      </trkpt>
      <trkpt lat="48.24978590011597" lon="17.081218957901">
        <ele>342.01</ele>
        <time>2023-06-13T16:27:42.821Z</time>
      </trkpt>
      <trkpt lat="48.249893272295594" lon="17.08099365234375">
        <ele>343.06</ele>
        <time>2023-06-13T16:27:56.051Z</time>
      </trkpt>
      <trkpt lat="48.24989318847656" lon="17.08099365234375">
        <ele>343.98</ele>
        <time>2023-06-13T16:28:09.281Z</time>
      </trkpt>
      <trkpt lat="48.250097036361694" lon="17.080650329589844">
        <ele>345.48</ele>
        <time>2023-06-13T16:28:22.517Z</time>
      </trkpt>
      <trkpt lat="48.25041898526251" lon="17.08023190498352">
        <ele>346.85</ele>
        <time>2023-06-13T16:28:35.761Z</time>
      </trkpt>
      <trkpt lat="48.25046181678772" lon="17.080178260803223">
        <ele>347.69</ele>
        <time>2023-06-13T16:28:49.007Z</time>
      </trkpt>
      <trkpt lat="48.250826597213745" lon="17.079920768737793">
        <ele>348.36</ele>
        <time>2023-06-13T16:29:02.261Z</time>
      </trkpt>
      <trkpt lat="48.251566886901855" lon="17.079062461853027">
        <ele>348.91</ele>
        <time>2023-06-13T16:29:15.533Z</time>
      </trkpt>
      <trkpt lat="48.25172790326178" lon="17.078826427459717">
        <ele>349.77</ele>
        <time>2023-06-13T16:29:28.810Z</time>
      </trkpt>
      <trkpt lat="48.25203065760434" lon="17.07839702256024">
        <ele>351.13</ele>
        <time>2023-06-13T16:29:42.095Z</time>
      </trkpt>
      <trkpt lat="48.25203216634691" lon="17.078395010903478">
        <ele>351.14</ele>
        <time>2023-06-13T16:29:55.380Z</time>
      </trkpt>
      <trkpt lat="48.25203359127045" lon="17.078393083065748">
        <ele>351.15</ele>
        <time>2023-06-13T16:30:08.665Z</time>
      </trkpt>
      <trkpt lat="48.252034932374954" lon="17.07839123904705">
        <ele>351.16</ele>
        <time>2023-06-13T16:30:21.950Z</time>
      </trkpt>
      <trkpt lat="48.25203652493656" lon="17.078389059752226">
        <ele>351.17</ele>
        <time>2023-06-13T16:30:35.235Z</time>
      </trkpt>
      <trkpt lat="48.252114141359925" lon="17.07827925682068">
        <ele>353.82</ele>
        <time>2023-06-13T16:30:48.522Z</time>
      </trkpt>
      <trkpt lat="48.25328358449042" lon="17.076605558395386">
        <ele>355.09</ele>
        <time>2023-06-13T16:31:01.842Z</time>
      </trkpt>
      <trkpt lat="48.2534122467041" lon="17.076369524002075">
        <ele>355.99</ele>
        <time>2023-06-13T16:31:15.166Z</time>
      </trkpt>
      <trkpt lat="48.25353026390076" lon="17.076197862625122">
        <ele>356.47</ele>
        <time>2023-06-13T16:31:28.493Z</time>
      </trkpt>
      <trkpt lat="48.25365900993347" lon="17.07603693008423">
        <ele>356.62</ele>
        <time>2023-06-13T16:31:41.824Z</time>
      </trkpt>
      <trkpt lat="48.253862941637635" lon="17.075833082199097">
        <ele>356.42</ele>
        <time>2023-06-13T16:31:55.159Z</time>
      </trkpt>
      <trkpt lat="48.25399168767035" lon="17.075682878494263">
        <ele>356.47</ele>
        <time>2023-06-13T16:32:08.498Z</time>
      </trkpt>
      <trkpt lat="48.25403460301459" lon="17.075639963150024">
        <ele>356.59</ele>
        <time>2023-06-13T16:32:21.838Z</time>
      </trkpt>
      <trkpt lat="48.25418472290039" lon="17.07550048828125">
        <ele>356.85</ele>
        <time>2023-06-13T16:32:35.181Z</time>
      </trkpt>
      <trkpt lat="48.25425990857184" lon="17.07547903060913">
        <ele>357.17</ele>
        <time>2023-06-13T16:32:48.526Z</time>
      </trkpt>
      <trkpt lat="48.25439929962158" lon="17.07545757293701">
        <ele>357.57</ele>
        <time>2023-06-13T16:33:01.874Z</time>
      </trkpt>
      <trkpt lat="48.25450658798218" lon="17.075393199920654">
        <ele>357.97</ele>
        <time>2023-06-13T16:33:15.224Z</time>
      </trkpt>
      <trkpt lat="48.25463533401489" lon="17.075307369232178">
        <ele>358.33</ele>
        <time>2023-06-13T16:33:28.577Z</time>
      </trkpt>
      <trkpt lat="48.25475335121155" lon="17.075200080871582">
        <ele>358.45</ele>
        <time>2023-06-13T16:33:41.933Z</time>
      </trkpt>
      <trkpt lat="48.25488209724426" lon="17.075124979019165">
        <ele>358.36</ele>
        <time>2023-06-13T16:33:55.291Z</time>
      </trkpt>
      <trkpt lat="48.25513958930969" lon="17.07499623298645">
        <ele>357.87</ele>
        <time>2023-06-13T16:34:08.655Z</time>
      </trkpt>
      <trkpt lat="48.255289793014526" lon="17.074953317642212">
        <ele>357.25</ele>
        <time>2023-06-13T16:34:22.022Z</time>
      </trkpt>
      <trkpt lat="48.255375623703" lon="17.074899673461914">
        <ele>356.47</ele>
        <time>2023-06-13T16:34:35.391Z</time>
      </trkpt>
      <trkpt lat="48.25562238693237" lon="17.07448124885559">
        <ele>355.34</ele>
        <time>2023-06-13T16:34:48.767Z</time>
      </trkpt>
      <trkpt lat="48.25576186180115" lon="17.07427740097046">
        <ele>354.22</ele>
        <time>2023-06-13T16:35:02.147Z</time>
      </trkpt>
      <trkpt lat="48.25603008270264" lon="17.073934078216553">
        <ele>353.2</ele>
        <time>2023-06-13T16:35:15.534Z</time>
      </trkpt>
      <trkpt lat="48.25620174407959" lon="17.07375168800354">
        <ele>351.82</ele>
        <time>2023-06-13T16:35:28.925Z</time>
      </trkpt>
      <trkpt lat="48.2564377784729" lon="17.073429822921753">
        <ele>350.1</ele>
        <time>2023-06-13T16:35:42.323Z</time>
      </trkpt>
      <trkpt lat="48.25655587948859" lon="17.07321524620056">
        <ele>348.7</ele>
        <time>2023-06-13T16:35:55.724Z</time>
      </trkpt>
      <trkpt lat="48.256555795669556" lon="17.07321524620056">
        <ele>347.49</ele>
        <time>2023-06-13T16:36:09.125Z</time>
      </trkpt>
      <trkpt lat="48.25672745704651" lon="17.072560787200928">
        <ele>345.93</ele>
        <time>2023-06-13T16:36:22.536Z</time>
      </trkpt>
      <trkpt lat="48.256824016571045" lon="17.072303295135498">
        <ele>344.94</ele>
        <time>2023-06-13T16:36:35.951Z</time>
      </trkpt>
      <trkpt lat="48.25702786445618" lon="17.07202434539795">
        <ele>344.09</ele>
        <time>2023-06-13T16:36:49.371Z</time>
      </trkpt>
      <trkpt lat="48.25718879699707" lon="17.071852684020996">
        <ele>343.12</ele>
        <time>2023-06-13T16:37:02.795Z</time>
      </trkpt>
      <trkpt lat="48.257296085357666" lon="17.071702480316162">
        <ele>342.18</ele>
        <time>2023-06-13T16:37:16.222Z</time>
      </trkpt>
      <trkpt lat="48.2573926448822" lon="17.07148790359497">
        <ele>341.44</ele>
        <time>2023-06-13T16:37:29.653Z</time>
      </trkpt>
      <trkpt lat="48.257420640438795" lon="17.0714380312711">
        <ele>340.98</ele>
        <time>2023-06-13T16:37:43.085Z</time>
      </trkpt>
      <trkpt lat="48.2574222330004" lon="17.071435265243053">
        <ele>340.96</ele>
        <time>2023-06-13T16:37:56.517Z</time>
      </trkpt>
      <trkpt lat="48.257423825562" lon="17.07143258303404">
        <ele>340.94</ele>
        <time>2023-06-13T16:38:09.949Z</time>
      </trkpt>
      <trkpt lat="48.25742533430457" lon="17.071429984644055">
        <ele>340.92</ele>
        <time>2023-06-13T16:38:23.381Z</time>
      </trkpt>
      <trkpt lat="48.257427010685205" lon="17.071427050977945">
        <ele>340.9</ele>
        <time>2023-06-13T16:38:36.813Z</time>
      </trkpt>
      <trkpt lat="48.25762867927551" lon="17.071069478988647">
        <ele>337.86</ele>
        <time>2023-06-13T16:38:50.251Z</time>
      </trkpt>
      <trkpt lat="48.257843255996704" lon="17.070640325546265">
        <ele>336.56</ele>
        <time>2023-06-13T16:39:03.696Z</time>
      </trkpt>
      <trkpt lat="48.25831540860236" lon="17.069610357284546">
        <ele>334.87</ele>
        <time>2023-06-13T16:39:17.158Z</time>
      </trkpt>
      <trkpt lat="48.25844407081604" lon="17.069363594055176">
        <ele>333.56</ele>
        <time>2023-06-13T16:39:30.624Z</time>
      </trkpt>
      <trkpt lat="48.25873383320868" lon="17.068923711776733">
        <ele>332.4</ele>
        <time>2023-06-13T16:39:44.098Z</time>
      </trkpt>
      <trkpt lat="48.25900197029114" lon="17.068687677383423">
        <ele>331.39</ele>
        <time>2023-06-13T16:39:57.579Z</time>
      </trkpt>
      <trkpt lat="48.259795904159546" lon="17.06751823425293">
        <ele>330.62</ele>
        <time>2023-06-13T16:40:11.082Z</time>
      </trkpt>
      <trkpt lat="48.260064125061035" lon="17.06723928451538">
        <ele>329.77</ele>
        <time>2023-06-13T16:40:24.591Z</time>
      </trkpt>
      <trkpt lat="48.260589838027954" lon="17.06674575805664">
        <ele>328.99</ele>
        <time>2023-06-13T16:40:38.113Z</time>
      </trkpt>
      <trkpt lat="48.260868871584535" lon="17.066370248794556">
        <ele>327.89</ele>
        <time>2023-06-13T16:40:51.642Z</time>
      </trkpt>
      <trkpt lat="48.2608687877655" lon="17.066370248794556">
        <ele>327.22</ele>
        <time>2023-06-13T16:41:05.171Z</time>
      </trkpt>
      <trkpt lat="48.26101899147034" lon="17.066155672073364">
        <ele>326.17</ele>
        <time>2023-06-13T16:41:18.704Z</time>
      </trkpt>
      <trkpt lat="48.26169490814209" lon="17.06552267074585">
        <ele>325.42</ele>
        <time>2023-06-13T16:41:32.253Z</time>
      </trkpt>
      <trkpt lat="48.26197394169867" lon="17.065361738204956">
        <ele>325.2</ele>
        <time>2023-06-13T16:41:45.808Z</time>
      </trkpt>
      <trkpt lat="48.262349367141724" lon="17.065157890319824">
        <ele>325.13</ele>
        <time>2023-06-13T16:41:59.371Z</time>
      </trkpt>
      <trkpt lat="48.26266050338745" lon="17.064900398254395">
        <ele>325.24</ele>
        <time>2023-06-13T16:42:12.941Z</time>
      </trkpt>
      <trkpt lat="48.26292872428894" lon="17.064718008041382">
        <ele>325.49</ele>
        <time>2023-06-13T16:42:26.517Z</time>
      </trkpt>
      <trkpt lat="48.26316475868225" lon="17.064621448516846">
        <ele>325.71</ele>
        <time>2023-06-13T16:42:40.098Z</time>
      </trkpt>
      <trkpt lat="48.26336860656738" lon="17.064567804336548">
        <ele>325.87</ele>
        <time>2023-06-13T16:42:53.683Z</time>
      </trkpt>
      <trkpt lat="48.263561725616455" lon="17.064589262008667">
        <ele>325.98</ele>
        <time>2023-06-13T16:43:07.272Z</time>
      </trkpt>
      <trkpt lat="48.26372265815735" lon="17.064567804336548">
        <ele>326.04</ele>
        <time>2023-06-13T16:43:20.865Z</time>
      </trkpt>
      <trkpt lat="48.263840675354004" lon="17.064460515975952">
        <ele>325.94</ele>
        <time>2023-06-13T16:43:34.460Z</time>
      </trkpt>
      <trkpt lat="48.26395869255066" lon="17.064331769943237">
        <ele>325.81</ele>
        <time>2023-06-13T16:43:48.058Z</time>
      </trkpt>
      <trkpt lat="48.26416254043579" lon="17.06403136253357">
        <ele>325.6</ele>
        <time>2023-06-13T16:44:01.662Z</time>
      </trkpt>
      <trkpt lat="48.264806270599365" lon="17.063634395599365">
        <ele>325.28</ele>
        <time>2023-06-13T16:44:15.280Z</time>
      </trkpt>
      <trkpt lat="48.26510667800903" lon="17.063355445861816">
        <ele>324.92</ele>
        <time>2023-06-13T16:44:28.905Z</time>
      </trkpt>
      <trkpt lat="48.26529988087714" lon="17.0632266998291">
        <ele>324.57</ele>
        <time>2023-06-13T16:44:42.534Z</time>
      </trkpt>
      <trkpt lat="48.26572895050049" lon="17.063065767288208">
        <ele>324.06</ele>
        <time>2023-06-13T16:44:56.172Z</time>
      </trkpt>
      <trkpt lat="48.265814781188965" lon="17.06301212310791">
        <ele>323.46</ele>
        <time>2023-06-13T16:45:09.812Z</time>
      </trkpt>
      <trkpt lat="48.26597579754889" lon="17.062829732894897">
        <ele>322.62</ele>
        <time>2023-06-13T16:45:23.456Z</time>
      </trkpt>
      <trkpt lat="48.26617956161499" lon="17.062711715698242">
        <ele>321.62</ele>
        <time>2023-06-13T16:45:37.104Z</time>
      </trkpt>
      <trkpt lat="48.26627620495856" lon="17.062711715698242">
        <ele>320.69</ele>
        <time>2023-06-13T16:45:50.754Z</time>
      </trkpt>
      <trkpt lat="48.266340494155884" lon="17.062711715698242">
        <ele>319.68</ele>
        <time>2023-06-13T16:46:04.406Z</time>
      </trkpt>
      <trkpt lat="48.26650142669678" lon="17.0627760887146">
        <ele>318.54</ele>
        <time>2023-06-13T16:46:18.061Z</time>
      </trkpt>
      <trkpt lat="48.26665163040161" lon="17.062883377075195">
        <ele>317.36</ele>
        <time>2023-06-13T16:46:31.719Z</time>
      </trkpt>
      <trkpt lat="48.266844833269715" lon="17.062947750091553">
        <ele>316.06</ele>
        <time>2023-06-13T16:46:45.381Z</time>
      </trkpt>
      <trkpt lat="48.267080867663026" lon="17.06297993659973">
        <ele>314.8</ele>
        <time>2023-06-13T16:46:59.048Z</time>
      </trkpt>
      <trkpt lat="48.267628038302064" lon="17.063151597976685">
        <ele>313.34</ele>
        <time>2023-06-13T16:47:12.726Z</time>
      </trkpt>
      <trkpt lat="48.26788544654846" lon="17.063194513320923">
        <ele>311.88</ele>
        <time>2023-06-13T16:47:26.409Z</time>
      </trkpt>
      <trkpt lat="48.26819666661322" lon="17.063097953796387">
        <ele>310.57</ele>
        <time>2023-06-13T16:47:40.099Z</time>
      </trkpt>
      <trkpt lat="48.26819658279419" lon="17.063097953796387">
        <ele>309.84</ele>
        <time>2023-06-13T16:47:53.789Z</time>
      </trkpt>
      <trkpt lat="48.268314599990845" lon="17.063065767288208">
        <ele>309.19</ele>
        <time>2023-06-13T16:48:07.481Z</time>
      </trkpt>
      <trkpt lat="48.26875448226929" lon="17.06279754638672">
        <ele>309.02</ele>
        <time>2023-06-13T16:48:21.183Z</time>
      </trkpt>
      <trkpt lat="48.269033432006836" lon="17.0627760887146">
        <ele>308.52</ele>
        <time>2023-06-13T16:48:34.890Z</time>
      </trkpt>
      <trkpt lat="48.26920509338379" lon="17.0627224445343">
        <ele>308.2</ele>
        <time>2023-06-13T16:48:48.601Z</time>
      </trkpt>
      <trkpt lat="48.26940894126892" lon="17.06254005432129">
        <ele>308.01</ele>
        <time>2023-06-13T16:49:02.316Z</time>
      </trkpt>
      <trkpt lat="48.26953056268394" lon="17.062377529218793">
        <ele>307.75</ele>
        <time>2023-06-13T16:49:16.035Z</time>
      </trkpt>
      <trkpt lat="48.269532322883606" lon="17.062375266104937">
        <ele>307.75</ele>
        <time>2023-06-13T16:49:29.754Z</time>
      </trkpt>
      <trkpt lat="48.26953408308327" lon="17.06237300299108">
        <ele>307.75</ele>
        <time>2023-06-13T16:49:43.473Z</time>
      </trkpt>
      <trkpt lat="48.269535759463906" lon="17.062370907515287">
        <ele>307.75</ele>
        <time>2023-06-13T16:49:57.192Z</time>
      </trkpt>
      <trkpt lat="48.269537687301636" lon="17.062368392944336">
        <ele>309.48</ele>
        <time>2023-06-13T16:50:10.911Z</time>
      </trkpt>
      <trkpt lat="48.26953777112067" lon="17.062368392944336">
        <ele>309.12</ele>
        <time>2023-06-13T16:50:24.630Z</time>
      </trkpt>
      <trkpt lat="48.26965570449829" lon="17.062186002731323">
        <ele>308.61</ele>
        <time>2023-06-13T16:50:38.352Z</time>
      </trkpt>
      <trkpt lat="48.26975226402283" lon="17.06200361251831">
        <ele>307.86</ele>
        <time>2023-06-13T16:50:52.077Z</time>
      </trkpt>
      <trkpt lat="48.2698919903487" lon="17.06164344213903">
        <ele>306.89</ele>
        <time>2023-06-13T16:51:05.808Z</time>
      </trkpt>
      <trkpt lat="48.27003129757941" lon="17.06128478050232">
        <ele>305.68</ele>
        <time>2023-06-13T16:51:19.544Z</time>
      </trkpt>
      <trkpt lat="48.270031213760376" lon="17.06128478050232">
        <ele>304.65</ele>
        <time>2023-06-13T16:51:33.280Z</time>
      </trkpt>
      <trkpt lat="48.27015995979309" lon="17.060855627059937">
        <ele>303.5</ele>
        <time>2023-06-13T16:51:47.023Z</time>
      </trkpt>
      <trkpt lat="48.27030119486153" lon="17.06048548221588">
        <ele>302.23</ele>
        <time>2023-06-13T16:52:00.771Z</time>
      </trkpt>
      <trkpt lat="48.270442513749" lon="17.060115421190858">
        <ele>300.91</ele>
        <time>2023-06-13T16:52:14.525Z</time>
      </trkpt>
      <trkpt lat="48.270583748817444" lon="17.059745276346803">
        <ele>299.16</ele>
        <time>2023-06-13T16:52:28.285Z</time>
      </trkpt>
      <trkpt lat="48.270725067704916" lon="17.05937521532178">
        <ele>297.36</ele>
        <time>2023-06-13T16:52:42.051Z</time>
      </trkpt>
      <trkpt lat="48.27086638659239" lon="17.059005070477724">
        <ele>295.91</ele>
        <time>2023-06-13T16:52:55.822Z</time>
      </trkpt>
      <trkpt lat="48.27100762166083" lon="17.0586350094527">
        <ele>294.64</ele>
        <time>2023-06-13T16:53:09.599Z</time>
      </trkpt>
      <trkpt lat="48.27114701271057" lon="17.05826997756958">
        <ele>293.43</ele>
        <time>2023-06-13T16:53:23.382Z</time>
      </trkpt>
      <trkpt lat="48.27127601020038" lon="17.05790444277227">
        <ele>292.52</ele>
        <time>2023-06-13T16:53:37.170Z</time>
      </trkpt>
      <trkpt lat="48.27140500769019" lon="17.05753890797496">
        <ele>291.27</ele>
        <time>2023-06-13T16:53:50.964Z</time>
      </trkpt>
      <trkpt lat="48.271533250808716" lon="17.057175636291504">
        <ele>289.75</ele>
        <time>2023-06-13T16:54:04.763Z</time>
      </trkpt>
      <trkpt lat="48.271635342389345" lon="17.056966004893184">
        <ele>288.33</ele>
        <time>2023-06-13T16:54:18.566Z</time>
      </trkpt>
      <trkpt lat="48.27173709869385" lon="17.05675721168518">
        <ele>286.88</ele>
        <time>2023-06-13T16:54:32.372Z</time>
      </trkpt>
      <trkpt lat="48.27189811505377" lon="17.05651044845581">
        <ele>285.5</ele>
        <time>2023-06-13T16:54:46.183Z</time>
      </trkpt>
      <trkpt lat="48.27198386192322" lon="17.056381702423096">
        <ele>284.12</ele>
        <time>2023-06-13T16:54:59.996Z</time>
      </trkpt>
      <trkpt lat="48.27206986024976" lon="17.056145165115595">
        <ele>282.97</ele>
        <time>2023-06-13T16:55:13.813Z</time>
      </trkpt>
      <trkpt lat="48.2721556071192" lon="17.055909633636475">
        <ele>282.0</ele>
        <time>2023-06-13T16:55:27.633Z</time>
      </trkpt>
      <trkpt lat="48.27232751995325" lon="17.055528005585074">
        <ele>280.73</ele>
        <time>2023-06-13T16:55:41.459Z</time>
      </trkpt>
      <trkpt lat="48.27249884605408" lon="17.055147886276245">
        <ele>279.89</ele>
        <time>2023-06-13T16:55:55.291Z</time>
      </trkpt>
      <trkpt lat="48.272574031725526" lon="17.054932806640863">
        <ele>279.36</ele>
        <time>2023-06-13T16:56:09.127Z</time>
      </trkpt>
      <trkpt lat="48.27264904975891" lon="17.054718732833862">
        <ele>279.08</ele>
        <time>2023-06-13T16:56:22.966Z</time>
      </trkpt>
      <trkpt lat="48.272675201296806" lon="17.054614881053567">
        <ele>278.94</ele>
        <time>2023-06-13T16:56:36.806Z</time>
      </trkpt>
      <trkpt lat="48.272676123306155" lon="17.0546115282923">
        <ele>278.94</ele>
        <time>2023-06-13T16:56:50.647Z</time>
      </trkpt>
      <trkpt lat="48.27267696149647" lon="17.054608343169093">
        <ele>278.94</ele>
        <time>2023-06-13T16:57:04.488Z</time>
      </trkpt>
      <trkpt lat="48.27267779968679" lon="17.05460532568395">
        <ele>278.94</ele>
        <time>2023-06-13T16:57:18.329Z</time>
      </trkpt>
      <trkpt lat="48.272754745557904" lon="17.05430190078914">
        <ele>279.97</ele>
        <time>2023-06-13T16:57:32.174Z</time>
      </trkpt>
      <trkpt lat="48.272831439971924" lon="17.05399990081787">
        <ele>279.63</ele>
        <time>2023-06-13T16:57:46.023Z</time>
      </trkpt>
      <trkpt lat="48.27294954098761" lon="17.053624391555786">
        <ele>279.08</ele>
        <time>2023-06-13T16:57:59.878Z</time>
      </trkpt>
      <trkpt lat="48.27301391400397" lon="17.053399085998535">
        <ele>278.35</ele>
        <time>2023-06-13T16:58:13.736Z</time>
      </trkpt>
      <trkpt lat="48.273078203201294" lon="17.053098678588867">
        <ele>277.47</ele>
        <time>2023-06-13T16:58:27.598Z</time>
      </trkpt>
      <trkpt lat="48.27310502529144" lon="17.05264144577086">
        <ele>276.47</ele>
        <time>2023-06-13T16:58:41.466Z</time>
      </trkpt>
      <trkpt lat="48.27313184738159" lon="17.052186727523804">
        <ele>275.39</ele>
        <time>2023-06-13T16:58:55.341Z</time>
      </trkpt>
      <trkpt lat="48.27318549156189" lon="17.05199360847473">
        <ele>274.46</ele>
        <time>2023-06-13T16:59:09.218Z</time>
      </trkpt>
      <trkpt lat="48.27326059341431" lon="17.051843404769897">
        <ele>273.69</ele>
        <time>2023-06-13T16:59:23.098Z</time>
      </trkpt>
      <trkpt lat="48.273265957832336" lon="17.051606699824333">
        <ele>272.62</ele>
        <time>2023-06-13T16:59:36.981Z</time>
      </trkpt>
      <trkpt lat="48.273271322250366" lon="17.051371335983276">
        <ele>271.72</ele>
        <time>2023-06-13T16:59:50.867Z</time>
      </trkpt>
      <trkpt lat="48.27328649349511" lon="17.051124908030033">
        <ele>271.02</ele>
        <time>2023-06-13T17:00:04.756Z</time>
      </trkpt>
      <trkpt lat="48.2732867449522" lon="17.05112180672586">
        <ele>271.01</ele>
        <time>2023-06-13T17:00:18.645Z</time>
      </trkpt>
      <trkpt lat="48.2732869964093" lon="17.051118789240718">
        <ele>271.0</ele>
        <time>2023-06-13T17:00:32.535Z</time>
      </trkpt>
      <trkpt lat="48.27357793226838" lon="17.05129866488278">
        <ele>271.72</ele>
        <time>2023-06-13T17:00:46.431Z</time>
      </trkpt>
      <trkpt lat="48.273868868127465" lon="17.051478624343872">
        <ele>271.99</ele>
        <time>2023-06-13T17:01:00.333Z</time>
      </trkpt>
      <trkpt lat="48.27402024529874" lon="17.051572166383266">
        <ele>271.85</ele>
        <time>2023-06-13T17:01:14.238Z</time>
      </trkpt>
      <trkpt lat="48.27402259223163" lon="17.051573675125837">
        <ele>271.85</ele>
        <time>2023-06-13T17:01:28.143Z</time>
      </trkpt>
      <trkpt lat="48.27402493916452" lon="17.051575183868408">
        <ele>271.85</ele>
        <time>2023-06-13T17:01:42.048Z</time>
      </trkpt>
      <trkpt lat="48.27428871765733" lon="17.051318027079105">
        <ele>267.12</ele>
        <time>2023-06-13T17:01:55.960Z</time>
      </trkpt>
      <trkpt lat="48.27455257996917" lon="17.051060870289803">
        <ele>264.25</ele>
        <time>2023-06-13T17:02:09.878Z</time>
      </trkpt>
      <trkpt lat="48.27481644228101" lon="17.0508037135005">
        <ele>261.56</ele>
        <time>2023-06-13T17:02:23.802Z</time>
      </trkpt>
      <trkpt lat="48.27507762238383" lon="17.05054907128215">
        <ele>259.27</ele>
        <time>2023-06-13T17:02:37.733Z</time>
      </trkpt>
      <trkpt lat="48.275079717859626" lon="17.05054714344442">
        <ele>259.26</ele>
        <time>2023-06-13T17:02:51.664Z</time>
      </trkpt>
      <trkpt lat="48.27508030459285" lon="17.05054664053023">
        <ele>259.26</ele>
        <time>2023-06-13T17:03:05.595Z</time>
      </trkpt>
      <trkpt lat="48.27508172951639" lon="17.050545131787658">
        <ele>258.12</ele>
        <time>2023-06-13T17:03:19.526Z</time>
      </trkpt>
      <trkpt lat="48.275304017588496" lon="17.050211280584335">
        <ele>256.28</ele>
        <time>2023-06-13T17:03:33.463Z</time>
      </trkpt>
      <trkpt lat="48.275526221841574" lon="17.04987734556198">
        <ele>255.79</ele>
        <time>2023-06-13T17:03:47.406Z</time>
      </trkpt>
      <trkpt lat="48.27574842609465" lon="17.049543410539627">
        <ele>255.32</ele>
        <time>2023-06-13T17:04:01.356Z</time>
      </trkpt>
      <trkpt lat="48.27579201199114" lon="17.049477696418762">
        <ele>255.09</ele>
        <time>2023-06-13T17:04:15.307Z</time>
      </trkpt>
      <trkpt lat="48.27579393982887" lon="17.049474930390716">
        <ele>255.09</ele>
        <time>2023-06-13T17:04:29.258Z</time>
      </trkpt>
      <trkpt lat="48.27579578384757" lon="17.0494722481817">
        <ele>255.09</ele>
        <time>2023-06-13T17:04:43.209Z</time>
      </trkpt>
      <trkpt lat="48.276069620624185" lon="17.04970484599471">
        <ele>247.59</ele>
        <time>2023-06-13T17:04:57.166Z</time>
      </trkpt>
      <trkpt lat="48.2763434574008" lon="17.04993735998869">
        <ele>243.25</ele>
        <time>2023-06-13T17:05:11.130Z</time>
      </trkpt>
      <trkpt lat="48.27644797973335" lon="17.050026208162308">
        <ele>240.37</ele>
        <time>2023-06-13T17:05:25.096Z</time>
      </trkpt>
      <trkpt lat="48.276450326666236" lon="17.05002821981907">
        <ele>240.31</ele>
        <time>2023-06-13T17:05:39.062Z</time>
      </trkpt>
      <trkpt lat="48.276452757418156" lon="17.05003023147583">
        <ele>240.25</ele>
        <time>2023-06-13T17:05:53.028Z</time>
      </trkpt>
      <trkpt lat="48.27673690393567" lon="17.050232822075486">
        <ele>227.77</ele>
        <time>2023-06-13T17:06:07.000Z</time>
      </trkpt>
      <trkpt lat="48.27702113427222" lon="17.050435496494174">
        <ele>221.71</ele>
        <time>2023-06-13T17:06:20.979Z</time>
      </trkpt>
      <trkpt lat="48.27729036100209" lon="17.050627525895834">
        <ele>217.12</ele>
        <time>2023-06-13T17:06:34.964Z</time>
      </trkpt>
      <trkpt lat="48.27729279175401" lon="17.0506292860955">
        <ele>217.08</ele>
        <time>2023-06-13T17:06:48.949Z</time>
      </trkpt>
      <trkpt lat="48.27729530632496" lon="17.050631046295166">
        <ele>217.04</ele>
        <time>2023-06-13T17:07:02.934Z</time>
      </trkpt>
      <trkpt lat="48.27760954387486" lon="17.050657952204347">
        <ele>206.28</ele>
        <time>2023-06-13T17:07:16.925Z</time>
      </trkpt>
      <trkpt lat="48.27792378142476" lon="17.05068494193256">
        <ele>203.69</ele>
        <time>2023-06-13T17:07:30.922Z</time>
      </trkpt>
      <trkpt lat="48.27823801897466" lon="17.05071193166077">
        <ele>202.14</ele>
        <time>2023-06-13T17:07:44.926Z</time>
      </trkpt>
      <trkpt lat="48.27828914858401" lon="17.05071629025042">
        <ele>201.05</ele>
        <time>2023-06-13T17:07:58.931Z</time>
      </trkpt>
      <trkpt lat="48.27829208225012" lon="17.050716625526547">
        <ele>200.99</ele>
        <time>2023-06-13T17:08:12.936Z</time>
      </trkpt>
      <trkpt lat="48.2782949320972" lon="17.050716876983643">
        <ele>200.94</ele>
        <time>2023-06-13T17:08:26.941Z</time>
      </trkpt>
      <trkpt lat="48.27860212884843" lon="17.05081938765943">
        <ele>200.23</ele>
        <time>2023-06-13T17:08:40.952Z</time>
      </trkpt>
      <trkpt lat="48.27867479994893" lon="17.050843611359596">
        <ele>200.1</ele>
        <time>2023-06-13T17:08:54.965Z</time>
      </trkpt>
      <trkpt lat="48.27867764979601" lon="17.050844617187977">
        <ele>200.1</ele>
        <time>2023-06-13T17:09:08.978Z</time>
      </trkpt>
      <trkpt lat="48.27868049964309" lon="17.050845623016357">
        <ele>200.1</ele>
        <time>2023-06-13T17:09:22.991Z</time>
      </trkpt>
      <trkpt lat="48.278967747464776" lon="17.05065267160535">
        <ele>198.54</ele>
        <time>2023-06-13T17:09:37.010Z</time>
      </trkpt>
      <trkpt lat="48.279058104380965" lon="17.050591818988323">
        <ele>198.07</ele>
        <time>2023-06-13T17:09:51.031Z</time>
      </trkpt>
      <trkpt lat="48.27906078658998" lon="17.050590058788657">
        <ele>198.06</ele>
        <time>2023-06-13T17:10:05.052Z</time>
      </trkpt>
      <trkpt lat="48.27906355261803" lon="17.05058829858899">
        <ele>198.05</ele>
        <time>2023-06-13T17:10:19.073Z</time>
      </trkpt>
      <trkpt lat="48.27906606718898" lon="17.050588130950928">
        <ele>194.68</ele>
        <time>2023-06-13T17:10:33.094Z</time>
      </trkpt>
      <trkpt lat="48.27903832308948" lon="17.050118409097195">
        <ele>197.15</ele>
        <time>2023-06-13T17:10:47.121Z</time>
      </trkpt>
      <trkpt lat="48.27901049517095" lon="17.04964868724346">
        <ele>196.26</ele>
        <time>2023-06-13T17:11:01.155Z</time>
      </trkpt>
      <trkpt lat="48.27898275107145" lon="17.04917896538973">
        <ele>195.27</ele>
        <time>2023-06-13T17:11:15.195Z</time>
      </trkpt>
      <trkpt lat="48.27895810827613" lon="17.048763893544674">
        <ele>194.54</ele>
        <time>2023-06-13T17:11:29.241Z</time>
      </trkpt>
    </trkseg>
  </trk>
</gpx>
